<?xml version="1.0" encoding="UTF-8" standalone="no" ?>
<gpx xmlns="http://www.topografix.com/GPX/1/1" xmlns:xsi="http://www.w3.org/2001/XMLSchema-instance" xsi:schemaLocation="http://www.topografix.com/GPX/1/1 http://www.topografix.com/GPX/1/1/gpx.xsd" version="1.1" creator="VisuGPX - https://www.visugpx.com">
  <metadata>
    <name>Randonnée Les Authieux</name>
    <desc><![CDATA[Circuit au départ de l'église des Authieux en passant par Igoville]]></desc>
  </metadata>
  <trk>
    <name><![CDATA[Randonnée Les Authieux_1]]></name>
    <trkseg>
      <trkpt lat="49.34112" lon="1.13216">
        <ele>83</ele>
        <time>2017-01-03T13:52:29Z</time>
      </trkpt>
      <trkpt lat="49.34109" lon="1.1322">
        <ele>83</ele>
        <time>2017-01-03T13:52:29Z</time>
      </trkpt>
      <trkpt lat="49.34105" lon="1.13226">
        <ele>83</ele>
        <time>2017-01-03T13:52:29Z</time>
      </trkpt>
      <trkpt lat="49.34103" lon="1.13231">
        <ele>83</ele>
        <time>2017-01-03T13:52:29Z</time>
      </trkpt>
      <trkpt lat="49.341" lon="1.13239">
        <ele>83</ele>
        <time>2017-01-03T13:52:29Z</time>
      </trkpt>
      <trkpt lat="49.341" lon="1.13248">
        <ele>83</ele>
        <time>2017-01-03T13:52:45Z</time>
      </trkpt>
      <trkpt lat="49.34101" lon="1.13256">
        <ele>83</ele>
        <time>2017-01-03T13:52:45Z</time>
      </trkpt>
      <trkpt lat="49.34101" lon="1.13263">
        <ele>83</ele>
        <time>2017-01-03T13:52:45Z</time>
      </trkpt>
      <trkpt lat="49.34101" lon="1.1327">
        <ele>83</ele>
        <time>2017-01-03T13:52:45Z</time>
      </trkpt>
      <trkpt lat="49.34101" lon="1.13279">
        <ele>83</ele>
        <time>2017-01-03T13:53:01Z</time>
      </trkpt>
      <trkpt lat="49.34103" lon="1.13286">
        <ele>83</ele>
        <time>2017-01-03T13:53:01Z</time>
      </trkpt>
      <trkpt lat="49.34103" lon="1.13294">
        <ele>84</ele>
        <time>2017-01-03T13:53:01Z</time>
      </trkpt>
      <trkpt lat="49.34103" lon="1.13301">
        <ele>84</ele>
        <time>2017-01-03T13:53:01Z</time>
      </trkpt>
      <trkpt lat="49.34104" lon="1.13308">
        <ele>84</ele>
        <time>2017-01-03T13:53:17Z</time>
      </trkpt>
      <trkpt lat="49.34106" lon="1.13314">
        <ele>84</ele>
        <time>2017-01-03T13:53:17Z</time>
      </trkpt>
      <trkpt lat="49.34106" lon="1.13322">
        <ele>84</ele>
        <time>2017-01-03T13:53:17Z</time>
      </trkpt>
      <trkpt lat="49.34107" lon="1.13329">
        <ele>84</ele>
        <time>2017-01-03T13:53:17Z</time>
      </trkpt>
      <trkpt lat="49.34107" lon="1.13336">
        <ele>84</ele>
        <time>2017-01-03T13:53:33Z</time>
      </trkpt>
      <trkpt lat="49.34108" lon="1.13343">
        <ele>84</ele>
        <time>2017-01-03T13:53:33Z</time>
      </trkpt>
      <trkpt lat="49.34109" lon="1.13348">
        <ele>84</ele>
        <time>2017-01-03T13:53:33Z</time>
      </trkpt>
      <trkpt lat="49.34111" lon="1.13355">
        <ele>84</ele>
        <time>2017-01-03T13:53:33Z</time>
      </trkpt>
      <trkpt lat="49.3411" lon="1.13365">
        <ele>84</ele>
        <time>2017-01-03T13:53:49Z</time>
      </trkpt>
      <trkpt lat="49.3411" lon="1.13373">
        <ele>84</ele>
        <time>2017-01-03T13:53:49Z</time>
      </trkpt>
      <trkpt lat="49.34112" lon="1.13381">
        <ele>83</ele>
        <time>2017-01-03T13:53:49Z</time>
      </trkpt>
      <trkpt lat="49.34113" lon="1.13387">
        <ele>83</ele>
        <time>2017-01-03T13:53:49Z</time>
      </trkpt>
      <trkpt lat="49.34108" lon="1.13401">
        <ele>83</ele>
        <time>2017-01-03T13:54:45Z</time>
      </trkpt>
      <trkpt lat="49.34103" lon="1.13398">
        <ele>83</ele>
        <time>2017-01-03T13:54:45Z</time>
      </trkpt>
      <trkpt lat="49.34099" lon="1.13398">
        <ele>83</ele>
        <time>2017-01-03T13:54:45Z</time>
      </trkpt>
      <trkpt lat="49.34095" lon="1.13396">
        <ele>83</ele>
        <time>2017-01-03T13:54:45Z</time>
      </trkpt>
      <trkpt lat="49.3409" lon="1.13395">
        <ele>83</ele>
        <time>2017-01-03T13:54:45Z</time>
      </trkpt>
      <trkpt lat="49.34085" lon="1.13395">
        <ele>83</ele>
        <time>2017-01-03T13:55:01Z</time>
      </trkpt>
      <trkpt lat="49.34081" lon="1.13399">
        <ele>83</ele>
        <time>2017-01-03T13:55:01Z</time>
      </trkpt>
      <trkpt lat="49.34079" lon="1.13406">
        <ele>83</ele>
        <time>2017-01-03T13:55:01Z</time>
      </trkpt>
      <trkpt lat="49.34076" lon="1.13411">
        <ele>83</ele>
        <time>2017-01-03T13:55:01Z</time>
      </trkpt>
      <trkpt lat="49.34073" lon="1.13417">
        <ele>83</ele>
        <time>2017-01-03T13:55:17Z</time>
      </trkpt>
      <trkpt lat="49.3407" lon="1.13421">
        <ele>83</ele>
        <time>2017-01-03T13:55:17Z</time>
      </trkpt>
      <trkpt lat="49.34065" lon="1.13426">
        <ele>83</ele>
        <time>2017-01-03T13:55:17Z</time>
      </trkpt>
      <trkpt lat="49.34062" lon="1.13431">
        <ele>83</ele>
        <time>2017-01-03T13:55:17Z</time>
      </trkpt>
      <trkpt lat="49.34057" lon="1.13436">
        <ele>83</ele>
        <time>2017-01-03T13:55:33Z</time>
      </trkpt>
      <trkpt lat="49.34052" lon="1.13439">
        <ele>83</ele>
        <time>2017-01-03T13:55:33Z</time>
      </trkpt>
      <trkpt lat="49.34047" lon="1.13441">
        <ele>83</ele>
        <time>2017-01-03T13:55:33Z</time>
      </trkpt>
      <trkpt lat="49.34044" lon="1.13442">
        <ele>83</ele>
        <time>2017-01-03T13:55:33Z</time>
      </trkpt>
      <trkpt lat="49.3404" lon="1.13443">
        <ele>85</ele>
        <time>2017-01-03T13:55:49Z</time>
      </trkpt>
      <trkpt lat="49.34036" lon="1.13444">
        <ele>85</ele>
        <time>2017-01-03T13:55:49Z</time>
      </trkpt>
      <trkpt lat="49.3403" lon="1.13444">
        <ele>85</ele>
        <time>2017-01-03T13:55:49Z</time>
      </trkpt>
      <trkpt lat="49.34025" lon="1.13443">
        <ele>85</ele>
        <time>2017-01-03T13:55:49Z</time>
      </trkpt>
      <trkpt lat="49.34021" lon="1.13444">
        <ele>85</ele>
        <time>2017-01-03T13:56:05Z</time>
      </trkpt>
      <trkpt lat="49.34016" lon="1.13444">
        <ele>85</ele>
        <time>2017-01-03T13:56:05Z</time>
      </trkpt>
      <trkpt lat="49.34011" lon="1.13445">
        <ele>85</ele>
        <time>2017-01-03T13:56:05Z</time>
      </trkpt>
      <trkpt lat="49.34006" lon="1.13446">
        <ele>85</ele>
        <time>2017-01-03T13:56:05Z</time>
      </trkpt>
      <trkpt lat="49.33995" lon="1.13449">
        <ele>85</ele>
        <time>2017-01-03T13:57:09Z</time>
      </trkpt>
      <trkpt lat="49.33995" lon="1.13449">
        <ele>85</ele>
        <time>2017-01-03T13:57:09Z</time>
      </trkpt>
      <trkpt lat="49.33995" lon="1.13449">
        <ele>85</ele>
        <time>2017-01-03T13:57:09Z</time>
      </trkpt>
      <trkpt lat="49.33993" lon="1.13449">
        <ele>85</ele>
        <time>2017-01-03T13:57:09Z</time>
      </trkpt>
      <trkpt lat="49.33986" lon="1.13449">
        <ele>85</ele>
        <time>2017-01-03T13:57:09Z</time>
      </trkpt>
      <trkpt lat="49.33983" lon="1.13448">
        <ele>85</ele>
        <time>2017-01-03T13:57:25Z</time>
      </trkpt>
      <trkpt lat="49.33978" lon="1.13448">
        <ele>85</ele>
        <time>2017-01-03T13:57:25Z</time>
      </trkpt>
      <trkpt lat="49.33973" lon="1.13449">
        <ele>85</ele>
        <time>2017-01-03T13:57:25Z</time>
      </trkpt>
      <trkpt lat="49.3397" lon="1.13449">
        <ele>85</ele>
        <time>2017-01-03T13:57:25Z</time>
      </trkpt>
      <trkpt lat="49.33965" lon="1.1345">
        <ele>85</ele>
        <time>2017-01-03T13:57:41Z</time>
      </trkpt>
      <trkpt lat="49.3396" lon="1.13451">
        <ele>85</ele>
        <time>2017-01-03T13:57:41Z</time>
      </trkpt>
      <trkpt lat="49.33954" lon="1.13451">
        <ele>82</ele>
        <time>2017-01-03T13:57:41Z</time>
      </trkpt>
      <trkpt lat="49.33948" lon="1.13451">
        <ele>82</ele>
        <time>2017-01-03T13:57:41Z</time>
      </trkpt>
      <trkpt lat="49.33942" lon="1.13451">
        <ele>82</ele>
        <time>2017-01-03T13:57:57Z</time>
      </trkpt>
      <trkpt lat="49.33937" lon="1.13451">
        <ele>82</ele>
        <time>2017-01-03T13:57:57Z</time>
      </trkpt>
      <trkpt lat="49.33931" lon="1.13452">
        <ele>82</ele>
        <time>2017-01-03T13:57:57Z</time>
      </trkpt>
      <trkpt lat="49.33926" lon="1.13452">
        <ele>82</ele>
        <time>2017-01-03T13:57:57Z</time>
      </trkpt>
      <trkpt lat="49.33919" lon="1.13455">
        <ele>82</ele>
        <time>2017-01-03T13:58:13Z</time>
      </trkpt>
      <trkpt lat="49.33914" lon="1.13456">
        <ele>82</ele>
        <time>2017-01-03T13:58:13Z</time>
      </trkpt>
      <trkpt lat="49.33909" lon="1.13456">
        <ele>82</ele>
        <time>2017-01-03T13:58:13Z</time>
      </trkpt>
      <trkpt lat="49.33904" lon="1.13458">
        <ele>82</ele>
        <time>2017-01-03T13:58:13Z</time>
      </trkpt>
      <trkpt lat="49.33899" lon="1.13457">
        <ele>82</ele>
        <time>2017-01-03T13:58:29Z</time>
      </trkpt>
      <trkpt lat="49.33894" lon="1.13458">
        <ele>82</ele>
        <time>2017-01-03T13:58:29Z</time>
      </trkpt>
      <trkpt lat="49.33889" lon="1.13459">
        <ele>81</ele>
        <time>2017-01-03T13:58:29Z</time>
      </trkpt>
      <trkpt lat="49.33883" lon="1.13461">
        <ele>81</ele>
        <time>2017-01-03T13:58:29Z</time>
      </trkpt>
      <trkpt lat="49.33879" lon="1.13462">
        <ele>81</ele>
        <time>2017-01-03T13:58:45Z</time>
      </trkpt>
      <trkpt lat="49.33874" lon="1.13463">
        <ele>82</ele>
        <time>2017-01-03T13:58:45Z</time>
      </trkpt>
      <trkpt lat="49.33869" lon="1.13465">
        <ele>82</ele>
        <time>2017-01-03T13:58:45Z</time>
      </trkpt>
      <trkpt lat="49.33864" lon="1.13467">
        <ele>82</ele>
        <time>2017-01-03T13:58:45Z</time>
      </trkpt>
      <trkpt lat="49.3386" lon="1.13468">
        <ele>82</ele>
        <time>2017-01-03T13:59:01Z</time>
      </trkpt>
      <trkpt lat="49.33855" lon="1.1347">
        <ele>82</ele>
        <time>2017-01-03T13:59:01Z</time>
      </trkpt>
      <trkpt lat="49.33849" lon="1.1347">
        <ele>82</ele>
        <time>2017-01-03T13:59:01Z</time>
      </trkpt>
      <trkpt lat="49.33843" lon="1.13469">
        <ele>82</ele>
        <time>2017-01-03T13:59:01Z</time>
      </trkpt>
      <trkpt lat="49.33838" lon="1.13471">
        <ele>82</ele>
        <time>2017-01-03T13:59:17Z</time>
      </trkpt>
      <trkpt lat="49.33833" lon="1.13473">
        <ele>82</ele>
        <time>2017-01-03T13:59:17Z</time>
      </trkpt>
      <trkpt lat="49.33829" lon="1.13473">
        <ele>82</ele>
        <time>2017-01-03T13:59:17Z</time>
      </trkpt>
      <trkpt lat="49.33823" lon="1.13473">
        <ele>82</ele>
        <time>2017-01-03T13:59:17Z</time>
      </trkpt>
      <trkpt lat="49.33818" lon="1.13475">
        <ele>82</ele>
        <time>2017-01-03T13:59:33Z</time>
      </trkpt>
      <trkpt lat="49.33813" lon="1.13475">
        <ele>82</ele>
        <time>2017-01-03T13:59:33Z</time>
      </trkpt>
      <trkpt lat="49.33809" lon="1.13476">
        <ele>82</ele>
        <time>2017-01-03T13:59:33Z</time>
      </trkpt>
      <trkpt lat="49.33804" lon="1.13476">
        <ele>82</ele>
        <time>2017-01-03T13:59:33Z</time>
      </trkpt>
      <trkpt lat="49.33799" lon="1.13477">
        <ele>82</ele>
        <time>2017-01-03T13:59:49Z</time>
      </trkpt>
      <trkpt lat="49.33794" lon="1.13479">
        <ele>82</ele>
        <time>2017-01-03T13:59:49Z</time>
      </trkpt>
      <trkpt lat="49.33788" lon="1.13482">
        <ele>81</ele>
        <time>2017-01-03T13:59:49Z</time>
      </trkpt>
      <trkpt lat="49.33783" lon="1.13483">
        <ele>81</ele>
        <time>2017-01-03T13:59:49Z</time>
      </trkpt>
      <trkpt lat="49.33778" lon="1.13483">
        <ele>81</ele>
        <time>2017-01-03T14:00:05Z</time>
      </trkpt>
      <trkpt lat="49.33773" lon="1.13485">
        <ele>81</ele>
        <time>2017-01-03T14:00:05Z</time>
      </trkpt>
      <trkpt lat="49.33767" lon="1.13484">
        <ele>81</ele>
        <time>2017-01-03T14:00:05Z</time>
      </trkpt>
      <trkpt lat="49.33761" lon="1.13485">
        <ele>81</ele>
        <time>2017-01-03T14:00:05Z</time>
      </trkpt>
      <trkpt lat="49.33756" lon="1.13488">
        <ele>81</ele>
        <time>2017-01-03T14:00:21Z</time>
      </trkpt>
      <trkpt lat="49.33751" lon="1.13488">
        <ele>81</ele>
        <time>2017-01-03T14:00:21Z</time>
      </trkpt>
      <trkpt lat="49.33746" lon="1.13488">
        <ele>81</ele>
        <time>2017-01-03T14:00:21Z</time>
      </trkpt>
      <trkpt lat="49.33741" lon="1.1349">
        <ele>81</ele>
        <time>2017-01-03T14:00:21Z</time>
      </trkpt>
      <trkpt lat="49.33736" lon="1.13491">
        <ele>81</ele>
        <time>2017-01-03T14:00:37Z</time>
      </trkpt>
      <trkpt lat="49.3373" lon="1.13491">
        <ele>81</ele>
        <time>2017-01-03T14:00:37Z</time>
      </trkpt>
      <trkpt lat="49.33724" lon="1.13493">
        <ele>81</ele>
        <time>2017-01-03T14:00:37Z</time>
      </trkpt>
      <trkpt lat="49.33719" lon="1.13495">
        <ele>81</ele>
        <time>2017-01-03T14:00:37Z</time>
      </trkpt>
      <trkpt lat="49.33714" lon="1.13497">
        <ele>81</ele>
        <time>2017-01-03T14:00:53Z</time>
      </trkpt>
      <trkpt lat="49.33708" lon="1.13499">
        <ele>81</ele>
        <time>2017-01-03T14:00:53Z</time>
      </trkpt>
      <trkpt lat="49.33703" lon="1.135">
        <ele>81</ele>
        <time>2017-01-03T14:00:53Z</time>
      </trkpt>
      <trkpt lat="49.33699" lon="1.13501">
        <ele>81</ele>
        <time>2017-01-03T14:00:53Z</time>
      </trkpt>
      <trkpt lat="49.33694" lon="1.13504">
        <ele>81</ele>
        <time>2017-01-03T14:01:09Z</time>
      </trkpt>
      <trkpt lat="49.33689" lon="1.13507">
        <ele>81</ele>
        <time>2017-01-03T14:01:09Z</time>
      </trkpt>
      <trkpt lat="49.33684" lon="1.13509">
        <ele>81</ele>
        <time>2017-01-03T14:01:09Z</time>
      </trkpt>
      <trkpt lat="49.33679" lon="1.1351">
        <ele>81</ele>
        <time>2017-01-03T14:01:09Z</time>
      </trkpt>
      <trkpt lat="49.33674" lon="1.13513">
        <ele>81</ele>
        <time>2017-01-03T14:01:25Z</time>
      </trkpt>
      <trkpt lat="49.33668" lon="1.13514">
        <ele>81</ele>
        <time>2017-01-03T14:01:25Z</time>
      </trkpt>
      <trkpt lat="49.33664" lon="1.13517">
        <ele>81</ele>
        <time>2017-01-03T14:01:25Z</time>
      </trkpt>
      <trkpt lat="49.33659" lon="1.13519">
        <ele>81</ele>
        <time>2017-01-03T14:01:25Z</time>
      </trkpt>
      <trkpt lat="49.33654" lon="1.1352">
        <ele>81</ele>
        <time>2017-01-03T14:01:41Z</time>
      </trkpt>
      <trkpt lat="49.33648" lon="1.13522">
        <ele>81</ele>
        <time>2017-01-03T14:01:41Z</time>
      </trkpt>
      <trkpt lat="49.33643" lon="1.13524">
        <ele>81</ele>
        <time>2017-01-03T14:01:41Z</time>
      </trkpt>
      <trkpt lat="49.33639" lon="1.13525">
        <ele>81</ele>
        <time>2017-01-03T14:01:41Z</time>
      </trkpt>
      <trkpt lat="49.33634" lon="1.13527">
        <ele>81</ele>
        <time>2017-01-03T14:01:57Z</time>
      </trkpt>
      <trkpt lat="49.33628" lon="1.13529">
        <ele>81</ele>
        <time>2017-01-03T14:01:57Z</time>
      </trkpt>
      <trkpt lat="49.33623" lon="1.13531">
        <ele>82</ele>
        <time>2017-01-03T14:01:57Z</time>
      </trkpt>
      <trkpt lat="49.33618" lon="1.13532">
        <ele>82</ele>
        <time>2017-01-03T14:01:57Z</time>
      </trkpt>
      <trkpt lat="49.33613" lon="1.13534">
        <ele>82</ele>
        <time>2017-01-03T14:02:13Z</time>
      </trkpt>
      <trkpt lat="49.33608" lon="1.13536">
        <ele>82</ele>
        <time>2017-01-03T14:02:13Z</time>
      </trkpt>
      <trkpt lat="49.33603" lon="1.13537">
        <ele>82</ele>
        <time>2017-01-03T14:02:13Z</time>
      </trkpt>
      <trkpt lat="49.33598" lon="1.13539">
        <ele>82</ele>
        <time>2017-01-03T14:02:13Z</time>
      </trkpt>
      <trkpt lat="49.33593" lon="1.13541">
        <ele>82</ele>
        <time>2017-01-03T14:02:29Z</time>
      </trkpt>
      <trkpt lat="49.33587" lon="1.13543">
        <ele>81</ele>
        <time>2017-01-03T14:02:29Z</time>
      </trkpt>
      <trkpt lat="49.33582" lon="1.13546">
        <ele>81</ele>
        <time>2017-01-03T14:02:29Z</time>
      </trkpt>
      <trkpt lat="49.33576" lon="1.13547">
        <ele>81</ele>
        <time>2017-01-03T14:02:29Z</time>
      </trkpt>
      <trkpt lat="49.3357" lon="1.13548">
        <ele>81</ele>
        <time>2017-01-03T14:02:45Z</time>
      </trkpt>
      <trkpt lat="49.33565" lon="1.1355">
        <ele>81</ele>
        <time>2017-01-03T14:02:45Z</time>
      </trkpt>
      <trkpt lat="49.3356" lon="1.13552">
        <ele>81</ele>
        <time>2017-01-03T14:02:45Z</time>
      </trkpt>
      <trkpt lat="49.33555" lon="1.13553">
        <ele>81</ele>
        <time>2017-01-03T14:02:45Z</time>
      </trkpt>
      <trkpt lat="49.33549" lon="1.13554">
        <ele>81</ele>
        <time>2017-01-03T14:03:01Z</time>
      </trkpt>
      <trkpt lat="49.33544" lon="1.13556">
        <ele>81</ele>
        <time>2017-01-03T14:03:01Z</time>
      </trkpt>
      <trkpt lat="49.33539" lon="1.13559">
        <ele>81</ele>
        <time>2017-01-03T14:03:01Z</time>
      </trkpt>
      <trkpt lat="49.33535" lon="1.13561">
        <ele>81</ele>
        <time>2017-01-03T14:03:01Z</time>
      </trkpt>
      <trkpt lat="49.3353" lon="1.13562">
        <ele>81</ele>
        <time>2017-01-03T14:03:17Z</time>
      </trkpt>
      <trkpt lat="49.33525" lon="1.13564">
        <ele>81</ele>
        <time>2017-01-03T14:03:17Z</time>
      </trkpt>
      <trkpt lat="49.3352" lon="1.13566">
        <ele>81</ele>
        <time>2017-01-03T14:03:17Z</time>
      </trkpt>
      <trkpt lat="49.33516" lon="1.13568">
        <ele>81</ele>
        <time>2017-01-03T14:03:17Z</time>
      </trkpt>
      <trkpt lat="49.33511" lon="1.13571">
        <ele>81</ele>
        <time>2017-01-03T14:03:33Z</time>
      </trkpt>
      <trkpt lat="49.33507" lon="1.13575">
        <ele>81</ele>
        <time>2017-01-03T14:03:33Z</time>
      </trkpt>
      <trkpt lat="49.33502" lon="1.13577">
        <ele>81</ele>
        <time>2017-01-03T14:03:33Z</time>
      </trkpt>
      <trkpt lat="49.33497" lon="1.1358">
        <ele>81</ele>
        <time>2017-01-03T14:03:33Z</time>
      </trkpt>
      <trkpt lat="49.33492" lon="1.13583">
        <ele>81</ele>
        <time>2017-01-03T14:03:49Z</time>
      </trkpt>
      <trkpt lat="49.33487" lon="1.13585">
        <ele>81</ele>
        <time>2017-01-03T14:03:49Z</time>
      </trkpt>
      <trkpt lat="49.33481" lon="1.13587">
        <ele>81</ele>
        <time>2017-01-03T14:03:49Z</time>
      </trkpt>
      <trkpt lat="49.33476" lon="1.1359">
        <ele>81</ele>
        <time>2017-01-03T14:03:49Z</time>
      </trkpt>
      <trkpt lat="49.3347" lon="1.13594">
        <ele>81</ele>
        <time>2017-01-03T14:04:05Z</time>
      </trkpt>
      <trkpt lat="49.33466" lon="1.13597">
        <ele>81</ele>
        <time>2017-01-03T14:04:05Z</time>
      </trkpt>
      <trkpt lat="49.33462" lon="1.13598">
        <ele>81</ele>
        <time>2017-01-03T14:04:05Z</time>
      </trkpt>
      <trkpt lat="49.33457" lon="1.13599">
        <ele>80</ele>
        <time>2017-01-03T14:04:05Z</time>
      </trkpt>
      <trkpt lat="49.33452" lon="1.13601">
        <ele>80</ele>
        <time>2017-01-03T14:04:21Z</time>
      </trkpt>
      <trkpt lat="49.33447" lon="1.13603">
        <ele>80</ele>
        <time>2017-01-03T14:04:21Z</time>
      </trkpt>
      <trkpt lat="49.33441" lon="1.13601">
        <ele>80</ele>
        <time>2017-01-03T14:04:21Z</time>
      </trkpt>
      <trkpt lat="49.33436" lon="1.13602">
        <ele>80</ele>
        <time>2017-01-03T14:04:21Z</time>
      </trkpt>
      <trkpt lat="49.33431" lon="1.13604">
        <ele>80</ele>
        <time>2017-01-03T14:04:37Z</time>
      </trkpt>
      <trkpt lat="49.33425" lon="1.13607">
        <ele>80</ele>
        <time>2017-01-03T14:04:37Z</time>
      </trkpt>
      <trkpt lat="49.3342" lon="1.13608">
        <ele>80</ele>
        <time>2017-01-03T14:04:37Z</time>
      </trkpt>
      <trkpt lat="49.33416" lon="1.13611">
        <ele>80</ele>
        <time>2017-01-03T14:04:37Z</time>
      </trkpt>
      <trkpt lat="49.33411" lon="1.13613">
        <ele>80</ele>
        <time>2017-01-03T14:04:53Z</time>
      </trkpt>
      <trkpt lat="49.33405" lon="1.13614">
        <ele>80</ele>
        <time>2017-01-03T14:04:53Z</time>
      </trkpt>
      <trkpt lat="49.334" lon="1.13617">
        <ele>80</ele>
        <time>2017-01-03T14:04:53Z</time>
      </trkpt>
      <trkpt lat="49.33396" lon="1.13619">
        <ele>80</ele>
        <time>2017-01-03T14:04:53Z</time>
      </trkpt>
      <trkpt lat="49.33391" lon="1.13617">
        <ele>80</ele>
        <time>2017-01-03T14:05:09Z</time>
      </trkpt>
      <trkpt lat="49.33385" lon="1.13615">
        <ele>80</ele>
        <time>2017-01-03T14:05:09Z</time>
      </trkpt>
      <trkpt lat="49.33381" lon="1.13613">
        <ele>80</ele>
        <time>2017-01-03T14:05:09Z</time>
      </trkpt>
      <trkpt lat="49.33374" lon="1.13611">
        <ele>80</ele>
        <time>2017-01-03T14:05:09Z</time>
      </trkpt>
      <trkpt lat="49.33371" lon="1.1361">
        <ele>80</ele>
        <time>2017-01-03T14:05:25Z</time>
      </trkpt>
      <trkpt lat="49.33366" lon="1.13608">
        <ele>80</ele>
        <time>2017-01-03T14:05:25Z</time>
      </trkpt>
      <trkpt lat="49.33361" lon="1.13607">
        <ele>80</ele>
        <time>2017-01-03T14:05:25Z</time>
      </trkpt>
      <trkpt lat="49.33356" lon="1.13607">
        <ele>80</ele>
        <time>2017-01-03T14:05:25Z</time>
      </trkpt>
      <trkpt lat="49.33352" lon="1.13607">
        <ele>80</ele>
        <time>2017-01-03T14:05:41Z</time>
      </trkpt>
      <trkpt lat="49.33346" lon="1.13607">
        <ele>80</ele>
        <time>2017-01-03T14:05:41Z</time>
      </trkpt>
      <trkpt lat="49.33342" lon="1.13606">
        <ele>80</ele>
        <time>2017-01-03T14:05:41Z</time>
      </trkpt>
      <trkpt lat="49.33336" lon="1.13608">
        <ele>80</ele>
        <time>2017-01-03T14:05:41Z</time>
      </trkpt>
      <trkpt lat="49.33332" lon="1.13608">
        <ele>80</ele>
        <time>2017-01-03T14:05:57Z</time>
      </trkpt>
      <trkpt lat="49.33326" lon="1.13609">
        <ele>80</ele>
        <time>2017-01-03T14:05:57Z</time>
      </trkpt>
      <trkpt lat="49.3332" lon="1.1361">
        <ele>80</ele>
        <time>2017-01-03T14:05:57Z</time>
      </trkpt>
      <trkpt lat="49.33316" lon="1.13611">
        <ele>80</ele>
        <time>2017-01-03T14:05:57Z</time>
      </trkpt>
      <trkpt lat="49.33311" lon="1.13612">
        <ele>80</ele>
        <time>2017-01-03T14:06:13Z</time>
      </trkpt>
      <trkpt lat="49.33306" lon="1.13614">
        <ele>80</ele>
        <time>2017-01-03T14:06:13Z</time>
      </trkpt>
      <trkpt lat="49.33301" lon="1.13616">
        <ele>80</ele>
        <time>2017-01-03T14:06:13Z</time>
      </trkpt>
      <trkpt lat="49.33296" lon="1.13618">
        <ele>80</ele>
        <time>2017-01-03T14:06:13Z</time>
      </trkpt>
      <trkpt lat="49.33291" lon="1.1362">
        <ele>79</ele>
        <time>2017-01-03T14:06:29Z</time>
      </trkpt>
      <trkpt lat="49.33287" lon="1.13624">
        <ele>79</ele>
        <time>2017-01-03T14:06:29Z</time>
      </trkpt>
      <trkpt lat="49.33282" lon="1.13626">
        <ele>80</ele>
        <time>2017-01-03T14:06:29Z</time>
      </trkpt>
      <trkpt lat="49.33278" lon="1.13629">
        <ele>80</ele>
        <time>2017-01-03T14:06:29Z</time>
      </trkpt>
      <trkpt lat="49.33273" lon="1.13632">
        <ele>80</ele>
        <time>2017-01-03T14:06:46Z</time>
      </trkpt>
      <trkpt lat="49.33268" lon="1.13633">
        <ele>80</ele>
        <time>2017-01-03T14:06:46Z</time>
      </trkpt>
      <trkpt lat="49.33264" lon="1.13635">
        <ele>80</ele>
        <time>2017-01-03T14:06:46Z</time>
      </trkpt>
      <trkpt lat="49.3326" lon="1.13638">
        <ele>80</ele>
        <time>2017-01-03T14:06:46Z</time>
      </trkpt>
      <trkpt lat="49.33255" lon="1.1364">
        <ele>80</ele>
        <time>2017-01-03T14:07:01Z</time>
      </trkpt>
      <trkpt lat="49.3325" lon="1.13642">
        <ele>80</ele>
        <time>2017-01-03T14:07:01Z</time>
      </trkpt>
      <trkpt lat="49.33245" lon="1.13643">
        <ele>80</ele>
        <time>2017-01-03T14:07:01Z</time>
      </trkpt>
      <trkpt lat="49.3324" lon="1.13645">
        <ele>80</ele>
        <time>2017-01-03T14:07:01Z</time>
      </trkpt>
      <trkpt lat="49.33236" lon="1.13648">
        <ele>80</ele>
        <time>2017-01-03T14:07:17Z</time>
      </trkpt>
      <trkpt lat="49.33231" lon="1.1365">
        <ele>80</ele>
        <time>2017-01-03T14:07:17Z</time>
      </trkpt>
      <trkpt lat="49.33226" lon="1.13651">
        <ele>80</ele>
        <time>2017-01-03T14:07:17Z</time>
      </trkpt>
      <trkpt lat="49.33221" lon="1.13653">
        <ele>80</ele>
        <time>2017-01-03T14:07:17Z</time>
      </trkpt>
      <trkpt lat="49.33215" lon="1.13655">
        <ele>80</ele>
        <time>2017-01-03T14:07:33Z</time>
      </trkpt>
      <trkpt lat="49.3321" lon="1.13657">
        <ele>80</ele>
        <time>2017-01-03T14:07:33Z</time>
      </trkpt>
      <trkpt lat="49.33206" lon="1.13659">
        <ele>80</ele>
        <time>2017-01-03T14:07:33Z</time>
      </trkpt>
      <trkpt lat="49.33201" lon="1.1366">
        <ele>80</ele>
        <time>2017-01-03T14:07:33Z</time>
      </trkpt>
      <trkpt lat="49.33197" lon="1.13663">
        <ele>80</ele>
        <time>2017-01-03T14:07:49Z</time>
      </trkpt>
      <trkpt lat="49.33192" lon="1.13666">
        <ele>80</ele>
        <time>2017-01-03T14:07:49Z</time>
      </trkpt>
      <trkpt lat="49.33187" lon="1.13668">
        <ele>80</ele>
        <time>2017-01-03T14:07:49Z</time>
      </trkpt>
      <trkpt lat="49.33183" lon="1.1367">
        <ele>80</ele>
        <time>2017-01-03T14:07:49Z</time>
      </trkpt>
      <trkpt lat="49.33177" lon="1.13671">
        <ele>80</ele>
        <time>2017-01-03T14:08:05Z</time>
      </trkpt>
      <trkpt lat="49.33174" lon="1.13673">
        <ele>80</ele>
        <time>2017-01-03T14:08:05Z</time>
      </trkpt>
      <trkpt lat="49.33169" lon="1.13675">
        <ele>80</ele>
        <time>2017-01-03T14:08:05Z</time>
      </trkpt>
      <trkpt lat="49.33164" lon="1.13676">
        <ele>80</ele>
        <time>2017-01-03T14:08:05Z</time>
      </trkpt>
      <trkpt lat="49.33159" lon="1.13678">
        <ele>80</ele>
        <time>2017-01-03T14:08:21Z</time>
      </trkpt>
      <trkpt lat="49.33154" lon="1.1368">
        <ele>80</ele>
        <time>2017-01-03T14:08:21Z</time>
      </trkpt>
      <trkpt lat="49.3315" lon="1.13682">
        <ele>80</ele>
        <time>2017-01-03T14:08:21Z</time>
      </trkpt>
      <trkpt lat="49.33145" lon="1.13683">
        <ele>80</ele>
        <time>2017-01-03T14:08:21Z</time>
      </trkpt>
      <trkpt lat="49.3314" lon="1.13685">
        <ele>80</ele>
        <time>2017-01-03T14:08:37Z</time>
      </trkpt>
      <trkpt lat="49.33135" lon="1.13687">
        <ele>80</ele>
        <time>2017-01-03T14:08:37Z</time>
      </trkpt>
      <trkpt lat="49.3313" lon="1.13688">
        <ele>80</ele>
        <time>2017-01-03T14:08:37Z</time>
      </trkpt>
      <trkpt lat="49.33126" lon="1.1369">
        <ele>80</ele>
        <time>2017-01-03T14:08:37Z</time>
      </trkpt>
      <trkpt lat="49.33121" lon="1.13691">
        <ele>81</ele>
        <time>2017-01-03T14:08:53Z</time>
      </trkpt>
      <trkpt lat="49.33115" lon="1.13694">
        <ele>81</ele>
        <time>2017-01-03T14:08:53Z</time>
      </trkpt>
      <trkpt lat="49.33111" lon="1.13695">
        <ele>81</ele>
        <time>2017-01-03T14:08:53Z</time>
      </trkpt>
      <trkpt lat="49.33107" lon="1.13698">
        <ele>81</ele>
        <time>2017-01-03T14:08:53Z</time>
      </trkpt>
      <trkpt lat="49.33102" lon="1.13701">
        <ele>81</ele>
        <time>2017-01-03T14:09:09Z</time>
      </trkpt>
      <trkpt lat="49.33098" lon="1.13703">
        <ele>81</ele>
        <time>2017-01-03T14:09:09Z</time>
      </trkpt>
      <trkpt lat="49.33093" lon="1.13705">
        <ele>81</ele>
        <time>2017-01-03T14:09:09Z</time>
      </trkpt>
      <trkpt lat="49.33089" lon="1.13706">
        <ele>81</ele>
        <time>2017-01-03T14:09:09Z</time>
      </trkpt>
      <trkpt lat="49.33083" lon="1.13708">
        <ele>81</ele>
        <time>2017-01-03T14:09:25Z</time>
      </trkpt>
      <trkpt lat="49.33079" lon="1.1371">
        <ele>82</ele>
        <time>2017-01-03T14:09:25Z</time>
      </trkpt>
      <trkpt lat="49.33073" lon="1.13711">
        <ele>82</ele>
        <time>2017-01-03T14:09:25Z</time>
      </trkpt>
      <trkpt lat="49.33069" lon="1.13713">
        <ele>82</ele>
        <time>2017-01-03T14:09:25Z</time>
      </trkpt>
      <trkpt lat="49.33064" lon="1.13715">
        <ele>82</ele>
        <time>2017-01-03T14:09:41Z</time>
      </trkpt>
      <trkpt lat="49.33058" lon="1.13719">
        <ele>82</ele>
        <time>2017-01-03T14:09:41Z</time>
      </trkpt>
      <trkpt lat="49.33055" lon="1.1372">
        <ele>82</ele>
        <time>2017-01-03T14:09:41Z</time>
      </trkpt>
      <trkpt lat="49.3305" lon="1.13721">
        <ele>82</ele>
        <time>2017-01-03T14:09:41Z</time>
      </trkpt>
      <trkpt lat="49.33047" lon="1.13722">
        <ele>82</ele>
        <time>2017-01-03T14:09:57Z</time>
      </trkpt>
      <trkpt lat="49.33042" lon="1.13723">
        <ele>82</ele>
        <time>2017-01-03T14:09:57Z</time>
      </trkpt>
      <trkpt lat="49.33038" lon="1.13725">
        <ele>84</ele>
        <time>2017-01-03T14:09:57Z</time>
      </trkpt>
      <trkpt lat="49.33033" lon="1.13726">
        <ele>84</ele>
        <time>2017-01-03T14:09:57Z</time>
      </trkpt>
      <trkpt lat="49.33028" lon="1.13729">
        <ele>84</ele>
        <time>2017-01-03T14:10:13Z</time>
      </trkpt>
      <trkpt lat="49.33023" lon="1.13731">
        <ele>84</ele>
        <time>2017-01-03T14:10:13Z</time>
      </trkpt>
      <trkpt lat="49.33018" lon="1.13733">
        <ele>84</ele>
        <time>2017-01-03T14:10:13Z</time>
      </trkpt>
      <trkpt lat="49.33013" lon="1.13733">
        <ele>84</ele>
        <time>2017-01-03T14:10:13Z</time>
      </trkpt>
      <trkpt lat="49.33007" lon="1.13734">
        <ele>84</ele>
        <time>2017-01-03T14:10:29Z</time>
      </trkpt>
      <trkpt lat="49.33003" lon="1.13737">
        <ele>84</ele>
        <time>2017-01-03T14:10:29Z</time>
      </trkpt>
      <trkpt lat="49.32998" lon="1.13737">
        <ele>84</ele>
        <time>2017-01-03T14:10:29Z</time>
      </trkpt>
      <trkpt lat="49.32993" lon="1.13737">
        <ele>84</ele>
        <time>2017-01-03T14:10:29Z</time>
      </trkpt>
      <trkpt lat="49.32988" lon="1.13737">
        <ele>84</ele>
        <time>2017-01-03T14:10:45Z</time>
      </trkpt>
      <trkpt lat="49.32984" lon="1.13738">
        <ele>84</ele>
        <time>2017-01-03T14:10:45Z</time>
      </trkpt>
      <trkpt lat="49.3298" lon="1.13738">
        <ele>84</ele>
        <time>2017-01-03T14:10:45Z</time>
      </trkpt>
      <trkpt lat="49.32974" lon="1.13738">
        <ele>84</ele>
        <time>2017-01-03T14:10:45Z</time>
      </trkpt>
      <trkpt lat="49.32969" lon="1.13738">
        <ele>84</ele>
        <time>2017-01-03T14:11:01Z</time>
      </trkpt>
      <trkpt lat="49.32963" lon="1.13738">
        <ele>84</ele>
        <time>2017-01-03T14:11:01Z</time>
      </trkpt>
      <trkpt lat="49.32959" lon="1.13739">
        <ele>84</ele>
        <time>2017-01-03T14:11:01Z</time>
      </trkpt>
      <trkpt lat="49.32953" lon="1.13739">
        <ele>83</ele>
        <time>2017-01-03T14:11:01Z</time>
      </trkpt>
      <trkpt lat="49.32949" lon="1.13739">
        <ele>83</ele>
        <time>2017-01-03T14:11:17Z</time>
      </trkpt>
      <trkpt lat="49.32944" lon="1.13738">
        <ele>83</ele>
        <time>2017-01-03T14:11:17Z</time>
      </trkpt>
      <trkpt lat="49.3294" lon="1.13738">
        <ele>83</ele>
        <time>2017-01-03T14:11:17Z</time>
      </trkpt>
      <trkpt lat="49.32935" lon="1.13736">
        <ele>83</ele>
        <time>2017-01-03T14:11:17Z</time>
      </trkpt>
      <trkpt lat="49.32929" lon="1.13736">
        <ele>83</ele>
        <time>2017-01-03T14:11:33Z</time>
      </trkpt>
      <trkpt lat="49.32924" lon="1.13735">
        <ele>83</ele>
        <time>2017-01-03T14:11:33Z</time>
      </trkpt>
      <trkpt lat="49.32919" lon="1.13735">
        <ele>83</ele>
        <time>2017-01-03T14:11:33Z</time>
      </trkpt>
      <trkpt lat="49.32913" lon="1.13734">
        <ele>83</ele>
        <time>2017-01-03T14:11:33Z</time>
      </trkpt>
      <trkpt lat="49.32909" lon="1.13734">
        <ele>83</ele>
        <time>2017-01-03T14:11:49Z</time>
      </trkpt>
      <trkpt lat="49.32904" lon="1.13732">
        <ele>83</ele>
        <time>2017-01-03T14:11:49Z</time>
      </trkpt>
      <trkpt lat="49.32899" lon="1.13733">
        <ele>83</ele>
        <time>2017-01-03T14:11:49Z</time>
      </trkpt>
      <trkpt lat="49.32894" lon="1.13732">
        <ele>83</ele>
        <time>2017-01-03T14:11:49Z</time>
      </trkpt>
      <trkpt lat="49.32889" lon="1.13732">
        <ele>83</ele>
        <time>2017-01-03T14:12:05Z</time>
      </trkpt>
      <trkpt lat="49.32883" lon="1.1373">
        <ele>83</ele>
        <time>2017-01-03T14:12:05Z</time>
      </trkpt>
      <trkpt lat="49.32878" lon="1.13729">
        <ele>83</ele>
        <time>2017-01-03T14:12:05Z</time>
      </trkpt>
      <trkpt lat="49.32874" lon="1.13728">
        <ele>83</ele>
        <time>2017-01-03T14:12:05Z</time>
      </trkpt>
      <trkpt lat="49.32869" lon="1.13727">
        <ele>83</ele>
        <time>2017-01-03T14:12:21Z</time>
      </trkpt>
      <trkpt lat="49.32865" lon="1.13727">
        <ele>83</ele>
        <time>2017-01-03T14:12:21Z</time>
      </trkpt>
      <trkpt lat="49.32861" lon="1.13727">
        <ele>83</ele>
        <time>2017-01-03T14:12:21Z</time>
      </trkpt>
      <trkpt lat="49.32856" lon="1.13725">
        <ele>83</ele>
        <time>2017-01-03T14:12:21Z</time>
      </trkpt>
      <trkpt lat="49.32851" lon="1.13725">
        <ele>83</ele>
        <time>2017-01-03T14:12:37Z</time>
      </trkpt>
      <trkpt lat="49.32845" lon="1.13724">
        <ele>83</ele>
        <time>2017-01-03T14:12:37Z</time>
      </trkpt>
      <trkpt lat="49.32839" lon="1.13724">
        <ele>83</ele>
        <time>2017-01-03T14:12:37Z</time>
      </trkpt>
      <trkpt lat="49.32834" lon="1.13723">
        <ele>83</ele>
        <time>2017-01-03T14:12:37Z</time>
      </trkpt>
      <trkpt lat="49.32828" lon="1.13723">
        <ele>83</ele>
        <time>2017-01-03T14:12:53Z</time>
      </trkpt>
      <trkpt lat="49.32825" lon="1.13721">
        <ele>83</ele>
        <time>2017-01-03T14:12:53Z</time>
      </trkpt>
      <trkpt lat="49.3282" lon="1.1372">
        <ele>83</ele>
        <time>2017-01-03T14:12:53Z</time>
      </trkpt>
      <trkpt lat="49.32815" lon="1.1372">
        <ele>83</ele>
        <time>2017-01-03T14:12:53Z</time>
      </trkpt>
      <trkpt lat="49.32809" lon="1.13719">
        <ele>83</ele>
        <time>2017-01-03T14:13:09Z</time>
      </trkpt>
      <trkpt lat="49.32804" lon="1.13719">
        <ele>83</ele>
        <time>2017-01-03T14:13:09Z</time>
      </trkpt>
      <trkpt lat="49.32799" lon="1.13719">
        <ele>83</ele>
        <time>2017-01-03T14:13:09Z</time>
      </trkpt>
      <trkpt lat="49.32794" lon="1.13719">
        <ele>83</ele>
        <time>2017-01-03T14:13:09Z</time>
      </trkpt>
      <trkpt lat="49.3279" lon="1.13719">
        <ele>84</ele>
        <time>2017-01-03T14:13:25Z</time>
      </trkpt>
      <trkpt lat="49.32785" lon="1.13719">
        <ele>84</ele>
        <time>2017-01-03T14:13:25Z</time>
      </trkpt>
      <trkpt lat="49.3278" lon="1.13719">
        <ele>84</ele>
        <time>2017-01-03T14:13:25Z</time>
      </trkpt>
      <trkpt lat="49.32775" lon="1.13719">
        <ele>84</ele>
        <time>2017-01-03T14:13:25Z</time>
      </trkpt>
      <trkpt lat="49.3277" lon="1.13719">
        <ele>84</ele>
        <time>2017-01-03T14:13:41Z</time>
      </trkpt>
      <trkpt lat="49.32764" lon="1.13718">
        <ele>84</ele>
        <time>2017-01-03T14:13:41Z</time>
      </trkpt>
      <trkpt lat="49.3276" lon="1.13717">
        <ele>84</ele>
        <time>2017-01-03T14:13:41Z</time>
      </trkpt>
      <trkpt lat="49.32755" lon="1.13716">
        <ele>84</ele>
        <time>2017-01-03T14:13:41Z</time>
      </trkpt>
      <trkpt lat="49.32751" lon="1.13716">
        <ele>84</ele>
        <time>2017-01-03T14:13:57Z</time>
      </trkpt>
      <trkpt lat="49.32746" lon="1.13714">
        <ele>84</ele>
        <time>2017-01-03T14:13:57Z</time>
      </trkpt>
      <trkpt lat="49.32741" lon="1.13713">
        <ele>84</ele>
        <time>2017-01-03T14:13:57Z</time>
      </trkpt>
      <trkpt lat="49.32736" lon="1.13712">
        <ele>84</ele>
        <time>2017-01-03T14:13:57Z</time>
      </trkpt>
      <trkpt lat="49.32732" lon="1.13712">
        <ele>84</ele>
        <time>2017-01-03T14:14:13Z</time>
      </trkpt>
      <trkpt lat="49.32728" lon="1.13711">
        <ele>84</ele>
        <time>2017-01-03T14:14:13Z</time>
      </trkpt>
      <trkpt lat="49.32724" lon="1.13711">
        <ele>84</ele>
        <time>2017-01-03T14:14:13Z</time>
      </trkpt>
      <trkpt lat="49.32719" lon="1.13712">
        <ele>84</ele>
        <time>2017-01-03T14:14:13Z</time>
      </trkpt>
      <trkpt lat="49.32714" lon="1.13711">
        <ele>84</ele>
        <time>2017-01-03T14:14:29Z</time>
      </trkpt>
      <trkpt lat="49.32708" lon="1.13709">
        <ele>84</ele>
        <time>2017-01-03T14:14:29Z</time>
      </trkpt>
      <trkpt lat="49.32703" lon="1.13709">
        <ele>86</ele>
        <time>2017-01-03T14:14:29Z</time>
      </trkpt>
      <trkpt lat="49.32698" lon="1.1371">
        <ele>86</ele>
        <time>2017-01-03T14:14:29Z</time>
      </trkpt>
      <trkpt lat="49.32692" lon="1.13709">
        <ele>86</ele>
        <time>2017-01-03T14:14:45Z</time>
      </trkpt>
      <trkpt lat="49.32689" lon="1.13709">
        <ele>86</ele>
        <time>2017-01-03T14:14:45Z</time>
      </trkpt>
      <trkpt lat="49.32683" lon="1.13708">
        <ele>86</ele>
        <time>2017-01-03T14:14:45Z</time>
      </trkpt>
      <trkpt lat="49.32679" lon="1.13709">
        <ele>86</ele>
        <time>2017-01-03T14:14:45Z</time>
      </trkpt>
      <trkpt lat="49.32675" lon="1.13709">
        <ele>86</ele>
        <time>2017-01-03T14:15:01Z</time>
      </trkpt>
      <trkpt lat="49.3267" lon="1.13708">
        <ele>84</ele>
        <time>2017-01-03T14:15:01Z</time>
      </trkpt>
      <trkpt lat="49.32664" lon="1.13708">
        <ele>84</ele>
        <time>2017-01-03T14:15:01Z</time>
      </trkpt>
      <trkpt lat="49.32658" lon="1.13706">
        <ele>84</ele>
        <time>2017-01-03T14:15:01Z</time>
      </trkpt>
      <trkpt lat="49.32653" lon="1.13707">
        <ele>84</ele>
        <time>2017-01-03T14:15:17Z</time>
      </trkpt>
      <trkpt lat="49.3265" lon="1.13708">
        <ele>86</ele>
        <time>2017-01-03T14:15:17Z</time>
      </trkpt>
      <trkpt lat="49.32646" lon="1.13708">
        <ele>84</ele>
        <time>2017-01-03T14:15:17Z</time>
      </trkpt>
      <trkpt lat="49.3264" lon="1.13707">
        <ele>84</ele>
        <time>2017-01-03T14:15:17Z</time>
      </trkpt>
      <trkpt lat="49.32635" lon="1.13706">
        <ele>84</ele>
        <time>2017-01-03T14:15:33Z</time>
      </trkpt>
      <trkpt lat="49.3263" lon="1.13706">
        <ele>84</ele>
        <time>2017-01-03T14:15:33Z</time>
      </trkpt>
      <trkpt lat="49.32623" lon="1.13705">
        <ele>87</ele>
        <time>2017-01-03T14:15:33Z</time>
      </trkpt>
      <trkpt lat="49.32618" lon="1.13705">
        <ele>87</ele>
        <time>2017-01-03T14:15:33Z</time>
      </trkpt>
      <trkpt lat="49.32614" lon="1.13704">
        <ele>87</ele>
        <time>2017-01-03T14:15:49Z</time>
      </trkpt>
      <trkpt lat="49.3261" lon="1.13704">
        <ele>87</ele>
        <time>2017-01-03T14:15:49Z</time>
      </trkpt>
      <trkpt lat="49.32605" lon="1.13705">
        <ele>87</ele>
        <time>2017-01-03T14:15:49Z</time>
      </trkpt>
      <trkpt lat="49.32601" lon="1.13706">
        <ele>87</ele>
        <time>2017-01-03T14:15:49Z</time>
      </trkpt>
      <trkpt lat="49.32594" lon="1.13707">
        <ele>87</ele>
        <time>2017-01-03T14:16:21Z</time>
      </trkpt>
      <trkpt lat="49.32592" lon="1.13707">
        <ele>87</ele>
        <time>2017-01-03T14:16:21Z</time>
      </trkpt>
      <trkpt lat="49.3259" lon="1.13704">
        <ele>87</ele>
        <time>2017-01-03T14:16:21Z</time>
      </trkpt>
      <trkpt lat="49.32587" lon="1.13702">
        <ele>87</ele>
        <time>2017-01-03T14:16:21Z</time>
      </trkpt>
      <trkpt lat="49.32583" lon="1.13701">
        <ele>87</ele>
        <time>2017-01-03T14:16:21Z</time>
      </trkpt>
      <trkpt lat="49.32578" lon="1.137">
        <ele>87</ele>
        <time>2017-01-03T14:16:37Z</time>
      </trkpt>
      <trkpt lat="49.32574" lon="1.13697">
        <ele>87</ele>
        <time>2017-01-03T14:16:37Z</time>
      </trkpt>
      <trkpt lat="49.3257" lon="1.13694">
        <ele>87</ele>
        <time>2017-01-03T14:16:37Z</time>
      </trkpt>
      <trkpt lat="49.32566" lon="1.13692">
        <ele>87</ele>
        <time>2017-01-03T14:16:37Z</time>
      </trkpt>
      <trkpt lat="49.32562" lon="1.1369">
        <ele>87</ele>
        <time>2017-01-03T14:16:53Z</time>
      </trkpt>
      <trkpt lat="49.32558" lon="1.13683">
        <ele>87</ele>
        <time>2017-01-03T14:16:53Z</time>
      </trkpt>
      <trkpt lat="49.32555" lon="1.13679">
        <ele>87</ele>
        <time>2017-01-03T14:16:53Z</time>
      </trkpt>
      <trkpt lat="49.32554" lon="1.13672">
        <ele>87</ele>
        <time>2017-01-03T14:16:53Z</time>
      </trkpt>
      <trkpt lat="49.32551" lon="1.13667">
        <ele>87</ele>
        <time>2017-01-03T14:17:09Z</time>
      </trkpt>
      <trkpt lat="49.32548" lon="1.1366">
        <ele>87</ele>
        <time>2017-01-03T14:17:09Z</time>
      </trkpt>
      <trkpt lat="49.32544" lon="1.13655">
        <ele>87</ele>
        <time>2017-01-03T14:17:10Z</time>
      </trkpt>
      <trkpt lat="49.32544" lon="1.13648">
        <ele>87</ele>
        <time>2017-01-03T14:17:10Z</time>
      </trkpt>
      <trkpt lat="49.32542" lon="1.13643">
        <ele>87</ele>
        <time>2017-01-03T14:17:25Z</time>
      </trkpt>
      <trkpt lat="49.3254" lon="1.13634">
        <ele>85</ele>
        <time>2017-01-03T14:17:25Z</time>
      </trkpt>
      <trkpt lat="49.32538" lon="1.13629">
        <ele>85</ele>
        <time>2017-01-03T14:17:25Z</time>
      </trkpt>
      <trkpt lat="49.32535" lon="1.13622">
        <ele>86</ele>
        <time>2017-01-03T14:17:25Z</time>
      </trkpt>
      <trkpt lat="49.32532" lon="1.13617">
        <ele>86</ele>
        <time>2017-01-03T14:17:41Z</time>
      </trkpt>
      <trkpt lat="49.32529" lon="1.13609">
        <ele>86</ele>
        <time>2017-01-03T14:17:41Z</time>
      </trkpt>
      <trkpt lat="49.32526" lon="1.13602">
        <ele>86</ele>
        <time>2017-01-03T14:17:41Z</time>
      </trkpt>
      <trkpt lat="49.32524" lon="1.13595">
        <ele>86</ele>
        <time>2017-01-03T14:17:41Z</time>
      </trkpt>
      <trkpt lat="49.32521" lon="1.1359">
        <ele>86</ele>
        <time>2017-01-03T14:17:57Z</time>
      </trkpt>
      <trkpt lat="49.32518" lon="1.13584">
        <ele>86</ele>
        <time>2017-01-03T14:17:57Z</time>
      </trkpt>
      <trkpt lat="49.32516" lon="1.13576">
        <ele>86</ele>
        <time>2017-01-03T14:17:57Z</time>
      </trkpt>
      <trkpt lat="49.32513" lon="1.13569">
        <ele>86</ele>
        <time>2017-01-03T14:17:57Z</time>
      </trkpt>
      <trkpt lat="49.32512" lon="1.13564">
        <ele>86</ele>
        <time>2017-01-03T14:18:13Z</time>
      </trkpt>
      <trkpt lat="49.3251" lon="1.13558">
        <ele>86</ele>
        <time>2017-01-03T14:18:13Z</time>
      </trkpt>
      <trkpt lat="49.32508" lon="1.13551">
        <ele>86</ele>
        <time>2017-01-03T14:18:13Z</time>
      </trkpt>
      <trkpt lat="49.32505" lon="1.13544">
        <ele>86</ele>
        <time>2017-01-03T14:18:13Z</time>
      </trkpt>
      <trkpt lat="49.32502" lon="1.13536">
        <ele>85</ele>
        <time>2017-01-03T14:18:29Z</time>
      </trkpt>
      <trkpt lat="49.325" lon="1.13529">
        <ele>85</ele>
        <time>2017-01-03T14:18:29Z</time>
      </trkpt>
      <trkpt lat="49.32498" lon="1.13521">
        <ele>85</ele>
        <time>2017-01-03T14:18:29Z</time>
      </trkpt>
      <trkpt lat="49.32496" lon="1.13515">
        <ele>85</ele>
        <time>2017-01-03T14:18:29Z</time>
      </trkpt>
      <trkpt lat="49.32495" lon="1.13508">
        <ele>85</ele>
        <time>2017-01-03T14:18:45Z</time>
      </trkpt>
      <trkpt lat="49.32493" lon="1.13501">
        <ele>85</ele>
        <time>2017-01-03T14:18:45Z</time>
      </trkpt>
      <trkpt lat="49.32492" lon="1.13493">
        <ele>85</ele>
        <time>2017-01-03T14:18:45Z</time>
      </trkpt>
      <trkpt lat="49.32491" lon="1.13486">
        <ele>85</ele>
        <time>2017-01-03T14:18:45Z</time>
      </trkpt>
      <trkpt lat="49.3249" lon="1.13479">
        <ele>85</ele>
        <time>2017-01-03T14:19:01Z</time>
      </trkpt>
      <trkpt lat="49.32489" lon="1.13472">
        <ele>85</ele>
        <time>2017-01-03T14:19:01Z</time>
      </trkpt>
      <trkpt lat="49.32489" lon="1.13466">
        <ele>85</ele>
        <time>2017-01-03T14:19:01Z</time>
      </trkpt>
      <trkpt lat="49.32487" lon="1.13459">
        <ele>85</ele>
        <time>2017-01-03T14:19:01Z</time>
      </trkpt>
      <trkpt lat="49.32486" lon="1.13451">
        <ele>85</ele>
        <time>2017-01-03T14:19:17Z</time>
      </trkpt>
      <trkpt lat="49.32484" lon="1.13445">
        <ele>85</ele>
        <time>2017-01-03T14:19:17Z</time>
      </trkpt>
      <trkpt lat="49.32482" lon="1.13437">
        <ele>85</ele>
        <time>2017-01-03T14:19:17Z</time>
      </trkpt>
      <trkpt lat="49.32481" lon="1.1343">
        <ele>85</ele>
        <time>2017-01-03T14:19:17Z</time>
      </trkpt>
      <trkpt lat="49.3248" lon="1.13422">
        <ele>85</ele>
        <time>2017-01-03T14:19:33Z</time>
      </trkpt>
      <trkpt lat="49.32478" lon="1.13415">
        <ele>85</ele>
        <time>2017-01-03T14:19:33Z</time>
      </trkpt>
      <trkpt lat="49.32477" lon="1.13406">
        <ele>85</ele>
        <time>2017-01-03T14:19:33Z</time>
      </trkpt>
      <trkpt lat="49.32475" lon="1.13399">
        <ele>85</ele>
        <time>2017-01-03T14:19:33Z</time>
      </trkpt>
      <trkpt lat="49.32473" lon="1.13389">
        <ele>85</ele>
        <time>2017-01-03T14:19:49Z</time>
      </trkpt>
      <trkpt lat="49.32472" lon="1.13385">
        <ele>85</ele>
        <time>2017-01-03T14:19:49Z</time>
      </trkpt>
      <trkpt lat="49.3247" lon="1.13378">
        <ele>85</ele>
        <time>2017-01-03T14:19:49Z</time>
      </trkpt>
      <trkpt lat="49.32469" lon="1.13372">
        <ele>85</ele>
        <time>2017-01-03T14:19:49Z</time>
      </trkpt>
      <trkpt lat="49.32467" lon="1.13366">
        <ele>85</ele>
        <time>2017-01-03T14:20:05Z</time>
      </trkpt>
      <trkpt lat="49.32465" lon="1.13359">
        <ele>85</ele>
        <time>2017-01-03T14:20:05Z</time>
      </trkpt>
      <trkpt lat="49.32463" lon="1.13351">
        <ele>85</ele>
        <time>2017-01-03T14:20:05Z</time>
      </trkpt>
      <trkpt lat="49.32461" lon="1.13343">
        <ele>85</ele>
        <time>2017-01-03T14:20:05Z</time>
      </trkpt>
      <trkpt lat="49.3246" lon="1.13336">
        <ele>85</ele>
        <time>2017-01-03T14:20:21Z</time>
      </trkpt>
      <trkpt lat="49.32459" lon="1.13328">
        <ele>85</ele>
        <time>2017-01-03T14:20:21Z</time>
      </trkpt>
      <trkpt lat="49.32457" lon="1.1332">
        <ele>86</ele>
        <time>2017-01-03T14:20:21Z</time>
      </trkpt>
      <trkpt lat="49.32455" lon="1.13314">
        <ele>86</ele>
        <time>2017-01-03T14:20:21Z</time>
      </trkpt>
      <trkpt lat="49.32454" lon="1.13307">
        <ele>86</ele>
        <time>2017-01-03T14:20:37Z</time>
      </trkpt>
      <trkpt lat="49.32452" lon="1.133">
        <ele>86</ele>
        <time>2017-01-03T14:20:37Z</time>
      </trkpt>
      <trkpt lat="49.32451" lon="1.13292">
        <ele>86</ele>
        <time>2017-01-03T14:20:37Z</time>
      </trkpt>
      <trkpt lat="49.3245" lon="1.13286">
        <ele>85</ele>
        <time>2017-01-03T14:20:37Z</time>
      </trkpt>
      <trkpt lat="49.32448" lon="1.13279">
        <ele>85</ele>
        <time>2017-01-03T14:20:53Z</time>
      </trkpt>
      <trkpt lat="49.32446" lon="1.13274">
        <ele>85</ele>
        <time>2017-01-03T14:20:53Z</time>
      </trkpt>
      <trkpt lat="49.32445" lon="1.13267">
        <ele>85</ele>
        <time>2017-01-03T14:20:53Z</time>
      </trkpt>
      <trkpt lat="49.32443" lon="1.13259">
        <ele>85</ele>
        <time>2017-01-03T14:20:53Z</time>
      </trkpt>
      <trkpt lat="49.32441" lon="1.13253">
        <ele>85</ele>
        <time>2017-01-03T14:21:09Z</time>
      </trkpt>
      <trkpt lat="49.3244" lon="1.13248">
        <ele>85</ele>
        <time>2017-01-03T14:21:09Z</time>
      </trkpt>
      <trkpt lat="49.32438" lon="1.13239">
        <ele>85</ele>
        <time>2017-01-03T14:21:09Z</time>
      </trkpt>
      <trkpt lat="49.32437" lon="1.13231">
        <ele>85</ele>
        <time>2017-01-03T14:21:09Z</time>
      </trkpt>
      <trkpt lat="49.32436" lon="1.13223">
        <ele>85</ele>
        <time>2017-01-03T14:21:25Z</time>
      </trkpt>
      <trkpt lat="49.32435" lon="1.13213">
        <ele>85</ele>
        <time>2017-01-03T14:21:25Z</time>
      </trkpt>
      <trkpt lat="49.32434" lon="1.13206">
        <ele>84</ele>
        <time>2017-01-03T14:21:25Z</time>
      </trkpt>
      <trkpt lat="49.32433" lon="1.13198">
        <ele>84</ele>
        <time>2017-01-03T14:21:25Z</time>
      </trkpt>
      <trkpt lat="49.32432" lon="1.13191">
        <ele>84</ele>
        <time>2017-01-03T14:21:41Z</time>
      </trkpt>
      <trkpt lat="49.32431" lon="1.13185">
        <ele>84</ele>
        <time>2017-01-03T14:21:41Z</time>
      </trkpt>
      <trkpt lat="49.32429" lon="1.13178">
        <ele>84</ele>
        <time>2017-01-03T14:21:41Z</time>
      </trkpt>
      <trkpt lat="49.32428" lon="1.13171">
        <ele>84</ele>
        <time>2017-01-03T14:21:41Z</time>
      </trkpt>
      <trkpt lat="49.32426" lon="1.13164">
        <ele>84</ele>
        <time>2017-01-03T14:21:57Z</time>
      </trkpt>
      <trkpt lat="49.32424" lon="1.13157">
        <ele>84</ele>
        <time>2017-01-03T14:21:57Z</time>
      </trkpt>
      <trkpt lat="49.32422" lon="1.1315">
        <ele>84</ele>
        <time>2017-01-03T14:21:57Z</time>
      </trkpt>
      <trkpt lat="49.3242" lon="1.13143">
        <ele>84</ele>
        <time>2017-01-03T14:21:57Z</time>
      </trkpt>
      <trkpt lat="49.32418" lon="1.13136">
        <ele>84</ele>
        <time>2017-01-03T14:22:13Z</time>
      </trkpt>
      <trkpt lat="49.32415" lon="1.13129">
        <ele>84</ele>
        <time>2017-01-03T14:22:13Z</time>
      </trkpt>
      <trkpt lat="49.32414" lon="1.13121">
        <ele>85</ele>
        <time>2017-01-03T14:22:13Z</time>
      </trkpt>
      <trkpt lat="49.32413" lon="1.13113">
        <ele>85</ele>
        <time>2017-01-03T14:22:13Z</time>
      </trkpt>
      <trkpt lat="49.32411" lon="1.13106">
        <ele>85</ele>
        <time>2017-01-03T14:22:29Z</time>
      </trkpt>
      <trkpt lat="49.32409" lon="1.13099">
        <ele>85</ele>
        <time>2017-01-03T14:22:29Z</time>
      </trkpt>
      <trkpt lat="49.32407" lon="1.13092">
        <ele>85</ele>
        <time>2017-01-03T14:22:29Z</time>
      </trkpt>
      <trkpt lat="49.32406" lon="1.13084">
        <ele>85</ele>
        <time>2017-01-03T14:22:29Z</time>
      </trkpt>
      <trkpt lat="49.32404" lon="1.13076">
        <ele>85</ele>
        <time>2017-01-03T14:22:45Z</time>
      </trkpt>
      <trkpt lat="49.32403" lon="1.13069">
        <ele>85</ele>
        <time>2017-01-03T14:22:45Z</time>
      </trkpt>
      <trkpt lat="49.32401" lon="1.13062">
        <ele>85</ele>
        <time>2017-01-03T14:22:45Z</time>
      </trkpt>
      <trkpt lat="49.324" lon="1.13054">
        <ele>85</ele>
        <time>2017-01-03T14:22:45Z</time>
      </trkpt>
      <trkpt lat="49.32399" lon="1.13047">
        <ele>85</ele>
        <time>2017-01-03T14:23:01Z</time>
      </trkpt>
      <trkpt lat="49.32397" lon="1.13039">
        <ele>87</ele>
        <time>2017-01-03T14:23:01Z</time>
      </trkpt>
      <trkpt lat="49.32396" lon="1.13031">
        <ele>87</ele>
        <time>2017-01-03T14:23:01Z</time>
      </trkpt>
      <trkpt lat="49.32395" lon="1.13025">
        <ele>87</ele>
        <time>2017-01-03T14:23:01Z</time>
      </trkpt>
      <trkpt lat="49.32393" lon="1.13019">
        <ele>87</ele>
        <time>2017-01-03T14:23:17Z</time>
      </trkpt>
      <trkpt lat="49.32393" lon="1.13011">
        <ele>87</ele>
        <time>2017-01-03T14:23:17Z</time>
      </trkpt>
      <trkpt lat="49.32392" lon="1.13004">
        <ele>87</ele>
        <time>2017-01-03T14:23:17Z</time>
      </trkpt>
      <trkpt lat="49.3239" lon="1.12999">
        <ele>87</ele>
        <time>2017-01-03T14:23:17Z</time>
      </trkpt>
      <trkpt lat="49.32388" lon="1.12993">
        <ele>87</ele>
        <time>2017-01-03T14:23:33Z</time>
      </trkpt>
      <trkpt lat="49.32386" lon="1.12986">
        <ele>87</ele>
        <time>2017-01-03T14:23:33Z</time>
      </trkpt>
      <trkpt lat="49.32384" lon="1.12981">
        <ele>87</ele>
        <time>2017-01-03T14:23:33Z</time>
      </trkpt>
      <trkpt lat="49.32383" lon="1.12973">
        <ele>87</ele>
        <time>2017-01-03T14:23:33Z</time>
      </trkpt>
      <trkpt lat="49.32382" lon="1.12967">
        <ele>87</ele>
        <time>2017-01-03T14:23:49Z</time>
      </trkpt>
      <trkpt lat="49.3238" lon="1.12959">
        <ele>87</ele>
        <time>2017-01-03T14:23:49Z</time>
      </trkpt>
      <trkpt lat="49.32378" lon="1.12952">
        <ele>86</ele>
        <time>2017-01-03T14:23:49Z</time>
      </trkpt>
      <trkpt lat="49.32376" lon="1.12943">
        <ele>86</ele>
        <time>2017-01-03T14:23:49Z</time>
      </trkpt>
      <trkpt lat="49.32374" lon="1.12938">
        <ele>84</ele>
        <time>2017-01-03T14:24:05Z</time>
      </trkpt>
      <trkpt lat="49.32373" lon="1.12932">
        <ele>84</ele>
        <time>2017-01-03T14:24:05Z</time>
      </trkpt>
      <trkpt lat="49.32371" lon="1.12926">
        <ele>84</ele>
        <time>2017-01-03T14:24:05Z</time>
      </trkpt>
      <trkpt lat="49.32369" lon="1.12918">
        <ele>84</ele>
        <time>2017-01-03T14:24:05Z</time>
      </trkpt>
      <trkpt lat="49.32368" lon="1.12912">
        <ele>84</ele>
        <time>2017-01-03T14:24:21Z</time>
      </trkpt>
      <trkpt lat="49.32365" lon="1.12906">
        <ele>84</ele>
        <time>2017-01-03T14:24:21Z</time>
      </trkpt>
      <trkpt lat="49.32363" lon="1.12898">
        <ele>84</ele>
        <time>2017-01-03T14:24:21Z</time>
      </trkpt>
      <trkpt lat="49.32361" lon="1.12891">
        <ele>84</ele>
        <time>2017-01-03T14:24:21Z</time>
      </trkpt>
      <trkpt lat="49.32363" lon="1.12883">
        <ele>84</ele>
        <time>2017-01-03T14:24:37Z</time>
      </trkpt>
      <trkpt lat="49.32362" lon="1.12877">
        <ele>84</ele>
        <time>2017-01-03T14:24:37Z</time>
      </trkpt>
      <trkpt lat="49.3236" lon="1.1287">
        <ele>84</ele>
        <time>2017-01-03T14:24:37Z</time>
      </trkpt>
      <trkpt lat="49.32358" lon="1.12864">
        <ele>84</ele>
        <time>2017-01-03T14:24:37Z</time>
      </trkpt>
      <trkpt lat="49.32355" lon="1.12858">
        <ele>84</ele>
        <time>2017-01-03T14:24:53Z</time>
      </trkpt>
      <trkpt lat="49.32355" lon="1.12851">
        <ele>84</ele>
        <time>2017-01-03T14:24:53Z</time>
      </trkpt>
      <trkpt lat="49.32354" lon="1.12844">
        <ele>84</ele>
        <time>2017-01-03T14:24:53Z</time>
      </trkpt>
      <trkpt lat="49.32353" lon="1.12838">
        <ele>84</ele>
        <time>2017-01-03T14:24:53Z</time>
      </trkpt>
      <trkpt lat="49.32351" lon="1.12831">
        <ele>84</ele>
        <time>2017-01-03T14:25:09Z</time>
      </trkpt>
      <trkpt lat="49.3235" lon="1.12825">
        <ele>84</ele>
        <time>2017-01-03T14:25:09Z</time>
      </trkpt>
      <trkpt lat="49.32348" lon="1.12818">
        <ele>84</ele>
        <time>2017-01-03T14:25:09Z</time>
      </trkpt>
      <trkpt lat="49.32347" lon="1.1281">
        <ele>84</ele>
        <time>2017-01-03T14:25:09Z</time>
      </trkpt>
      <trkpt lat="49.32347" lon="1.12804">
        <ele>84</ele>
        <time>2017-01-03T14:25:25Z</time>
      </trkpt>
      <trkpt lat="49.32345" lon="1.12798">
        <ele>84</ele>
        <time>2017-01-03T14:25:25Z</time>
      </trkpt>
      <trkpt lat="49.32342" lon="1.12791">
        <ele>83</ele>
        <time>2017-01-03T14:25:25Z</time>
      </trkpt>
      <trkpt lat="49.32341" lon="1.12785">
        <ele>83</ele>
        <time>2017-01-03T14:25:25Z</time>
      </trkpt>
      <trkpt lat="49.3234" lon="1.12778">
        <ele>83</ele>
        <time>2017-01-03T14:25:41Z</time>
      </trkpt>
      <trkpt lat="49.32338" lon="1.1277">
        <ele>83</ele>
        <time>2017-01-03T14:25:41Z</time>
      </trkpt>
      <trkpt lat="49.32335" lon="1.12763">
        <ele>83</ele>
        <time>2017-01-03T14:25:41Z</time>
      </trkpt>
      <trkpt lat="49.32335" lon="1.12756">
        <ele>83</ele>
        <time>2017-01-03T14:25:41Z</time>
      </trkpt>
      <trkpt lat="49.32334" lon="1.1275">
        <ele>83</ele>
        <time>2017-01-03T14:25:57Z</time>
      </trkpt>
      <trkpt lat="49.32332" lon="1.12742">
        <ele>83</ele>
        <time>2017-01-03T14:25:57Z</time>
      </trkpt>
      <trkpt lat="49.32329" lon="1.12735">
        <ele>83</ele>
        <time>2017-01-03T14:25:57Z</time>
      </trkpt>
      <trkpt lat="49.32328" lon="1.12729">
        <ele>83</ele>
        <time>2017-01-03T14:25:57Z</time>
      </trkpt>
      <trkpt lat="49.32328" lon="1.12724">
        <ele>83</ele>
        <time>2017-01-03T14:26:13Z</time>
      </trkpt>
      <trkpt lat="49.32326" lon="1.12717">
        <ele>83</ele>
        <time>2017-01-03T14:26:13Z</time>
      </trkpt>
      <trkpt lat="49.32326" lon="1.1271">
        <ele>83</ele>
        <time>2017-01-03T14:26:13Z</time>
      </trkpt>
      <trkpt lat="49.32325" lon="1.12705">
        <ele>82</ele>
        <time>2017-01-03T14:26:13Z</time>
      </trkpt>
      <trkpt lat="49.32322" lon="1.12698">
        <ele>82</ele>
        <time>2017-01-03T14:26:29Z</time>
      </trkpt>
      <trkpt lat="49.32322" lon="1.12692">
        <ele>82</ele>
        <time>2017-01-03T14:26:29Z</time>
      </trkpt>
      <trkpt lat="49.32322" lon="1.12684">
        <ele>82</ele>
        <time>2017-01-03T14:26:29Z</time>
      </trkpt>
      <trkpt lat="49.32322" lon="1.12679">
        <ele>82</ele>
        <time>2017-01-03T14:26:29Z</time>
      </trkpt>
      <trkpt lat="49.32322" lon="1.12678">
        <ele>82</ele>
        <time>2017-01-03T14:26:49Z</time>
      </trkpt>
      <trkpt lat="49.32322" lon="1.12681">
        <ele>82</ele>
        <time>2017-01-03T14:26:49Z</time>
      </trkpt>
      <trkpt lat="49.32323" lon="1.12688">
        <ele>82</ele>
        <time>2017-01-03T14:26:49Z</time>
      </trkpt>
      <trkpt lat="49.32324" lon="1.12691">
        <ele>82</ele>
        <time>2017-01-03T14:26:49Z</time>
      </trkpt>
      <trkpt lat="49.32325" lon="1.12692">
        <ele>82</ele>
        <time>2017-01-03T14:26:49Z</time>
      </trkpt>
      <trkpt lat="49.32324" lon="1.12691">
        <ele>82</ele>
        <time>2017-01-03T14:30:45Z</time>
      </trkpt>
      <trkpt lat="49.32324" lon="1.1269">
        <ele>82</ele>
        <time>2017-01-03T14:30:45Z</time>
      </trkpt>
      <trkpt lat="49.32325" lon="1.12685">
        <ele>82</ele>
        <time>2017-01-03T14:30:45Z</time>
      </trkpt>
      <trkpt lat="49.32323" lon="1.12678">
        <ele>82</ele>
        <time>2017-01-03T14:30:45Z</time>
      </trkpt>
      <trkpt lat="49.32322" lon="1.12671">
        <ele>82</ele>
        <time>2017-01-03T14:30:45Z</time>
      </trkpt>
      <trkpt lat="49.32321" lon="1.12664">
        <ele>82</ele>
        <time>2017-01-03T14:31:01Z</time>
      </trkpt>
      <trkpt lat="49.32319" lon="1.1266">
        <ele>82</ele>
        <time>2017-01-03T14:31:01Z</time>
      </trkpt>
      <trkpt lat="49.32316" lon="1.12654">
        <ele>82</ele>
        <time>2017-01-03T14:31:01Z</time>
      </trkpt>
      <trkpt lat="49.32313" lon="1.12647">
        <ele>82</ele>
        <time>2017-01-03T14:31:01Z</time>
      </trkpt>
      <trkpt lat="49.3231" lon="1.1264">
        <ele>82</ele>
        <time>2017-01-03T14:31:17Z</time>
      </trkpt>
      <trkpt lat="49.32307" lon="1.12632">
        <ele>82</ele>
        <time>2017-01-03T14:31:17Z</time>
      </trkpt>
      <trkpt lat="49.32304" lon="1.12624">
        <ele>82</ele>
        <time>2017-01-03T14:31:17Z</time>
      </trkpt>
      <trkpt lat="49.32301" lon="1.12618">
        <ele>82</ele>
        <time>2017-01-03T14:31:17Z</time>
      </trkpt>
      <trkpt lat="49.32295" lon="1.12609">
        <ele>82</ele>
        <time>2017-01-03T14:32:17Z</time>
      </trkpt>
      <trkpt lat="49.32294" lon="1.12607">
        <ele>82</ele>
        <time>2017-01-03T14:32:17Z</time>
      </trkpt>
      <trkpt lat="49.32293" lon="1.126">
        <ele>82</ele>
        <time>2017-01-03T14:32:17Z</time>
      </trkpt>
      <trkpt lat="49.3229" lon="1.12593">
        <ele>77</ele>
        <time>2017-01-03T14:32:17Z</time>
      </trkpt>
      <trkpt lat="49.32289" lon="1.12588">
        <ele>77</ele>
        <time>2017-01-03T14:32:17Z</time>
      </trkpt>
      <trkpt lat="49.3229" lon="1.12589">
        <ele>77</ele>
        <time>2017-01-03T14:32:49Z</time>
      </trkpt>
      <trkpt lat="49.32289" lon="1.12585">
        <ele>77</ele>
        <time>2017-01-03T14:32:49Z</time>
      </trkpt>
      <trkpt lat="49.32288" lon="1.12577">
        <ele>77</ele>
        <time>2017-01-03T14:32:49Z</time>
      </trkpt>
      <trkpt lat="49.32286" lon="1.12571">
        <ele>77</ele>
        <time>2017-01-03T14:32:49Z</time>
      </trkpt>
      <trkpt lat="49.32283" lon="1.12565">
        <ele>77</ele>
        <time>2017-01-03T14:32:49Z</time>
      </trkpt>
      <trkpt lat="49.32282" lon="1.12559">
        <ele>77</ele>
        <time>2017-01-03T14:33:05Z</time>
      </trkpt>
      <trkpt lat="49.32281" lon="1.12553">
        <ele>77</ele>
        <time>2017-01-03T14:33:05Z</time>
      </trkpt>
      <trkpt lat="49.32278" lon="1.12547">
        <ele>77</ele>
        <time>2017-01-03T14:33:05Z</time>
      </trkpt>
      <trkpt lat="49.32275" lon="1.12543">
        <ele>77</ele>
        <time>2017-01-03T14:33:05Z</time>
      </trkpt>
      <trkpt lat="49.32274" lon="1.12539">
        <ele>77</ele>
        <time>2017-01-03T14:33:21Z</time>
      </trkpt>
      <trkpt lat="49.32271" lon="1.12532">
        <ele>77</ele>
        <time>2017-01-03T14:33:21Z</time>
      </trkpt>
      <trkpt lat="49.32267" lon="1.12525">
        <ele>77</ele>
        <time>2017-01-03T14:33:21Z</time>
      </trkpt>
      <trkpt lat="49.32266" lon="1.12519">
        <ele>77</ele>
        <time>2017-01-03T14:33:21Z</time>
      </trkpt>
      <trkpt lat="49.32263" lon="1.12515">
        <ele>77</ele>
        <time>2017-01-03T14:33:37Z</time>
      </trkpt>
      <trkpt lat="49.32261" lon="1.12513">
        <ele>77</ele>
        <time>2017-01-03T14:33:37Z</time>
      </trkpt>
      <trkpt lat="49.32257" lon="1.12507">
        <ele>77</ele>
        <time>2017-01-03T14:33:37Z</time>
      </trkpt>
      <trkpt lat="49.32255" lon="1.12501">
        <ele>77</ele>
        <time>2017-01-03T14:33:37Z</time>
      </trkpt>
      <trkpt lat="49.32249" lon="1.12499">
        <ele>77</ele>
        <time>2017-01-03T14:34:13Z</time>
      </trkpt>
      <trkpt lat="49.32249" lon="1.12499">
        <ele>77</ele>
        <time>2017-01-03T14:34:13Z</time>
      </trkpt>
      <trkpt lat="49.32249" lon="1.12499">
        <ele>77</ele>
        <time>2017-01-03T14:34:13Z</time>
      </trkpt>
      <trkpt lat="49.32246" lon="1.12496">
        <ele>77</ele>
        <time>2017-01-03T14:34:13Z</time>
      </trkpt>
      <trkpt lat="49.32243" lon="1.12491">
        <ele>77</ele>
        <time>2017-01-03T14:34:13Z</time>
      </trkpt>
      <trkpt lat="49.32238" lon="1.1249">
        <ele>77</ele>
        <time>2017-01-03T14:34:29Z</time>
      </trkpt>
      <trkpt lat="49.32234" lon="1.12486">
        <ele>77</ele>
        <time>2017-01-03T14:34:29Z</time>
      </trkpt>
      <trkpt lat="49.3223" lon="1.1248">
        <ele>77</ele>
        <time>2017-01-03T14:34:29Z</time>
      </trkpt>
      <trkpt lat="49.32227" lon="1.12474">
        <ele>77</ele>
        <time>2017-01-03T14:34:29Z</time>
      </trkpt>
      <trkpt lat="49.32224" lon="1.12469">
        <ele>77</ele>
        <time>2017-01-03T14:34:45Z</time>
      </trkpt>
      <trkpt lat="49.3222" lon="1.12464">
        <ele>77</ele>
        <time>2017-01-03T14:34:45Z</time>
      </trkpt>
      <trkpt lat="49.32218" lon="1.12458">
        <ele>74</ele>
        <time>2017-01-03T14:34:45Z</time>
      </trkpt>
      <trkpt lat="49.32215" lon="1.12451">
        <ele>74</ele>
        <time>2017-01-03T14:34:45Z</time>
      </trkpt>
      <trkpt lat="49.32212" lon="1.12434">
        <ele>74</ele>
        <time>2017-01-03T14:37:01Z</time>
      </trkpt>
      <trkpt lat="49.32249" lon="1.12523">
        <ele>77</ele>
        <time>2017-01-03T14:37:01Z</time>
      </trkpt>
      <trkpt lat="49.32263" lon="1.12525">
        <ele>77</ele>
        <time>2017-01-03T14:37:01Z</time>
      </trkpt>
      <trkpt lat="49.32271" lon="1.12528">
        <ele>77</ele>
        <time>2017-01-03T14:37:01Z</time>
      </trkpt>
      <trkpt lat="49.32275" lon="1.12534">
        <ele>77</ele>
        <time>2017-01-03T14:37:01Z</time>
      </trkpt>
      <trkpt lat="49.3228" lon="1.12539">
        <ele>77</ele>
        <time>2017-01-03T14:37:17Z</time>
      </trkpt>
      <trkpt lat="49.32284" lon="1.12534">
        <ele>77</ele>
        <time>2017-01-03T14:37:17Z</time>
      </trkpt>
      <trkpt lat="49.32288" lon="1.12528">
        <ele>77</ele>
        <time>2017-01-03T14:37:17Z</time>
      </trkpt>
      <trkpt lat="49.32292" lon="1.12523">
        <ele>77</ele>
        <time>2017-01-03T14:37:17Z</time>
      </trkpt>
      <trkpt lat="49.32295" lon="1.12519">
        <ele>80</ele>
        <time>2017-01-03T14:37:33Z</time>
      </trkpt>
      <trkpt lat="49.32299" lon="1.12516">
        <ele>80</ele>
        <time>2017-01-03T14:37:33Z</time>
      </trkpt>
      <trkpt lat="49.32303" lon="1.12512">
        <ele>80</ele>
        <time>2017-01-03T14:37:33Z</time>
      </trkpt>
      <trkpt lat="49.32308" lon="1.12508">
        <ele>80</ele>
        <time>2017-01-03T14:37:33Z</time>
      </trkpt>
      <trkpt lat="49.32311" lon="1.12504">
        <ele>80</ele>
        <time>2017-01-03T14:37:49Z</time>
      </trkpt>
      <trkpt lat="49.32315" lon="1.125">
        <ele>80</ele>
        <time>2017-01-03T14:37:49Z</time>
      </trkpt>
      <trkpt lat="49.32319" lon="1.12497">
        <ele>80</ele>
        <time>2017-01-03T14:37:49Z</time>
      </trkpt>
      <trkpt lat="49.32322" lon="1.12492">
        <ele>80</ele>
        <time>2017-01-03T14:37:49Z</time>
      </trkpt>
      <trkpt lat="49.32326" lon="1.12487">
        <ele>80</ele>
        <time>2017-01-03T14:38:05Z</time>
      </trkpt>
      <trkpt lat="49.3233" lon="1.12482">
        <ele>80</ele>
        <time>2017-01-03T14:38:05Z</time>
      </trkpt>
      <trkpt lat="49.32335" lon="1.12478">
        <ele>80</ele>
        <time>2017-01-03T14:38:05Z</time>
      </trkpt>
      <trkpt lat="49.32338" lon="1.12473">
        <ele>80</ele>
        <time>2017-01-03T14:38:05Z</time>
      </trkpt>
      <trkpt lat="49.32343" lon="1.12468">
        <ele>80</ele>
        <time>2017-01-03T14:38:21Z</time>
      </trkpt>
      <trkpt lat="49.32347" lon="1.12464">
        <ele>80</ele>
        <time>2017-01-03T14:38:21Z</time>
      </trkpt>
      <trkpt lat="49.32351" lon="1.12461">
        <ele>80</ele>
        <time>2017-01-03T14:38:21Z</time>
      </trkpt>
      <trkpt lat="49.32355" lon="1.12455">
        <ele>77</ele>
        <time>2017-01-03T14:38:21Z</time>
      </trkpt>
      <trkpt lat="49.3236" lon="1.12452">
        <ele>77</ele>
        <time>2017-01-03T14:38:37Z</time>
      </trkpt>
      <trkpt lat="49.32365" lon="1.12447">
        <ele>77</ele>
        <time>2017-01-03T14:38:37Z</time>
      </trkpt>
      <trkpt lat="49.32369" lon="1.12444">
        <ele>77</ele>
        <time>2017-01-03T14:38:37Z</time>
      </trkpt>
      <trkpt lat="49.32373" lon="1.12439">
        <ele>77</ele>
        <time>2017-01-03T14:38:37Z</time>
      </trkpt>
      <trkpt lat="49.32377" lon="1.12435">
        <ele>80</ele>
        <time>2017-01-03T14:38:53Z</time>
      </trkpt>
      <trkpt lat="49.3238" lon="1.1243">
        <ele>80</ele>
        <time>2017-01-03T14:38:53Z</time>
      </trkpt>
      <trkpt lat="49.32383" lon="1.12427">
        <ele>80</ele>
        <time>2017-01-03T14:38:53Z</time>
      </trkpt>
      <trkpt lat="49.32388" lon="1.12423">
        <ele>80</ele>
        <time>2017-01-03T14:38:53Z</time>
      </trkpt>
      <trkpt lat="49.32392" lon="1.12419">
        <ele>80</ele>
        <time>2017-01-03T14:39:09Z</time>
      </trkpt>
      <trkpt lat="49.32395" lon="1.12416">
        <ele>80</ele>
        <time>2017-01-03T14:39:09Z</time>
      </trkpt>
      <trkpt lat="49.32399" lon="1.12411">
        <ele>80</ele>
        <time>2017-01-03T14:39:09Z</time>
      </trkpt>
      <trkpt lat="49.32404" lon="1.12405">
        <ele>80</ele>
        <time>2017-01-03T14:39:09Z</time>
      </trkpt>
      <trkpt lat="49.32409" lon="1.124">
        <ele>80</ele>
        <time>2017-01-03T14:39:25Z</time>
      </trkpt>
      <trkpt lat="49.32414" lon="1.12396">
        <ele>80</ele>
        <time>2017-01-03T14:39:25Z</time>
      </trkpt>
      <trkpt lat="49.32418" lon="1.12391">
        <ele>80</ele>
        <time>2017-01-03T14:39:25Z</time>
      </trkpt>
      <trkpt lat="49.32422" lon="1.12384">
        <ele>80</ele>
        <time>2017-01-03T14:39:25Z</time>
      </trkpt>
      <trkpt lat="49.32427" lon="1.12378">
        <ele>80</ele>
        <time>2017-01-03T14:39:41Z</time>
      </trkpt>
      <trkpt lat="49.3243" lon="1.12372">
        <ele>81</ele>
        <time>2017-01-03T14:39:41Z</time>
      </trkpt>
      <trkpt lat="49.32433" lon="1.12366">
        <ele>81</ele>
        <time>2017-01-03T14:39:41Z</time>
      </trkpt>
      <trkpt lat="49.32436" lon="1.12358">
        <ele>81</ele>
        <time>2017-01-03T14:39:41Z</time>
      </trkpt>
      <trkpt lat="49.32438" lon="1.12352">
        <ele>81</ele>
        <time>2017-01-03T14:39:57Z</time>
      </trkpt>
      <trkpt lat="49.3244" lon="1.12346">
        <ele>81</ele>
        <time>2017-01-03T14:39:57Z</time>
      </trkpt>
      <trkpt lat="49.32442" lon="1.12339">
        <ele>81</ele>
        <time>2017-01-03T14:39:57Z</time>
      </trkpt>
      <trkpt lat="49.32443" lon="1.1233">
        <ele>81</ele>
        <time>2017-01-03T14:39:57Z</time>
      </trkpt>
      <trkpt lat="49.32445" lon="1.12324">
        <ele>81</ele>
        <time>2017-01-03T14:40:13Z</time>
      </trkpt>
      <trkpt lat="49.32448" lon="1.12316">
        <ele>81</ele>
        <time>2017-01-03T14:40:13Z</time>
      </trkpt>
      <trkpt lat="49.32449" lon="1.12308">
        <ele>81</ele>
        <time>2017-01-03T14:40:13Z</time>
      </trkpt>
      <trkpt lat="49.32446" lon="1.12302">
        <ele>81</ele>
        <time>2017-01-03T14:40:13Z</time>
      </trkpt>
      <trkpt lat="49.32447" lon="1.12296">
        <ele>81</ele>
        <time>2017-01-03T14:40:29Z</time>
      </trkpt>
      <trkpt lat="49.32445" lon="1.1229">
        <ele>84</ele>
        <time>2017-01-03T14:40:29Z</time>
      </trkpt>
      <trkpt lat="49.32444" lon="1.12282">
        <ele>84</ele>
        <time>2017-01-03T14:40:29Z</time>
      </trkpt>
      <trkpt lat="49.32445" lon="1.12275">
        <ele>84</ele>
        <time>2017-01-03T14:40:29Z</time>
      </trkpt>
      <trkpt lat="49.32446" lon="1.12267">
        <ele>84</ele>
        <time>2017-01-03T14:40:45Z</time>
      </trkpt>
      <trkpt lat="49.32447" lon="1.1226">
        <ele>84</ele>
        <time>2017-01-03T14:40:45Z</time>
      </trkpt>
      <trkpt lat="49.32447" lon="1.12253">
        <ele>84</ele>
        <time>2017-01-03T14:40:45Z</time>
      </trkpt>
      <trkpt lat="49.32447" lon="1.12246">
        <ele>84</ele>
        <time>2017-01-03T14:40:45Z</time>
      </trkpt>
      <trkpt lat="49.32449" lon="1.12239">
        <ele>84</ele>
        <time>2017-01-03T14:41:01Z</time>
      </trkpt>
      <trkpt lat="49.32449" lon="1.12233">
        <ele>84</ele>
        <time>2017-01-03T14:41:01Z</time>
      </trkpt>
      <trkpt lat="49.3245" lon="1.12226">
        <ele>84</ele>
        <time>2017-01-03T14:41:01Z</time>
      </trkpt>
      <trkpt lat="49.32451" lon="1.12218">
        <ele>84</ele>
        <time>2017-01-03T14:41:01Z</time>
      </trkpt>
      <trkpt lat="49.32453" lon="1.12208">
        <ele>84</ele>
        <time>2017-01-03T14:41:17Z</time>
      </trkpt>
      <trkpt lat="49.32455" lon="1.122">
        <ele>84</ele>
        <time>2017-01-03T14:41:17Z</time>
      </trkpt>
      <trkpt lat="49.32456" lon="1.12193">
        <ele>84</ele>
        <time>2017-01-03T14:41:17Z</time>
      </trkpt>
      <trkpt lat="49.32457" lon="1.12185">
        <ele>84</ele>
        <time>2017-01-03T14:41:17Z</time>
      </trkpt>
      <trkpt lat="49.32459" lon="1.12177">
        <ele>84</ele>
        <time>2017-01-03T14:41:33Z</time>
      </trkpt>
      <trkpt lat="49.32459" lon="1.12168">
        <ele>84</ele>
        <time>2017-01-03T14:41:33Z</time>
      </trkpt>
      <trkpt lat="49.32461" lon="1.1216">
        <ele>84</ele>
        <time>2017-01-03T14:41:33Z</time>
      </trkpt>
      <trkpt lat="49.32462" lon="1.12154">
        <ele>84</ele>
        <time>2017-01-03T14:41:33Z</time>
      </trkpt>
      <trkpt lat="49.32462" lon="1.12147">
        <ele>84</ele>
        <time>2017-01-03T14:41:49Z</time>
      </trkpt>
      <trkpt lat="49.32463" lon="1.12141">
        <ele>84</ele>
        <time>2017-01-03T14:41:49Z</time>
      </trkpt>
      <trkpt lat="49.32464" lon="1.12133">
        <ele>84</ele>
        <time>2017-01-03T14:41:49Z</time>
      </trkpt>
      <trkpt lat="49.32466" lon="1.12125">
        <ele>84</ele>
        <time>2017-01-03T14:41:49Z</time>
      </trkpt>
      <trkpt lat="49.32467" lon="1.12116">
        <ele>84</ele>
        <time>2017-01-03T14:42:05Z</time>
      </trkpt>
      <trkpt lat="49.32468" lon="1.12109">
        <ele>84</ele>
        <time>2017-01-03T14:42:05Z</time>
      </trkpt>
      <trkpt lat="49.32468" lon="1.12104">
        <ele>84</ele>
        <time>2017-01-03T14:42:05Z</time>
      </trkpt>
      <trkpt lat="49.32469" lon="1.12096">
        <ele>84</ele>
        <time>2017-01-03T14:42:05Z</time>
      </trkpt>
      <trkpt lat="49.3247" lon="1.12086">
        <ele>84</ele>
        <time>2017-01-03T14:42:21Z</time>
      </trkpt>
      <trkpt lat="49.32471" lon="1.12076">
        <ele>84</ele>
        <time>2017-01-03T14:42:21Z</time>
      </trkpt>
      <trkpt lat="49.32473" lon="1.12068">
        <ele>84</ele>
        <time>2017-01-03T14:42:21Z</time>
      </trkpt>
      <trkpt lat="49.32473" lon="1.12063">
        <ele>84</ele>
        <time>2017-01-03T14:42:21Z</time>
      </trkpt>
      <trkpt lat="49.32475" lon="1.12057">
        <ele>84</ele>
        <time>2017-01-03T14:42:37Z</time>
      </trkpt>
      <trkpt lat="49.32476" lon="1.12049">
        <ele>84</ele>
        <time>2017-01-03T14:42:37Z</time>
      </trkpt>
      <trkpt lat="49.32478" lon="1.12041">
        <ele>84</ele>
        <time>2017-01-03T14:42:37Z</time>
      </trkpt>
      <trkpt lat="49.32479" lon="1.12032">
        <ele>84</ele>
        <time>2017-01-03T14:42:37Z</time>
      </trkpt>
      <trkpt lat="49.3248" lon="1.12024">
        <ele>84</ele>
        <time>2017-01-03T14:42:53Z</time>
      </trkpt>
      <trkpt lat="49.32482" lon="1.12018">
        <ele>84</ele>
        <time>2017-01-03T14:42:53Z</time>
      </trkpt>
      <trkpt lat="49.32483" lon="1.12011">
        <ele>84</ele>
        <time>2017-01-03T14:42:53Z</time>
      </trkpt>
      <trkpt lat="49.32484" lon="1.12003">
        <ele>84</ele>
        <time>2017-01-03T14:42:53Z</time>
      </trkpt>
      <trkpt lat="49.32485" lon="1.11995">
        <ele>84</ele>
        <time>2017-01-03T14:43:09Z</time>
      </trkpt>
      <trkpt lat="49.32487" lon="1.11988">
        <ele>84</ele>
        <time>2017-01-03T14:43:09Z</time>
      </trkpt>
      <trkpt lat="49.32488" lon="1.11981">
        <ele>84</ele>
        <time>2017-01-03T14:43:09Z</time>
      </trkpt>
      <trkpt lat="49.3249" lon="1.11973">
        <ele>84</ele>
        <time>2017-01-03T14:43:09Z</time>
      </trkpt>
      <trkpt lat="49.3249" lon="1.11965">
        <ele>84</ele>
        <time>2017-01-03T14:43:25Z</time>
      </trkpt>
      <trkpt lat="49.32491" lon="1.11958">
        <ele>83</ele>
        <time>2017-01-03T14:43:25Z</time>
      </trkpt>
      <trkpt lat="49.32492" lon="1.1195">
        <ele>83</ele>
        <time>2017-01-03T14:43:25Z</time>
      </trkpt>
      <trkpt lat="49.32492" lon="1.11941">
        <ele>83</ele>
        <time>2017-01-03T14:43:25Z</time>
      </trkpt>
      <trkpt lat="49.32492" lon="1.11933">
        <ele>83</ele>
        <time>2017-01-03T14:43:41Z</time>
      </trkpt>
      <trkpt lat="49.32492" lon="1.11926">
        <ele>83</ele>
        <time>2017-01-03T14:43:41Z</time>
      </trkpt>
      <trkpt lat="49.32491" lon="1.11919">
        <ele>83</ele>
        <time>2017-01-03T14:43:41Z</time>
      </trkpt>
      <trkpt lat="49.32489" lon="1.11911">
        <ele>83</ele>
        <time>2017-01-03T14:43:41Z</time>
      </trkpt>
      <trkpt lat="49.32487" lon="1.11903">
        <ele>83</ele>
        <time>2017-01-03T14:43:57Z</time>
      </trkpt>
      <trkpt lat="49.32486" lon="1.11897">
        <ele>83</ele>
        <time>2017-01-03T14:43:57Z</time>
      </trkpt>
      <trkpt lat="49.32485" lon="1.11891">
        <ele>83</ele>
        <time>2017-01-03T14:43:57Z</time>
      </trkpt>
      <trkpt lat="49.32485" lon="1.11884">
        <ele>83</ele>
        <time>2017-01-03T14:43:57Z</time>
      </trkpt>
      <trkpt lat="49.32483" lon="1.11877">
        <ele>83</ele>
        <time>2017-01-03T14:44:13Z</time>
      </trkpt>
      <trkpt lat="49.3248" lon="1.11871">
        <ele>81</ele>
        <time>2017-01-03T14:44:13Z</time>
      </trkpt>
      <trkpt lat="49.32479" lon="1.11863">
        <ele>81</ele>
        <time>2017-01-03T14:44:13Z</time>
      </trkpt>
      <trkpt lat="49.32478" lon="1.11857">
        <ele>81</ele>
        <time>2017-01-03T14:44:13Z</time>
      </trkpt>
      <trkpt lat="49.32477" lon="1.1185">
        <ele>81</ele>
        <time>2017-01-03T14:44:29Z</time>
      </trkpt>
      <trkpt lat="49.32475" lon="1.11844">
        <ele>81</ele>
        <time>2017-01-03T14:44:29Z</time>
      </trkpt>
      <trkpt lat="49.32473" lon="1.11836">
        <ele>81</ele>
        <time>2017-01-03T14:44:29Z</time>
      </trkpt>
      <trkpt lat="49.32472" lon="1.1183">
        <ele>81</ele>
        <time>2017-01-03T14:44:29Z</time>
      </trkpt>
      <trkpt lat="49.32471" lon="1.11824">
        <ele>81</ele>
        <time>2017-01-03T14:44:45Z</time>
      </trkpt>
      <trkpt lat="49.32469" lon="1.11816">
        <ele>81</ele>
        <time>2017-01-03T14:44:45Z</time>
      </trkpt>
      <trkpt lat="49.32468" lon="1.11809">
        <ele>81</ele>
        <time>2017-01-03T14:44:45Z</time>
      </trkpt>
      <trkpt lat="49.32466" lon="1.11801">
        <ele>81</ele>
        <time>2017-01-03T14:44:45Z</time>
      </trkpt>
      <trkpt lat="49.32464" lon="1.11795">
        <ele>81</ele>
        <time>2017-01-03T14:45:01Z</time>
      </trkpt>
      <trkpt lat="49.32462" lon="1.11786">
        <ele>78</ele>
        <time>2017-01-03T14:45:01Z</time>
      </trkpt>
      <trkpt lat="49.3246" lon="1.11779">
        <ele>78</ele>
        <time>2017-01-03T14:45:01Z</time>
      </trkpt>
      <trkpt lat="49.32459" lon="1.11771">
        <ele>78</ele>
        <time>2017-01-03T14:45:01Z</time>
      </trkpt>
      <trkpt lat="49.32458" lon="1.11762">
        <ele>78</ele>
        <time>2017-01-03T14:45:17Z</time>
      </trkpt>
      <trkpt lat="49.32456" lon="1.11754">
        <ele>78</ele>
        <time>2017-01-03T14:45:17Z</time>
      </trkpt>
      <trkpt lat="49.32454" lon="1.11748">
        <ele>78</ele>
        <time>2017-01-03T14:45:17Z</time>
      </trkpt>
      <trkpt lat="49.32453" lon="1.11739">
        <ele>78</ele>
        <time>2017-01-03T14:45:17Z</time>
      </trkpt>
      <trkpt lat="49.32451" lon="1.11731">
        <ele>78</ele>
        <time>2017-01-03T14:45:33Z</time>
      </trkpt>
      <trkpt lat="49.32449" lon="1.11723">
        <ele>78</ele>
        <time>2017-01-03T14:45:33Z</time>
      </trkpt>
      <trkpt lat="49.32447" lon="1.11714">
        <ele>78</ele>
        <time>2017-01-03T14:45:33Z</time>
      </trkpt>
      <trkpt lat="49.32445" lon="1.11708">
        <ele>77</ele>
        <time>2017-01-03T14:45:33Z</time>
      </trkpt>
      <trkpt lat="49.32444" lon="1.117">
        <ele>77</ele>
        <time>2017-01-03T14:45:49Z</time>
      </trkpt>
      <trkpt lat="49.32442" lon="1.11693">
        <ele>77</ele>
        <time>2017-01-03T14:45:49Z</time>
      </trkpt>
      <trkpt lat="49.32442" lon="1.11685">
        <ele>77</ele>
        <time>2017-01-03T14:45:49Z</time>
      </trkpt>
      <trkpt lat="49.3244" lon="1.11677">
        <ele>77</ele>
        <time>2017-01-03T14:45:49Z</time>
      </trkpt>
      <trkpt lat="49.32438" lon="1.11669">
        <ele>77</ele>
        <time>2017-01-03T14:46:05Z</time>
      </trkpt>
      <trkpt lat="49.32436" lon="1.11663">
        <ele>77</ele>
        <time>2017-01-03T14:46:05Z</time>
      </trkpt>
      <trkpt lat="49.32435" lon="1.11657">
        <ele>77</ele>
        <time>2017-01-03T14:46:05Z</time>
      </trkpt>
      <trkpt lat="49.32433" lon="1.11651">
        <ele>77</ele>
        <time>2017-01-03T14:46:05Z</time>
      </trkpt>
      <trkpt lat="49.32433" lon="1.11643">
        <ele>77</ele>
        <time>2017-01-03T14:46:21Z</time>
      </trkpt>
      <trkpt lat="49.32433" lon="1.11636">
        <ele>77</ele>
        <time>2017-01-03T14:46:21Z</time>
      </trkpt>
      <trkpt lat="49.32432" lon="1.11629">
        <ele>77</ele>
        <time>2017-01-03T14:46:21Z</time>
      </trkpt>
      <trkpt lat="49.32431" lon="1.11621">
        <ele>75</ele>
        <time>2017-01-03T14:46:21Z</time>
      </trkpt>
      <trkpt lat="49.32429" lon="1.11613">
        <ele>75</ele>
        <time>2017-01-03T14:46:37Z</time>
      </trkpt>
      <trkpt lat="49.32428" lon="1.11605">
        <ele>75</ele>
        <time>2017-01-03T14:46:37Z</time>
      </trkpt>
      <trkpt lat="49.32427" lon="1.11599">
        <ele>75</ele>
        <time>2017-01-03T14:46:37Z</time>
      </trkpt>
      <trkpt lat="49.32425" lon="1.11592">
        <ele>75</ele>
        <time>2017-01-03T14:46:37Z</time>
      </trkpt>
      <trkpt lat="49.32424" lon="1.11584">
        <ele>75</ele>
        <time>2017-01-03T14:46:53Z</time>
      </trkpt>
      <trkpt lat="49.32424" lon="1.11576">
        <ele>75</ele>
        <time>2017-01-03T14:46:53Z</time>
      </trkpt>
      <trkpt lat="49.32422" lon="1.11569">
        <ele>75</ele>
        <time>2017-01-03T14:46:53Z</time>
      </trkpt>
      <trkpt lat="49.3242" lon="1.11562">
        <ele>75</ele>
        <time>2017-01-03T14:46:53Z</time>
      </trkpt>
      <trkpt lat="49.32419" lon="1.11554">
        <ele>75</ele>
        <time>2017-01-03T14:47:09Z</time>
      </trkpt>
      <trkpt lat="49.32419" lon="1.11547">
        <ele>75</ele>
        <time>2017-01-03T14:47:09Z</time>
      </trkpt>
      <trkpt lat="49.32417" lon="1.1154">
        <ele>73</ele>
        <time>2017-01-03T14:47:09Z</time>
      </trkpt>
      <trkpt lat="49.32415" lon="1.11534">
        <ele>73</ele>
        <time>2017-01-03T14:47:09Z</time>
      </trkpt>
      <trkpt lat="49.32414" lon="1.1153">
        <ele>73</ele>
        <time>2017-01-03T14:47:25Z</time>
      </trkpt>
      <trkpt lat="49.32411" lon="1.11522">
        <ele>73</ele>
        <time>2017-01-03T14:47:25Z</time>
      </trkpt>
      <trkpt lat="49.32408" lon="1.11513">
        <ele>73</ele>
        <time>2017-01-03T14:47:25Z</time>
      </trkpt>
      <trkpt lat="49.32405" lon="1.11506">
        <ele>73</ele>
        <time>2017-01-03T14:47:25Z</time>
      </trkpt>
      <trkpt lat="49.32404" lon="1.11498">
        <ele>73</ele>
        <time>2017-01-03T14:47:41Z</time>
      </trkpt>
      <trkpt lat="49.32403" lon="1.11491">
        <ele>73</ele>
        <time>2017-01-03T14:47:41Z</time>
      </trkpt>
      <trkpt lat="49.324" lon="1.11483">
        <ele>73</ele>
        <time>2017-01-03T14:47:41Z</time>
      </trkpt>
      <trkpt lat="49.32398" lon="1.11476">
        <ele>73</ele>
        <time>2017-01-03T14:47:41Z</time>
      </trkpt>
      <trkpt lat="49.32395" lon="1.1147">
        <ele>73</ele>
        <time>2017-01-03T14:47:57Z</time>
      </trkpt>
      <trkpt lat="49.32393" lon="1.11463">
        <ele>73</ele>
        <time>2017-01-03T14:47:57Z</time>
      </trkpt>
      <trkpt lat="49.32391" lon="1.11457">
        <ele>73</ele>
        <time>2017-01-03T14:47:57Z</time>
      </trkpt>
      <trkpt lat="49.32389" lon="1.1145">
        <ele>73</ele>
        <time>2017-01-03T14:47:57Z</time>
      </trkpt>
      <trkpt lat="49.32385" lon="1.11446">
        <ele>73</ele>
        <time>2017-01-03T14:48:13Z</time>
      </trkpt>
      <trkpt lat="49.32381" lon="1.1145">
        <ele>73</ele>
        <time>2017-01-03T14:48:13Z</time>
      </trkpt>
      <trkpt lat="49.32377" lon="1.11453">
        <ele>73</ele>
        <time>2017-01-03T14:48:13Z</time>
      </trkpt>
      <trkpt lat="49.32374" lon="1.11455">
        <ele>79</ele>
        <time>2017-01-03T14:48:13Z</time>
      </trkpt>
      <trkpt lat="49.32374" lon="1.11465">
        <ele>78</ele>
        <time>2017-01-03T14:52:10Z</time>
      </trkpt>
      <trkpt lat="49.32371" lon="1.1147">
        <ele>78</ele>
        <time>2017-01-03T14:52:10Z</time>
      </trkpt>
      <trkpt lat="49.32366" lon="1.11474">
        <ele>78</ele>
        <time>2017-01-03T14:52:10Z</time>
      </trkpt>
      <trkpt lat="49.32363" lon="1.11477">
        <ele>78</ele>
        <time>2017-01-03T14:52:10Z</time>
      </trkpt>
      <trkpt lat="49.32357" lon="1.11481">
        <ele>78</ele>
        <time>2017-01-03T14:52:10Z</time>
      </trkpt>
      <trkpt lat="49.32354" lon="1.1148">
        <ele>78</ele>
        <time>2017-01-03T14:52:25Z</time>
      </trkpt>
      <trkpt lat="49.32349" lon="1.11486">
        <ele>78</ele>
        <time>2017-01-03T14:52:25Z</time>
      </trkpt>
      <trkpt lat="49.32346" lon="1.11491">
        <ele>78</ele>
        <time>2017-01-03T14:52:25Z</time>
      </trkpt>
      <trkpt lat="49.32342" lon="1.11494">
        <ele>78</ele>
        <time>2017-01-03T14:52:25Z</time>
      </trkpt>
      <trkpt lat="49.32337" lon="1.115">
        <ele>78</ele>
        <time>2017-01-03T14:52:41Z</time>
      </trkpt>
      <trkpt lat="49.32337" lon="1.11506">
        <ele>78</ele>
        <time>2017-01-03T14:52:41Z</time>
      </trkpt>
      <trkpt lat="49.32335" lon="1.11513">
        <ele>78</ele>
        <time>2017-01-03T14:52:41Z</time>
      </trkpt>
      <trkpt lat="49.32331" lon="1.11518">
        <ele>78</ele>
        <time>2017-01-03T14:52:41Z</time>
      </trkpt>
      <trkpt lat="49.32327" lon="1.11524">
        <ele>78</ele>
        <time>2017-01-03T14:52:57Z</time>
      </trkpt>
      <trkpt lat="49.32324" lon="1.11529">
        <ele>78</ele>
        <time>2017-01-03T14:52:57Z</time>
      </trkpt>
      <trkpt lat="49.3232" lon="1.11534">
        <ele>78</ele>
        <time>2017-01-03T14:52:57Z</time>
      </trkpt>
      <trkpt lat="49.32317" lon="1.11539">
        <ele>78</ele>
        <time>2017-01-03T14:52:57Z</time>
      </trkpt>
      <trkpt lat="49.32313" lon="1.11546">
        <ele>77</ele>
        <time>2017-01-03T14:53:13Z</time>
      </trkpt>
      <trkpt lat="49.32309" lon="1.11553">
        <ele>77</ele>
        <time>2017-01-03T14:53:13Z</time>
      </trkpt>
      <trkpt lat="49.32304" lon="1.11556">
        <ele>77</ele>
        <time>2017-01-03T14:53:13Z</time>
      </trkpt>
      <trkpt lat="49.32301" lon="1.11561">
        <ele>77</ele>
        <time>2017-01-03T14:53:13Z</time>
      </trkpt>
      <trkpt lat="49.32296" lon="1.11567">
        <ele>77</ele>
        <time>2017-01-03T14:53:29Z</time>
      </trkpt>
      <trkpt lat="49.32293" lon="1.11571">
        <ele>77</ele>
        <time>2017-01-03T14:53:29Z</time>
      </trkpt>
      <trkpt lat="49.32291" lon="1.11577">
        <ele>84</ele>
        <time>2017-01-03T14:53:29Z</time>
      </trkpt>
      <trkpt lat="49.32288" lon="1.11584">
        <ele>84</ele>
        <time>2017-01-03T14:53:29Z</time>
      </trkpt>
      <trkpt lat="49.32286" lon="1.11589">
        <ele>84</ele>
        <time>2017-01-03T14:53:45Z</time>
      </trkpt>
      <trkpt lat="49.32283" lon="1.11596">
        <ele>84</ele>
        <time>2017-01-03T14:53:45Z</time>
      </trkpt>
      <trkpt lat="49.32281" lon="1.11604">
        <ele>84</ele>
        <time>2017-01-03T14:53:45Z</time>
      </trkpt>
      <trkpt lat="49.32278" lon="1.11611">
        <ele>84</ele>
        <time>2017-01-03T14:53:45Z</time>
      </trkpt>
      <trkpt lat="49.32274" lon="1.11617">
        <ele>84</ele>
        <time>2017-01-03T14:54:01Z</time>
      </trkpt>
      <trkpt lat="49.3227" lon="1.11622">
        <ele>84</ele>
        <time>2017-01-03T14:54:01Z</time>
      </trkpt>
      <trkpt lat="49.32265" lon="1.11628">
        <ele>81</ele>
        <time>2017-01-03T14:54:01Z</time>
      </trkpt>
      <trkpt lat="49.32258" lon="1.11634">
        <ele>81</ele>
        <time>2017-01-03T14:54:01Z</time>
      </trkpt>
      <trkpt lat="49.32253" lon="1.11639">
        <ele>81</ele>
        <time>2017-01-03T14:54:17Z</time>
      </trkpt>
      <trkpt lat="49.32249" lon="1.11642">
        <ele>81</ele>
        <time>2017-01-03T14:54:17Z</time>
      </trkpt>
      <trkpt lat="49.32244" lon="1.11648">
        <ele>81</ele>
        <time>2017-01-03T14:54:17Z</time>
      </trkpt>
      <trkpt lat="49.32239" lon="1.11652">
        <ele>81</ele>
        <time>2017-01-03T14:54:17Z</time>
      </trkpt>
      <trkpt lat="49.32234" lon="1.11655">
        <ele>81</ele>
        <time>2017-01-03T14:54:33Z</time>
      </trkpt>
      <trkpt lat="49.32231" lon="1.11659">
        <ele>81</ele>
        <time>2017-01-03T14:54:33Z</time>
      </trkpt>
      <trkpt lat="49.32226" lon="1.11659">
        <ele>81</ele>
        <time>2017-01-03T14:54:33Z</time>
      </trkpt>
      <trkpt lat="49.32224" lon="1.11664">
        <ele>81</ele>
        <time>2017-01-03T14:54:33Z</time>
      </trkpt>
      <trkpt lat="49.3222" lon="1.11669">
        <ele>81</ele>
        <time>2017-01-03T14:54:49Z</time>
      </trkpt>
      <trkpt lat="49.32217" lon="1.11676">
        <ele>81</ele>
        <time>2017-01-03T14:54:49Z</time>
      </trkpt>
      <trkpt lat="49.32211" lon="1.11682">
        <ele>81</ele>
        <time>2017-01-03T14:54:49Z</time>
      </trkpt>
      <trkpt lat="49.32207" lon="1.11686">
        <ele>82</ele>
        <time>2017-01-03T14:54:49Z</time>
      </trkpt>
      <trkpt lat="49.32203" lon="1.1169">
        <ele>82</ele>
        <time>2017-01-03T14:55:05Z</time>
      </trkpt>
      <trkpt lat="49.32197" lon="1.11694">
        <ele>82</ele>
        <time>2017-01-03T14:55:05Z</time>
      </trkpt>
      <trkpt lat="49.32192" lon="1.11698">
        <ele>82</ele>
        <time>2017-01-03T14:55:05Z</time>
      </trkpt>
      <trkpt lat="49.32187" lon="1.11701">
        <ele>82</ele>
        <time>2017-01-03T14:55:05Z</time>
      </trkpt>
      <trkpt lat="49.32183" lon="1.11705">
        <ele>82</ele>
        <time>2017-01-03T14:55:21Z</time>
      </trkpt>
      <trkpt lat="49.32179" lon="1.11708">
        <ele>82</ele>
        <time>2017-01-03T14:55:21Z</time>
      </trkpt>
      <trkpt lat="49.32173" lon="1.11711">
        <ele>76</ele>
        <time>2017-01-03T14:55:21Z</time>
      </trkpt>
      <trkpt lat="49.32168" lon="1.11713">
        <ele>76</ele>
        <time>2017-01-03T14:55:21Z</time>
      </trkpt>
      <trkpt lat="49.3216" lon="1.11713">
        <ele>76</ele>
        <time>2017-01-03T14:55:53Z</time>
      </trkpt>
      <trkpt lat="49.32157" lon="1.11715">
        <ele>76</ele>
        <time>2017-01-03T14:55:53Z</time>
      </trkpt>
      <trkpt lat="49.32151" lon="1.1172">
        <ele>76</ele>
        <time>2017-01-03T14:55:53Z</time>
      </trkpt>
      <trkpt lat="49.32146" lon="1.11724">
        <ele>76</ele>
        <time>2017-01-03T14:55:53Z</time>
      </trkpt>
      <trkpt lat="49.32145" lon="1.11723">
        <ele>76</ele>
        <time>2017-01-03T14:55:53Z</time>
      </trkpt>
      <trkpt lat="49.32143" lon="1.11724">
        <ele>76</ele>
        <time>2017-01-03T14:56:13Z</time>
      </trkpt>
      <trkpt lat="49.32138" lon="1.11725">
        <ele>76</ele>
        <time>2017-01-03T14:56:13Z</time>
      </trkpt>
      <trkpt lat="49.32136" lon="1.11724">
        <ele>76</ele>
        <time>2017-01-03T14:56:13Z</time>
      </trkpt>
      <trkpt lat="49.32134" lon="1.11728">
        <ele>76</ele>
        <time>2017-01-03T14:56:13Z</time>
      </trkpt>
      <trkpt lat="49.32129" lon="1.11735">
        <ele>76</ele>
        <time>2017-01-03T14:56:13Z</time>
      </trkpt>
      <trkpt lat="49.32122" lon="1.11751">
        <ele>51</ele>
        <time>2017-01-03T14:56:49Z</time>
      </trkpt>
      <trkpt lat="49.32121" lon="1.11753">
        <ele>51</ele>
        <time>2017-01-03T14:56:49Z</time>
      </trkpt>
      <trkpt lat="49.32119" lon="1.11757">
        <ele>51</ele>
        <time>2017-01-03T14:56:49Z</time>
      </trkpt>
      <trkpt lat="49.32117" lon="1.11761">
        <ele>51</ele>
        <time>2017-01-03T14:56:49Z</time>
      </trkpt>
      <trkpt lat="49.32115" lon="1.11764">
        <ele>51</ele>
        <time>2017-01-03T14:56:49Z</time>
      </trkpt>
      <trkpt lat="49.32114" lon="1.11767">
        <ele>51</ele>
        <time>2017-01-03T14:57:05Z</time>
      </trkpt>
      <trkpt lat="49.3211" lon="1.11776">
        <ele>51</ele>
        <time>2017-01-03T14:57:05Z</time>
      </trkpt>
      <trkpt lat="49.32106" lon="1.11785">
        <ele>51</ele>
        <time>2017-01-03T14:57:05Z</time>
      </trkpt>
      <trkpt lat="49.32103" lon="1.11794">
        <ele>49</ele>
        <time>2017-01-03T14:57:05Z</time>
      </trkpt>
      <trkpt lat="49.321" lon="1.11799">
        <ele>49</ele>
        <time>2017-01-03T14:57:21Z</time>
      </trkpt>
      <trkpt lat="49.32097" lon="1.11804">
        <ele>49</ele>
        <time>2017-01-03T14:57:21Z</time>
      </trkpt>
      <trkpt lat="49.32095" lon="1.11806">
        <ele>49</ele>
        <time>2017-01-03T14:57:21Z</time>
      </trkpt>
      <trkpt lat="49.32092" lon="1.11816">
        <ele>49</ele>
        <time>2017-01-03T14:57:21Z</time>
      </trkpt>
      <trkpt lat="49.32092" lon="1.11825">
        <ele>49</ele>
        <time>2017-01-03T14:57:37Z</time>
      </trkpt>
      <trkpt lat="49.3209" lon="1.11835">
        <ele>49</ele>
        <time>2017-01-03T14:57:37Z</time>
      </trkpt>
      <trkpt lat="49.32088" lon="1.11844">
        <ele>49</ele>
        <time>2017-01-03T14:57:37Z</time>
      </trkpt>
      <trkpt lat="49.32086" lon="1.1185">
        <ele>49</ele>
        <time>2017-01-03T14:57:37Z</time>
      </trkpt>
      <trkpt lat="49.32085" lon="1.1185">
        <ele>49</ele>
        <time>2017-01-03T14:57:53Z</time>
      </trkpt>
      <trkpt lat="49.32084" lon="1.11852">
        <ele>49</ele>
        <time>2017-01-03T14:57:53Z</time>
      </trkpt>
      <trkpt lat="49.32083" lon="1.11859">
        <ele>49</ele>
        <time>2017-01-03T14:57:53Z</time>
      </trkpt>
      <trkpt lat="49.32082" lon="1.11865">
        <ele>49</ele>
        <time>2017-01-03T14:57:53Z</time>
      </trkpt>
      <trkpt lat="49.32081" lon="1.11871">
        <ele>49</ele>
        <time>2017-01-03T14:58:09Z</time>
      </trkpt>
      <trkpt lat="49.3208" lon="1.11883">
        <ele>47</ele>
        <time>2017-01-03T14:58:09Z</time>
      </trkpt>
      <trkpt lat="49.32077" lon="1.11891">
        <ele>47</ele>
        <time>2017-01-03T14:58:09Z</time>
      </trkpt>
      <trkpt lat="49.32076" lon="1.119">
        <ele>47</ele>
        <time>2017-01-03T14:58:09Z</time>
      </trkpt>
      <trkpt lat="49.32075" lon="1.11909">
        <ele>47</ele>
        <time>2017-01-03T14:58:25Z</time>
      </trkpt>
      <trkpt lat="49.32072" lon="1.11915">
        <ele>47</ele>
        <time>2017-01-03T14:58:25Z</time>
      </trkpt>
      <trkpt lat="49.3207" lon="1.11921">
        <ele>47</ele>
        <time>2017-01-03T14:58:25Z</time>
      </trkpt>
      <trkpt lat="49.3207" lon="1.11922">
        <ele>47</ele>
        <time>2017-01-03T14:58:25Z</time>
      </trkpt>
      <trkpt lat="49.32069" lon="1.11922">
        <ele>47</ele>
        <time>2017-01-03T14:58:41Z</time>
      </trkpt>
      <trkpt lat="49.32068" lon="1.11929">
        <ele>47</ele>
        <time>2017-01-03T14:58:41Z</time>
      </trkpt>
      <trkpt lat="49.32067" lon="1.11936">
        <ele>47</ele>
        <time>2017-01-03T14:58:41Z</time>
      </trkpt>
      <trkpt lat="49.32066" lon="1.11941">
        <ele>47</ele>
        <time>2017-01-03T14:58:41Z</time>
      </trkpt>
      <trkpt lat="49.32065" lon="1.1195">
        <ele>47</ele>
        <time>2017-01-03T14:58:57Z</time>
      </trkpt>
      <trkpt lat="49.32064" lon="1.1196">
        <ele>43</ele>
        <time>2017-01-03T14:58:57Z</time>
      </trkpt>
      <trkpt lat="49.32062" lon="1.1197">
        <ele>43</ele>
        <time>2017-01-03T14:58:57Z</time>
      </trkpt>
      <trkpt lat="49.32061" lon="1.11979">
        <ele>43</ele>
        <time>2017-01-03T14:58:57Z</time>
      </trkpt>
      <trkpt lat="49.3206" lon="1.11987">
        <ele>43</ele>
        <time>2017-01-03T14:59:13Z</time>
      </trkpt>
      <trkpt lat="49.32059" lon="1.11995">
        <ele>43</ele>
        <time>2017-01-03T14:59:13Z</time>
      </trkpt>
      <trkpt lat="49.32058" lon="1.12003">
        <ele>43</ele>
        <time>2017-01-03T14:59:13Z</time>
      </trkpt>
      <trkpt lat="49.32059" lon="1.12011">
        <ele>43</ele>
        <time>2017-01-03T14:59:13Z</time>
      </trkpt>
      <trkpt lat="49.32059" lon="1.12017">
        <ele>43</ele>
        <time>2017-01-03T14:59:29Z</time>
      </trkpt>
      <trkpt lat="49.32059" lon="1.12025">
        <ele>43</ele>
        <time>2017-01-03T14:59:29Z</time>
      </trkpt>
      <trkpt lat="49.32059" lon="1.12032">
        <ele>43</ele>
        <time>2017-01-03T14:59:29Z</time>
      </trkpt>
      <trkpt lat="49.3206" lon="1.12038">
        <ele>43</ele>
        <time>2017-01-03T14:59:29Z</time>
      </trkpt>
      <trkpt lat="49.32058" lon="1.12044">
        <ele>41</ele>
        <time>2017-01-03T14:59:45Z</time>
      </trkpt>
      <trkpt lat="49.32057" lon="1.12053">
        <ele>41</ele>
        <time>2017-01-03T14:59:45Z</time>
      </trkpt>
      <trkpt lat="49.32056" lon="1.12062">
        <ele>41</ele>
        <time>2017-01-03T14:59:45Z</time>
      </trkpt>
      <trkpt lat="49.32057" lon="1.1207">
        <ele>41</ele>
        <time>2017-01-03T14:59:45Z</time>
      </trkpt>
      <trkpt lat="49.32058" lon="1.12077">
        <ele>41</ele>
        <time>2017-01-03T15:00:01Z</time>
      </trkpt>
      <trkpt lat="49.32059" lon="1.12085">
        <ele>41</ele>
        <time>2017-01-03T15:00:01Z</time>
      </trkpt>
      <trkpt lat="49.32061" lon="1.12092">
        <ele>41</ele>
        <time>2017-01-03T15:00:01Z</time>
      </trkpt>
      <trkpt lat="49.32062" lon="1.12099">
        <ele>41</ele>
        <time>2017-01-03T15:00:01Z</time>
      </trkpt>
      <trkpt lat="49.32063" lon="1.12106">
        <ele>41</ele>
        <time>2017-01-03T15:00:17Z</time>
      </trkpt>
      <trkpt lat="49.32064" lon="1.12113">
        <ele>41</ele>
        <time>2017-01-03T15:00:17Z</time>
      </trkpt>
      <trkpt lat="49.32066" lon="1.1212">
        <ele>41</ele>
        <time>2017-01-03T15:00:17Z</time>
      </trkpt>
      <trkpt lat="49.32067" lon="1.12126">
        <ele>36</ele>
        <time>2017-01-03T15:00:17Z</time>
      </trkpt>
      <trkpt lat="49.3207" lon="1.12133">
        <ele>36</ele>
        <time>2017-01-03T15:00:33Z</time>
      </trkpt>
      <trkpt lat="49.32072" lon="1.1214">
        <ele>36</ele>
        <time>2017-01-03T15:00:33Z</time>
      </trkpt>
      <trkpt lat="49.32074" lon="1.12148">
        <ele>36</ele>
        <time>2017-01-03T15:00:33Z</time>
      </trkpt>
      <trkpt lat="49.32077" lon="1.12154">
        <ele>36</ele>
        <time>2017-01-03T15:00:33Z</time>
      </trkpt>
      <trkpt lat="49.32079" lon="1.12161">
        <ele>36</ele>
        <time>2017-01-03T15:00:49Z</time>
      </trkpt>
      <trkpt lat="49.32081" lon="1.12167">
        <ele>36</ele>
        <time>2017-01-03T15:00:49Z</time>
      </trkpt>
      <trkpt lat="49.32084" lon="1.12174">
        <ele>36</ele>
        <time>2017-01-03T15:00:49Z</time>
      </trkpt>
      <trkpt lat="49.32086" lon="1.12182">
        <ele>36</ele>
        <time>2017-01-03T15:00:49Z</time>
      </trkpt>
      <trkpt lat="49.32085" lon="1.1219">
        <ele>36</ele>
        <time>2017-01-03T15:01:05Z</time>
      </trkpt>
      <trkpt lat="49.32081" lon="1.12194">
        <ele>36</ele>
        <time>2017-01-03T15:01:05Z</time>
      </trkpt>
      <trkpt lat="49.32076" lon="1.12197">
        <ele>36</ele>
        <time>2017-01-03T15:01:05Z</time>
      </trkpt>
      <trkpt lat="49.3207" lon="1.12201">
        <ele>36</ele>
        <time>2017-01-03T15:01:05Z</time>
      </trkpt>
      <trkpt lat="49.32067" lon="1.12205">
        <ele>36</ele>
        <time>2017-01-03T15:01:21Z</time>
      </trkpt>
      <trkpt lat="49.32063" lon="1.12207">
        <ele>36</ele>
        <time>2017-01-03T15:01:21Z</time>
      </trkpt>
      <trkpt lat="49.32058" lon="1.1221">
        <ele>36</ele>
        <time>2017-01-03T15:01:21Z</time>
      </trkpt>
      <trkpt lat="49.32054" lon="1.12214">
        <ele>36</ele>
        <time>2017-01-03T15:01:21Z</time>
      </trkpt>
      <trkpt lat="49.32049" lon="1.12218">
        <ele>36</ele>
        <time>2017-01-03T15:01:37Z</time>
      </trkpt>
      <trkpt lat="49.32046" lon="1.12223">
        <ele>36</ele>
        <time>2017-01-03T15:01:37Z</time>
      </trkpt>
      <trkpt lat="49.32042" lon="1.12227">
        <ele>36</ele>
        <time>2017-01-03T15:01:37Z</time>
      </trkpt>
      <trkpt lat="49.32038" lon="1.12232">
        <ele>24</ele>
        <time>2017-01-03T15:01:37Z</time>
      </trkpt>
      <trkpt lat="49.32034" lon="1.12236">
        <ele>24</ele>
        <time>2017-01-03T15:01:53Z</time>
      </trkpt>
      <trkpt lat="49.3203" lon="1.1224">
        <ele>24</ele>
        <time>2017-01-03T15:01:53Z</time>
      </trkpt>
      <trkpt lat="49.32027" lon="1.12245">
        <ele>24</ele>
        <time>2017-01-03T15:01:53Z</time>
      </trkpt>
      <trkpt lat="49.32023" lon="1.12251">
        <ele>24</ele>
        <time>2017-01-03T15:01:53Z</time>
      </trkpt>
      <trkpt lat="49.3202" lon="1.12258">
        <ele>24</ele>
        <time>2017-01-03T15:02:21Z</time>
      </trkpt>
      <trkpt lat="49.3202" lon="1.12258">
        <ele>24</ele>
        <time>2017-01-03T15:02:21Z</time>
      </trkpt>
      <trkpt lat="49.32018" lon="1.12258">
        <ele>24</ele>
        <time>2017-01-03T15:02:21Z</time>
      </trkpt>
      <trkpt lat="49.32015" lon="1.12264">
        <ele>24</ele>
        <time>2017-01-03T15:02:21Z</time>
      </trkpt>
      <trkpt lat="49.32016" lon="1.12271">
        <ele>24</ele>
        <time>2017-01-03T15:02:21Z</time>
      </trkpt>
      <trkpt lat="49.32017" lon="1.12278">
        <ele>24</ele>
        <time>2017-01-03T15:02:37Z</time>
      </trkpt>
      <trkpt lat="49.32017" lon="1.12285">
        <ele>24</ele>
        <time>2017-01-03T15:02:37Z</time>
      </trkpt>
      <trkpt lat="49.32016" lon="1.12291">
        <ele>24</ele>
        <time>2017-01-03T15:02:37Z</time>
      </trkpt>
      <trkpt lat="49.32015" lon="1.12297">
        <ele>23</ele>
        <time>2017-01-03T15:02:37Z</time>
      </trkpt>
      <trkpt lat="49.32014" lon="1.12303">
        <ele>23</ele>
        <time>2017-01-03T15:02:53Z</time>
      </trkpt>
      <trkpt lat="49.32013" lon="1.1231">
        <ele>23</ele>
        <time>2017-01-03T15:02:53Z</time>
      </trkpt>
      <trkpt lat="49.32008" lon="1.12318">
        <ele>23</ele>
        <time>2017-01-03T15:02:53Z</time>
      </trkpt>
      <trkpt lat="49.32003" lon="1.12324">
        <ele>23</ele>
        <time>2017-01-03T15:02:53Z</time>
      </trkpt>
      <trkpt lat="49.31997" lon="1.12327">
        <ele>23</ele>
        <time>2017-01-03T15:03:09Z</time>
      </trkpt>
      <trkpt lat="49.31992" lon="1.12328">
        <ele>23</ele>
        <time>2017-01-03T15:03:09Z</time>
      </trkpt>
      <trkpt lat="49.31986" lon="1.12329">
        <ele>23</ele>
        <time>2017-01-03T15:03:09Z</time>
      </trkpt>
      <trkpt lat="49.31982" lon="1.12329">
        <ele>23</ele>
        <time>2017-01-03T15:03:09Z</time>
      </trkpt>
      <trkpt lat="49.31978" lon="1.1233">
        <ele>23</ele>
        <time>2017-01-03T15:03:25Z</time>
      </trkpt>
      <trkpt lat="49.31973" lon="1.12331">
        <ele>23</ele>
        <time>2017-01-03T15:03:25Z</time>
      </trkpt>
      <trkpt lat="49.31967" lon="1.12332">
        <ele>23</ele>
        <time>2017-01-03T15:03:25Z</time>
      </trkpt>
      <trkpt lat="49.31962" lon="1.12334">
        <ele>23</ele>
        <time>2017-01-03T15:03:25Z</time>
      </trkpt>
      <trkpt lat="49.31958" lon="1.12336">
        <ele>13</ele>
        <time>2017-01-03T15:03:41Z</time>
      </trkpt>
      <trkpt lat="49.31954" lon="1.12335">
        <ele>13</ele>
        <time>2017-01-03T15:03:41Z</time>
      </trkpt>
      <trkpt lat="49.31951" lon="1.12334">
        <ele>13</ele>
        <time>2017-01-03T15:03:41Z</time>
      </trkpt>
      <trkpt lat="49.31947" lon="1.12334">
        <ele>13</ele>
        <time>2017-01-03T15:03:41Z</time>
      </trkpt>
      <trkpt lat="49.31942" lon="1.12334">
        <ele>13</ele>
        <time>2017-01-03T15:03:57Z</time>
      </trkpt>
      <trkpt lat="49.31937" lon="1.12333">
        <ele>13</ele>
        <time>2017-01-03T15:03:57Z</time>
      </trkpt>
      <trkpt lat="49.31932" lon="1.12332">
        <ele>13</ele>
        <time>2017-01-03T15:03:57Z</time>
      </trkpt>
      <trkpt lat="49.31927" lon="1.12331">
        <ele>13</ele>
        <time>2017-01-03T15:03:57Z</time>
      </trkpt>
      <trkpt lat="49.31922" lon="1.12332">
        <ele>13</ele>
        <time>2017-01-03T15:04:13Z</time>
      </trkpt>
      <trkpt lat="49.31917" lon="1.12333">
        <ele>13</ele>
        <time>2017-01-03T15:04:13Z</time>
      </trkpt>
      <trkpt lat="49.31912" lon="1.12333">
        <ele>13</ele>
        <time>2017-01-03T15:04:13Z</time>
      </trkpt>
      <trkpt lat="49.31908" lon="1.12337">
        <ele>13</ele>
        <time>2017-01-03T15:04:13Z</time>
      </trkpt>
      <trkpt lat="49.31905" lon="1.12339">
        <ele>13</ele>
        <time>2017-01-03T15:04:29Z</time>
      </trkpt>
      <trkpt lat="49.31901" lon="1.12339">
        <ele>13</ele>
        <time>2017-01-03T15:04:29Z</time>
      </trkpt>
      <trkpt lat="49.31896" lon="1.12339">
        <ele>13</ele>
        <time>2017-01-03T15:04:29Z</time>
      </trkpt>
      <trkpt lat="49.3189" lon="1.12339">
        <ele>13</ele>
        <time>2017-01-03T15:04:29Z</time>
      </trkpt>
      <trkpt lat="49.31885" lon="1.1234">
        <ele>13</ele>
        <time>2017-01-03T15:04:45Z</time>
      </trkpt>
      <trkpt lat="49.31879" lon="1.1234">
        <ele>13</ele>
        <time>2017-01-03T15:04:45Z</time>
      </trkpt>
      <trkpt lat="49.31875" lon="1.12342">
        <ele>9</ele>
        <time>2017-01-03T15:04:45Z</time>
      </trkpt>
      <trkpt lat="49.31871" lon="1.12342">
        <ele>9</ele>
        <time>2017-01-03T15:04:45Z</time>
      </trkpt>
      <trkpt lat="49.31866" lon="1.12343">
        <ele>9</ele>
        <time>2017-01-03T15:05:01Z</time>
      </trkpt>
      <trkpt lat="49.31861" lon="1.12344">
        <ele>9</ele>
        <time>2017-01-03T15:05:01Z</time>
      </trkpt>
      <trkpt lat="49.31855" lon="1.12346">
        <ele>9</ele>
        <time>2017-01-03T15:05:01Z</time>
      </trkpt>
      <trkpt lat="49.3185" lon="1.12347">
        <ele>9</ele>
        <time>2017-01-03T15:05:01Z</time>
      </trkpt>
      <trkpt lat="49.31845" lon="1.12349">
        <ele>9</ele>
        <time>2017-01-03T15:05:17Z</time>
      </trkpt>
      <trkpt lat="49.31841" lon="1.12352">
        <ele>9</ele>
        <time>2017-01-03T15:05:17Z</time>
      </trkpt>
      <trkpt lat="49.31837" lon="1.12353">
        <ele>9</ele>
        <time>2017-01-03T15:05:17Z</time>
      </trkpt>
      <trkpt lat="49.31831" lon="1.12356">
        <ele>9</ele>
        <time>2017-01-03T15:05:17Z</time>
      </trkpt>
      <trkpt lat="49.31827" lon="1.12358">
        <ele>9</ele>
        <time>2017-01-03T15:05:33Z</time>
      </trkpt>
      <trkpt lat="49.31822" lon="1.1236">
        <ele>9</ele>
        <time>2017-01-03T15:05:33Z</time>
      </trkpt>
      <trkpt lat="49.31817" lon="1.12361">
        <ele>9</ele>
        <time>2017-01-03T15:05:33Z</time>
      </trkpt>
      <trkpt lat="49.31812" lon="1.12363">
        <ele>9</ele>
        <time>2017-01-03T15:05:33Z</time>
      </trkpt>
      <trkpt lat="49.31807" lon="1.12365">
        <ele>9</ele>
        <time>2017-01-03T15:05:49Z</time>
      </trkpt>
      <trkpt lat="49.31801" lon="1.12366">
        <ele>9</ele>
        <time>2017-01-03T15:05:49Z</time>
      </trkpt>
      <trkpt lat="49.31795" lon="1.1237">
        <ele>9</ele>
        <time>2017-01-03T15:05:49Z</time>
      </trkpt>
      <trkpt lat="49.3179" lon="1.12373">
        <ele>7</ele>
        <time>2017-01-03T15:05:49Z</time>
      </trkpt>
      <trkpt lat="49.31787" lon="1.12371">
        <ele>7</ele>
        <time>2017-01-03T15:06:05Z</time>
      </trkpt>
      <trkpt lat="49.31787" lon="1.12372">
        <ele>7</ele>
        <time>2017-01-03T15:06:05Z</time>
      </trkpt>
      <trkpt lat="49.31782" lon="1.12374">
        <ele>7</ele>
        <time>2017-01-03T15:06:05Z</time>
      </trkpt>
      <trkpt lat="49.31778" lon="1.12375">
        <ele>7</ele>
        <time>2017-01-03T15:06:05Z</time>
      </trkpt>
      <trkpt lat="49.31773" lon="1.12377">
        <ele>6</ele>
        <time>2017-01-03T15:06:21Z</time>
      </trkpt>
      <trkpt lat="49.31769" lon="1.12379">
        <ele>6</ele>
        <time>2017-01-03T15:06:21Z</time>
      </trkpt>
      <trkpt lat="49.31765" lon="1.12381">
        <ele>6</ele>
        <time>2017-01-03T15:06:21Z</time>
      </trkpt>
      <trkpt lat="49.3176" lon="1.12383">
        <ele>6</ele>
        <time>2017-01-03T15:06:21Z</time>
      </trkpt>
      <trkpt lat="49.31755" lon="1.12387">
        <ele>6</ele>
        <time>2017-01-03T15:06:37Z</time>
      </trkpt>
      <trkpt lat="49.3175" lon="1.12391">
        <ele>6</ele>
        <time>2017-01-03T15:06:37Z</time>
      </trkpt>
      <trkpt lat="49.31746" lon="1.12395">
        <ele>6</ele>
        <time>2017-01-03T15:06:37Z</time>
      </trkpt>
      <trkpt lat="49.31742" lon="1.12397">
        <ele>6</ele>
        <time>2017-01-03T15:06:37Z</time>
      </trkpt>
      <trkpt lat="49.31739" lon="1.124">
        <ele>6</ele>
        <time>2017-01-03T15:06:53Z</time>
      </trkpt>
      <trkpt lat="49.31736" lon="1.12405">
        <ele>6</ele>
        <time>2017-01-03T15:06:53Z</time>
      </trkpt>
      <trkpt lat="49.31733" lon="1.12409">
        <ele>6</ele>
        <time>2017-01-03T15:06:53Z</time>
      </trkpt>
      <trkpt lat="49.3173" lon="1.12413">
        <ele>6</ele>
        <time>2017-01-03T15:06:53Z</time>
      </trkpt>
      <trkpt lat="49.31727" lon="1.12419">
        <ele>6</ele>
        <time>2017-01-03T15:07:09Z</time>
      </trkpt>
      <trkpt lat="49.31724" lon="1.12426">
        <ele>6</ele>
        <time>2017-01-03T15:07:09Z</time>
      </trkpt>
      <trkpt lat="49.31722" lon="1.12433">
        <ele>6</ele>
        <time>2017-01-03T15:07:09Z</time>
      </trkpt>
      <trkpt lat="49.31719" lon="1.12437">
        <ele>6</ele>
        <time>2017-01-03T15:07:09Z</time>
      </trkpt>
      <trkpt lat="49.31715" lon="1.12442">
        <ele>6</ele>
        <time>2017-01-03T15:07:25Z</time>
      </trkpt>
      <trkpt lat="49.31712" lon="1.12448">
        <ele>6</ele>
        <time>2017-01-03T15:07:25Z</time>
      </trkpt>
      <trkpt lat="49.3171" lon="1.12454">
        <ele>6</ele>
        <time>2017-01-03T15:07:25Z</time>
      </trkpt>
      <trkpt lat="49.31707" lon="1.12462">
        <ele>7</ele>
        <time>2017-01-03T15:07:25Z</time>
      </trkpt>
      <trkpt lat="49.31704" lon="1.12468">
        <ele>7</ele>
        <time>2017-01-03T15:07:41Z</time>
      </trkpt>
      <trkpt lat="49.31702" lon="1.12474">
        <ele>7</ele>
        <time>2017-01-03T15:07:41Z</time>
      </trkpt>
      <trkpt lat="49.31699" lon="1.12479">
        <ele>7</ele>
        <time>2017-01-03T15:07:41Z</time>
      </trkpt>
      <trkpt lat="49.31697" lon="1.12484">
        <ele>7</ele>
        <time>2017-01-03T15:07:41Z</time>
      </trkpt>
      <trkpt lat="49.31694" lon="1.12489">
        <ele>7</ele>
        <time>2017-01-03T15:07:57Z</time>
      </trkpt>
      <trkpt lat="49.3169" lon="1.12493">
        <ele>7</ele>
        <time>2017-01-03T15:07:57Z</time>
      </trkpt>
      <trkpt lat="49.31686" lon="1.12493">
        <ele>7</ele>
        <time>2017-01-03T15:07:57Z</time>
      </trkpt>
      <trkpt lat="49.31683" lon="1.12494">
        <ele>7</ele>
        <time>2017-01-03T15:07:57Z</time>
      </trkpt>
      <trkpt lat="49.31679" lon="1.12498">
        <ele>7</ele>
        <time>2017-01-03T15:08:13Z</time>
      </trkpt>
      <trkpt lat="49.31676" lon="1.12501">
        <ele>7</ele>
        <time>2017-01-03T15:08:13Z</time>
      </trkpt>
      <trkpt lat="49.31674" lon="1.12507">
        <ele>7</ele>
        <time>2017-01-03T15:08:13Z</time>
      </trkpt>
      <trkpt lat="49.3167" lon="1.12513">
        <ele>7</ele>
        <time>2017-01-03T15:08:13Z</time>
      </trkpt>
      <trkpt lat="49.31665" lon="1.12514">
        <ele>7</ele>
        <time>2017-01-03T15:08:41Z</time>
      </trkpt>
      <trkpt lat="49.31665" lon="1.12513">
        <ele>7</ele>
        <time>2017-01-03T15:08:41Z</time>
      </trkpt>
      <trkpt lat="49.31663" lon="1.12508">
        <ele>7</ele>
        <time>2017-01-03T15:08:41Z</time>
      </trkpt>
      <trkpt lat="49.31662" lon="1.12501">
        <ele>7</ele>
        <time>2017-01-03T15:08:41Z</time>
      </trkpt>
      <trkpt lat="49.31659" lon="1.12496">
        <ele>7</ele>
        <time>2017-01-03T15:08:41Z</time>
      </trkpt>
      <trkpt lat="49.31658" lon="1.12496">
        <ele>7</ele>
        <time>2017-01-03T15:09:41Z</time>
      </trkpt>
      <trkpt lat="49.31658" lon="1.12496">
        <ele>7</ele>
        <time>2017-01-03T15:09:41Z</time>
      </trkpt>
      <trkpt lat="49.31658" lon="1.12499">
        <ele>7</ele>
        <time>2017-01-03T15:09:41Z</time>
      </trkpt>
      <trkpt lat="49.31661" lon="1.12506">
        <ele>7</ele>
        <time>2017-01-03T15:09:41Z</time>
      </trkpt>
      <trkpt lat="49.31662" lon="1.12514">
        <ele>7</ele>
        <time>2017-01-03T15:09:41Z</time>
      </trkpt>
      <trkpt lat="49.3166" lon="1.12522">
        <ele>7</ele>
        <time>2017-01-03T15:09:57Z</time>
      </trkpt>
      <trkpt lat="49.31657" lon="1.12528">
        <ele>7</ele>
        <time>2017-01-03T15:09:57Z</time>
      </trkpt>
      <trkpt lat="49.31653" lon="1.12534">
        <ele>7</ele>
        <time>2017-01-03T15:09:57Z</time>
      </trkpt>
      <trkpt lat="49.31651" lon="1.12538">
        <ele>7</ele>
        <time>2017-01-03T15:09:57Z</time>
      </trkpt>
      <trkpt lat="49.31647" lon="1.1254">
        <ele>7</ele>
        <time>2017-01-03T15:10:13Z</time>
      </trkpt>
      <trkpt lat="49.31643" lon="1.12541">
        <ele>7</ele>
        <time>2017-01-03T15:10:13Z</time>
      </trkpt>
      <trkpt lat="49.31639" lon="1.12542">
        <ele>7</ele>
        <time>2017-01-03T15:10:13Z</time>
      </trkpt>
      <trkpt lat="49.31634" lon="1.12544">
        <ele>7</ele>
        <time>2017-01-03T15:10:13Z</time>
      </trkpt>
      <trkpt lat="49.3163" lon="1.12547">
        <ele>7</ele>
        <time>2017-01-03T15:10:29Z</time>
      </trkpt>
      <trkpt lat="49.31626" lon="1.12551">
        <ele>7</ele>
        <time>2017-01-03T15:10:29Z</time>
      </trkpt>
      <trkpt lat="49.31622" lon="1.12556">
        <ele>6</ele>
        <time>2017-01-03T15:10:29Z</time>
      </trkpt>
      <trkpt lat="49.31618" lon="1.12562">
        <ele>6</ele>
        <time>2017-01-03T15:10:29Z</time>
      </trkpt>
      <trkpt lat="49.31613" lon="1.12568">
        <ele>6</ele>
        <time>2017-01-03T15:10:45Z</time>
      </trkpt>
      <trkpt lat="49.31609" lon="1.12575">
        <ele>6</ele>
        <time>2017-01-03T15:10:45Z</time>
      </trkpt>
      <trkpt lat="49.31609" lon="1.12584">
        <ele>6</ele>
        <time>2017-01-03T15:10:45Z</time>
      </trkpt>
      <trkpt lat="49.31608" lon="1.12594">
        <ele>6</ele>
        <time>2017-01-03T15:10:45Z</time>
      </trkpt>
      <trkpt lat="49.31607" lon="1.12602">
        <ele>6</ele>
        <time>2017-01-03T15:11:01Z</time>
      </trkpt>
      <trkpt lat="49.31607" lon="1.12611">
        <ele>6</ele>
        <time>2017-01-03T15:11:01Z</time>
      </trkpt>
      <trkpt lat="49.31608" lon="1.12619">
        <ele>6</ele>
        <time>2017-01-03T15:11:01Z</time>
      </trkpt>
      <trkpt lat="49.31609" lon="1.12626">
        <ele>7</ele>
        <time>2017-01-03T15:11:01Z</time>
      </trkpt>
      <trkpt lat="49.31609" lon="1.12636">
        <ele>7</ele>
        <time>2017-01-03T15:11:17Z</time>
      </trkpt>
      <trkpt lat="49.31609" lon="1.12643">
        <ele>7</ele>
        <time>2017-01-03T15:11:17Z</time>
      </trkpt>
      <trkpt lat="49.3161" lon="1.12651">
        <ele>7</ele>
        <time>2017-01-03T15:11:17Z</time>
      </trkpt>
      <trkpt lat="49.3161" lon="1.12659">
        <ele>7</ele>
        <time>2017-01-03T15:11:17Z</time>
      </trkpt>
      <trkpt lat="49.3161" lon="1.12669">
        <ele>7</ele>
        <time>2017-01-03T15:11:33Z</time>
      </trkpt>
      <trkpt lat="49.31611" lon="1.12677">
        <ele>7</ele>
        <time>2017-01-03T15:11:33Z</time>
      </trkpt>
      <trkpt lat="49.3161" lon="1.12686">
        <ele>7</ele>
        <time>2017-01-03T15:11:33Z</time>
      </trkpt>
      <trkpt lat="49.31609" lon="1.12694">
        <ele>7</ele>
        <time>2017-01-03T15:11:33Z</time>
      </trkpt>
      <trkpt lat="49.31609" lon="1.12702">
        <ele>7</ele>
        <time>2017-01-03T15:11:49Z</time>
      </trkpt>
      <trkpt lat="49.31609" lon="1.1271">
        <ele>7</ele>
        <time>2017-01-03T15:11:49Z</time>
      </trkpt>
      <trkpt lat="49.31609" lon="1.12717">
        <ele>7</ele>
        <time>2017-01-03T15:11:49Z</time>
      </trkpt>
      <trkpt lat="49.31608" lon="1.12725">
        <ele>7</ele>
        <time>2017-01-03T15:11:49Z</time>
      </trkpt>
      <trkpt lat="49.31608" lon="1.12733">
        <ele>7</ele>
        <time>2017-01-03T15:12:05Z</time>
      </trkpt>
      <trkpt lat="49.31607" lon="1.1274">
        <ele>7</ele>
        <time>2017-01-03T15:12:05Z</time>
      </trkpt>
      <trkpt lat="49.31607" lon="1.12749">
        <ele>7</ele>
        <time>2017-01-03T15:12:05Z</time>
      </trkpt>
      <trkpt lat="49.31607" lon="1.12758">
        <ele>7</ele>
        <time>2017-01-03T15:12:05Z</time>
      </trkpt>
      <trkpt lat="49.31609" lon="1.12766">
        <ele>7</ele>
        <time>2017-01-03T15:12:21Z</time>
      </trkpt>
      <trkpt lat="49.3161" lon="1.12773">
        <ele>7</ele>
        <time>2017-01-03T15:12:21Z</time>
      </trkpt>
      <trkpt lat="49.3161" lon="1.12783">
        <ele>7</ele>
        <time>2017-01-03T15:12:21Z</time>
      </trkpt>
      <trkpt lat="49.3161" lon="1.12791">
        <ele>7</ele>
        <time>2017-01-03T15:12:21Z</time>
      </trkpt>
      <trkpt lat="49.31611" lon="1.12798">
        <ele>7</ele>
        <time>2017-01-03T15:12:37Z</time>
      </trkpt>
      <trkpt lat="49.31611" lon="1.12804">
        <ele>7</ele>
        <time>2017-01-03T15:12:37Z</time>
      </trkpt>
      <trkpt lat="49.31613" lon="1.12812">
        <ele>7</ele>
        <time>2017-01-03T15:12:37Z</time>
      </trkpt>
      <trkpt lat="49.31618" lon="1.12812">
        <ele>7</ele>
        <time>2017-01-03T15:12:37Z</time>
      </trkpt>
      <trkpt lat="49.31616" lon="1.1283">
        <ele>7</ele>
        <time>2017-01-03T15:13:25Z</time>
      </trkpt>
      <trkpt lat="49.31616" lon="1.1283">
        <ele>7</ele>
        <time>2017-01-03T15:13:25Z</time>
      </trkpt>
      <trkpt lat="49.31616" lon="1.12835">
        <ele>7</ele>
        <time>2017-01-03T15:13:25Z</time>
      </trkpt>
      <trkpt lat="49.31621" lon="1.12843">
        <ele>7</ele>
        <time>2017-01-03T15:13:25Z</time>
      </trkpt>
      <trkpt lat="49.31623" lon="1.12849">
        <ele>7</ele>
        <time>2017-01-03T15:13:25Z</time>
      </trkpt>
      <trkpt lat="49.31622" lon="1.12854">
        <ele>7</ele>
        <time>2017-01-03T15:13:41Z</time>
      </trkpt>
      <trkpt lat="49.31622" lon="1.12859">
        <ele>7</ele>
        <time>2017-01-03T15:13:41Z</time>
      </trkpt>
      <trkpt lat="49.31621" lon="1.12864">
        <ele>7</ele>
        <time>2017-01-03T15:13:41Z</time>
      </trkpt>
      <trkpt lat="49.31621" lon="1.12868">
        <ele>7</ele>
        <time>2017-01-03T15:13:41Z</time>
      </trkpt>
      <trkpt lat="49.31619" lon="1.12871">
        <ele>7</ele>
        <time>2017-01-03T15:14:05Z</time>
      </trkpt>
      <trkpt lat="49.31619" lon="1.12871">
        <ele>7</ele>
        <time>2017-01-03T15:14:05Z</time>
      </trkpt>
      <trkpt lat="49.31618" lon="1.12872">
        <ele>7</ele>
        <time>2017-01-03T15:14:05Z</time>
      </trkpt>
      <trkpt lat="49.3162" lon="1.12879">
        <ele>7</ele>
        <time>2017-01-03T15:14:05Z</time>
      </trkpt>
      <trkpt lat="49.31619" lon="1.12885">
        <ele>7</ele>
        <time>2017-01-03T15:14:05Z</time>
      </trkpt>
      <trkpt lat="49.31619" lon="1.12892">
        <ele>7</ele>
        <time>2017-01-03T15:14:21Z</time>
      </trkpt>
      <trkpt lat="49.31622" lon="1.12897">
        <ele>7</ele>
        <time>2017-01-03T15:14:21Z</time>
      </trkpt>
      <trkpt lat="49.31622" lon="1.12904">
        <ele>7</ele>
        <time>2017-01-03T15:14:21Z</time>
      </trkpt>
      <trkpt lat="49.31621" lon="1.12908">
        <ele>7</ele>
        <time>2017-01-03T15:14:21Z</time>
      </trkpt>
      <trkpt lat="49.31621" lon="1.12914">
        <ele>7</ele>
        <time>2017-01-03T15:14:37Z</time>
      </trkpt>
      <trkpt lat="49.3162" lon="1.1292">
        <ele>7</ele>
        <time>2017-01-03T15:14:37Z</time>
      </trkpt>
      <trkpt lat="49.31621" lon="1.12927">
        <ele>7</ele>
        <time>2017-01-03T15:14:37Z</time>
      </trkpt>
      <trkpt lat="49.31623" lon="1.12936">
        <ele>7</ele>
        <time>2017-01-03T15:14:37Z</time>
      </trkpt>
      <trkpt lat="49.31623" lon="1.12943">
        <ele>7</ele>
        <time>2017-01-03T15:14:53Z</time>
      </trkpt>
      <trkpt lat="49.31624" lon="1.1295">
        <ele>7</ele>
        <time>2017-01-03T15:14:53Z</time>
      </trkpt>
      <trkpt lat="49.31626" lon="1.12956">
        <ele>8</ele>
        <time>2017-01-03T15:14:53Z</time>
      </trkpt>
      <trkpt lat="49.3163" lon="1.12962">
        <ele>9</ele>
        <time>2017-01-03T15:14:53Z</time>
      </trkpt>
      <trkpt lat="49.31632" lon="1.12968">
        <ele>9</ele>
        <time>2017-01-03T15:15:09Z</time>
      </trkpt>
      <trkpt lat="49.31634" lon="1.12975">
        <ele>9</ele>
        <time>2017-01-03T15:15:09Z</time>
      </trkpt>
      <trkpt lat="49.31636" lon="1.12982">
        <ele>9</ele>
        <time>2017-01-03T15:15:09Z</time>
      </trkpt>
      <trkpt lat="49.31636" lon="1.12989">
        <ele>9</ele>
        <time>2017-01-03T15:15:09Z</time>
      </trkpt>
      <trkpt lat="49.31637" lon="1.12995">
        <ele>9</ele>
        <time>2017-01-03T15:15:25Z</time>
      </trkpt>
      <trkpt lat="49.31637" lon="1.13003">
        <ele>9</ele>
        <time>2017-01-03T15:15:25Z</time>
      </trkpt>
      <trkpt lat="49.31638" lon="1.13011">
        <ele>9</ele>
        <time>2017-01-03T15:15:25Z</time>
      </trkpt>
      <trkpt lat="49.31639" lon="1.1302">
        <ele>9</ele>
        <time>2017-01-03T15:15:25Z</time>
      </trkpt>
      <trkpt lat="49.31641" lon="1.13026">
        <ele>9</ele>
        <time>2017-01-03T15:15:41Z</time>
      </trkpt>
      <trkpt lat="49.31644" lon="1.1303">
        <ele>9</ele>
        <time>2017-01-03T15:15:41Z</time>
      </trkpt>
      <trkpt lat="49.31647" lon="1.13036">
        <ele>9</ele>
        <time>2017-01-03T15:15:41Z</time>
      </trkpt>
      <trkpt lat="49.31647" lon="1.13041">
        <ele>9</ele>
        <time>2017-01-03T15:15:41Z</time>
      </trkpt>
      <trkpt lat="49.31646" lon="1.13049">
        <ele>9</ele>
        <time>2017-01-03T15:15:57Z</time>
      </trkpt>
      <trkpt lat="49.31647" lon="1.13056">
        <ele>9</ele>
        <time>2017-01-03T15:15:57Z</time>
      </trkpt>
      <trkpt lat="49.31645" lon="1.13062">
        <ele>9</ele>
        <time>2017-01-03T15:15:57Z</time>
      </trkpt>
      <trkpt lat="49.31645" lon="1.13062">
        <ele>9</ele>
        <time>2017-01-03T15:15:57Z</time>
      </trkpt>
      <trkpt lat="49.31645" lon="1.1307">
        <ele>9</ele>
        <time>2017-01-03T15:16:25Z</time>
      </trkpt>
      <trkpt lat="49.31645" lon="1.13077">
        <ele>9</ele>
        <time>2017-01-03T15:16:25Z</time>
      </trkpt>
      <trkpt lat="49.31643" lon="1.13084">
        <ele>9</ele>
        <time>2017-01-03T15:16:25Z</time>
      </trkpt>
      <trkpt lat="49.31642" lon="1.13091">
        <ele>9</ele>
        <time>2017-01-03T15:16:25Z</time>
      </trkpt>
      <trkpt lat="49.31642" lon="1.13096">
        <ele>9</ele>
        <time>2017-01-03T15:16:25Z</time>
      </trkpt>
      <trkpt lat="49.31643" lon="1.13103">
        <ele>9</ele>
        <time>2017-01-03T15:16:41Z</time>
      </trkpt>
      <trkpt lat="49.31644" lon="1.13109">
        <ele>9</ele>
        <time>2017-01-03T15:16:41Z</time>
      </trkpt>
      <trkpt lat="49.31645" lon="1.13115">
        <ele>9</ele>
        <time>2017-01-03T15:16:41Z</time>
      </trkpt>
      <trkpt lat="49.31646" lon="1.13122">
        <ele>9</ele>
        <time>2017-01-03T15:16:41Z</time>
      </trkpt>
      <trkpt lat="49.31645" lon="1.1313">
        <ele>8</ele>
        <time>2017-01-03T15:16:57Z</time>
      </trkpt>
      <trkpt lat="49.31645" lon="1.13138">
        <ele>8</ele>
        <time>2017-01-03T15:16:57Z</time>
      </trkpt>
      <trkpt lat="49.31645" lon="1.13144">
        <ele>8</ele>
        <time>2017-01-03T15:16:57Z</time>
      </trkpt>
      <trkpt lat="49.31645" lon="1.13151">
        <ele>8</ele>
        <time>2017-01-03T15:16:57Z</time>
      </trkpt>
      <trkpt lat="49.31646" lon="1.13157">
        <ele>8</ele>
        <time>2017-01-03T15:17:13Z</time>
      </trkpt>
      <trkpt lat="49.31647" lon="1.13163">
        <ele>8</ele>
        <time>2017-01-03T15:17:13Z</time>
      </trkpt>
      <trkpt lat="49.3165" lon="1.13168">
        <ele>8</ele>
        <time>2017-01-03T15:17:13Z</time>
      </trkpt>
      <trkpt lat="49.3165" lon="1.13174">
        <ele>8</ele>
        <time>2017-01-03T15:17:13Z</time>
      </trkpt>
      <trkpt lat="49.31651" lon="1.13183">
        <ele>8</ele>
        <time>2017-01-03T15:17:29Z</time>
      </trkpt>
      <trkpt lat="49.31651" lon="1.13191">
        <ele>8</ele>
        <time>2017-01-03T15:17:29Z</time>
      </trkpt>
      <trkpt lat="49.3165" lon="1.13198">
        <ele>8</ele>
        <time>2017-01-03T15:17:29Z</time>
      </trkpt>
      <trkpt lat="49.3165" lon="1.13205">
        <ele>8</ele>
        <time>2017-01-03T15:17:29Z</time>
      </trkpt>
      <trkpt lat="49.31651" lon="1.13212">
        <ele>8</ele>
        <time>2017-01-03T15:17:45Z</time>
      </trkpt>
      <trkpt lat="49.31652" lon="1.13218">
        <ele>8</ele>
        <time>2017-01-03T15:17:45Z</time>
      </trkpt>
      <trkpt lat="49.31653" lon="1.13226">
        <ele>8</ele>
        <time>2017-01-03T15:17:45Z</time>
      </trkpt>
      <trkpt lat="49.31652" lon="1.13233">
        <ele>8</ele>
        <time>2017-01-03T15:17:45Z</time>
      </trkpt>
      <trkpt lat="49.31654" lon="1.1324">
        <ele>8</ele>
        <time>2017-01-03T15:18:01Z</time>
      </trkpt>
      <trkpt lat="49.31654" lon="1.13246">
        <ele>8</ele>
        <time>2017-01-03T15:18:01Z</time>
      </trkpt>
      <trkpt lat="49.31654" lon="1.13253">
        <ele>8</ele>
        <time>2017-01-03T15:18:01Z</time>
      </trkpt>
      <trkpt lat="49.31653" lon="1.13259">
        <ele>8</ele>
        <time>2017-01-03T15:18:01Z</time>
      </trkpt>
      <trkpt lat="49.31654" lon="1.13268">
        <ele>8</ele>
        <time>2017-01-03T15:18:17Z</time>
      </trkpt>
      <trkpt lat="49.31653" lon="1.13278">
        <ele>8</ele>
        <time>2017-01-03T15:18:17Z</time>
      </trkpt>
      <trkpt lat="49.31653" lon="1.13286">
        <ele>8</ele>
        <time>2017-01-03T15:18:17Z</time>
      </trkpt>
      <trkpt lat="49.31654" lon="1.13293">
        <ele>9</ele>
        <time>2017-01-03T15:18:17Z</time>
      </trkpt>
      <trkpt lat="49.31655" lon="1.13299">
        <ele>9</ele>
        <time>2017-01-03T15:18:33Z</time>
      </trkpt>
      <trkpt lat="49.31655" lon="1.13307">
        <ele>9</ele>
        <time>2017-01-03T15:18:33Z</time>
      </trkpt>
      <trkpt lat="49.31656" lon="1.13315">
        <ele>9</ele>
        <time>2017-01-03T15:18:33Z</time>
      </trkpt>
      <trkpt lat="49.31658" lon="1.13323">
        <ele>9</ele>
        <time>2017-01-03T15:18:33Z</time>
      </trkpt>
      <trkpt lat="49.31658" lon="1.1333">
        <ele>9</ele>
        <time>2017-01-03T15:18:49Z</time>
      </trkpt>
      <trkpt lat="49.31659" lon="1.13339">
        <ele>9</ele>
        <time>2017-01-03T15:18:49Z</time>
      </trkpt>
      <trkpt lat="49.31661" lon="1.13346">
        <ele>9</ele>
        <time>2017-01-03T15:18:49Z</time>
      </trkpt>
      <trkpt lat="49.31661" lon="1.13355">
        <ele>9</ele>
        <time>2017-01-03T15:18:49Z</time>
      </trkpt>
      <trkpt lat="49.31662" lon="1.13363">
        <ele>9</ele>
        <time>2017-01-03T15:19:05Z</time>
      </trkpt>
      <trkpt lat="49.31663" lon="1.13369">
        <ele>9</ele>
        <time>2017-01-03T15:19:05Z</time>
      </trkpt>
      <trkpt lat="49.31666" lon="1.13375">
        <ele>9</ele>
        <time>2017-01-03T15:19:05Z</time>
      </trkpt>
      <trkpt lat="49.31667" lon="1.13382">
        <ele>9</ele>
        <time>2017-01-03T15:19:05Z</time>
      </trkpt>
      <trkpt lat="49.31668" lon="1.1339">
        <ele>9</ele>
        <time>2017-01-03T15:19:21Z</time>
      </trkpt>
      <trkpt lat="49.3167" lon="1.13398">
        <ele>9</ele>
        <time>2017-01-03T15:19:21Z</time>
      </trkpt>
      <trkpt lat="49.3167" lon="1.13406">
        <ele>9</ele>
        <time>2017-01-03T15:19:21Z</time>
      </trkpt>
      <trkpt lat="49.3167" lon="1.13413">
        <ele>9</ele>
        <time>2017-01-03T15:19:21Z</time>
      </trkpt>
      <trkpt lat="49.3167" lon="1.1342">
        <ele>9</ele>
        <time>2017-01-03T15:19:37Z</time>
      </trkpt>
      <trkpt lat="49.31669" lon="1.13426">
        <ele>9</ele>
        <time>2017-01-03T15:19:37Z</time>
      </trkpt>
      <trkpt lat="49.31666" lon="1.13433">
        <ele>9</ele>
        <time>2017-01-03T15:19:37Z</time>
      </trkpt>
      <trkpt lat="49.31662" lon="1.1344">
        <ele>9</ele>
        <time>2017-01-03T15:19:37Z</time>
      </trkpt>
      <trkpt lat="49.31661" lon="1.13445">
        <ele>9</ele>
        <time>2017-01-03T15:19:53Z</time>
      </trkpt>
      <trkpt lat="49.31662" lon="1.13448">
        <ele>9</ele>
        <time>2017-01-03T15:19:53Z</time>
      </trkpt>
      <trkpt lat="49.31661" lon="1.13453">
        <ele>9</ele>
        <time>2017-01-03T15:19:53Z</time>
      </trkpt>
      <trkpt lat="49.31661" lon="1.13459">
        <ele>9</ele>
        <time>2017-01-03T15:19:53Z</time>
      </trkpt>
      <trkpt lat="49.31661" lon="1.13467">
        <ele>9</ele>
        <time>2017-01-03T15:20:09Z</time>
      </trkpt>
      <trkpt lat="49.31661" lon="1.13473">
        <ele>9</ele>
        <time>2017-01-03T15:20:09Z</time>
      </trkpt>
      <trkpt lat="49.3166" lon="1.13477">
        <ele>9</ele>
        <time>2017-01-03T15:20:09Z</time>
      </trkpt>
      <trkpt lat="49.31659" lon="1.13484">
        <ele>9</ele>
        <time>2017-01-03T15:20:09Z</time>
      </trkpt>
      <trkpt lat="49.31658" lon="1.13492">
        <ele>9</ele>
        <time>2017-01-03T15:20:25Z</time>
      </trkpt>
      <trkpt lat="49.31659" lon="1.13496">
        <ele>9</ele>
        <time>2017-01-03T15:20:25Z</time>
      </trkpt>
      <trkpt lat="49.3166" lon="1.13508">
        <ele>9</ele>
        <time>2017-01-03T15:20:25Z</time>
      </trkpt>
      <trkpt lat="49.3166" lon="1.13514">
        <ele>9</ele>
        <time>2017-01-03T15:20:25Z</time>
      </trkpt>
      <trkpt lat="49.3166" lon="1.13521">
        <ele>9</ele>
        <time>2017-01-03T15:20:41Z</time>
      </trkpt>
      <trkpt lat="49.31661" lon="1.13529">
        <ele>9</ele>
        <time>2017-01-03T15:20:41Z</time>
      </trkpt>
      <trkpt lat="49.31661" lon="1.13536">
        <ele>9</ele>
        <time>2017-01-03T15:20:41Z</time>
      </trkpt>
      <trkpt lat="49.31661" lon="1.13542">
        <ele>9</ele>
        <time>2017-01-03T15:20:41Z</time>
      </trkpt>
      <trkpt lat="49.31662" lon="1.13549">
        <ele>9</ele>
        <time>2017-01-03T15:20:57Z</time>
      </trkpt>
      <trkpt lat="49.31661" lon="1.13554">
        <ele>9</ele>
        <time>2017-01-03T15:20:57Z</time>
      </trkpt>
      <trkpt lat="49.31661" lon="1.13559">
        <ele>9</ele>
        <time>2017-01-03T15:20:57Z</time>
      </trkpt>
      <trkpt lat="49.3166" lon="1.13566">
        <ele>9</ele>
        <time>2017-01-03T15:20:57Z</time>
      </trkpt>
      <trkpt lat="49.3166" lon="1.13573">
        <ele>9</ele>
        <time>2017-01-03T15:21:13Z</time>
      </trkpt>
      <trkpt lat="49.31661" lon="1.1358">
        <ele>9</ele>
        <time>2017-01-03T15:21:13Z</time>
      </trkpt>
      <trkpt lat="49.31661" lon="1.13586">
        <ele>9</ele>
        <time>2017-01-03T15:21:13Z</time>
      </trkpt>
      <trkpt lat="49.31661" lon="1.13593">
        <ele>9</ele>
        <time>2017-01-03T15:21:13Z</time>
      </trkpt>
      <trkpt lat="49.31659" lon="1.136">
        <ele>9</ele>
        <time>2017-01-03T15:21:29Z</time>
      </trkpt>
      <trkpt lat="49.31656" lon="1.13607">
        <ele>9</ele>
        <time>2017-01-03T15:21:29Z</time>
      </trkpt>
      <trkpt lat="49.31657" lon="1.13614">
        <ele>9</ele>
        <time>2017-01-03T15:21:29Z</time>
      </trkpt>
      <trkpt lat="49.31661" lon="1.13617">
        <ele>9</ele>
        <time>2017-01-03T15:21:29Z</time>
      </trkpt>
      <trkpt lat="49.31654" lon="1.13621">
        <ele>9</ele>
        <time>2017-01-03T15:22:17Z</time>
      </trkpt>
      <trkpt lat="49.31653" lon="1.13626">
        <ele>9</ele>
        <time>2017-01-03T15:22:17Z</time>
      </trkpt>
      <trkpt lat="49.3165" lon="1.13632">
        <ele>9</ele>
        <time>2017-01-03T15:22:17Z</time>
      </trkpt>
      <trkpt lat="49.31649" lon="1.13638">
        <ele>9</ele>
        <time>2017-01-03T15:22:17Z</time>
      </trkpt>
      <trkpt lat="49.31649" lon="1.13645">
        <ele>9</ele>
        <time>2017-01-03T15:22:17Z</time>
      </trkpt>
      <trkpt lat="49.3165" lon="1.13652">
        <ele>9</ele>
        <time>2017-01-03T15:22:33Z</time>
      </trkpt>
      <trkpt lat="49.31649" lon="1.13658">
        <ele>9</ele>
        <time>2017-01-03T15:22:33Z</time>
      </trkpt>
      <trkpt lat="49.31649" lon="1.13665">
        <ele>9</ele>
        <time>2017-01-03T15:22:33Z</time>
      </trkpt>
      <trkpt lat="49.31648" lon="1.13672">
        <ele>9</ele>
        <time>2017-01-03T15:22:33Z</time>
      </trkpt>
      <trkpt lat="49.31647" lon="1.1368">
        <ele>9</ele>
        <time>2017-01-03T15:22:49Z</time>
      </trkpt>
      <trkpt lat="49.31648" lon="1.13688">
        <ele>9</ele>
        <time>2017-01-03T15:22:49Z</time>
      </trkpt>
      <trkpt lat="49.31649" lon="1.13696">
        <ele>9</ele>
        <time>2017-01-03T15:22:49Z</time>
      </trkpt>
      <trkpt lat="49.31651" lon="1.13703">
        <ele>9</ele>
        <time>2017-01-03T15:22:49Z</time>
      </trkpt>
      <trkpt lat="49.31654" lon="1.13709">
        <ele>9</ele>
        <time>2017-01-03T15:23:05Z</time>
      </trkpt>
      <trkpt lat="49.31658" lon="1.13713">
        <ele>9</ele>
        <time>2017-01-03T15:23:05Z</time>
      </trkpt>
      <trkpt lat="49.31662" lon="1.13716">
        <ele>9</ele>
        <time>2017-01-03T15:23:05Z</time>
      </trkpt>
      <trkpt lat="49.31667" lon="1.13715">
        <ele>9</ele>
        <time>2017-01-03T15:23:05Z</time>
      </trkpt>
      <trkpt lat="49.31672" lon="1.13716">
        <ele>9</ele>
        <time>2017-01-03T15:23:21Z</time>
      </trkpt>
      <trkpt lat="49.31676" lon="1.13716">
        <ele>9</ele>
        <time>2017-01-03T15:23:21Z</time>
      </trkpt>
      <trkpt lat="49.3168" lon="1.13715">
        <ele>9</ele>
        <time>2017-01-03T15:23:21Z</time>
      </trkpt>
      <trkpt lat="49.31686" lon="1.13717">
        <ele>9</ele>
        <time>2017-01-03T15:23:21Z</time>
      </trkpt>
      <trkpt lat="49.31691" lon="1.13719">
        <ele>9</ele>
        <time>2017-01-03T15:23:37Z</time>
      </trkpt>
      <trkpt lat="49.31697" lon="1.13722">
        <ele>9</ele>
        <time>2017-01-03T15:23:37Z</time>
      </trkpt>
      <trkpt lat="49.31702" lon="1.13726">
        <ele>9</ele>
        <time>2017-01-03T15:23:37Z</time>
      </trkpt>
      <trkpt lat="49.31706" lon="1.13732">
        <ele>9</ele>
        <time>2017-01-03T15:23:37Z</time>
      </trkpt>
      <trkpt lat="49.3171" lon="1.13737">
        <ele>9</ele>
        <time>2017-01-03T15:23:53Z</time>
      </trkpt>
      <trkpt lat="49.31712" lon="1.13743">
        <ele>9</ele>
        <time>2017-01-03T15:23:53Z</time>
      </trkpt>
      <trkpt lat="49.31715" lon="1.1375">
        <ele>9</ele>
        <time>2017-01-03T15:23:53Z</time>
      </trkpt>
      <trkpt lat="49.31716" lon="1.13757">
        <ele>9</ele>
        <time>2017-01-03T15:23:53Z</time>
      </trkpt>
      <trkpt lat="49.31719" lon="1.13764">
        <ele>9</ele>
        <time>2017-01-03T15:24:09Z</time>
      </trkpt>
      <trkpt lat="49.31721" lon="1.13771">
        <ele>9</ele>
        <time>2017-01-03T15:24:09Z</time>
      </trkpt>
      <trkpt lat="49.31721" lon="1.13778">
        <ele>9</ele>
        <time>2017-01-03T15:24:09Z</time>
      </trkpt>
      <trkpt lat="49.31721" lon="1.13786">
        <ele>9</ele>
        <time>2017-01-03T15:24:09Z</time>
      </trkpt>
      <trkpt lat="49.31721" lon="1.13792">
        <ele>6</ele>
        <time>2017-01-03T15:24:25Z</time>
      </trkpt>
      <trkpt lat="49.31719" lon="1.13798">
        <ele>6</ele>
        <time>2017-01-03T15:24:25Z</time>
      </trkpt>
      <trkpt lat="49.31716" lon="1.13806">
        <ele>6</ele>
        <time>2017-01-03T15:24:25Z</time>
      </trkpt>
      <trkpt lat="49.31715" lon="1.13814">
        <ele>6</ele>
        <time>2017-01-03T15:24:25Z</time>
      </trkpt>
      <trkpt lat="49.31713" lon="1.13821">
        <ele>6</ele>
        <time>2017-01-03T15:24:41Z</time>
      </trkpt>
      <trkpt lat="49.31712" lon="1.13827">
        <ele>6</ele>
        <time>2017-01-03T15:24:41Z</time>
      </trkpt>
      <trkpt lat="49.3171" lon="1.13833">
        <ele>6</ele>
        <time>2017-01-03T15:24:41Z</time>
      </trkpt>
      <trkpt lat="49.31707" lon="1.1384">
        <ele>9</ele>
        <time>2017-01-03T15:24:41Z</time>
      </trkpt>
      <trkpt lat="49.31706" lon="1.13847">
        <ele>9</ele>
        <time>2017-01-03T15:24:57Z</time>
      </trkpt>
      <trkpt lat="49.31706" lon="1.13854">
        <ele>9</ele>
        <time>2017-01-03T15:24:57Z</time>
      </trkpt>
      <trkpt lat="49.31706" lon="1.13861">
        <ele>9</ele>
        <time>2017-01-03T15:24:57Z</time>
      </trkpt>
      <trkpt lat="49.31705" lon="1.13867">
        <ele>9</ele>
        <time>2017-01-03T15:24:57Z</time>
      </trkpt>
      <trkpt lat="49.31704" lon="1.13875">
        <ele>9</ele>
        <time>2017-01-03T15:25:13Z</time>
      </trkpt>
      <trkpt lat="49.31705" lon="1.13883">
        <ele>10</ele>
        <time>2017-01-03T15:25:13Z</time>
      </trkpt>
      <trkpt lat="49.31706" lon="1.13891">
        <ele>10</ele>
        <time>2017-01-03T15:25:13Z</time>
      </trkpt>
      <trkpt lat="49.31706" lon="1.13898">
        <ele>10</ele>
        <time>2017-01-03T15:25:13Z</time>
      </trkpt>
      <trkpt lat="49.31706" lon="1.13904">
        <ele>10</ele>
        <time>2017-01-03T15:25:29Z</time>
      </trkpt>
      <trkpt lat="49.31707" lon="1.13914">
        <ele>10</ele>
        <time>2017-01-03T15:25:29Z</time>
      </trkpt>
      <trkpt lat="49.31707" lon="1.13921">
        <ele>10</ele>
        <time>2017-01-03T15:25:29Z</time>
      </trkpt>
      <trkpt lat="49.31708" lon="1.13928">
        <ele>10</ele>
        <time>2017-01-03T15:25:29Z</time>
      </trkpt>
      <trkpt lat="49.31707" lon="1.13936">
        <ele>10</ele>
        <time>2017-01-03T15:25:45Z</time>
      </trkpt>
      <trkpt lat="49.31708" lon="1.13943">
        <ele>10</ele>
        <time>2017-01-03T15:25:45Z</time>
      </trkpt>
      <trkpt lat="49.31707" lon="1.1395">
        <ele>10</ele>
        <time>2017-01-03T15:25:45Z</time>
      </trkpt>
      <trkpt lat="49.31706" lon="1.13956">
        <ele>10</ele>
        <time>2017-01-03T15:25:45Z</time>
      </trkpt>
      <trkpt lat="49.31706" lon="1.13963">
        <ele>9</ele>
        <time>2017-01-03T15:26:01Z</time>
      </trkpt>
      <trkpt lat="49.31706" lon="1.1397">
        <ele>9</ele>
        <time>2017-01-03T15:26:01Z</time>
      </trkpt>
      <trkpt lat="49.31706" lon="1.13978">
        <ele>9</ele>
        <time>2017-01-03T15:26:01Z</time>
      </trkpt>
      <trkpt lat="49.31704" lon="1.13985">
        <ele>9</ele>
        <time>2017-01-03T15:26:01Z</time>
      </trkpt>
      <trkpt lat="49.31702" lon="1.13993">
        <ele>9</ele>
        <time>2017-01-03T15:26:18Z</time>
      </trkpt>
      <trkpt lat="49.31701" lon="1.14001">
        <ele>9</ele>
        <time>2017-01-03T15:26:18Z</time>
      </trkpt>
      <trkpt lat="49.317" lon="1.14008">
        <ele>9</ele>
        <time>2017-01-03T15:26:18Z</time>
      </trkpt>
      <trkpt lat="49.317" lon="1.14015">
        <ele>9</ele>
        <time>2017-01-03T15:26:18Z</time>
      </trkpt>
      <trkpt lat="49.31699" lon="1.14023">
        <ele>9</ele>
        <time>2017-01-03T15:26:33Z</time>
      </trkpt>
      <trkpt lat="49.31698" lon="1.14029">
        <ele>9</ele>
        <time>2017-01-03T15:26:33Z</time>
      </trkpt>
      <trkpt lat="49.31696" lon="1.14037">
        <ele>9</ele>
        <time>2017-01-03T15:26:33Z</time>
      </trkpt>
      <trkpt lat="49.31695" lon="1.14044">
        <ele>8</ele>
        <time>2017-01-03T15:26:33Z</time>
      </trkpt>
      <trkpt lat="49.31695" lon="1.14052">
        <ele>8</ele>
        <time>2017-01-03T15:26:49Z</time>
      </trkpt>
      <trkpt lat="49.31696" lon="1.1406">
        <ele>8</ele>
        <time>2017-01-03T15:26:49Z</time>
      </trkpt>
      <trkpt lat="49.31697" lon="1.14066">
        <ele>8</ele>
        <time>2017-01-03T15:26:49Z</time>
      </trkpt>
      <trkpt lat="49.31698" lon="1.14074">
        <ele>8</ele>
        <time>2017-01-03T15:26:49Z</time>
      </trkpt>
      <trkpt lat="49.31699" lon="1.1408">
        <ele>8</ele>
        <time>2017-01-03T15:27:05Z</time>
      </trkpt>
      <trkpt lat="49.317" lon="1.14088">
        <ele>8</ele>
        <time>2017-01-03T15:27:05Z</time>
      </trkpt>
      <trkpt lat="49.31701" lon="1.14095">
        <ele>8</ele>
        <time>2017-01-03T15:27:05Z</time>
      </trkpt>
      <trkpt lat="49.31702" lon="1.141">
        <ele>8</ele>
        <time>2017-01-03T15:27:05Z</time>
      </trkpt>
      <trkpt lat="49.31702" lon="1.14104">
        <ele>8</ele>
        <time>2017-01-03T15:27:21Z</time>
      </trkpt>
      <trkpt lat="49.31702" lon="1.1411">
        <ele>8</ele>
        <time>2017-01-03T15:27:21Z</time>
      </trkpt>
      <trkpt lat="49.31701" lon="1.14116">
        <ele>8</ele>
        <time>2017-01-03T15:27:21Z</time>
      </trkpt>
      <trkpt lat="49.31701" lon="1.14122">
        <ele>8</ele>
        <time>2017-01-03T15:27:21Z</time>
      </trkpt>
      <trkpt lat="49.31702" lon="1.14129">
        <ele>10</ele>
        <time>2017-01-03T15:27:37Z</time>
      </trkpt>
      <trkpt lat="49.31702" lon="1.14135">
        <ele>10</ele>
        <time>2017-01-03T15:27:37Z</time>
      </trkpt>
      <trkpt lat="49.31703" lon="1.14141">
        <ele>10</ele>
        <time>2017-01-03T15:27:37Z</time>
      </trkpt>
      <trkpt lat="49.31703" lon="1.14148">
        <ele>10</ele>
        <time>2017-01-03T15:27:37Z</time>
      </trkpt>
      <trkpt lat="49.31703" lon="1.14155">
        <ele>10</ele>
        <time>2017-01-03T15:27:53Z</time>
      </trkpt>
      <trkpt lat="49.31702" lon="1.14163">
        <ele>10</ele>
        <time>2017-01-03T15:27:53Z</time>
      </trkpt>
      <trkpt lat="49.31702" lon="1.1417">
        <ele>10</ele>
        <time>2017-01-03T15:27:53Z</time>
      </trkpt>
      <trkpt lat="49.31703" lon="1.14176">
        <ele>10</ele>
        <time>2017-01-03T15:27:53Z</time>
      </trkpt>
      <trkpt lat="49.31705" lon="1.14186">
        <ele>10</ele>
        <time>2017-01-03T15:28:09Z</time>
      </trkpt>
      <trkpt lat="49.31706" lon="1.14191">
        <ele>10</ele>
        <time>2017-01-03T15:28:09Z</time>
      </trkpt>
      <trkpt lat="49.31708" lon="1.14198">
        <ele>10</ele>
        <time>2017-01-03T15:28:09Z</time>
      </trkpt>
      <trkpt lat="49.31711" lon="1.14205">
        <ele>6</ele>
        <time>2017-01-03T15:28:09Z</time>
      </trkpt>
      <trkpt lat="49.31712" lon="1.14212">
        <ele>6</ele>
        <time>2017-01-03T15:28:25Z</time>
      </trkpt>
      <trkpt lat="49.31714" lon="1.1422">
        <ele>6</ele>
        <time>2017-01-03T15:28:25Z</time>
      </trkpt>
      <trkpt lat="49.31717" lon="1.14226">
        <ele>6</ele>
        <time>2017-01-03T15:28:25Z</time>
      </trkpt>
      <trkpt lat="49.31719" lon="1.14232">
        <ele>6</ele>
        <time>2017-01-03T15:28:25Z</time>
      </trkpt>
      <trkpt lat="49.3172" lon="1.14238">
        <ele>6</ele>
        <time>2017-01-03T15:28:41Z</time>
      </trkpt>
      <trkpt lat="49.31719" lon="1.14246">
        <ele>6</ele>
        <time>2017-01-03T15:28:41Z</time>
      </trkpt>
      <trkpt lat="49.3172" lon="1.14253">
        <ele>6</ele>
        <time>2017-01-03T15:28:41Z</time>
      </trkpt>
      <trkpt lat="49.31721" lon="1.1426">
        <ele>6</ele>
        <time>2017-01-03T15:28:41Z</time>
      </trkpt>
      <trkpt lat="49.31721" lon="1.14267">
        <ele>6</ele>
        <time>2017-01-03T15:28:57Z</time>
      </trkpt>
      <trkpt lat="49.31721" lon="1.14274">
        <ele>6</ele>
        <time>2017-01-03T15:28:57Z</time>
      </trkpt>
      <trkpt lat="49.31721" lon="1.14282">
        <ele>6</ele>
        <time>2017-01-03T15:28:57Z</time>
      </trkpt>
      <trkpt lat="49.31721" lon="1.14289">
        <ele>6</ele>
        <time>2017-01-03T15:28:57Z</time>
      </trkpt>
      <trkpt lat="49.31721" lon="1.14297">
        <ele>8</ele>
        <time>2017-01-03T15:29:13Z</time>
      </trkpt>
      <trkpt lat="49.31722" lon="1.14304">
        <ele>8</ele>
        <time>2017-01-03T15:29:13Z</time>
      </trkpt>
      <trkpt lat="49.31722" lon="1.14311">
        <ele>8</ele>
        <time>2017-01-03T15:29:13Z</time>
      </trkpt>
      <trkpt lat="49.31721" lon="1.14319">
        <ele>8</ele>
        <time>2017-01-03T15:29:13Z</time>
      </trkpt>
      <trkpt lat="49.3172" lon="1.14326">
        <ele>8</ele>
        <time>2017-01-03T15:29:29Z</time>
      </trkpt>
      <trkpt lat="49.3172" lon="1.14334">
        <ele>8</ele>
        <time>2017-01-03T15:29:29Z</time>
      </trkpt>
      <trkpt lat="49.31719" lon="1.14341">
        <ele>8</ele>
        <time>2017-01-03T15:29:29Z</time>
      </trkpt>
      <trkpt lat="49.31719" lon="1.14349">
        <ele>8</ele>
        <time>2017-01-03T15:29:29Z</time>
      </trkpt>
      <trkpt lat="49.31719" lon="1.14355">
        <ele>8</ele>
        <time>2017-01-03T15:29:45Z</time>
      </trkpt>
      <trkpt lat="49.31719" lon="1.14362">
        <ele>8</ele>
        <time>2017-01-03T15:29:45Z</time>
      </trkpt>
      <trkpt lat="49.31719" lon="1.1437">
        <ele>8</ele>
        <time>2017-01-03T15:29:45Z</time>
      </trkpt>
      <trkpt lat="49.31719" lon="1.14377">
        <ele>7</ele>
        <time>2017-01-03T15:29:45Z</time>
      </trkpt>
      <trkpt lat="49.31719" lon="1.14383">
        <ele>7</ele>
        <time>2017-01-03T15:30:01Z</time>
      </trkpt>
      <trkpt lat="49.3172" lon="1.1439">
        <ele>7</ele>
        <time>2017-01-03T15:30:01Z</time>
      </trkpt>
      <trkpt lat="49.31723" lon="1.14393">
        <ele>7</ele>
        <time>2017-01-03T15:30:01Z</time>
      </trkpt>
      <trkpt lat="49.31727" lon="1.14395">
        <ele>7</ele>
        <time>2017-01-03T15:30:01Z</time>
      </trkpt>
      <trkpt lat="49.3173" lon="1.14398">
        <ele>7</ele>
        <time>2017-01-03T15:30:17Z</time>
      </trkpt>
      <trkpt lat="49.31734" lon="1.14403">
        <ele>7</ele>
        <time>2017-01-03T15:30:17Z</time>
      </trkpt>
      <trkpt lat="49.31737" lon="1.14407">
        <ele>7</ele>
        <time>2017-01-03T15:30:17Z</time>
      </trkpt>
      <trkpt lat="49.31739" lon="1.14411">
        <ele>7</ele>
        <time>2017-01-03T15:30:17Z</time>
      </trkpt>
      <trkpt lat="49.31745" lon="1.14454">
        <ele>7</ele>
        <time>2017-01-03T15:30:57Z</time>
      </trkpt>
      <trkpt lat="49.3174" lon="1.14458">
        <ele>7</ele>
        <time>2017-01-03T15:30:57Z</time>
      </trkpt>
      <trkpt lat="49.31738" lon="1.14465">
        <ele>8</ele>
        <time>2017-01-03T15:30:57Z</time>
      </trkpt>
      <trkpt lat="49.31738" lon="1.14473">
        <ele>8</ele>
        <time>2017-01-03T15:30:57Z</time>
      </trkpt>
      <trkpt lat="49.31738" lon="1.1448">
        <ele>8</ele>
        <time>2017-01-03T15:31:13Z</time>
      </trkpt>
      <trkpt lat="49.31738" lon="1.14488">
        <ele>8</ele>
        <time>2017-01-03T15:31:13Z</time>
      </trkpt>
      <trkpt lat="49.31738" lon="1.14495">
        <ele>8</ele>
        <time>2017-01-03T15:31:13Z</time>
      </trkpt>
      <trkpt lat="49.31737" lon="1.14502">
        <ele>8</ele>
        <time>2017-01-03T15:31:13Z</time>
      </trkpt>
      <trkpt lat="49.31737" lon="1.14509">
        <ele>8</ele>
        <time>2017-01-03T15:31:29Z</time>
      </trkpt>
      <trkpt lat="49.31737" lon="1.14516">
        <ele>8</ele>
        <time>2017-01-03T15:31:29Z</time>
      </trkpt>
      <trkpt lat="49.31737" lon="1.14522">
        <ele>8</ele>
        <time>2017-01-03T15:31:29Z</time>
      </trkpt>
      <trkpt lat="49.31737" lon="1.14528">
        <ele>8</ele>
        <time>2017-01-03T15:31:29Z</time>
      </trkpt>
      <trkpt lat="49.31738" lon="1.14535">
        <ele>8</ele>
        <time>2017-01-03T15:31:45Z</time>
      </trkpt>
      <trkpt lat="49.31739" lon="1.14541">
        <ele>8</ele>
        <time>2017-01-03T15:31:45Z</time>
      </trkpt>
      <trkpt lat="49.31739" lon="1.14547">
        <ele>8</ele>
        <time>2017-01-03T15:31:45Z</time>
      </trkpt>
      <trkpt lat="49.31738" lon="1.14554">
        <ele>8</ele>
        <time>2017-01-03T15:31:45Z</time>
      </trkpt>
      <trkpt lat="49.31737" lon="1.14561">
        <ele>8</ele>
        <time>2017-01-03T15:32:01Z</time>
      </trkpt>
      <trkpt lat="49.31734" lon="1.14568">
        <ele>8</ele>
        <time>2017-01-03T15:32:01Z</time>
      </trkpt>
      <trkpt lat="49.31732" lon="1.14574">
        <ele>8</ele>
        <time>2017-01-03T15:32:01Z</time>
      </trkpt>
      <trkpt lat="49.31731" lon="1.1458">
        <ele>8</ele>
        <time>2017-01-03T15:32:01Z</time>
      </trkpt>
      <trkpt lat="49.31731" lon="1.14588">
        <ele>8</ele>
        <time>2017-01-03T15:32:17Z</time>
      </trkpt>
      <trkpt lat="49.3173" lon="1.14594">
        <ele>8</ele>
        <time>2017-01-03T15:32:17Z</time>
      </trkpt>
      <trkpt lat="49.31728" lon="1.14602">
        <ele>8</ele>
        <time>2017-01-03T15:32:17Z</time>
      </trkpt>
      <trkpt lat="49.31725" lon="1.1461">
        <ele>8</ele>
        <time>2017-01-03T15:32:17Z</time>
      </trkpt>
      <trkpt lat="49.31723" lon="1.14618">
        <ele>8</ele>
        <time>2017-01-03T15:32:33Z</time>
      </trkpt>
      <trkpt lat="49.31721" lon="1.14625">
        <ele>8</ele>
        <time>2017-01-03T15:32:33Z</time>
      </trkpt>
      <trkpt lat="49.3172" lon="1.14631">
        <ele>9</ele>
        <time>2017-01-03T15:32:33Z</time>
      </trkpt>
      <trkpt lat="49.31718" lon="1.14637">
        <ele>9</ele>
        <time>2017-01-03T15:32:33Z</time>
      </trkpt>
      <trkpt lat="49.3172" lon="1.14641">
        <ele>9</ele>
        <time>2017-01-03T15:32:49Z</time>
      </trkpt>
      <trkpt lat="49.31717" lon="1.14645">
        <ele>9</ele>
        <time>2017-01-03T15:32:49Z</time>
      </trkpt>
      <trkpt lat="49.31714" lon="1.14651">
        <ele>9</ele>
        <time>2017-01-03T15:32:49Z</time>
      </trkpt>
      <trkpt lat="49.31713" lon="1.14659">
        <ele>9</ele>
        <time>2017-01-03T15:32:49Z</time>
      </trkpt>
      <trkpt lat="49.31712" lon="1.14668">
        <ele>9</ele>
        <time>2017-01-03T15:33:05Z</time>
      </trkpt>
      <trkpt lat="49.31715" lon="1.14675">
        <ele>9</ele>
        <time>2017-01-03T15:33:05Z</time>
      </trkpt>
      <trkpt lat="49.31719" lon="1.14679">
        <ele>9</ele>
        <time>2017-01-03T15:33:05Z</time>
      </trkpt>
      <trkpt lat="49.31724" lon="1.14681">
        <ele>9</ele>
        <time>2017-01-03T15:33:05Z</time>
      </trkpt>
      <trkpt lat="49.31728" lon="1.14682">
        <ele>9</ele>
        <time>2017-01-03T15:33:21Z</time>
      </trkpt>
      <trkpt lat="49.31733" lon="1.14682">
        <ele>9</ele>
        <time>2017-01-03T15:33:21Z</time>
      </trkpt>
      <trkpt lat="49.31738" lon="1.14683">
        <ele>9</ele>
        <time>2017-01-03T15:33:21Z</time>
      </trkpt>
      <trkpt lat="49.31743" lon="1.14683">
        <ele>9</ele>
        <time>2017-01-03T15:33:21Z</time>
      </trkpt>
      <trkpt lat="49.31748" lon="1.14684">
        <ele>9</ele>
        <time>2017-01-03T15:33:37Z</time>
      </trkpt>
      <trkpt lat="49.31754" lon="1.14685">
        <ele>9</ele>
        <time>2017-01-03T15:33:37Z</time>
      </trkpt>
      <trkpt lat="49.31757" lon="1.14686">
        <ele>9</ele>
        <time>2017-01-03T15:33:37Z</time>
      </trkpt>
      <trkpt lat="49.31762" lon="1.14687">
        <ele>9</ele>
        <time>2017-01-03T15:33:37Z</time>
      </trkpt>
      <trkpt lat="49.31767" lon="1.14687">
        <ele>9</ele>
        <time>2017-01-03T15:33:53Z</time>
      </trkpt>
      <trkpt lat="49.31772" lon="1.14687">
        <ele>9</ele>
        <time>2017-01-03T15:33:53Z</time>
      </trkpt>
      <trkpt lat="49.31777" lon="1.14688">
        <ele>9</ele>
        <time>2017-01-03T15:33:53Z</time>
      </trkpt>
      <trkpt lat="49.3178" lon="1.14688">
        <ele>9</ele>
        <time>2017-01-03T15:33:53Z</time>
      </trkpt>
      <trkpt lat="49.31786" lon="1.14688">
        <ele>9</ele>
        <time>2017-01-03T15:34:09Z</time>
      </trkpt>
      <trkpt lat="49.31791" lon="1.1469">
        <ele>9</ele>
        <time>2017-01-03T15:34:09Z</time>
      </trkpt>
      <trkpt lat="49.31796" lon="1.1469">
        <ele>9</ele>
        <time>2017-01-03T15:34:09Z</time>
      </trkpt>
      <trkpt lat="49.31802" lon="1.1469">
        <ele>9</ele>
        <time>2017-01-03T15:34:09Z</time>
      </trkpt>
      <trkpt lat="49.31808" lon="1.1469">
        <ele>9</ele>
        <time>2017-01-03T15:34:25Z</time>
      </trkpt>
      <trkpt lat="49.31813" lon="1.14689">
        <ele>9</ele>
        <time>2017-01-03T15:34:25Z</time>
      </trkpt>
      <trkpt lat="49.31817" lon="1.14689">
        <ele>9</ele>
        <time>2017-01-03T15:34:25Z</time>
      </trkpt>
      <trkpt lat="49.31821" lon="1.14688">
        <ele>9</ele>
        <time>2017-01-03T15:34:25Z</time>
      </trkpt>
      <trkpt lat="49.31825" lon="1.14686">
        <ele>9</ele>
        <time>2017-01-03T15:34:41Z</time>
      </trkpt>
      <trkpt lat="49.3183" lon="1.14682">
        <ele>9</ele>
        <time>2017-01-03T15:34:41Z</time>
      </trkpt>
      <trkpt lat="49.31836" lon="1.14685">
        <ele>9</ele>
        <time>2017-01-03T15:34:41Z</time>
      </trkpt>
      <trkpt lat="49.31841" lon="1.14685">
        <ele>9</ele>
        <time>2017-01-03T15:34:41Z</time>
      </trkpt>
      <trkpt lat="49.31846" lon="1.14684">
        <ele>9</ele>
        <time>2017-01-03T15:34:57Z</time>
      </trkpt>
      <trkpt lat="49.31852" lon="1.14684">
        <ele>9</ele>
        <time>2017-01-03T15:34:57Z</time>
      </trkpt>
      <trkpt lat="49.31858" lon="1.14684">
        <ele>9</ele>
        <time>2017-01-03T15:34:57Z</time>
      </trkpt>
      <trkpt lat="49.31864" lon="1.14681">
        <ele>9</ele>
        <time>2017-01-03T15:34:57Z</time>
      </trkpt>
      <trkpt lat="49.31868" lon="1.14679">
        <ele>9</ele>
        <time>2017-01-03T15:35:13Z</time>
      </trkpt>
      <trkpt lat="49.31873" lon="1.14678">
        <ele>9</ele>
        <time>2017-01-03T15:35:13Z</time>
      </trkpt>
      <trkpt lat="49.31878" lon="1.14681">
        <ele>11</ele>
        <time>2017-01-03T15:35:13Z</time>
      </trkpt>
      <trkpt lat="49.31881" lon="1.1468">
        <ele>11</ele>
        <time>2017-01-03T15:35:13Z</time>
      </trkpt>
      <trkpt lat="49.31885" lon="1.14681">
        <ele>11</ele>
        <time>2017-01-03T15:35:29Z</time>
      </trkpt>
      <trkpt lat="49.31891" lon="1.14682">
        <ele>11</ele>
        <time>2017-01-03T15:35:29Z</time>
      </trkpt>
      <trkpt lat="49.31895" lon="1.14681">
        <ele>11</ele>
        <time>2017-01-03T15:35:29Z</time>
      </trkpt>
      <trkpt lat="49.31901" lon="1.14681">
        <ele>11</ele>
        <time>2017-01-03T15:35:29Z</time>
      </trkpt>
      <trkpt lat="49.31905" lon="1.14682">
        <ele>11</ele>
        <time>2017-01-03T15:35:45Z</time>
      </trkpt>
      <trkpt lat="49.31909" lon="1.14682">
        <ele>11</ele>
        <time>2017-01-03T15:35:45Z</time>
      </trkpt>
      <trkpt lat="49.31914" lon="1.14682">
        <ele>11</ele>
        <time>2017-01-03T15:35:45Z</time>
      </trkpt>
      <trkpt lat="49.31919" lon="1.14681">
        <ele>11</ele>
        <time>2017-01-03T15:35:45Z</time>
      </trkpt>
      <trkpt lat="49.31923" lon="1.14682">
        <ele>11</ele>
        <time>2017-01-03T15:36:01Z</time>
      </trkpt>
      <trkpt lat="49.31926" lon="1.14684">
        <ele>11</ele>
        <time>2017-01-03T15:36:01Z</time>
      </trkpt>
      <trkpt lat="49.3193" lon="1.14684">
        <ele>11</ele>
        <time>2017-01-03T15:36:01Z</time>
      </trkpt>
      <trkpt lat="49.31934" lon="1.14683">
        <ele>11</ele>
        <time>2017-01-03T15:36:01Z</time>
      </trkpt>
      <trkpt lat="49.31938" lon="1.14684">
        <ele>11</ele>
        <time>2017-01-03T15:36:17Z</time>
      </trkpt>
      <trkpt lat="49.31947" lon="1.14683">
        <ele>11</ele>
        <time>2017-01-03T15:36:17Z</time>
      </trkpt>
      <trkpt lat="49.31951" lon="1.14683">
        <ele>11</ele>
        <time>2017-01-03T15:36:17Z</time>
      </trkpt>
      <trkpt lat="49.31956" lon="1.14681">
        <ele>11</ele>
        <time>2017-01-03T15:36:17Z</time>
      </trkpt>
      <trkpt lat="49.31961" lon="1.14681">
        <ele>12</ele>
        <time>2017-01-03T15:36:33Z</time>
      </trkpt>
      <trkpt lat="49.31966" lon="1.14679">
        <ele>12</ele>
        <time>2017-01-03T15:36:33Z</time>
      </trkpt>
      <trkpt lat="49.31972" lon="1.1468">
        <ele>12</ele>
        <time>2017-01-03T15:36:33Z</time>
      </trkpt>
      <trkpt lat="49.31976" lon="1.1468">
        <ele>12</ele>
        <time>2017-01-03T15:36:33Z</time>
      </trkpt>
      <trkpt lat="49.31982" lon="1.14681">
        <ele>12</ele>
        <time>2017-01-03T15:36:49Z</time>
      </trkpt>
      <trkpt lat="49.31986" lon="1.1468">
        <ele>12</ele>
        <time>2017-01-03T15:36:49Z</time>
      </trkpt>
      <trkpt lat="49.3199" lon="1.1468">
        <ele>12</ele>
        <time>2017-01-03T15:36:49Z</time>
      </trkpt>
      <trkpt lat="49.31994" lon="1.1468">
        <ele>12</ele>
        <time>2017-01-03T15:36:49Z</time>
      </trkpt>
      <trkpt lat="49.31999" lon="1.14681">
        <ele>12</ele>
        <time>2017-01-03T15:37:05Z</time>
      </trkpt>
      <trkpt lat="49.32004" lon="1.14682">
        <ele>12</ele>
        <time>2017-01-03T15:37:05Z</time>
      </trkpt>
      <trkpt lat="49.32009" lon="1.14681">
        <ele>12</ele>
        <time>2017-01-03T15:37:05Z</time>
      </trkpt>
      <trkpt lat="49.32014" lon="1.1468">
        <ele>12</ele>
        <time>2017-01-03T15:37:05Z</time>
      </trkpt>
      <trkpt lat="49.32019" lon="1.14678">
        <ele>12</ele>
        <time>2017-01-03T15:37:21Z</time>
      </trkpt>
      <trkpt lat="49.32025" lon="1.14681">
        <ele>12</ele>
        <time>2017-01-03T15:37:21Z</time>
      </trkpt>
      <trkpt lat="49.3203" lon="1.1468">
        <ele>12</ele>
        <time>2017-01-03T15:37:21Z</time>
      </trkpt>
      <trkpt lat="49.32034" lon="1.1468">
        <ele>12</ele>
        <time>2017-01-03T15:37:21Z</time>
      </trkpt>
      <trkpt lat="49.32038" lon="1.1468">
        <ele>12</ele>
        <time>2017-01-03T15:37:37Z</time>
      </trkpt>
      <trkpt lat="49.32042" lon="1.1468">
        <ele>12</ele>
        <time>2017-01-03T15:37:37Z</time>
      </trkpt>
      <trkpt lat="49.32046" lon="1.1468">
        <ele>14</ele>
        <time>2017-01-03T15:37:37Z</time>
      </trkpt>
      <trkpt lat="49.32052" lon="1.14679">
        <ele>14</ele>
        <time>2017-01-03T15:37:37Z</time>
      </trkpt>
      <trkpt lat="49.32058" lon="1.1468">
        <ele>14</ele>
        <time>2017-01-03T15:37:53Z</time>
      </trkpt>
      <trkpt lat="49.32063" lon="1.14682">
        <ele>14</ele>
        <time>2017-01-03T15:37:53Z</time>
      </trkpt>
      <trkpt lat="49.32068" lon="1.14683">
        <ele>14</ele>
        <time>2017-01-03T15:37:53Z</time>
      </trkpt>
      <trkpt lat="49.32073" lon="1.14685">
        <ele>14</ele>
        <time>2017-01-03T15:37:53Z</time>
      </trkpt>
      <trkpt lat="49.32078" lon="1.14687">
        <ele>14</ele>
        <time>2017-01-03T15:38:09Z</time>
      </trkpt>
      <trkpt lat="49.32084" lon="1.14689">
        <ele>14</ele>
        <time>2017-01-03T15:38:09Z</time>
      </trkpt>
      <trkpt lat="49.32089" lon="1.14691">
        <ele>14</ele>
        <time>2017-01-03T15:38:09Z</time>
      </trkpt>
      <trkpt lat="49.32095" lon="1.14694">
        <ele>14</ele>
        <time>2017-01-03T15:38:09Z</time>
      </trkpt>
      <trkpt lat="49.32099" lon="1.14698">
        <ele>14</ele>
        <time>2017-01-03T15:38:25Z</time>
      </trkpt>
      <trkpt lat="49.32103" lon="1.14703">
        <ele>14</ele>
        <time>2017-01-03T15:38:25Z</time>
      </trkpt>
      <trkpt lat="49.32107" lon="1.14707">
        <ele>14</ele>
        <time>2017-01-03T15:38:25Z</time>
      </trkpt>
      <trkpt lat="49.3211" lon="1.14712">
        <ele>15</ele>
        <time>2017-01-03T15:38:25Z</time>
      </trkpt>
      <trkpt lat="49.32114" lon="1.14716">
        <ele>15</ele>
        <time>2017-01-03T15:38:41Z</time>
      </trkpt>
      <trkpt lat="49.32117" lon="1.14721">
        <ele>15</ele>
        <time>2017-01-03T15:38:41Z</time>
      </trkpt>
      <trkpt lat="49.32118" lon="1.14729">
        <ele>15</ele>
        <time>2017-01-03T15:38:41Z</time>
      </trkpt>
      <trkpt lat="49.32118" lon="1.14736">
        <ele>15</ele>
        <time>2017-01-03T15:38:41Z</time>
      </trkpt>
      <trkpt lat="49.32118" lon="1.14743">
        <ele>15</ele>
        <time>2017-01-03T15:38:57Z</time>
      </trkpt>
      <trkpt lat="49.32119" lon="1.14749">
        <ele>15</ele>
        <time>2017-01-03T15:38:57Z</time>
      </trkpt>
      <trkpt lat="49.3212" lon="1.14755">
        <ele>15</ele>
        <time>2017-01-03T15:38:57Z</time>
      </trkpt>
      <trkpt lat="49.3212" lon="1.14763">
        <ele>15</ele>
        <time>2017-01-03T15:38:57Z</time>
      </trkpt>
      <trkpt lat="49.32125" lon="1.14769">
        <ele>18</ele>
        <time>2017-01-03T15:39:33Z</time>
      </trkpt>
      <trkpt lat="49.32125" lon="1.14769">
        <ele>18</ele>
        <time>2017-01-03T15:39:33Z</time>
      </trkpt>
      <trkpt lat="49.32127" lon="1.14766">
        <ele>18</ele>
        <time>2017-01-03T15:39:33Z</time>
      </trkpt>
      <trkpt lat="49.32129" lon="1.14761">
        <ele>18</ele>
        <time>2017-01-03T15:39:33Z</time>
      </trkpt>
      <trkpt lat="49.32129" lon="1.14759">
        <ele>18</ele>
        <time>2017-01-03T15:39:33Z</time>
      </trkpt>
      <trkpt lat="49.3213" lon="1.14753">
        <ele>18</ele>
        <time>2017-01-03T15:39:49Z</time>
      </trkpt>
      <trkpt lat="49.32131" lon="1.14746">
        <ele>18</ele>
        <time>2017-01-03T15:39:49Z</time>
      </trkpt>
      <trkpt lat="49.32133" lon="1.1474">
        <ele>18</ele>
        <time>2017-01-03T15:39:49Z</time>
      </trkpt>
      <trkpt lat="49.32133" lon="1.14735">
        <ele>18</ele>
        <time>2017-01-03T15:39:49Z</time>
      </trkpt>
      <trkpt lat="49.32135" lon="1.1473">
        <ele>18</ele>
        <time>2017-01-03T15:40:05Z</time>
      </trkpt>
      <trkpt lat="49.32138" lon="1.14726">
        <ele>18</ele>
        <time>2017-01-03T15:40:05Z</time>
      </trkpt>
      <trkpt lat="49.32141" lon="1.14728">
        <ele>18</ele>
        <time>2017-01-03T15:40:05Z</time>
      </trkpt>
      <trkpt lat="49.32146" lon="1.14727">
        <ele>18</ele>
        <time>2017-01-03T15:40:05Z</time>
      </trkpt>
      <trkpt lat="49.32146" lon="1.14732">
        <ele>18</ele>
        <time>2017-01-03T15:40:21Z</time>
      </trkpt>
      <trkpt lat="49.32146" lon="1.1474">
        <ele>18</ele>
        <time>2017-01-03T15:40:21Z</time>
      </trkpt>
      <trkpt lat="49.3215" lon="1.14742">
        <ele>18</ele>
        <time>2017-01-03T15:40:21Z</time>
      </trkpt>
      <trkpt lat="49.32154" lon="1.14743">
        <ele>18</ele>
        <time>2017-01-03T15:40:21Z</time>
      </trkpt>
      <trkpt lat="49.32158" lon="1.14744">
        <ele>18</ele>
        <time>2017-01-03T15:40:37Z</time>
      </trkpt>
      <trkpt lat="49.32163" lon="1.14747">
        <ele>18</ele>
        <time>2017-01-03T15:40:37Z</time>
      </trkpt>
      <trkpt lat="49.32167" lon="1.14747">
        <ele>18</ele>
        <time>2017-01-03T15:40:37Z</time>
      </trkpt>
      <trkpt lat="49.32171" lon="1.14749">
        <ele>18</ele>
        <time>2017-01-03T15:40:37Z</time>
      </trkpt>
      <trkpt lat="49.32176" lon="1.14752">
        <ele>18</ele>
        <time>2017-01-03T15:40:53Z</time>
      </trkpt>
      <trkpt lat="49.3218" lon="1.14755">
        <ele>18</ele>
        <time>2017-01-03T15:40:53Z</time>
      </trkpt>
      <trkpt lat="49.32184" lon="1.14758">
        <ele>18</ele>
        <time>2017-01-03T15:40:53Z</time>
      </trkpt>
      <trkpt lat="49.32189" lon="1.14763">
        <ele>18</ele>
        <time>2017-01-03T15:40:53Z</time>
      </trkpt>
      <trkpt lat="49.32193" lon="1.14765">
        <ele>18</ele>
        <time>2017-01-03T15:41:09Z</time>
      </trkpt>
      <trkpt lat="49.32198" lon="1.14768">
        <ele>18</ele>
        <time>2017-01-03T15:41:09Z</time>
      </trkpt>
      <trkpt lat="49.32203" lon="1.14772">
        <ele>18</ele>
        <time>2017-01-03T15:41:09Z</time>
      </trkpt>
      <trkpt lat="49.32207" lon="1.14776">
        <ele>18</ele>
        <time>2017-01-03T15:41:09Z</time>
      </trkpt>
      <trkpt lat="49.3221" lon="1.1478">
        <ele>19</ele>
        <time>2017-01-03T15:41:25Z</time>
      </trkpt>
      <trkpt lat="49.32214" lon="1.14785">
        <ele>19</ele>
        <time>2017-01-03T15:41:25Z</time>
      </trkpt>
      <trkpt lat="49.32218" lon="1.14789">
        <ele>19</ele>
        <time>2017-01-03T15:41:25Z</time>
      </trkpt>
      <trkpt lat="49.32221" lon="1.14793">
        <ele>20</ele>
        <time>2017-01-03T15:41:25Z</time>
      </trkpt>
      <trkpt lat="49.32225" lon="1.14798">
        <ele>20</ele>
        <time>2017-01-03T15:41:41Z</time>
      </trkpt>
      <trkpt lat="49.32229" lon="1.14804">
        <ele>20</ele>
        <time>2017-01-03T15:41:41Z</time>
      </trkpt>
      <trkpt lat="49.32232" lon="1.14809">
        <ele>20</ele>
        <time>2017-01-03T15:41:41Z</time>
      </trkpt>
      <trkpt lat="49.32236" lon="1.14814">
        <ele>20</ele>
        <time>2017-01-03T15:41:41Z</time>
      </trkpt>
      <trkpt lat="49.32239" lon="1.14818">
        <ele>20</ele>
        <time>2017-01-03T15:41:57Z</time>
      </trkpt>
      <trkpt lat="49.32242" lon="1.14823">
        <ele>20</ele>
        <time>2017-01-03T15:41:57Z</time>
      </trkpt>
      <trkpt lat="49.32246" lon="1.14829">
        <ele>20</ele>
        <time>2017-01-03T15:41:57Z</time>
      </trkpt>
      <trkpt lat="49.32249" lon="1.14834">
        <ele>20</ele>
        <time>2017-01-03T15:41:57Z</time>
      </trkpt>
      <trkpt lat="49.32252" lon="1.14839">
        <ele>20</ele>
        <time>2017-01-03T15:42:13Z</time>
      </trkpt>
      <trkpt lat="49.32256" lon="1.14845">
        <ele>20</ele>
        <time>2017-01-03T15:42:13Z</time>
      </trkpt>
      <trkpt lat="49.3226" lon="1.14851">
        <ele>20</ele>
        <time>2017-01-03T15:42:13Z</time>
      </trkpt>
      <trkpt lat="49.32263" lon="1.14857">
        <ele>20</ele>
        <time>2017-01-03T15:42:13Z</time>
      </trkpt>
      <trkpt lat="49.32267" lon="1.14864">
        <ele>20</ele>
        <time>2017-01-03T15:42:29Z</time>
      </trkpt>
      <trkpt lat="49.3227" lon="1.1487">
        <ele>20</ele>
        <time>2017-01-03T15:42:29Z</time>
      </trkpt>
      <trkpt lat="49.32273" lon="1.14875">
        <ele>20</ele>
        <time>2017-01-03T15:42:29Z</time>
      </trkpt>
      <trkpt lat="49.32276" lon="1.14882">
        <ele>29</ele>
        <time>2017-01-03T15:42:29Z</time>
      </trkpt>
      <trkpt lat="49.32279" lon="1.14888">
        <ele>29</ele>
        <time>2017-01-03T15:42:45Z</time>
      </trkpt>
      <trkpt lat="49.32282" lon="1.14894">
        <ele>29</ele>
        <time>2017-01-03T15:42:45Z</time>
      </trkpt>
      <trkpt lat="49.32285" lon="1.14899">
        <ele>29</ele>
        <time>2017-01-03T15:42:45Z</time>
      </trkpt>
      <trkpt lat="49.32283" lon="1.14906">
        <ele>29</ele>
        <time>2017-01-03T15:42:45Z</time>
      </trkpt>
      <trkpt lat="49.3228" lon="1.14911">
        <ele>29</ele>
        <time>2017-01-03T15:43:01Z</time>
      </trkpt>
      <trkpt lat="49.32276" lon="1.14917">
        <ele>29</ele>
        <time>2017-01-03T15:43:01Z</time>
      </trkpt>
      <trkpt lat="49.32274" lon="1.14925">
        <ele>29</ele>
        <time>2017-01-03T15:43:01Z</time>
      </trkpt>
      <trkpt lat="49.32274" lon="1.14929">
        <ele>29</ele>
        <time>2017-01-03T15:43:01Z</time>
      </trkpt>
      <trkpt lat="49.32273" lon="1.14936">
        <ele>29</ele>
        <time>2017-01-03T15:43:17Z</time>
      </trkpt>
      <trkpt lat="49.32272" lon="1.1494">
        <ele>29</ele>
        <time>2017-01-03T15:43:17Z</time>
      </trkpt>
      <trkpt lat="49.32268" lon="1.14946">
        <ele>29</ele>
        <time>2017-01-03T15:43:17Z</time>
      </trkpt>
      <trkpt lat="49.32271" lon="1.14953">
        <ele>29</ele>
        <time>2017-01-03T15:43:17Z</time>
      </trkpt>
      <trkpt lat="49.32271" lon="1.1496">
        <ele>39</ele>
        <time>2017-01-03T15:43:37Z</time>
      </trkpt>
      <trkpt lat="49.32271" lon="1.14964">
        <ele>39</ele>
        <time>2017-01-03T15:43:37Z</time>
      </trkpt>
      <trkpt lat="49.32267" lon="1.1496">
        <ele>39</ele>
        <time>2017-01-03T15:43:37Z</time>
      </trkpt>
      <trkpt lat="49.32264" lon="1.14954">
        <ele>29</ele>
        <time>2017-01-03T15:43:37Z</time>
      </trkpt>
      <trkpt lat="49.32263" lon="1.14945">
        <ele>29</ele>
        <time>2017-01-03T15:43:37Z</time>
      </trkpt>
      <trkpt lat="49.32261" lon="1.14938">
        <ele>29</ele>
        <time>2017-01-03T15:43:53Z</time>
      </trkpt>
      <trkpt lat="49.32255" lon="1.14938">
        <ele>29</ele>
        <time>2017-01-03T15:43:53Z</time>
      </trkpt>
      <trkpt lat="49.32253" lon="1.14934">
        <ele>29</ele>
        <time>2017-01-03T15:43:53Z</time>
      </trkpt>
      <trkpt lat="49.32251" lon="1.14931">
        <ele>29</ele>
        <time>2017-01-03T15:43:53Z</time>
      </trkpt>
      <trkpt lat="49.32248" lon="1.14926">
        <ele>29</ele>
        <time>2017-01-03T15:44:13Z</time>
      </trkpt>
      <trkpt lat="49.32246" lon="1.14921">
        <ele>29</ele>
        <time>2017-01-03T15:44:13Z</time>
      </trkpt>
      <trkpt lat="49.32243" lon="1.14922">
        <ele>29</ele>
        <time>2017-01-03T15:44:13Z</time>
      </trkpt>
      <trkpt lat="49.3224" lon="1.14924">
        <ele>29</ele>
        <time>2017-01-03T15:44:13Z</time>
      </trkpt>
      <trkpt lat="49.32236" lon="1.14925">
        <ele>29</ele>
        <time>2017-01-03T15:44:13Z</time>
      </trkpt>
      <trkpt lat="49.32234" lon="1.14927">
        <ele>29</ele>
        <time>2017-01-03T15:44:29Z</time>
      </trkpt>
      <trkpt lat="49.32231" lon="1.1493">
        <ele>29</ele>
        <time>2017-01-03T15:44:29Z</time>
      </trkpt>
      <trkpt lat="49.32228" lon="1.14933">
        <ele>29</ele>
        <time>2017-01-03T15:44:29Z</time>
      </trkpt>
      <trkpt lat="49.32224" lon="1.14935">
        <ele>29</ele>
        <time>2017-01-03T15:44:29Z</time>
      </trkpt>
      <trkpt lat="49.32221" lon="1.14937">
        <ele>29</ele>
        <time>2017-01-03T15:44:45Z</time>
      </trkpt>
      <trkpt lat="49.32217" lon="1.14939">
        <ele>29</ele>
        <time>2017-01-03T15:44:45Z</time>
      </trkpt>
      <trkpt lat="49.32215" lon="1.14941">
        <ele>29</ele>
        <time>2017-01-03T15:44:45Z</time>
      </trkpt>
      <trkpt lat="49.32212" lon="1.14943">
        <ele>29</ele>
        <time>2017-01-03T15:44:45Z</time>
      </trkpt>
      <trkpt lat="49.32209" lon="1.14945">
        <ele>29</ele>
        <time>2017-01-03T15:45:01Z</time>
      </trkpt>
      <trkpt lat="49.32207" lon="1.14949">
        <ele>26</ele>
        <time>2017-01-03T15:45:01Z</time>
      </trkpt>
      <trkpt lat="49.32206" lon="1.14955">
        <ele>26</ele>
        <time>2017-01-03T15:45:01Z</time>
      </trkpt>
      <trkpt lat="49.32205" lon="1.1496">
        <ele>34</ele>
        <time>2017-01-03T15:45:01Z</time>
      </trkpt>
      <trkpt lat="49.32207" lon="1.14965">
        <ele>34</ele>
        <time>2017-01-03T15:45:17Z</time>
      </trkpt>
      <trkpt lat="49.32209" lon="1.1497">
        <ele>39</ele>
        <time>2017-01-03T15:45:17Z</time>
      </trkpt>
      <trkpt lat="49.3221" lon="1.14976">
        <ele>39</ele>
        <time>2017-01-03T15:45:17Z</time>
      </trkpt>
      <trkpt lat="49.3221" lon="1.14982">
        <ele>39</ele>
        <time>2017-01-03T15:45:17Z</time>
      </trkpt>
      <trkpt lat="49.32209" lon="1.14986">
        <ele>39</ele>
        <time>2017-01-03T15:45:33Z</time>
      </trkpt>
      <trkpt lat="49.3221" lon="1.14993">
        <ele>39</ele>
        <time>2017-01-03T15:45:33Z</time>
      </trkpt>
      <trkpt lat="49.32211" lon="1.14999">
        <ele>39</ele>
        <time>2017-01-03T15:45:33Z</time>
      </trkpt>
      <trkpt lat="49.32213" lon="1.15004">
        <ele>39</ele>
        <time>2017-01-03T15:45:33Z</time>
      </trkpt>
      <trkpt lat="49.32215" lon="1.15009">
        <ele>39</ele>
        <time>2017-01-03T15:45:49Z</time>
      </trkpt>
      <trkpt lat="49.32218" lon="1.15014">
        <ele>39</ele>
        <time>2017-01-03T15:45:49Z</time>
      </trkpt>
      <trkpt lat="49.3222" lon="1.15016">
        <ele>39</ele>
        <time>2017-01-03T15:45:49Z</time>
      </trkpt>
      <trkpt lat="49.32224" lon="1.15021">
        <ele>39</ele>
        <time>2017-01-03T15:45:49Z</time>
      </trkpt>
      <trkpt lat="49.32228" lon="1.15024">
        <ele>39</ele>
        <time>2017-01-03T15:46:05Z</time>
      </trkpt>
      <trkpt lat="49.32231" lon="1.15028">
        <ele>39</ele>
        <time>2017-01-03T15:46:05Z</time>
      </trkpt>
      <trkpt lat="49.32233" lon="1.15033">
        <ele>39</ele>
        <time>2017-01-03T15:46:05Z</time>
      </trkpt>
      <trkpt lat="49.32236" lon="1.15039">
        <ele>39</ele>
        <time>2017-01-03T15:46:05Z</time>
      </trkpt>
      <trkpt lat="49.32238" lon="1.15047">
        <ele>46</ele>
        <time>2017-01-03T15:46:21Z</time>
      </trkpt>
      <trkpt lat="49.3224" lon="1.15055">
        <ele>46</ele>
        <time>2017-01-03T15:46:21Z</time>
      </trkpt>
      <trkpt lat="49.32242" lon="1.1506">
        <ele>46</ele>
        <time>2017-01-03T15:46:21Z</time>
      </trkpt>
      <trkpt lat="49.32243" lon="1.15066">
        <ele>46</ele>
        <time>2017-01-03T15:46:21Z</time>
      </trkpt>
      <trkpt lat="49.32243" lon="1.15069">
        <ele>46</ele>
        <time>2017-01-03T15:46:37Z</time>
      </trkpt>
      <trkpt lat="49.32241" lon="1.15074">
        <ele>46</ele>
        <time>2017-01-03T15:46:37Z</time>
      </trkpt>
      <trkpt lat="49.32242" lon="1.15081">
        <ele>46</ele>
        <time>2017-01-03T15:46:37Z</time>
      </trkpt>
      <trkpt lat="49.32246" lon="1.15084">
        <ele>46</ele>
        <time>2017-01-03T15:46:37Z</time>
      </trkpt>
      <trkpt lat="49.32249" lon="1.1509">
        <ele>46</ele>
        <time>2017-01-03T15:46:53Z</time>
      </trkpt>
      <trkpt lat="49.32252" lon="1.15095">
        <ele>46</ele>
        <time>2017-01-03T15:46:53Z</time>
      </trkpt>
      <trkpt lat="49.32256" lon="1.15101">
        <ele>46</ele>
        <time>2017-01-03T15:46:53Z</time>
      </trkpt>
      <trkpt lat="49.32258" lon="1.15107">
        <ele>46</ele>
        <time>2017-01-03T15:46:53Z</time>
      </trkpt>
      <trkpt lat="49.3226" lon="1.15114">
        <ele>46</ele>
        <time>2017-01-03T15:47:09Z</time>
      </trkpt>
      <trkpt lat="49.32264" lon="1.1512">
        <ele>46</ele>
        <time>2017-01-03T15:47:09Z</time>
      </trkpt>
      <trkpt lat="49.32266" lon="1.15126">
        <ele>53</ele>
        <time>2017-01-03T15:47:09Z</time>
      </trkpt>
      <trkpt lat="49.32268" lon="1.15134">
        <ele>53</ele>
        <time>2017-01-03T15:47:09Z</time>
      </trkpt>
      <trkpt lat="49.3227" lon="1.1514">
        <ele>53</ele>
        <time>2017-01-03T15:47:25Z</time>
      </trkpt>
      <trkpt lat="49.32273" lon="1.15146">
        <ele>53</ele>
        <time>2017-01-03T15:47:25Z</time>
      </trkpt>
      <trkpt lat="49.32275" lon="1.15152">
        <ele>53</ele>
        <time>2017-01-03T15:47:25Z</time>
      </trkpt>
      <trkpt lat="49.32278" lon="1.15158">
        <ele>53</ele>
        <time>2017-01-03T15:47:25Z</time>
      </trkpt>
      <trkpt lat="49.3228" lon="1.15165">
        <ele>53</ele>
        <time>2017-01-03T15:47:41Z</time>
      </trkpt>
      <trkpt lat="49.32281" lon="1.15171">
        <ele>53</ele>
        <time>2017-01-03T15:47:41Z</time>
      </trkpt>
      <trkpt lat="49.32283" lon="1.15176">
        <ele>53</ele>
        <time>2017-01-03T15:47:41Z</time>
      </trkpt>
      <trkpt lat="49.32286" lon="1.15182">
        <ele>53</ele>
        <time>2017-01-03T15:47:41Z</time>
      </trkpt>
      <trkpt lat="49.32289" lon="1.15189">
        <ele>53</ele>
        <time>2017-01-03T15:47:57Z</time>
      </trkpt>
      <trkpt lat="49.32291" lon="1.15196">
        <ele>53</ele>
        <time>2017-01-03T15:47:57Z</time>
      </trkpt>
      <trkpt lat="49.32293" lon="1.15202">
        <ele>43</ele>
        <time>2017-01-03T15:47:57Z</time>
      </trkpt>
      <trkpt lat="49.32294" lon="1.15208">
        <ele>43</ele>
        <time>2017-01-03T15:47:57Z</time>
      </trkpt>
      <trkpt lat="49.32297" lon="1.15215">
        <ele>52</ele>
        <time>2017-01-03T15:48:13Z</time>
      </trkpt>
      <trkpt lat="49.32299" lon="1.1522">
        <ele>52</ele>
        <time>2017-01-03T15:48:13Z</time>
      </trkpt>
      <trkpt lat="49.32302" lon="1.15226">
        <ele>52</ele>
        <time>2017-01-03T15:48:13Z</time>
      </trkpt>
      <trkpt lat="49.32305" lon="1.15232">
        <ele>52</ele>
        <time>2017-01-03T15:48:13Z</time>
      </trkpt>
      <trkpt lat="49.32308" lon="1.15238">
        <ele>52</ele>
        <time>2017-01-03T15:48:29Z</time>
      </trkpt>
      <trkpt lat="49.3231" lon="1.15245">
        <ele>52</ele>
        <time>2017-01-03T15:48:29Z</time>
      </trkpt>
      <trkpt lat="49.32311" lon="1.15252">
        <ele>52</ele>
        <time>2017-01-03T15:48:29Z</time>
      </trkpt>
      <trkpt lat="49.32313" lon="1.1526">
        <ele>52</ele>
        <time>2017-01-03T15:48:29Z</time>
      </trkpt>
      <trkpt lat="49.32316" lon="1.15267">
        <ele>52</ele>
        <time>2017-01-03T15:48:45Z</time>
      </trkpt>
      <trkpt lat="49.32318" lon="1.15275">
        <ele>52</ele>
        <time>2017-01-03T15:48:45Z</time>
      </trkpt>
      <trkpt lat="49.32321" lon="1.15282">
        <ele>52</ele>
        <time>2017-01-03T15:48:45Z</time>
      </trkpt>
      <trkpt lat="49.32323" lon="1.15288">
        <ele>52</ele>
        <time>2017-01-03T15:48:45Z</time>
      </trkpt>
      <trkpt lat="49.32325" lon="1.15294">
        <ele>58</ele>
        <time>2017-01-03T15:49:01Z</time>
      </trkpt>
      <trkpt lat="49.32328" lon="1.153">
        <ele>58</ele>
        <time>2017-01-03T15:49:01Z</time>
      </trkpt>
      <trkpt lat="49.32331" lon="1.15307">
        <ele>58</ele>
        <time>2017-01-03T15:49:01Z</time>
      </trkpt>
      <trkpt lat="49.32333" lon="1.15315">
        <ele>58</ele>
        <time>2017-01-03T15:49:01Z</time>
      </trkpt>
      <trkpt lat="49.32336" lon="1.15321">
        <ele>58</ele>
        <time>2017-01-03T15:49:17Z</time>
      </trkpt>
      <trkpt lat="49.32338" lon="1.15327">
        <ele>58</ele>
        <time>2017-01-03T15:49:17Z</time>
      </trkpt>
      <trkpt lat="49.32341" lon="1.15334">
        <ele>58</ele>
        <time>2017-01-03T15:49:17Z</time>
      </trkpt>
      <trkpt lat="49.32344" lon="1.15341">
        <ele>58</ele>
        <time>2017-01-03T15:49:17Z</time>
      </trkpt>
      <trkpt lat="49.32347" lon="1.15347">
        <ele>58</ele>
        <time>2017-01-03T15:49:33Z</time>
      </trkpt>
      <trkpt lat="49.3235" lon="1.15355">
        <ele>58</ele>
        <time>2017-01-03T15:49:33Z</time>
      </trkpt>
      <trkpt lat="49.32353" lon="1.15362">
        <ele>58</ele>
        <time>2017-01-03T15:49:33Z</time>
      </trkpt>
      <trkpt lat="49.32354" lon="1.15368">
        <ele>58</ele>
        <time>2017-01-03T15:49:33Z</time>
      </trkpt>
      <trkpt lat="49.32357" lon="1.15374">
        <ele>58</ele>
        <time>2017-01-03T15:49:49Z</time>
      </trkpt>
      <trkpt lat="49.3236" lon="1.15382">
        <ele>62</ele>
        <time>2017-01-03T15:49:49Z</time>
      </trkpt>
      <trkpt lat="49.32362" lon="1.15387">
        <ele>62</ele>
        <time>2017-01-03T15:49:49Z</time>
      </trkpt>
      <trkpt lat="49.32365" lon="1.15394">
        <ele>62</ele>
        <time>2017-01-03T15:49:49Z</time>
      </trkpt>
      <trkpt lat="49.32367" lon="1.15401">
        <ele>62</ele>
        <time>2017-01-03T15:50:05Z</time>
      </trkpt>
      <trkpt lat="49.3237" lon="1.15406">
        <ele>62</ele>
        <time>2017-01-03T15:50:05Z</time>
      </trkpt>
      <trkpt lat="49.32373" lon="1.15413">
        <ele>62</ele>
        <time>2017-01-03T15:50:05Z</time>
      </trkpt>
      <trkpt lat="49.32375" lon="1.15419">
        <ele>62</ele>
        <time>2017-01-03T15:50:05Z</time>
      </trkpt>
      <trkpt lat="49.32378" lon="1.15425">
        <ele>60</ele>
        <time>2017-01-03T15:50:21Z</time>
      </trkpt>
      <trkpt lat="49.32382" lon="1.15433">
        <ele>60</ele>
        <time>2017-01-03T15:50:21Z</time>
      </trkpt>
      <trkpt lat="49.32384" lon="1.1544">
        <ele>60</ele>
        <time>2017-01-03T15:50:21Z</time>
      </trkpt>
      <trkpt lat="49.32387" lon="1.15446">
        <ele>60</ele>
        <time>2017-01-03T15:50:21Z</time>
      </trkpt>
      <trkpt lat="49.32389" lon="1.15451">
        <ele>60</ele>
        <time>2017-01-03T15:50:37Z</time>
      </trkpt>
      <trkpt lat="49.32391" lon="1.15457">
        <ele>60</ele>
        <time>2017-01-03T15:50:37Z</time>
      </trkpt>
      <trkpt lat="49.32394" lon="1.15464">
        <ele>61</ele>
        <time>2017-01-03T15:50:37Z</time>
      </trkpt>
      <trkpt lat="49.32396" lon="1.15471">
        <ele>61</ele>
        <time>2017-01-03T15:50:37Z</time>
      </trkpt>
      <trkpt lat="49.32398" lon="1.15477">
        <ele>61</ele>
        <time>2017-01-03T15:50:53Z</time>
      </trkpt>
      <trkpt lat="49.32401" lon="1.15483">
        <ele>61</ele>
        <time>2017-01-03T15:50:53Z</time>
      </trkpt>
      <trkpt lat="49.32405" lon="1.1549">
        <ele>61</ele>
        <time>2017-01-03T15:50:53Z</time>
      </trkpt>
      <trkpt lat="49.32407" lon="1.15495">
        <ele>61</ele>
        <time>2017-01-03T15:50:53Z</time>
      </trkpt>
      <trkpt lat="49.3241" lon="1.155">
        <ele>61</ele>
        <time>2017-01-03T15:51:09Z</time>
      </trkpt>
      <trkpt lat="49.32414" lon="1.15507">
        <ele>61</ele>
        <time>2017-01-03T15:51:09Z</time>
      </trkpt>
      <trkpt lat="49.32417" lon="1.15513">
        <ele>61</ele>
        <time>2017-01-03T15:51:09Z</time>
      </trkpt>
      <trkpt lat="49.32421" lon="1.15518">
        <ele>61</ele>
        <time>2017-01-03T15:51:09Z</time>
      </trkpt>
      <trkpt lat="49.32424" lon="1.15523">
        <ele>61</ele>
        <time>2017-01-03T15:51:25Z</time>
      </trkpt>
      <trkpt lat="49.32429" lon="1.15529">
        <ele>61</ele>
        <time>2017-01-03T15:51:25Z</time>
      </trkpt>
      <trkpt lat="49.32433" lon="1.15536">
        <ele>61</ele>
        <time>2017-01-03T15:51:25Z</time>
      </trkpt>
      <trkpt lat="49.32438" lon="1.15541">
        <ele>61</ele>
        <time>2017-01-03T15:51:25Z</time>
      </trkpt>
      <trkpt lat="49.32441" lon="1.15547">
        <ele>62</ele>
        <time>2017-01-03T15:51:41Z</time>
      </trkpt>
      <trkpt lat="49.32446" lon="1.15552">
        <ele>62</ele>
        <time>2017-01-03T15:51:41Z</time>
      </trkpt>
      <trkpt lat="49.32449" lon="1.15556">
        <ele>62</ele>
        <time>2017-01-03T15:51:41Z</time>
      </trkpt>
      <trkpt lat="49.32453" lon="1.15561">
        <ele>62</ele>
        <time>2017-01-03T15:51:41Z</time>
      </trkpt>
      <trkpt lat="49.32457" lon="1.15565">
        <ele>62</ele>
        <time>2017-01-03T15:51:57Z</time>
      </trkpt>
      <trkpt lat="49.32461" lon="1.15569">
        <ele>62</ele>
        <time>2017-01-03T15:51:57Z</time>
      </trkpt>
      <trkpt lat="49.32465" lon="1.15573">
        <ele>62</ele>
        <time>2017-01-03T15:51:57Z</time>
      </trkpt>
      <trkpt lat="49.32469" lon="1.15576">
        <ele>62</ele>
        <time>2017-01-03T15:51:57Z</time>
      </trkpt>
      <trkpt lat="49.32472" lon="1.15581">
        <ele>62</ele>
        <time>2017-01-03T15:52:13Z</time>
      </trkpt>
      <trkpt lat="49.32477" lon="1.15585">
        <ele>62</ele>
        <time>2017-01-03T15:52:13Z</time>
      </trkpt>
      <trkpt lat="49.32482" lon="1.15589">
        <ele>62</ele>
        <time>2017-01-03T15:52:13Z</time>
      </trkpt>
      <trkpt lat="49.32487" lon="1.15592">
        <ele>62</ele>
        <time>2017-01-03T15:52:13Z</time>
      </trkpt>
      <trkpt lat="49.32491" lon="1.15595">
        <ele>62</ele>
        <time>2017-01-03T15:52:29Z</time>
      </trkpt>
      <trkpt lat="49.32496" lon="1.15598">
        <ele>62</ele>
        <time>2017-01-03T15:52:29Z</time>
      </trkpt>
      <trkpt lat="49.325" lon="1.15601">
        <ele>62</ele>
        <time>2017-01-03T15:52:29Z</time>
      </trkpt>
      <trkpt lat="49.32505" lon="1.15605">
        <ele>62</ele>
        <time>2017-01-03T15:52:29Z</time>
      </trkpt>
      <trkpt lat="49.32509" lon="1.15608">
        <ele>62</ele>
        <time>2017-01-03T15:52:45Z</time>
      </trkpt>
      <trkpt lat="49.32513" lon="1.15611">
        <ele>62</ele>
        <time>2017-01-03T15:52:45Z</time>
      </trkpt>
      <trkpt lat="49.32517" lon="1.15616">
        <ele>62</ele>
        <time>2017-01-03T15:52:45Z</time>
      </trkpt>
      <trkpt lat="49.32521" lon="1.1562">
        <ele>62</ele>
        <time>2017-01-03T15:52:45Z</time>
      </trkpt>
      <trkpt lat="49.32525" lon="1.15623">
        <ele>62</ele>
        <time>2017-01-03T15:53:01Z</time>
      </trkpt>
      <trkpt lat="49.3253" lon="1.15628">
        <ele>65</ele>
        <time>2017-01-03T15:53:01Z</time>
      </trkpt>
      <trkpt lat="49.32534" lon="1.15633">
        <ele>65</ele>
        <time>2017-01-03T15:53:01Z</time>
      </trkpt>
      <trkpt lat="49.32538" lon="1.15639">
        <ele>65</ele>
        <time>2017-01-03T15:53:01Z</time>
      </trkpt>
      <trkpt lat="49.32542" lon="1.15645">
        <ele>65</ele>
        <time>2017-01-03T15:53:17Z</time>
      </trkpt>
      <trkpt lat="49.32546" lon="1.1565">
        <ele>61</ele>
        <time>2017-01-03T15:53:17Z</time>
      </trkpt>
      <trkpt lat="49.32549" lon="1.15655">
        <ele>61</ele>
        <time>2017-01-03T15:53:17Z</time>
      </trkpt>
      <trkpt lat="49.32552" lon="1.15661">
        <ele>61</ele>
        <time>2017-01-03T15:53:17Z</time>
      </trkpt>
      <trkpt lat="49.32555" lon="1.15667">
        <ele>61</ele>
        <time>2017-01-03T15:53:33Z</time>
      </trkpt>
      <trkpt lat="49.32558" lon="1.15674">
        <ele>61</ele>
        <time>2017-01-03T15:53:33Z</time>
      </trkpt>
      <trkpt lat="49.32562" lon="1.15682">
        <ele>61</ele>
        <time>2017-01-03T15:53:33Z</time>
      </trkpt>
      <trkpt lat="49.32564" lon="1.15688">
        <ele>61</ele>
        <time>2017-01-03T15:53:33Z</time>
      </trkpt>
      <trkpt lat="49.32566" lon="1.15696">
        <ele>61</ele>
        <time>2017-01-03T15:53:49Z</time>
      </trkpt>
      <trkpt lat="49.32569" lon="1.15702">
        <ele>61</ele>
        <time>2017-01-03T15:53:49Z</time>
      </trkpt>
      <trkpt lat="49.32571" lon="1.1571">
        <ele>64</ele>
        <time>2017-01-03T15:53:49Z</time>
      </trkpt>
      <trkpt lat="49.32572" lon="1.15716">
        <ele>64</ele>
        <time>2017-01-03T15:53:49Z</time>
      </trkpt>
      <trkpt lat="49.32574" lon="1.15722">
        <ele>64</ele>
        <time>2017-01-03T15:54:05Z</time>
      </trkpt>
      <trkpt lat="49.32576" lon="1.15729">
        <ele>64</ele>
        <time>2017-01-03T15:54:05Z</time>
      </trkpt>
      <trkpt lat="49.32578" lon="1.15735">
        <ele>64</ele>
        <time>2017-01-03T15:54:05Z</time>
      </trkpt>
      <trkpt lat="49.3258" lon="1.15741">
        <ele>64</ele>
        <time>2017-01-03T15:54:05Z</time>
      </trkpt>
      <trkpt lat="49.32582" lon="1.15747">
        <ele>64</ele>
        <time>2017-01-03T15:54:21Z</time>
      </trkpt>
      <trkpt lat="49.32585" lon="1.15754">
        <ele>64</ele>
        <time>2017-01-03T15:54:21Z</time>
      </trkpt>
      <trkpt lat="49.32587" lon="1.15761">
        <ele>64</ele>
        <time>2017-01-03T15:54:21Z</time>
      </trkpt>
      <trkpt lat="49.32589" lon="1.15768">
        <ele>64</ele>
        <time>2017-01-03T15:54:21Z</time>
      </trkpt>
      <trkpt lat="49.3259" lon="1.15775">
        <ele>64</ele>
        <time>2017-01-03T15:54:37Z</time>
      </trkpt>
      <trkpt lat="49.32591" lon="1.15781">
        <ele>64</ele>
        <time>2017-01-03T15:54:37Z</time>
      </trkpt>
      <trkpt lat="49.32592" lon="1.15787">
        <ele>64</ele>
        <time>2017-01-03T15:54:37Z</time>
      </trkpt>
      <trkpt lat="49.32593" lon="1.15793">
        <ele>67</ele>
        <time>2017-01-03T15:54:37Z</time>
      </trkpt>
      <trkpt lat="49.32595" lon="1.158">
        <ele>67</ele>
        <time>2017-01-03T15:54:53Z</time>
      </trkpt>
      <trkpt lat="49.32597" lon="1.15807">
        <ele>67</ele>
        <time>2017-01-03T15:54:53Z</time>
      </trkpt>
      <trkpt lat="49.32598" lon="1.15815">
        <ele>67</ele>
        <time>2017-01-03T15:54:53Z</time>
      </trkpt>
      <trkpt lat="49.32598" lon="1.15823">
        <ele>67</ele>
        <time>2017-01-03T15:54:53Z</time>
      </trkpt>
      <trkpt lat="49.32599" lon="1.15829">
        <ele>67</ele>
        <time>2017-01-03T15:55:09Z</time>
      </trkpt>
      <trkpt lat="49.32599" lon="1.15837">
        <ele>67</ele>
        <time>2017-01-03T15:55:09Z</time>
      </trkpt>
      <trkpt lat="49.32599" lon="1.15844">
        <ele>67</ele>
        <time>2017-01-03T15:55:09Z</time>
      </trkpt>
      <trkpt lat="49.32599" lon="1.15851">
        <ele>67</ele>
        <time>2017-01-03T15:55:09Z</time>
      </trkpt>
      <trkpt lat="49.32599" lon="1.15858">
        <ele>67</ele>
        <time>2017-01-03T15:55:25Z</time>
      </trkpt>
      <trkpt lat="49.32598" lon="1.15867">
        <ele>67</ele>
        <time>2017-01-03T15:55:25Z</time>
      </trkpt>
      <trkpt lat="49.32598" lon="1.15875">
        <ele>67</ele>
        <time>2017-01-03T15:55:25Z</time>
      </trkpt>
      <trkpt lat="49.32598" lon="1.15881">
        <ele>70</ele>
        <time>2017-01-03T15:55:25Z</time>
      </trkpt>
      <trkpt lat="49.32597" lon="1.15887">
        <ele>70</ele>
        <time>2017-01-03T15:55:41Z</time>
      </trkpt>
      <trkpt lat="49.32596" lon="1.15894">
        <ele>70</ele>
        <time>2017-01-03T15:55:41Z</time>
      </trkpt>
      <trkpt lat="49.32596" lon="1.15902">
        <ele>70</ele>
        <time>2017-01-03T15:55:41Z</time>
      </trkpt>
      <trkpt lat="49.32595" lon="1.15909">
        <ele>70</ele>
        <time>2017-01-03T15:55:41Z</time>
      </trkpt>
      <trkpt lat="49.32594" lon="1.15917">
        <ele>70</ele>
        <time>2017-01-03T15:55:57Z</time>
      </trkpt>
      <trkpt lat="49.32593" lon="1.15924">
        <ele>70</ele>
        <time>2017-01-03T15:55:57Z</time>
      </trkpt>
      <trkpt lat="49.32592" lon="1.15931">
        <ele>70</ele>
        <time>2017-01-03T15:55:57Z</time>
      </trkpt>
      <trkpt lat="49.32591" lon="1.15937">
        <ele>70</ele>
        <time>2017-01-03T15:55:57Z</time>
      </trkpt>
      <trkpt lat="49.3259" lon="1.15945">
        <ele>70</ele>
        <time>2017-01-03T15:56:13Z</time>
      </trkpt>
      <trkpt lat="49.32588" lon="1.15952">
        <ele>70</ele>
        <time>2017-01-03T15:56:13Z</time>
      </trkpt>
      <trkpt lat="49.32587" lon="1.15959">
        <ele>73</ele>
        <time>2017-01-03T15:56:13Z</time>
      </trkpt>
      <trkpt lat="49.32586" lon="1.15966">
        <ele>73</ele>
        <time>2017-01-03T15:56:13Z</time>
      </trkpt>
      <trkpt lat="49.32585" lon="1.15974">
        <ele>73</ele>
        <time>2017-01-03T15:56:29Z</time>
      </trkpt>
      <trkpt lat="49.32584" lon="1.15982">
        <ele>73</ele>
        <time>2017-01-03T15:56:29Z</time>
      </trkpt>
      <trkpt lat="49.32583" lon="1.15989">
        <ele>73</ele>
        <time>2017-01-03T15:56:29Z</time>
      </trkpt>
      <trkpt lat="49.32582" lon="1.15996">
        <ele>73</ele>
        <time>2017-01-03T15:56:29Z</time>
      </trkpt>
      <trkpt lat="49.32581" lon="1.16003">
        <ele>73</ele>
        <time>2017-01-03T15:56:45Z</time>
      </trkpt>
      <trkpt lat="49.32582" lon="1.16011">
        <ele>73</ele>
        <time>2017-01-03T15:56:45Z</time>
      </trkpt>
      <trkpt lat="49.32582" lon="1.1602">
        <ele>73</ele>
        <time>2017-01-03T15:56:45Z</time>
      </trkpt>
      <trkpt lat="49.32582" lon="1.16027">
        <ele>73</ele>
        <time>2017-01-03T15:56:45Z</time>
      </trkpt>
      <trkpt lat="49.32582" lon="1.16035">
        <ele>73</ele>
        <time>2017-01-03T15:57:01Z</time>
      </trkpt>
      <trkpt lat="49.32583" lon="1.16043">
        <ele>75</ele>
        <time>2017-01-03T15:57:01Z</time>
      </trkpt>
      <trkpt lat="49.32584" lon="1.16051">
        <ele>75</ele>
        <time>2017-01-03T15:57:01Z</time>
      </trkpt>
      <trkpt lat="49.32585" lon="1.16058">
        <ele>75</ele>
        <time>2017-01-03T15:57:01Z</time>
      </trkpt>
      <trkpt lat="49.32586" lon="1.16065">
        <ele>75</ele>
        <time>2017-01-03T15:57:17Z</time>
      </trkpt>
      <trkpt lat="49.32587" lon="1.16071">
        <ele>75</ele>
        <time>2017-01-03T15:57:17Z</time>
      </trkpt>
      <trkpt lat="49.32589" lon="1.16079">
        <ele>75</ele>
        <time>2017-01-03T15:57:17Z</time>
      </trkpt>
      <trkpt lat="49.3259" lon="1.16087">
        <ele>75</ele>
        <time>2017-01-03T15:57:17Z</time>
      </trkpt>
      <trkpt lat="49.32591" lon="1.16094">
        <ele>75</ele>
        <time>2017-01-03T15:57:33Z</time>
      </trkpt>
      <trkpt lat="49.32593" lon="1.16099">
        <ele>75</ele>
        <time>2017-01-03T15:57:33Z</time>
      </trkpt>
      <trkpt lat="49.32595" lon="1.16103">
        <ele>75</ele>
        <time>2017-01-03T15:57:33Z</time>
      </trkpt>
      <trkpt lat="49.32598" lon="1.1611">
        <ele>75</ele>
        <time>2017-01-03T15:57:33Z</time>
      </trkpt>
      <trkpt lat="49.326" lon="1.1611">
        <ele>75</ele>
        <time>2017-01-03T15:58:13Z</time>
      </trkpt>
      <trkpt lat="49.326" lon="1.16114">
        <ele>75</ele>
        <time>2017-01-03T15:58:13Z</time>
      </trkpt>
      <trkpt lat="49.32604" lon="1.1612">
        <ele>75</ele>
        <time>2017-01-03T15:58:13Z</time>
      </trkpt>
      <trkpt lat="49.32605" lon="1.16122">
        <ele>75</ele>
        <time>2017-01-03T15:58:13Z</time>
      </trkpt>
      <trkpt lat="49.32606" lon="1.16126">
        <ele>80</ele>
        <time>2017-01-03T15:58:13Z</time>
      </trkpt>
      <trkpt lat="49.32605" lon="1.16126">
        <ele>80</ele>
        <time>2017-01-03T16:08:33Z</time>
      </trkpt>
      <trkpt lat="49.32605" lon="1.16126">
        <ele>80</ele>
        <time>2017-01-03T16:08:33Z</time>
      </trkpt>
      <trkpt lat="49.32605" lon="1.16126">
        <ele>80</ele>
        <time>2017-01-03T16:08:33Z</time>
      </trkpt>
      <trkpt lat="49.32605" lon="1.16126">
        <ele>80</ele>
        <time>2017-01-03T16:08:33Z</time>
      </trkpt>
      <trkpt lat="49.32586" lon="1.16105">
        <ele>75</ele>
        <time>2017-01-03T16:08:33Z</time>
      </trkpt>
      <trkpt lat="49.32596" lon="1.1611">
        <ele>75</ele>
        <time>2017-01-03T16:10:37Z</time>
      </trkpt>
      <trkpt lat="49.32596" lon="1.1611">
        <ele>75</ele>
        <time>2017-01-03T16:10:37Z</time>
      </trkpt>
      <trkpt lat="49.32596" lon="1.16111">
        <ele>75</ele>
        <time>2017-01-03T16:10:37Z</time>
      </trkpt>
      <trkpt lat="49.32596" lon="1.16111">
        <ele>75</ele>
        <time>2017-01-03T16:10:37Z</time>
      </trkpt>
      <trkpt lat="49.32599" lon="1.16118">
        <ele>75</ele>
        <time>2017-01-03T16:10:37Z</time>
      </trkpt>
      <trkpt lat="49.326" lon="1.16119">
        <ele>75</ele>
        <time>2017-01-03T16:10:53Z</time>
      </trkpt>
      <trkpt lat="49.326" lon="1.16119">
        <ele>75</ele>
        <time>2017-01-03T16:10:53Z</time>
      </trkpt>
      <trkpt lat="49.32604" lon="1.16122">
        <ele>75</ele>
        <time>2017-01-03T16:10:53Z</time>
      </trkpt>
      <trkpt lat="49.3261" lon="1.16131">
        <ele>80</ele>
        <time>2017-01-03T16:10:53Z</time>
      </trkpt>
      <trkpt lat="49.32611" lon="1.16136">
        <ele>80</ele>
        <time>2017-01-03T16:11:09Z</time>
      </trkpt>
      <trkpt lat="49.32611" lon="1.1614">
        <ele>80</ele>
        <time>2017-01-03T16:11:09Z</time>
      </trkpt>
      <trkpt lat="49.32616" lon="1.16141">
        <ele>80</ele>
        <time>2017-01-03T16:11:09Z</time>
      </trkpt>
      <trkpt lat="49.32621" lon="1.16142">
        <ele>80</ele>
        <time>2017-01-03T16:11:09Z</time>
      </trkpt>
      <trkpt lat="49.32626" lon="1.16143">
        <ele>78</ele>
        <time>2017-01-03T16:11:25Z</time>
      </trkpt>
      <trkpt lat="49.32632" lon="1.16148">
        <ele>78</ele>
        <time>2017-01-03T16:11:25Z</time>
      </trkpt>
      <trkpt lat="49.32641" lon="1.16154">
        <ele>78</ele>
        <time>2017-01-03T16:11:25Z</time>
      </trkpt>
      <trkpt lat="49.32647" lon="1.16157">
        <ele>78</ele>
        <time>2017-01-03T16:11:25Z</time>
      </trkpt>
      <trkpt lat="49.32652" lon="1.16159">
        <ele>78</ele>
        <time>2017-01-03T16:11:41Z</time>
      </trkpt>
      <trkpt lat="49.32657" lon="1.1616">
        <ele>78</ele>
        <time>2017-01-03T16:11:41Z</time>
      </trkpt>
      <trkpt lat="49.32662" lon="1.16161">
        <ele>78</ele>
        <time>2017-01-03T16:11:41Z</time>
      </trkpt>
      <trkpt lat="49.32667" lon="1.16162">
        <ele>78</ele>
        <time>2017-01-03T16:11:41Z</time>
      </trkpt>
      <trkpt lat="49.3267" lon="1.16166">
        <ele>78</ele>
        <time>2017-01-03T16:11:57Z</time>
      </trkpt>
      <trkpt lat="49.32675" lon="1.16168">
        <ele>78</ele>
        <time>2017-01-03T16:11:57Z</time>
      </trkpt>
      <trkpt lat="49.32683" lon="1.1617">
        <ele>78</ele>
        <time>2017-01-03T16:11:57Z</time>
      </trkpt>
      <trkpt lat="49.32688" lon="1.1617">
        <ele>78</ele>
        <time>2017-01-03T16:11:57Z</time>
      </trkpt>
      <trkpt lat="49.32694" lon="1.16172">
        <ele>78</ele>
        <time>2017-01-03T16:12:13Z</time>
      </trkpt>
      <trkpt lat="49.327" lon="1.16176">
        <ele>78</ele>
        <time>2017-01-03T16:12:13Z</time>
      </trkpt>
      <trkpt lat="49.32705" lon="1.16177">
        <ele>78</ele>
        <time>2017-01-03T16:12:13Z</time>
      </trkpt>
      <trkpt lat="49.32712" lon="1.16178">
        <ele>73</ele>
        <time>2017-01-03T16:12:13Z</time>
      </trkpt>
      <trkpt lat="49.32716" lon="1.16181">
        <ele>73</ele>
        <time>2017-01-03T16:12:29Z</time>
      </trkpt>
      <trkpt lat="49.3272" lon="1.16184">
        <ele>73</ele>
        <time>2017-01-03T16:12:29Z</time>
      </trkpt>
      <trkpt lat="49.32724" lon="1.16186">
        <ele>73</ele>
        <time>2017-01-03T16:12:29Z</time>
      </trkpt>
      <trkpt lat="49.32729" lon="1.16188">
        <ele>73</ele>
        <time>2017-01-03T16:12:29Z</time>
      </trkpt>
      <trkpt lat="49.32735" lon="1.16191">
        <ele>73</ele>
        <time>2017-01-03T16:12:45Z</time>
      </trkpt>
      <trkpt lat="49.32741" lon="1.16195">
        <ele>73</ele>
        <time>2017-01-03T16:12:45Z</time>
      </trkpt>
      <trkpt lat="49.32746" lon="1.16199">
        <ele>73</ele>
        <time>2017-01-03T16:12:45Z</time>
      </trkpt>
      <trkpt lat="49.32752" lon="1.16205">
        <ele>73</ele>
        <time>2017-01-03T16:12:45Z</time>
      </trkpt>
      <trkpt lat="49.32757" lon="1.16209">
        <ele>75</ele>
        <time>2017-01-03T16:13:01Z</time>
      </trkpt>
      <trkpt lat="49.32762" lon="1.16214">
        <ele>75</ele>
        <time>2017-01-03T16:13:01Z</time>
      </trkpt>
      <trkpt lat="49.32765" lon="1.16217">
        <ele>75</ele>
        <time>2017-01-03T16:13:01Z</time>
      </trkpt>
      <trkpt lat="49.3277" lon="1.16221">
        <ele>75</ele>
        <time>2017-01-03T16:13:01Z</time>
      </trkpt>
      <trkpt lat="49.32774" lon="1.16227">
        <ele>75</ele>
        <time>2017-01-03T16:13:17Z</time>
      </trkpt>
      <trkpt lat="49.32777" lon="1.16232">
        <ele>75</ele>
        <time>2017-01-03T16:13:17Z</time>
      </trkpt>
      <trkpt lat="49.32781" lon="1.16236">
        <ele>75</ele>
        <time>2017-01-03T16:13:17Z</time>
      </trkpt>
      <trkpt lat="49.32785" lon="1.16241">
        <ele>75</ele>
        <time>2017-01-03T16:13:17Z</time>
      </trkpt>
      <trkpt lat="49.32789" lon="1.16247">
        <ele>75</ele>
        <time>2017-01-03T16:13:33Z</time>
      </trkpt>
      <trkpt lat="49.32794" lon="1.16251">
        <ele>71</ele>
        <time>2017-01-03T16:13:33Z</time>
      </trkpt>
      <trkpt lat="49.32797" lon="1.16257">
        <ele>71</ele>
        <time>2017-01-03T16:13:33Z</time>
      </trkpt>
      <trkpt lat="49.32801" lon="1.16261">
        <ele>71</ele>
        <time>2017-01-03T16:13:33Z</time>
      </trkpt>
      <trkpt lat="49.32805" lon="1.16267">
        <ele>71</ele>
        <time>2017-01-03T16:13:49Z</time>
      </trkpt>
      <trkpt lat="49.32809" lon="1.16273">
        <ele>71</ele>
        <time>2017-01-03T16:13:49Z</time>
      </trkpt>
      <trkpt lat="49.32813" lon="1.16277">
        <ele>71</ele>
        <time>2017-01-03T16:13:49Z</time>
      </trkpt>
      <trkpt lat="49.32817" lon="1.16282">
        <ele>71</ele>
        <time>2017-01-03T16:13:49Z</time>
      </trkpt>
      <trkpt lat="49.3282" lon="1.16289">
        <ele>71</ele>
        <time>2017-01-03T16:14:05Z</time>
      </trkpt>
      <trkpt lat="49.32824" lon="1.16295">
        <ele>79</ele>
        <time>2017-01-03T16:14:05Z</time>
      </trkpt>
      <trkpt lat="49.32827" lon="1.16302">
        <ele>79</ele>
        <time>2017-01-03T16:14:05Z</time>
      </trkpt>
      <trkpt lat="49.32831" lon="1.16306">
        <ele>79</ele>
        <time>2017-01-03T16:14:05Z</time>
      </trkpt>
      <trkpt lat="49.32834" lon="1.16315">
        <ele>79</ele>
        <time>2017-01-03T16:14:21Z</time>
      </trkpt>
      <trkpt lat="49.32838" lon="1.16323">
        <ele>79</ele>
        <time>2017-01-03T16:14:21Z</time>
      </trkpt>
      <trkpt lat="49.32842" lon="1.16328">
        <ele>79</ele>
        <time>2017-01-03T16:14:21Z</time>
      </trkpt>
      <trkpt lat="49.32844" lon="1.16334">
        <ele>79</ele>
        <time>2017-01-03T16:14:21Z</time>
      </trkpt>
      <trkpt lat="49.32848" lon="1.16338">
        <ele>79</ele>
        <time>2017-01-03T16:14:37Z</time>
      </trkpt>
      <trkpt lat="49.32853" lon="1.16344">
        <ele>79</ele>
        <time>2017-01-03T16:14:37Z</time>
      </trkpt>
      <trkpt lat="49.32857" lon="1.16348">
        <ele>79</ele>
        <time>2017-01-03T16:14:37Z</time>
      </trkpt>
      <trkpt lat="49.32862" lon="1.16351">
        <ele>79</ele>
        <time>2017-01-03T16:14:37Z</time>
      </trkpt>
      <trkpt lat="49.32866" lon="1.16353">
        <ele>79</ele>
        <time>2017-01-03T16:14:53Z</time>
      </trkpt>
      <trkpt lat="49.32872" lon="1.16356">
        <ele>79</ele>
        <time>2017-01-03T16:14:53Z</time>
      </trkpt>
      <trkpt lat="49.32876" lon="1.16357">
        <ele>80</ele>
        <time>2017-01-03T16:14:53Z</time>
      </trkpt>
      <trkpt lat="49.32879" lon="1.1636">
        <ele>80</ele>
        <time>2017-01-03T16:14:53Z</time>
      </trkpt>
      <trkpt lat="49.32884" lon="1.16362">
        <ele>80</ele>
        <time>2017-01-03T16:15:09Z</time>
      </trkpt>
      <trkpt lat="49.32888" lon="1.16364">
        <ele>80</ele>
        <time>2017-01-03T16:15:09Z</time>
      </trkpt>
      <trkpt lat="49.32893" lon="1.16365">
        <ele>80</ele>
        <time>2017-01-03T16:15:09Z</time>
      </trkpt>
      <trkpt lat="49.32898" lon="1.16366">
        <ele>80</ele>
        <time>2017-01-03T16:15:09Z</time>
      </trkpt>
      <trkpt lat="49.32902" lon="1.16368">
        <ele>80</ele>
        <time>2017-01-03T16:15:25Z</time>
      </trkpt>
      <trkpt lat="49.32907" lon="1.16369">
        <ele>80</ele>
        <time>2017-01-03T16:15:25Z</time>
      </trkpt>
      <trkpt lat="49.32912" lon="1.16369">
        <ele>80</ele>
        <time>2017-01-03T16:15:25Z</time>
      </trkpt>
      <trkpt lat="49.32917" lon="1.16369">
        <ele>80</ele>
        <time>2017-01-03T16:15:25Z</time>
      </trkpt>
      <trkpt lat="49.32922" lon="1.16373">
        <ele>80</ele>
        <time>2017-01-03T16:15:41Z</time>
      </trkpt>
      <trkpt lat="49.32927" lon="1.16374">
        <ele>80</ele>
        <time>2017-01-03T16:15:41Z</time>
      </trkpt>
      <trkpt lat="49.32932" lon="1.16377">
        <ele>87</ele>
        <time>2017-01-03T16:15:41Z</time>
      </trkpt>
      <trkpt lat="49.32937" lon="1.1638">
        <ele>87</ele>
        <time>2017-01-03T16:15:41Z</time>
      </trkpt>
      <trkpt lat="49.32942" lon="1.16382">
        <ele>87</ele>
        <time>2017-01-03T16:15:57Z</time>
      </trkpt>
      <trkpt lat="49.32947" lon="1.16384">
        <ele>87</ele>
        <time>2017-01-03T16:15:57Z</time>
      </trkpt>
      <trkpt lat="49.32951" lon="1.16384">
        <ele>87</ele>
        <time>2017-01-03T16:15:57Z</time>
      </trkpt>
      <trkpt lat="49.32957" lon="1.16385">
        <ele>87</ele>
        <time>2017-01-03T16:15:57Z</time>
      </trkpt>
      <trkpt lat="49.32964" lon="1.16387">
        <ele>87</ele>
        <time>2017-01-03T16:16:13Z</time>
      </trkpt>
      <trkpt lat="49.3297" lon="1.16388">
        <ele>87</ele>
        <time>2017-01-03T16:16:13Z</time>
      </trkpt>
      <trkpt lat="49.32974" lon="1.16389">
        <ele>87</ele>
        <time>2017-01-03T16:16:13Z</time>
      </trkpt>
      <trkpt lat="49.32978" lon="1.1639">
        <ele>87</ele>
        <time>2017-01-03T16:16:13Z</time>
      </trkpt>
      <trkpt lat="49.32983" lon="1.1639">
        <ele>87</ele>
        <time>2017-01-03T16:16:29Z</time>
      </trkpt>
      <trkpt lat="49.32988" lon="1.1639">
        <ele>87</ele>
        <time>2017-01-03T16:16:29Z</time>
      </trkpt>
      <trkpt lat="49.32992" lon="1.16393">
        <ele>87</ele>
        <time>2017-01-03T16:16:29Z</time>
      </trkpt>
      <trkpt lat="49.32997" lon="1.16395">
        <ele>87</ele>
        <time>2017-01-03T16:16:29Z</time>
      </trkpt>
      <trkpt lat="49.33002" lon="1.16398">
        <ele>87</ele>
        <time>2017-01-03T16:16:45Z</time>
      </trkpt>
      <trkpt lat="49.33007" lon="1.16403">
        <ele>87</ele>
        <time>2017-01-03T16:16:45Z</time>
      </trkpt>
      <trkpt lat="49.33013" lon="1.16406">
        <ele>87</ele>
        <time>2017-01-03T16:16:45Z</time>
      </trkpt>
      <trkpt lat="49.33019" lon="1.16409">
        <ele>87</ele>
        <time>2017-01-03T16:16:45Z</time>
      </trkpt>
      <trkpt lat="49.33023" lon="1.16414">
        <ele>87</ele>
        <time>2017-01-03T16:17:01Z</time>
      </trkpt>
      <trkpt lat="49.33027" lon="1.16419">
        <ele>87</ele>
        <time>2017-01-03T16:17:01Z</time>
      </trkpt>
      <trkpt lat="49.33032" lon="1.16424">
        <ele>87</ele>
        <time>2017-01-03T16:17:01Z</time>
      </trkpt>
      <trkpt lat="49.33035" lon="1.16428">
        <ele>87</ele>
        <time>2017-01-03T16:17:01Z</time>
      </trkpt>
      <trkpt lat="49.33038" lon="1.16433">
        <ele>87</ele>
        <time>2017-01-03T16:17:17Z</time>
      </trkpt>
      <trkpt lat="49.33042" lon="1.16439">
        <ele>87</ele>
        <time>2017-01-03T16:17:17Z</time>
      </trkpt>
      <trkpt lat="49.33045" lon="1.16445">
        <ele>84</ele>
        <time>2017-01-03T16:17:17Z</time>
      </trkpt>
      <trkpt lat="49.33047" lon="1.16452">
        <ele>84</ele>
        <time>2017-01-03T16:17:17Z</time>
      </trkpt>
      <trkpt lat="49.3305" lon="1.16458">
        <ele>85</ele>
        <time>2017-01-03T16:17:33Z</time>
      </trkpt>
      <trkpt lat="49.33054" lon="1.16463">
        <ele>85</ele>
        <time>2017-01-03T16:17:33Z</time>
      </trkpt>
      <trkpt lat="49.33057" lon="1.16467">
        <ele>85</ele>
        <time>2017-01-03T16:17:33Z</time>
      </trkpt>
      <trkpt lat="49.33061" lon="1.16472">
        <ele>85</ele>
        <time>2017-01-03T16:17:33Z</time>
      </trkpt>
      <trkpt lat="49.33065" lon="1.16478">
        <ele>85</ele>
        <time>2017-01-03T16:17:49Z</time>
      </trkpt>
      <trkpt lat="49.33069" lon="1.16484">
        <ele>85</ele>
        <time>2017-01-03T16:17:49Z</time>
      </trkpt>
      <trkpt lat="49.33074" lon="1.16489">
        <ele>85</ele>
        <time>2017-01-03T16:17:49Z</time>
      </trkpt>
      <trkpt lat="49.33078" lon="1.16494">
        <ele>85</ele>
        <time>2017-01-03T16:17:49Z</time>
      </trkpt>
      <trkpt lat="49.33082" lon="1.16497">
        <ele>85</ele>
        <time>2017-01-03T16:18:05Z</time>
      </trkpt>
      <trkpt lat="49.33086" lon="1.16499">
        <ele>85</ele>
        <time>2017-01-03T16:18:05Z</time>
      </trkpt>
      <trkpt lat="49.33092" lon="1.16501">
        <ele>85</ele>
        <time>2017-01-03T16:18:05Z</time>
      </trkpt>
      <trkpt lat="49.33097" lon="1.16505">
        <ele>85</ele>
        <time>2017-01-03T16:18:05Z</time>
      </trkpt>
      <trkpt lat="49.33101" lon="1.16508">
        <ele>85</ele>
        <time>2017-01-03T16:18:21Z</time>
      </trkpt>
      <trkpt lat="49.33106" lon="1.16509">
        <ele>85</ele>
        <time>2017-01-03T16:18:21Z</time>
      </trkpt>
      <trkpt lat="49.3311" lon="1.16513">
        <ele>85</ele>
        <time>2017-01-03T16:18:21Z</time>
      </trkpt>
      <trkpt lat="49.33114" lon="1.16513">
        <ele>85</ele>
        <time>2017-01-03T16:18:21Z</time>
      </trkpt>
      <trkpt lat="49.3312" lon="1.16513">
        <ele>85</ele>
        <time>2017-01-03T16:18:37Z</time>
      </trkpt>
      <trkpt lat="49.33127" lon="1.16516">
        <ele>82</ele>
        <time>2017-01-03T16:18:37Z</time>
      </trkpt>
      <trkpt lat="49.33133" lon="1.16517">
        <ele>82</ele>
        <time>2017-01-03T16:18:37Z</time>
      </trkpt>
      <trkpt lat="49.33138" lon="1.16518">
        <ele>82</ele>
        <time>2017-01-03T16:18:37Z</time>
      </trkpt>
      <trkpt lat="49.33143" lon="1.1652">
        <ele>82</ele>
        <time>2017-01-03T16:18:53Z</time>
      </trkpt>
      <trkpt lat="49.33148" lon="1.16523">
        <ele>82</ele>
        <time>2017-01-03T16:18:53Z</time>
      </trkpt>
      <trkpt lat="49.33153" lon="1.16525">
        <ele>82</ele>
        <time>2017-01-03T16:18:53Z</time>
      </trkpt>
      <trkpt lat="49.33156" lon="1.16527">
        <ele>82</ele>
        <time>2017-01-03T16:18:53Z</time>
      </trkpt>
      <trkpt lat="49.3316" lon="1.16528">
        <ele>82</ele>
        <time>2017-01-03T16:19:09Z</time>
      </trkpt>
      <trkpt lat="49.33164" lon="1.16528">
        <ele>82</ele>
        <time>2017-01-03T16:19:09Z</time>
      </trkpt>
      <trkpt lat="49.33169" lon="1.1653">
        <ele>82</ele>
        <time>2017-01-03T16:19:09Z</time>
      </trkpt>
      <trkpt lat="49.33174" lon="1.16533">
        <ele>82</ele>
        <time>2017-01-03T16:19:09Z</time>
      </trkpt>
      <trkpt lat="49.33179" lon="1.16535">
        <ele>82</ele>
        <time>2017-01-03T16:19:25Z</time>
      </trkpt>
      <trkpt lat="49.33184" lon="1.16537">
        <ele>82</ele>
        <time>2017-01-03T16:19:25Z</time>
      </trkpt>
      <trkpt lat="49.33189" lon="1.16537">
        <ele>82</ele>
        <time>2017-01-03T16:19:25Z</time>
      </trkpt>
      <trkpt lat="49.33193" lon="1.16538">
        <ele>82</ele>
        <time>2017-01-03T16:19:25Z</time>
      </trkpt>
      <trkpt lat="49.33198" lon="1.16541">
        <ele>82</ele>
        <time>2017-01-03T16:19:41Z</time>
      </trkpt>
      <trkpt lat="49.33204" lon="1.16542">
        <ele>90</ele>
        <time>2017-01-03T16:19:41Z</time>
      </trkpt>
      <trkpt lat="49.3321" lon="1.16544">
        <ele>89</ele>
        <time>2017-01-03T16:19:41Z</time>
      </trkpt>
      <trkpt lat="49.33216" lon="1.16545">
        <ele>89</ele>
        <time>2017-01-03T16:19:41Z</time>
      </trkpt>
      <trkpt lat="49.33222" lon="1.16548">
        <ele>89</ele>
        <time>2017-01-03T16:19:57Z</time>
      </trkpt>
      <trkpt lat="49.33227" lon="1.1655">
        <ele>89</ele>
        <time>2017-01-03T16:19:57Z</time>
      </trkpt>
      <trkpt lat="49.3323" lon="1.16551">
        <ele>89</ele>
        <time>2017-01-03T16:19:57Z</time>
      </trkpt>
      <trkpt lat="49.33235" lon="1.16553">
        <ele>89</ele>
        <time>2017-01-03T16:19:57Z</time>
      </trkpt>
      <trkpt lat="49.3324" lon="1.16555">
        <ele>89</ele>
        <time>2017-01-03T16:20:13Z</time>
      </trkpt>
      <trkpt lat="49.33245" lon="1.16557">
        <ele>89</ele>
        <time>2017-01-03T16:20:13Z</time>
      </trkpt>
      <trkpt lat="49.3325" lon="1.16558">
        <ele>89</ele>
        <time>2017-01-03T16:20:13Z</time>
      </trkpt>
      <trkpt lat="49.33254" lon="1.1656">
        <ele>89</ele>
        <time>2017-01-03T16:20:13Z</time>
      </trkpt>
      <trkpt lat="49.33257" lon="1.16563">
        <ele>89</ele>
        <time>2017-01-03T16:20:29Z</time>
      </trkpt>
      <trkpt lat="49.33261" lon="1.16565">
        <ele>89</ele>
        <time>2017-01-03T16:20:29Z</time>
      </trkpt>
      <trkpt lat="49.33266" lon="1.16568">
        <ele>89</ele>
        <time>2017-01-03T16:20:29Z</time>
      </trkpt>
      <trkpt lat="49.33271" lon="1.1657">
        <ele>89</ele>
        <time>2017-01-03T16:20:29Z</time>
      </trkpt>
      <trkpt lat="49.33276" lon="1.16572">
        <ele>89</ele>
        <time>2017-01-03T16:20:45Z</time>
      </trkpt>
      <trkpt lat="49.3328" lon="1.16573">
        <ele>89</ele>
        <time>2017-01-03T16:20:45Z</time>
      </trkpt>
      <trkpt lat="49.33285" lon="1.16578">
        <ele>89</ele>
        <time>2017-01-03T16:20:45Z</time>
      </trkpt>
      <trkpt lat="49.33288" lon="1.16581">
        <ele>89</ele>
        <time>2017-01-03T16:20:45Z</time>
      </trkpt>
      <trkpt lat="49.33292" lon="1.16584">
        <ele>86</ele>
        <time>2017-01-03T16:21:01Z</time>
      </trkpt>
      <trkpt lat="49.33296" lon="1.16588">
        <ele>86</ele>
        <time>2017-01-03T16:21:01Z</time>
      </trkpt>
      <trkpt lat="49.33299" lon="1.16592">
        <ele>86</ele>
        <time>2017-01-03T16:21:01Z</time>
      </trkpt>
      <trkpt lat="49.33302" lon="1.16598">
        <ele>86</ele>
        <time>2017-01-03T16:21:01Z</time>
      </trkpt>
      <trkpt lat="49.33306" lon="1.16605">
        <ele>86</ele>
        <time>2017-01-03T16:21:17Z</time>
      </trkpt>
      <trkpt lat="49.3331" lon="1.1661">
        <ele>86</ele>
        <time>2017-01-03T16:21:17Z</time>
      </trkpt>
      <trkpt lat="49.33313" lon="1.16617">
        <ele>86</ele>
        <time>2017-01-03T16:21:17Z</time>
      </trkpt>
      <trkpt lat="49.33316" lon="1.16623">
        <ele>86</ele>
        <time>2017-01-03T16:21:17Z</time>
      </trkpt>
      <trkpt lat="49.33319" lon="1.16628">
        <ele>92</ele>
        <time>2017-01-03T16:21:33Z</time>
      </trkpt>
      <trkpt lat="49.33322" lon="1.16633">
        <ele>92</ele>
        <time>2017-01-03T16:21:33Z</time>
      </trkpt>
      <trkpt lat="49.33325" lon="1.16637">
        <ele>92</ele>
        <time>2017-01-03T16:21:33Z</time>
      </trkpt>
      <trkpt lat="49.33328" lon="1.16646">
        <ele>92</ele>
        <time>2017-01-03T16:21:33Z</time>
      </trkpt>
      <trkpt lat="49.33331" lon="1.16653">
        <ele>92</ele>
        <time>2017-01-03T16:21:49Z</time>
      </trkpt>
      <trkpt lat="49.33336" lon="1.16655">
        <ele>92</ele>
        <time>2017-01-03T16:21:49Z</time>
      </trkpt>
      <trkpt lat="49.3334" lon="1.16659">
        <ele>92</ele>
        <time>2017-01-03T16:21:49Z</time>
      </trkpt>
      <trkpt lat="49.33344" lon="1.16663">
        <ele>92</ele>
        <time>2017-01-03T16:21:49Z</time>
      </trkpt>
      <trkpt lat="49.33349" lon="1.16668">
        <ele>92</ele>
        <time>2017-01-03T16:22:05Z</time>
      </trkpt>
      <trkpt lat="49.33352" lon="1.16675">
        <ele>92</ele>
        <time>2017-01-03T16:22:05Z</time>
      </trkpt>
      <trkpt lat="49.33355" lon="1.16681">
        <ele>92</ele>
        <time>2017-01-03T16:22:05Z</time>
      </trkpt>
      <trkpt lat="49.33359" lon="1.16688">
        <ele>92</ele>
        <time>2017-01-03T16:22:05Z</time>
      </trkpt>
      <trkpt lat="49.33361" lon="1.16695">
        <ele>92</ele>
        <time>2017-01-03T16:22:21Z</time>
      </trkpt>
      <trkpt lat="49.33364" lon="1.16702">
        <ele>92</ele>
        <time>2017-01-03T16:22:21Z</time>
      </trkpt>
      <trkpt lat="49.33367" lon="1.16709">
        <ele>96</ele>
        <time>2017-01-03T16:22:21Z</time>
      </trkpt>
      <trkpt lat="49.33369" lon="1.16716">
        <ele>96</ele>
        <time>2017-01-03T16:22:21Z</time>
      </trkpt>
      <trkpt lat="49.33371" lon="1.16722">
        <ele>96</ele>
        <time>2017-01-03T16:22:37Z</time>
      </trkpt>
      <trkpt lat="49.33373" lon="1.16722">
        <ele>96</ele>
        <time>2017-01-03T16:22:37Z</time>
      </trkpt>
      <trkpt lat="49.33372" lon="1.1673">
        <ele>96</ele>
        <time>2017-01-03T16:22:37Z</time>
      </trkpt>
      <trkpt lat="49.33373" lon="1.16739">
        <ele>96</ele>
        <time>2017-01-03T16:22:37Z</time>
      </trkpt>
      <trkpt lat="49.33374" lon="1.16747">
        <ele>96</ele>
        <time>2017-01-03T16:22:53Z</time>
      </trkpt>
      <trkpt lat="49.33374" lon="1.16756">
        <ele>96</ele>
        <time>2017-01-03T16:22:53Z</time>
      </trkpt>
      <trkpt lat="49.33375" lon="1.16764">
        <ele>96</ele>
        <time>2017-01-03T16:22:53Z</time>
      </trkpt>
      <trkpt lat="49.33376" lon="1.1677">
        <ele>95</ele>
        <time>2017-01-03T16:22:53Z</time>
      </trkpt>
      <trkpt lat="49.33377" lon="1.16778">
        <ele>95</ele>
        <time>2017-01-03T16:23:09Z</time>
      </trkpt>
      <trkpt lat="49.33379" lon="1.16787">
        <ele>95</ele>
        <time>2017-01-03T16:23:09Z</time>
      </trkpt>
      <trkpt lat="49.3338" lon="1.16796">
        <ele>94</ele>
        <time>2017-01-03T16:23:09Z</time>
      </trkpt>
      <trkpt lat="49.33383" lon="1.16803">
        <ele>94</ele>
        <time>2017-01-03T16:23:09Z</time>
      </trkpt>
      <trkpt lat="49.33385" lon="1.16809">
        <ele>94</ele>
        <time>2017-01-03T16:23:25Z</time>
      </trkpt>
      <trkpt lat="49.33388" lon="1.16816">
        <ele>94</ele>
        <time>2017-01-03T16:23:25Z</time>
      </trkpt>
      <trkpt lat="49.33391" lon="1.1682">
        <ele>94</ele>
        <time>2017-01-03T16:23:25Z</time>
      </trkpt>
      <trkpt lat="49.33396" lon="1.16823">
        <ele>94</ele>
        <time>2017-01-03T16:23:25Z</time>
      </trkpt>
      <trkpt lat="49.334" lon="1.16825">
        <ele>94</ele>
        <time>2017-01-03T16:23:41Z</time>
      </trkpt>
      <trkpt lat="49.33405" lon="1.16828">
        <ele>94</ele>
        <time>2017-01-03T16:23:41Z</time>
      </trkpt>
      <trkpt lat="49.33409" lon="1.16828">
        <ele>94</ele>
        <time>2017-01-03T16:23:41Z</time>
      </trkpt>
      <trkpt lat="49.33415" lon="1.16826">
        <ele>94</ele>
        <time>2017-01-03T16:23:41Z</time>
      </trkpt>
      <trkpt lat="49.33421" lon="1.16825">
        <ele>94</ele>
        <time>2017-01-03T16:23:57Z</time>
      </trkpt>
      <trkpt lat="49.33425" lon="1.16825">
        <ele>94</ele>
        <time>2017-01-03T16:23:57Z</time>
      </trkpt>
      <trkpt lat="49.3343" lon="1.16827">
        <ele>94</ele>
        <time>2017-01-03T16:23:57Z</time>
      </trkpt>
      <trkpt lat="49.33435" lon="1.16828">
        <ele>94</ele>
        <time>2017-01-03T16:23:57Z</time>
      </trkpt>
      <trkpt lat="49.3344" lon="1.16828">
        <ele>94</ele>
        <time>2017-01-03T16:24:13Z</time>
      </trkpt>
      <trkpt lat="49.33444" lon="1.1683">
        <ele>94</ele>
        <time>2017-01-03T16:24:13Z</time>
      </trkpt>
      <trkpt lat="49.33449" lon="1.16832">
        <ele>94</ele>
        <time>2017-01-03T16:24:13Z</time>
      </trkpt>
      <trkpt lat="49.33455" lon="1.16833">
        <ele>94</ele>
        <time>2017-01-03T16:24:13Z</time>
      </trkpt>
      <trkpt lat="49.33461" lon="1.16834">
        <ele>100</ele>
        <time>2017-01-03T16:24:29Z</time>
      </trkpt>
      <trkpt lat="49.33466" lon="1.16837">
        <ele>100</ele>
        <time>2017-01-03T16:24:29Z</time>
      </trkpt>
      <trkpt lat="49.33471" lon="1.16839">
        <ele>100</ele>
        <time>2017-01-03T16:24:29Z</time>
      </trkpt>
      <trkpt lat="49.33476" lon="1.1684">
        <ele>100</ele>
        <time>2017-01-03T16:24:29Z</time>
      </trkpt>
      <trkpt lat="49.33481" lon="1.16842">
        <ele>100</ele>
        <time>2017-01-03T16:24:45Z</time>
      </trkpt>
      <trkpt lat="49.33485" lon="1.16844">
        <ele>100</ele>
        <time>2017-01-03T16:24:45Z</time>
      </trkpt>
      <trkpt lat="49.3349" lon="1.16846">
        <ele>100</ele>
        <time>2017-01-03T16:24:45Z</time>
      </trkpt>
      <trkpt lat="49.33495" lon="1.16848">
        <ele>100</ele>
        <time>2017-01-03T16:24:45Z</time>
      </trkpt>
      <trkpt lat="49.33499" lon="1.1685">
        <ele>100</ele>
        <time>2017-01-03T16:25:01Z</time>
      </trkpt>
      <trkpt lat="49.33504" lon="1.16852">
        <ele>100</ele>
        <time>2017-01-03T16:25:01Z</time>
      </trkpt>
      <trkpt lat="49.33509" lon="1.16854">
        <ele>100</ele>
        <time>2017-01-03T16:25:01Z</time>
      </trkpt>
      <trkpt lat="49.33513" lon="1.16855">
        <ele>100</ele>
        <time>2017-01-03T16:25:01Z</time>
      </trkpt>
      <trkpt lat="49.33518" lon="1.16857">
        <ele>100</ele>
        <time>2017-01-03T16:25:17Z</time>
      </trkpt>
      <trkpt lat="49.33522" lon="1.16856">
        <ele>100</ele>
        <time>2017-01-03T16:25:17Z</time>
      </trkpt>
      <trkpt lat="49.33525" lon="1.16853">
        <ele>100</ele>
        <time>2017-01-03T16:25:17Z</time>
      </trkpt>
      <trkpt lat="49.3353" lon="1.16855">
        <ele>100</ele>
        <time>2017-01-03T16:25:17Z</time>
      </trkpt>
      <trkpt lat="49.33534" lon="1.16858">
        <ele>100</ele>
        <time>2017-01-03T16:25:33Z</time>
      </trkpt>
      <trkpt lat="49.33539" lon="1.1686">
        <ele>100</ele>
        <time>2017-01-03T16:25:33Z</time>
      </trkpt>
      <trkpt lat="49.33544" lon="1.16862">
        <ele>106</ele>
        <time>2017-01-03T16:25:33Z</time>
      </trkpt>
      <trkpt lat="49.33548" lon="1.16865">
        <ele>106</ele>
        <time>2017-01-03T16:25:33Z</time>
      </trkpt>
      <trkpt lat="49.33553" lon="1.16867">
        <ele>106</ele>
        <time>2017-01-03T16:25:49Z</time>
      </trkpt>
      <trkpt lat="49.33557" lon="1.16869">
        <ele>106</ele>
        <time>2017-01-03T16:25:49Z</time>
      </trkpt>
      <trkpt lat="49.33562" lon="1.16871">
        <ele>106</ele>
        <time>2017-01-03T16:25:49Z</time>
      </trkpt>
      <trkpt lat="49.33567" lon="1.16872">
        <ele>106</ele>
        <time>2017-01-03T16:25:49Z</time>
      </trkpt>
      <trkpt lat="49.33571" lon="1.16874">
        <ele>106</ele>
        <time>2017-01-03T16:26:05Z</time>
      </trkpt>
      <trkpt lat="49.33577" lon="1.16877">
        <ele>107</ele>
        <time>2017-01-03T16:26:05Z</time>
      </trkpt>
      <trkpt lat="49.3358" lon="1.16875">
        <ele>107</ele>
        <time>2017-01-03T16:26:05Z</time>
      </trkpt>
      <trkpt lat="49.33584" lon="1.16875">
        <ele>106</ele>
        <time>2017-01-03T16:26:05Z</time>
      </trkpt>
      <trkpt lat="49.33587" lon="1.16874">
        <ele>106</ele>
        <time>2017-01-03T16:26:21Z</time>
      </trkpt>
      <trkpt lat="49.33592" lon="1.16873">
        <ele>106</ele>
        <time>2017-01-03T16:26:21Z</time>
      </trkpt>
      <trkpt lat="49.33598" lon="1.16873">
        <ele>106</ele>
        <time>2017-01-03T16:26:21Z</time>
      </trkpt>
      <trkpt lat="49.33604" lon="1.16873">
        <ele>106</ele>
        <time>2017-01-03T16:26:21Z</time>
      </trkpt>
      <trkpt lat="49.33609" lon="1.16871">
        <ele>106</ele>
        <time>2017-01-03T16:26:37Z</time>
      </trkpt>
      <trkpt lat="49.33614" lon="1.16867">
        <ele>106</ele>
        <time>2017-01-03T16:26:37Z</time>
      </trkpt>
      <trkpt lat="49.33616" lon="1.16857">
        <ele>106</ele>
        <time>2017-01-03T16:26:37Z</time>
      </trkpt>
      <trkpt lat="49.33617" lon="1.16848">
        <ele>106</ele>
        <time>2017-01-03T16:26:37Z</time>
      </trkpt>
      <trkpt lat="49.33617" lon="1.16842">
        <ele>106</ele>
        <time>2017-01-03T16:26:53Z</time>
      </trkpt>
      <trkpt lat="49.33616" lon="1.16836">
        <ele>106</ele>
        <time>2017-01-03T16:26:53Z</time>
      </trkpt>
      <trkpt lat="49.33618" lon="1.1683">
        <ele>106</ele>
        <time>2017-01-03T16:26:53Z</time>
      </trkpt>
      <trkpt lat="49.3362" lon="1.16821">
        <ele>106</ele>
        <time>2017-01-03T16:26:53Z</time>
      </trkpt>
      <trkpt lat="49.33621" lon="1.16814">
        <ele>106</ele>
        <time>2017-01-03T16:27:09Z</time>
      </trkpt>
      <trkpt lat="49.33621" lon="1.16809">
        <ele>106</ele>
        <time>2017-01-03T16:27:09Z</time>
      </trkpt>
      <trkpt lat="49.33623" lon="1.16804">
        <ele>106</ele>
        <time>2017-01-03T16:27:09Z</time>
      </trkpt>
      <trkpt lat="49.33625" lon="1.16796">
        <ele>106</ele>
        <time>2017-01-03T16:27:09Z</time>
      </trkpt>
      <trkpt lat="49.33628" lon="1.16791">
        <ele>104</ele>
        <time>2017-01-03T16:27:25Z</time>
      </trkpt>
      <trkpt lat="49.33628" lon="1.16785">
        <ele>104</ele>
        <time>2017-01-03T16:27:25Z</time>
      </trkpt>
      <trkpt lat="49.3363" lon="1.16779">
        <ele>104</ele>
        <time>2017-01-03T16:27:25Z</time>
      </trkpt>
      <trkpt lat="49.33633" lon="1.16774">
        <ele>104</ele>
        <time>2017-01-03T16:27:25Z</time>
      </trkpt>
      <trkpt lat="49.33637" lon="1.1677">
        <ele>104</ele>
        <time>2017-01-03T16:27:41Z</time>
      </trkpt>
      <trkpt lat="49.33642" lon="1.16767">
        <ele>104</ele>
        <time>2017-01-03T16:27:41Z</time>
      </trkpt>
      <trkpt lat="49.33647" lon="1.16762">
        <ele>104</ele>
        <time>2017-01-03T16:27:41Z</time>
      </trkpt>
      <trkpt lat="49.33653" lon="1.16759">
        <ele>104</ele>
        <time>2017-01-03T16:27:41Z</time>
      </trkpt>
      <trkpt lat="49.33657" lon="1.16755">
        <ele>104</ele>
        <time>2017-01-03T16:27:57Z</time>
      </trkpt>
      <trkpt lat="49.3366" lon="1.1675">
        <ele>104</ele>
        <time>2017-01-03T16:27:57Z</time>
      </trkpt>
      <trkpt lat="49.33665" lon="1.16744">
        <ele>104</ele>
        <time>2017-01-03T16:27:57Z</time>
      </trkpt>
      <trkpt lat="49.33668" lon="1.1674">
        <ele>104</ele>
        <time>2017-01-03T16:27:57Z</time>
      </trkpt>
      <trkpt lat="49.33671" lon="1.16736">
        <ele>104</ele>
        <time>2017-01-03T16:28:13Z</time>
      </trkpt>
      <trkpt lat="49.33675" lon="1.16732">
        <ele>104</ele>
        <time>2017-01-03T16:28:13Z</time>
      </trkpt>
      <trkpt lat="49.33679" lon="1.16728">
        <ele>104</ele>
        <time>2017-01-03T16:28:13Z</time>
      </trkpt>
      <trkpt lat="49.33681" lon="1.16721">
        <ele>104</ele>
        <time>2017-01-03T16:28:13Z</time>
      </trkpt>
      <trkpt lat="49.33683" lon="1.16714">
        <ele>104</ele>
        <time>2017-01-03T16:28:29Z</time>
      </trkpt>
      <trkpt lat="49.33686" lon="1.16708">
        <ele>96</ele>
        <time>2017-01-03T16:28:29Z</time>
      </trkpt>
      <trkpt lat="49.33689" lon="1.16701">
        <ele>96</ele>
        <time>2017-01-03T16:28:29Z</time>
      </trkpt>
      <trkpt lat="49.33691" lon="1.16694">
        <ele>96</ele>
        <time>2017-01-03T16:28:29Z</time>
      </trkpt>
      <trkpt lat="49.33691" lon="1.1669">
        <ele>96</ele>
        <time>2017-01-03T16:28:45Z</time>
      </trkpt>
      <trkpt lat="49.33696" lon="1.16689">
        <ele>96</ele>
        <time>2017-01-03T16:28:45Z</time>
      </trkpt>
      <trkpt lat="49.33701" lon="1.16688">
        <ele>96</ele>
        <time>2017-01-03T16:28:45Z</time>
      </trkpt>
      <trkpt lat="49.33707" lon="1.16688">
        <ele>96</ele>
        <time>2017-01-03T16:28:45Z</time>
      </trkpt>
      <trkpt lat="49.33712" lon="1.16689">
        <ele>98</ele>
        <time>2017-01-03T16:29:01Z</time>
      </trkpt>
      <trkpt lat="49.33718" lon="1.16691">
        <ele>98</ele>
        <time>2017-01-03T16:29:01Z</time>
      </trkpt>
      <trkpt lat="49.33723" lon="1.16694">
        <ele>98</ele>
        <time>2017-01-03T16:29:01Z</time>
      </trkpt>
      <trkpt lat="49.33727" lon="1.167">
        <ele>98</ele>
        <time>2017-01-03T16:29:01Z</time>
      </trkpt>
      <trkpt lat="49.33728" lon="1.16706">
        <ele>98</ele>
        <time>2017-01-03T16:29:17Z</time>
      </trkpt>
      <trkpt lat="49.33731" lon="1.1671">
        <ele>105</ele>
        <time>2017-01-03T16:29:17Z</time>
      </trkpt>
      <trkpt lat="49.33734" lon="1.16715">
        <ele>105</ele>
        <time>2017-01-03T16:29:17Z</time>
      </trkpt>
      <trkpt lat="49.33739" lon="1.16719">
        <ele>105</ele>
        <time>2017-01-03T16:29:17Z</time>
      </trkpt>
      <trkpt lat="49.33744" lon="1.16722">
        <ele>105</ele>
        <time>2017-01-03T16:29:33Z</time>
      </trkpt>
      <trkpt lat="49.33748" lon="1.16725">
        <ele>105</ele>
        <time>2017-01-03T16:29:33Z</time>
      </trkpt>
      <trkpt lat="49.33751" lon="1.16728">
        <ele>105</ele>
        <time>2017-01-03T16:29:33Z</time>
      </trkpt>
      <trkpt lat="49.33756" lon="1.16728">
        <ele>105</ele>
        <time>2017-01-03T16:29:33Z</time>
      </trkpt>
      <trkpt lat="49.33761" lon="1.16725">
        <ele>105</ele>
        <time>2017-01-03T16:29:49Z</time>
      </trkpt>
      <trkpt lat="49.33766" lon="1.16723">
        <ele>105</ele>
        <time>2017-01-03T16:29:49Z</time>
      </trkpt>
      <trkpt lat="49.3377" lon="1.16722">
        <ele>105</ele>
        <time>2017-01-03T16:29:49Z</time>
      </trkpt>
      <trkpt lat="49.33775" lon="1.16722">
        <ele>105</ele>
        <time>2017-01-03T16:29:49Z</time>
      </trkpt>
      <trkpt lat="49.33778" lon="1.16724">
        <ele>105</ele>
        <time>2017-01-03T16:30:05Z</time>
      </trkpt>
      <trkpt lat="49.33782" lon="1.16727">
        <ele>105</ele>
        <time>2017-01-03T16:30:05Z</time>
      </trkpt>
      <trkpt lat="49.33786" lon="1.1673">
        <ele>105</ele>
        <time>2017-01-03T16:30:05Z</time>
      </trkpt>
      <trkpt lat="49.33791" lon="1.1673">
        <ele>105</ele>
        <time>2017-01-03T16:30:05Z</time>
      </trkpt>
      <trkpt lat="49.33796" lon="1.1673">
        <ele>104</ele>
        <time>2017-01-03T16:30:21Z</time>
      </trkpt>
      <trkpt lat="49.338" lon="1.16727">
        <ele>104</ele>
        <time>2017-01-03T16:30:21Z</time>
      </trkpt>
      <trkpt lat="49.33805" lon="1.16725">
        <ele>104</ele>
        <time>2017-01-03T16:30:21Z</time>
      </trkpt>
      <trkpt lat="49.33809" lon="1.16726">
        <ele>104</ele>
        <time>2017-01-03T16:30:21Z</time>
      </trkpt>
      <trkpt lat="49.33813" lon="1.16729">
        <ele>104</ele>
        <time>2017-01-03T16:30:37Z</time>
      </trkpt>
      <trkpt lat="49.33815" lon="1.16735">
        <ele>104</ele>
        <time>2017-01-03T16:30:37Z</time>
      </trkpt>
      <trkpt lat="49.33816" lon="1.16742">
        <ele>104</ele>
        <time>2017-01-03T16:30:37Z</time>
      </trkpt>
      <trkpt lat="49.3382" lon="1.16751">
        <ele>104</ele>
        <time>2017-01-03T16:30:37Z</time>
      </trkpt>
      <trkpt lat="49.33823" lon="1.16757">
        <ele>104</ele>
        <time>2017-01-03T16:30:53Z</time>
      </trkpt>
      <trkpt lat="49.33826" lon="1.16763">
        <ele>104</ele>
        <time>2017-01-03T16:30:53Z</time>
      </trkpt>
      <trkpt lat="49.33828" lon="1.16769">
        <ele>104</ele>
        <time>2017-01-03T16:30:53Z</time>
      </trkpt>
      <trkpt lat="49.33831" lon="1.16772">
        <ele>104</ele>
        <time>2017-01-03T16:30:53Z</time>
      </trkpt>
      <trkpt lat="49.33834" lon="1.16774">
        <ele>104</ele>
        <time>2017-01-03T16:31:09Z</time>
      </trkpt>
      <trkpt lat="49.33838" lon="1.16765">
        <ele>104</ele>
        <time>2017-01-03T16:31:09Z</time>
      </trkpt>
      <trkpt lat="49.3384" lon="1.16755">
        <ele>104</ele>
        <time>2017-01-03T16:31:09Z</time>
      </trkpt>
      <trkpt lat="49.33845" lon="1.16747">
        <ele>104</ele>
        <time>2017-01-03T16:31:09Z</time>
      </trkpt>
      <trkpt lat="49.33851" lon="1.16745">
        <ele>104</ele>
        <time>2017-01-03T16:31:25Z</time>
      </trkpt>
      <trkpt lat="49.33856" lon="1.16745">
        <ele>104</ele>
        <time>2017-01-03T16:31:25Z</time>
      </trkpt>
      <trkpt lat="49.33862" lon="1.16746">
        <ele>104</ele>
        <time>2017-01-03T16:31:25Z</time>
      </trkpt>
      <trkpt lat="49.33866" lon="1.16747">
        <ele>104</ele>
        <time>2017-01-03T16:31:25Z</time>
      </trkpt>
      <trkpt lat="49.33876" lon="1.16743">
        <ele>103</ele>
        <time>2017-01-03T16:32:09Z</time>
      </trkpt>
      <trkpt lat="49.33877" lon="1.16743">
        <ele>103</ele>
        <time>2017-01-03T16:32:09Z</time>
      </trkpt>
      <trkpt lat="49.33879" lon="1.16742">
        <ele>103</ele>
        <time>2017-01-03T16:32:09Z</time>
      </trkpt>
      <trkpt lat="49.33884" lon="1.16743">
        <ele>103</ele>
        <time>2017-01-03T16:32:09Z</time>
      </trkpt>
      <trkpt lat="49.33889" lon="1.16742">
        <ele>103</ele>
        <time>2017-01-03T16:32:09Z</time>
      </trkpt>
      <trkpt lat="49.33894" lon="1.16741">
        <ele>103</ele>
        <time>2017-01-03T16:32:25Z</time>
      </trkpt>
      <trkpt lat="49.33899" lon="1.16742">
        <ele>103</ele>
        <time>2017-01-03T16:32:25Z</time>
      </trkpt>
      <trkpt lat="49.33905" lon="1.1674">
        <ele>103</ele>
        <time>2017-01-03T16:32:25Z</time>
      </trkpt>
      <trkpt lat="49.3391" lon="1.1674">
        <ele>103</ele>
        <time>2017-01-03T16:32:25Z</time>
      </trkpt>
      <trkpt lat="49.33915" lon="1.16739">
        <ele>103</ele>
        <time>2017-01-03T16:32:41Z</time>
      </trkpt>
      <trkpt lat="49.33918" lon="1.16737">
        <ele>103</ele>
        <time>2017-01-03T16:32:41Z</time>
      </trkpt>
      <trkpt lat="49.33921" lon="1.16736">
        <ele>103</ele>
        <time>2017-01-03T16:32:41Z</time>
      </trkpt>
      <trkpt lat="49.33924" lon="1.16736">
        <ele>103</ele>
        <time>2017-01-03T16:32:41Z</time>
      </trkpt>
      <trkpt lat="49.33929" lon="1.16734">
        <ele>103</ele>
        <time>2017-01-03T16:32:57Z</time>
      </trkpt>
      <trkpt lat="49.33934" lon="1.16731">
        <ele>103</ele>
        <time>2017-01-03T16:32:57Z</time>
      </trkpt>
      <trkpt lat="49.33938" lon="1.16731">
        <ele>103</ele>
        <time>2017-01-03T16:32:57Z</time>
      </trkpt>
      <trkpt lat="49.33942" lon="1.1673">
        <ele>103</ele>
        <time>2017-01-03T16:32:57Z</time>
      </trkpt>
      <trkpt lat="49.33947" lon="1.16728">
        <ele>103</ele>
        <time>2017-01-03T16:33:13Z</time>
      </trkpt>
      <trkpt lat="49.33951" lon="1.16726">
        <ele>103</ele>
        <time>2017-01-03T16:33:13Z</time>
      </trkpt>
      <trkpt lat="49.33957" lon="1.16724">
        <ele>103</ele>
        <time>2017-01-03T16:33:13Z</time>
      </trkpt>
      <trkpt lat="49.33961" lon="1.16723">
        <ele>99</ele>
        <time>2017-01-03T16:33:13Z</time>
      </trkpt>
      <trkpt lat="49.33966" lon="1.1672">
        <ele>99</ele>
        <time>2017-01-03T16:33:29Z</time>
      </trkpt>
      <trkpt lat="49.3397" lon="1.16717">
        <ele>99</ele>
        <time>2017-01-03T16:33:29Z</time>
      </trkpt>
      <trkpt lat="49.33972" lon="1.16716">
        <ele>99</ele>
        <time>2017-01-03T16:33:29Z</time>
      </trkpt>
      <trkpt lat="49.33979" lon="1.16713">
        <ele>99</ele>
        <time>2017-01-03T16:33:29Z</time>
      </trkpt>
      <trkpt lat="49.33984" lon="1.16712">
        <ele>99</ele>
        <time>2017-01-03T16:33:45Z</time>
      </trkpt>
      <trkpt lat="49.33988" lon="1.16711">
        <ele>99</ele>
        <time>2017-01-03T16:33:45Z</time>
      </trkpt>
      <trkpt lat="49.33993" lon="1.1671">
        <ele>99</ele>
        <time>2017-01-03T16:33:45Z</time>
      </trkpt>
      <trkpt lat="49.33998" lon="1.16709">
        <ele>99</ele>
        <time>2017-01-03T16:33:45Z</time>
      </trkpt>
      <trkpt lat="49.34002" lon="1.16708">
        <ele>92</ele>
        <time>2017-01-03T16:34:01Z</time>
      </trkpt>
      <trkpt lat="49.34007" lon="1.16706">
        <ele>92</ele>
        <time>2017-01-03T16:34:01Z</time>
      </trkpt>
      <trkpt lat="49.34011" lon="1.16707">
        <ele>92</ele>
        <time>2017-01-03T16:34:01Z</time>
      </trkpt>
      <trkpt lat="49.34015" lon="1.1671">
        <ele>99</ele>
        <time>2017-01-03T16:34:01Z</time>
      </trkpt>
      <trkpt lat="49.34019" lon="1.16711">
        <ele>99</ele>
        <time>2017-01-03T16:34:17Z</time>
      </trkpt>
      <trkpt lat="49.34023" lon="1.16711">
        <ele>99</ele>
        <time>2017-01-03T16:34:17Z</time>
      </trkpt>
      <trkpt lat="49.34029" lon="1.16706">
        <ele>92</ele>
        <time>2017-01-03T16:34:17Z</time>
      </trkpt>
      <trkpt lat="49.34033" lon="1.16704">
        <ele>92</ele>
        <time>2017-01-03T16:34:17Z</time>
      </trkpt>
      <trkpt lat="49.34036" lon="1.16704">
        <ele>92</ele>
        <time>2017-01-03T16:34:33Z</time>
      </trkpt>
      <trkpt lat="49.34041" lon="1.16706">
        <ele>92</ele>
        <time>2017-01-03T16:34:33Z</time>
      </trkpt>
      <trkpt lat="49.34046" lon="1.16706">
        <ele>95</ele>
        <time>2017-01-03T16:34:33Z</time>
      </trkpt>
      <trkpt lat="49.34052" lon="1.16705">
        <ele>95</ele>
        <time>2017-01-03T16:34:33Z</time>
      </trkpt>
      <trkpt lat="49.34056" lon="1.16704">
        <ele>95</ele>
        <time>2017-01-03T16:34:49Z</time>
      </trkpt>
      <trkpt lat="49.34061" lon="1.16703">
        <ele>95</ele>
        <time>2017-01-03T16:34:49Z</time>
      </trkpt>
      <trkpt lat="49.34066" lon="1.16702">
        <ele>95</ele>
        <time>2017-01-03T16:34:49Z</time>
      </trkpt>
      <trkpt lat="49.3407" lon="1.167">
        <ele>95</ele>
        <time>2017-01-03T16:34:49Z</time>
      </trkpt>
      <trkpt lat="49.34075" lon="1.16697">
        <ele>95</ele>
        <time>2017-01-03T16:35:05Z</time>
      </trkpt>
      <trkpt lat="49.34081" lon="1.16696">
        <ele>95</ele>
        <time>2017-01-03T16:35:05Z</time>
      </trkpt>
      <trkpt lat="49.34086" lon="1.16695">
        <ele>95</ele>
        <time>2017-01-03T16:35:05Z</time>
      </trkpt>
      <trkpt lat="49.3409" lon="1.16694">
        <ele>95</ele>
        <time>2017-01-03T16:35:05Z</time>
      </trkpt>
      <trkpt lat="49.34095" lon="1.16692">
        <ele>95</ele>
        <time>2017-01-03T16:35:21Z</time>
      </trkpt>
      <trkpt lat="49.34099" lon="1.16688">
        <ele>95</ele>
        <time>2017-01-03T16:35:21Z</time>
      </trkpt>
      <trkpt lat="49.34104" lon="1.16686">
        <ele>95</ele>
        <time>2017-01-03T16:35:21Z</time>
      </trkpt>
      <trkpt lat="49.34108" lon="1.16683">
        <ele>95</ele>
        <time>2017-01-03T16:35:21Z</time>
      </trkpt>
      <trkpt lat="49.34112" lon="1.16681">
        <ele>95</ele>
        <time>2017-01-03T16:35:37Z</time>
      </trkpt>
      <trkpt lat="49.34117" lon="1.16678">
        <ele>95</ele>
        <time>2017-01-03T16:35:37Z</time>
      </trkpt>
      <trkpt lat="49.34121" lon="1.16675">
        <ele>95</ele>
        <time>2017-01-03T16:35:37Z</time>
      </trkpt>
      <trkpt lat="49.34124" lon="1.16672">
        <ele>95</ele>
        <time>2017-01-03T16:35:37Z</time>
      </trkpt>
      <trkpt lat="49.34127" lon="1.1667">
        <ele>100</ele>
        <time>2017-01-03T16:35:53Z</time>
      </trkpt>
      <trkpt lat="49.34131" lon="1.16668">
        <ele>100</ele>
        <time>2017-01-03T16:35:53Z</time>
      </trkpt>
      <trkpt lat="49.34136" lon="1.16667">
        <ele>100</ele>
        <time>2017-01-03T16:35:53Z</time>
      </trkpt>
      <trkpt lat="49.34141" lon="1.16663">
        <ele>100</ele>
        <time>2017-01-03T16:35:53Z</time>
      </trkpt>
      <trkpt lat="49.34146" lon="1.16659">
        <ele>100</ele>
        <time>2017-01-03T16:36:09Z</time>
      </trkpt>
      <trkpt lat="49.3415" lon="1.16654">
        <ele>100</ele>
        <time>2017-01-03T16:36:09Z</time>
      </trkpt>
      <trkpt lat="49.34154" lon="1.16651">
        <ele>100</ele>
        <time>2017-01-03T16:36:09Z</time>
      </trkpt>
      <trkpt lat="49.34158" lon="1.16647">
        <ele>100</ele>
        <time>2017-01-03T16:36:09Z</time>
      </trkpt>
      <trkpt lat="49.34162" lon="1.16641">
        <ele>100</ele>
        <time>2017-01-03T16:36:25Z</time>
      </trkpt>
      <trkpt lat="49.34166" lon="1.16637">
        <ele>100</ele>
        <time>2017-01-03T16:36:25Z</time>
      </trkpt>
      <trkpt lat="49.3417" lon="1.16632">
        <ele>100</ele>
        <time>2017-01-03T16:36:25Z</time>
      </trkpt>
      <trkpt lat="49.34174" lon="1.16629">
        <ele>100</ele>
        <time>2017-01-03T16:36:25Z</time>
      </trkpt>
      <trkpt lat="49.34178" lon="1.16627">
        <ele>100</ele>
        <time>2017-01-03T16:36:41Z</time>
      </trkpt>
      <trkpt lat="49.34181" lon="1.16623">
        <ele>93</ele>
        <time>2017-01-03T16:36:41Z</time>
      </trkpt>
      <trkpt lat="49.34185" lon="1.16618">
        <ele>93</ele>
        <time>2017-01-03T16:36:41Z</time>
      </trkpt>
      <trkpt lat="49.34189" lon="1.16615">
        <ele>93</ele>
        <time>2017-01-03T16:36:41Z</time>
      </trkpt>
      <trkpt lat="49.34193" lon="1.16612">
        <ele>93</ele>
        <time>2017-01-03T16:36:57Z</time>
      </trkpt>
      <trkpt lat="49.34197" lon="1.16607">
        <ele>93</ele>
        <time>2017-01-03T16:36:57Z</time>
      </trkpt>
      <trkpt lat="49.342" lon="1.16601">
        <ele>93</ele>
        <time>2017-01-03T16:36:57Z</time>
      </trkpt>
      <trkpt lat="49.34203" lon="1.16597">
        <ele>93</ele>
        <time>2017-01-03T16:36:57Z</time>
      </trkpt>
      <trkpt lat="49.34206" lon="1.16592">
        <ele>93</ele>
        <time>2017-01-03T16:37:13Z</time>
      </trkpt>
      <trkpt lat="49.3421" lon="1.16585">
        <ele>97</ele>
        <time>2017-01-03T16:37:13Z</time>
      </trkpt>
      <trkpt lat="49.34213" lon="1.1658">
        <ele>97</ele>
        <time>2017-01-03T16:37:13Z</time>
      </trkpt>
      <trkpt lat="49.34218" lon="1.16576">
        <ele>97</ele>
        <time>2017-01-03T16:37:13Z</time>
      </trkpt>
      <trkpt lat="49.34221" lon="1.1657">
        <ele>97</ele>
        <time>2017-01-03T16:37:29Z</time>
      </trkpt>
      <trkpt lat="49.34226" lon="1.16566">
        <ele>97</ele>
        <time>2017-01-03T16:37:29Z</time>
      </trkpt>
      <trkpt lat="49.34231" lon="1.16563">
        <ele>97</ele>
        <time>2017-01-03T16:37:29Z</time>
      </trkpt>
      <trkpt lat="49.34234" lon="1.16558">
        <ele>97</ele>
        <time>2017-01-03T16:37:29Z</time>
      </trkpt>
      <trkpt lat="49.34238" lon="1.16552">
        <ele>97</ele>
        <time>2017-01-03T16:37:45Z</time>
      </trkpt>
      <trkpt lat="49.34241" lon="1.16548">
        <ele>97</ele>
        <time>2017-01-03T16:37:45Z</time>
      </trkpt>
      <trkpt lat="49.34245" lon="1.16543">
        <ele>97</ele>
        <time>2017-01-03T16:37:45Z</time>
      </trkpt>
      <trkpt lat="49.34249" lon="1.16538">
        <ele>88</ele>
        <time>2017-01-03T16:37:45Z</time>
      </trkpt>
      <trkpt lat="49.34253" lon="1.16533">
        <ele>88</ele>
        <time>2017-01-03T16:38:01Z</time>
      </trkpt>
      <trkpt lat="49.34257" lon="1.16527">
        <ele>88</ele>
        <time>2017-01-03T16:38:01Z</time>
      </trkpt>
      <trkpt lat="49.34262" lon="1.16524">
        <ele>88</ele>
        <time>2017-01-03T16:38:01Z</time>
      </trkpt>
      <trkpt lat="49.34265" lon="1.1652">
        <ele>88</ele>
        <time>2017-01-03T16:38:01Z</time>
      </trkpt>
      <trkpt lat="49.34267" lon="1.16515">
        <ele>88</ele>
        <time>2017-01-03T16:38:17Z</time>
      </trkpt>
      <trkpt lat="49.3427" lon="1.16509">
        <ele>88</ele>
        <time>2017-01-03T16:38:17Z</time>
      </trkpt>
      <trkpt lat="49.34273" lon="1.16504">
        <ele>88</ele>
        <time>2017-01-03T16:38:17Z</time>
      </trkpt>
      <trkpt lat="49.34275" lon="1.16496">
        <ele>88</ele>
        <time>2017-01-03T16:38:17Z</time>
      </trkpt>
      <trkpt lat="49.34277" lon="1.1649">
        <ele>88</ele>
        <time>2017-01-03T16:38:33Z</time>
      </trkpt>
      <trkpt lat="49.3428" lon="1.16484">
        <ele>88</ele>
        <time>2017-01-03T16:38:33Z</time>
      </trkpt>
      <trkpt lat="49.34283" lon="1.1648">
        <ele>88</ele>
        <time>2017-01-03T16:38:33Z</time>
      </trkpt>
      <trkpt lat="49.34286" lon="1.16477">
        <ele>88</ele>
        <time>2017-01-03T16:38:33Z</time>
      </trkpt>
      <trkpt lat="49.3429" lon="1.16473">
        <ele>88</ele>
        <time>2017-01-03T16:38:49Z</time>
      </trkpt>
      <trkpt lat="49.34294" lon="1.16469">
        <ele>87</ele>
        <time>2017-01-03T16:38:49Z</time>
      </trkpt>
      <trkpt lat="49.34298" lon="1.16465">
        <ele>87</ele>
        <time>2017-01-03T16:38:49Z</time>
      </trkpt>
      <trkpt lat="49.34302" lon="1.16461">
        <ele>87</ele>
        <time>2017-01-03T16:38:49Z</time>
      </trkpt>
      <trkpt lat="49.34306" lon="1.16459">
        <ele>87</ele>
        <time>2017-01-03T16:39:05Z</time>
      </trkpt>
      <trkpt lat="49.34312" lon="1.16458">
        <ele>81</ele>
        <time>2017-01-03T16:39:05Z</time>
      </trkpt>
      <trkpt lat="49.34316" lon="1.16455">
        <ele>81</ele>
        <time>2017-01-03T16:39:05Z</time>
      </trkpt>
      <trkpt lat="49.34321" lon="1.16452">
        <ele>81</ele>
        <time>2017-01-03T16:39:05Z</time>
      </trkpt>
      <trkpt lat="49.34326" lon="1.16449">
        <ele>81</ele>
        <time>2017-01-03T16:39:21Z</time>
      </trkpt>
      <trkpt lat="49.34331" lon="1.16446">
        <ele>81</ele>
        <time>2017-01-03T16:39:21Z</time>
      </trkpt>
      <trkpt lat="49.34336" lon="1.16443">
        <ele>81</ele>
        <time>2017-01-03T16:39:21Z</time>
      </trkpt>
      <trkpt lat="49.34341" lon="1.16442">
        <ele>81</ele>
        <time>2017-01-03T16:39:21Z</time>
      </trkpt>
      <trkpt lat="49.34347" lon="1.1644">
        <ele>81</ele>
        <time>2017-01-03T16:39:37Z</time>
      </trkpt>
      <trkpt lat="49.34352" lon="1.16438">
        <ele>81</ele>
        <time>2017-01-03T16:39:37Z</time>
      </trkpt>
      <trkpt lat="49.34354" lon="1.16431">
        <ele>81</ele>
        <time>2017-01-03T16:39:37Z</time>
      </trkpt>
      <trkpt lat="49.34352" lon="1.16425">
        <ele>81</ele>
        <time>2017-01-03T16:39:37Z</time>
      </trkpt>
      <trkpt lat="49.34349" lon="1.16421">
        <ele>81</ele>
        <time>2017-01-03T16:40:05Z</time>
      </trkpt>
      <trkpt lat="49.34344" lon="1.16414">
        <ele>81</ele>
        <time>2017-01-03T16:40:05Z</time>
      </trkpt>
      <trkpt lat="49.3434" lon="1.16408">
        <ele>81</ele>
        <time>2017-01-03T16:40:05Z</time>
      </trkpt>
      <trkpt lat="49.34336" lon="1.16403">
        <ele>81</ele>
        <time>2017-01-03T16:40:05Z</time>
      </trkpt>
      <trkpt lat="49.34333" lon="1.16397">
        <ele>81</ele>
        <time>2017-01-03T16:40:05Z</time>
      </trkpt>
      <trkpt lat="49.34329" lon="1.16392">
        <ele>81</ele>
        <time>2017-01-03T16:40:21Z</time>
      </trkpt>
      <trkpt lat="49.34325" lon="1.16387">
        <ele>81</ele>
        <time>2017-01-03T16:40:21Z</time>
      </trkpt>
      <trkpt lat="49.34321" lon="1.16381">
        <ele>81</ele>
        <time>2017-01-03T16:40:21Z</time>
      </trkpt>
      <trkpt lat="49.34317" lon="1.16374">
        <ele>78</ele>
        <time>2017-01-03T16:40:21Z</time>
      </trkpt>
      <trkpt lat="49.34313" lon="1.16369">
        <ele>78</ele>
        <time>2017-01-03T16:40:37Z</time>
      </trkpt>
      <trkpt lat="49.3431" lon="1.16364">
        <ele>78</ele>
        <time>2017-01-03T16:40:37Z</time>
      </trkpt>
      <trkpt lat="49.34305" lon="1.16358">
        <ele>78</ele>
        <time>2017-01-03T16:40:37Z</time>
      </trkpt>
      <trkpt lat="49.34301" lon="1.16353">
        <ele>78</ele>
        <time>2017-01-03T16:40:37Z</time>
      </trkpt>
      <trkpt lat="49.34297" lon="1.16349">
        <ele>78</ele>
        <time>2017-01-03T16:40:53Z</time>
      </trkpt>
      <trkpt lat="49.34294" lon="1.16345">
        <ele>78</ele>
        <time>2017-01-03T16:40:53Z</time>
      </trkpt>
      <trkpt lat="49.3429" lon="1.16339">
        <ele>77</ele>
        <time>2017-01-03T16:40:53Z</time>
      </trkpt>
      <trkpt lat="49.34287" lon="1.16334">
        <ele>77</ele>
        <time>2017-01-03T16:40:53Z</time>
      </trkpt>
      <trkpt lat="49.34282" lon="1.16328">
        <ele>77</ele>
        <time>2017-01-03T16:41:09Z</time>
      </trkpt>
      <trkpt lat="49.34279" lon="1.16323">
        <ele>77</ele>
        <time>2017-01-03T16:41:09Z</time>
      </trkpt>
      <trkpt lat="49.34276" lon="1.16318">
        <ele>77</ele>
        <time>2017-01-03T16:41:09Z</time>
      </trkpt>
      <trkpt lat="49.34273" lon="1.16313">
        <ele>77</ele>
        <time>2017-01-03T16:41:09Z</time>
      </trkpt>
      <trkpt lat="49.3427" lon="1.16308">
        <ele>77</ele>
        <time>2017-01-03T16:41:25Z</time>
      </trkpt>
      <trkpt lat="49.34267" lon="1.16303">
        <ele>77</ele>
        <time>2017-01-03T16:41:25Z</time>
      </trkpt>
      <trkpt lat="49.34263" lon="1.16298">
        <ele>77</ele>
        <time>2017-01-03T16:41:25Z</time>
      </trkpt>
      <trkpt lat="49.34259" lon="1.16292">
        <ele>74</ele>
        <time>2017-01-03T16:41:25Z</time>
      </trkpt>
      <trkpt lat="49.34255" lon="1.16287">
        <ele>74</ele>
        <time>2017-01-03T16:41:41Z</time>
      </trkpt>
      <trkpt lat="49.34251" lon="1.16281">
        <ele>74</ele>
        <time>2017-01-03T16:41:41Z</time>
      </trkpt>
      <trkpt lat="49.34247" lon="1.16275">
        <ele>74</ele>
        <time>2017-01-03T16:41:41Z</time>
      </trkpt>
      <trkpt lat="49.34244" lon="1.1627">
        <ele>74</ele>
        <time>2017-01-03T16:41:41Z</time>
      </trkpt>
      <trkpt lat="49.34241" lon="1.16265">
        <ele>74</ele>
        <time>2017-01-03T16:41:57Z</time>
      </trkpt>
      <trkpt lat="49.34238" lon="1.1626">
        <ele>74</ele>
        <time>2017-01-03T16:41:57Z</time>
      </trkpt>
      <trkpt lat="49.34234" lon="1.16256">
        <ele>74</ele>
        <time>2017-01-03T16:41:57Z</time>
      </trkpt>
      <trkpt lat="49.3423" lon="1.16251">
        <ele>74</ele>
        <time>2017-01-03T16:41:57Z</time>
      </trkpt>
      <trkpt lat="49.34227" lon="1.16245">
        <ele>74</ele>
        <time>2017-01-03T16:42:13Z</time>
      </trkpt>
      <trkpt lat="49.34222" lon="1.16238">
        <ele>74</ele>
        <time>2017-01-03T16:42:13Z</time>
      </trkpt>
      <trkpt lat="49.34219" lon="1.16233">
        <ele>74</ele>
        <time>2017-01-03T16:42:13Z</time>
      </trkpt>
      <trkpt lat="49.34216" lon="1.16229">
        <ele>74</ele>
        <time>2017-01-03T16:42:13Z</time>
      </trkpt>
      <trkpt lat="49.34213" lon="1.16223">
        <ele>74</ele>
        <time>2017-01-03T16:42:29Z</time>
      </trkpt>
      <trkpt lat="49.34211" lon="1.16217">
        <ele>74</ele>
        <time>2017-01-03T16:42:29Z</time>
      </trkpt>
      <trkpt lat="49.34207" lon="1.16212">
        <ele>73</ele>
        <time>2017-01-03T16:42:29Z</time>
      </trkpt>
      <trkpt lat="49.34203" lon="1.16205">
        <ele>73</ele>
        <time>2017-01-03T16:42:29Z</time>
      </trkpt>
      <trkpt lat="49.34199" lon="1.16199">
        <ele>73</ele>
        <time>2017-01-03T16:42:45Z</time>
      </trkpt>
      <trkpt lat="49.34195" lon="1.16193">
        <ele>73</ele>
        <time>2017-01-03T16:42:45Z</time>
      </trkpt>
      <trkpt lat="49.34192" lon="1.16187">
        <ele>73</ele>
        <time>2017-01-03T16:42:45Z</time>
      </trkpt>
      <trkpt lat="49.34188" lon="1.16183">
        <ele>73</ele>
        <time>2017-01-03T16:42:45Z</time>
      </trkpt>
      <trkpt lat="49.34185" lon="1.16178">
        <ele>73</ele>
        <time>2017-01-03T16:43:01Z</time>
      </trkpt>
      <trkpt lat="49.34181" lon="1.16173">
        <ele>73</ele>
        <time>2017-01-03T16:43:01Z</time>
      </trkpt>
      <trkpt lat="49.34177" lon="1.16167">
        <ele>73</ele>
        <time>2017-01-03T16:43:01Z</time>
      </trkpt>
      <trkpt lat="49.34173" lon="1.16162">
        <ele>73</ele>
        <time>2017-01-03T16:43:01Z</time>
      </trkpt>
      <trkpt lat="49.34169" lon="1.16158">
        <ele>73</ele>
        <time>2017-01-03T16:43:17Z</time>
      </trkpt>
      <trkpt lat="49.34165" lon="1.16155">
        <ele>73</ele>
        <time>2017-01-03T16:43:17Z</time>
      </trkpt>
      <trkpt lat="49.34161" lon="1.1615">
        <ele>73</ele>
        <time>2017-01-03T16:43:17Z</time>
      </trkpt>
      <trkpt lat="49.34157" lon="1.16145">
        <ele>73</ele>
        <time>2017-01-03T16:43:17Z</time>
      </trkpt>
      <trkpt lat="49.34153" lon="1.1614">
        <ele>73</ele>
        <time>2017-01-03T16:43:33Z</time>
      </trkpt>
      <trkpt lat="49.34149" lon="1.16137">
        <ele>73</ele>
        <time>2017-01-03T16:43:33Z</time>
      </trkpt>
      <trkpt lat="49.34145" lon="1.16132">
        <ele>73</ele>
        <time>2017-01-03T16:43:33Z</time>
      </trkpt>
      <trkpt lat="49.3414" lon="1.16128">
        <ele>73</ele>
        <time>2017-01-03T16:43:33Z</time>
      </trkpt>
      <trkpt lat="49.34136" lon="1.16124">
        <ele>70</ele>
        <time>2017-01-03T16:43:49Z</time>
      </trkpt>
      <trkpt lat="49.34132" lon="1.16121">
        <ele>70</ele>
        <time>2017-01-03T16:43:49Z</time>
      </trkpt>
      <trkpt lat="49.34127" lon="1.16118">
        <ele>70</ele>
        <time>2017-01-03T16:43:49Z</time>
      </trkpt>
      <trkpt lat="49.34122" lon="1.16113">
        <ele>68</ele>
        <time>2017-01-03T16:43:49Z</time>
      </trkpt>
      <trkpt lat="49.34118" lon="1.1611">
        <ele>68</ele>
        <time>2017-01-03T16:44:05Z</time>
      </trkpt>
      <trkpt lat="49.34114" lon="1.16106">
        <ele>68</ele>
        <time>2017-01-03T16:44:05Z</time>
      </trkpt>
      <trkpt lat="49.3411" lon="1.16102">
        <ele>68</ele>
        <time>2017-01-03T16:44:05Z</time>
      </trkpt>
      <trkpt lat="49.34105" lon="1.16097">
        <ele>68</ele>
        <time>2017-01-03T16:44:05Z</time>
      </trkpt>
      <trkpt lat="49.34101" lon="1.16094">
        <ele>68</ele>
        <time>2017-01-03T16:44:21Z</time>
      </trkpt>
      <trkpt lat="49.34097" lon="1.1609">
        <ele>68</ele>
        <time>2017-01-03T16:44:21Z</time>
      </trkpt>
      <trkpt lat="49.34093" lon="1.16086">
        <ele>68</ele>
        <time>2017-01-03T16:44:21Z</time>
      </trkpt>
      <trkpt lat="49.34088" lon="1.16082">
        <ele>68</ele>
        <time>2017-01-03T16:44:21Z</time>
      </trkpt>
      <trkpt lat="49.34083" lon="1.16078">
        <ele>68</ele>
        <time>2017-01-03T16:44:37Z</time>
      </trkpt>
      <trkpt lat="49.34078" lon="1.16074">
        <ele>68</ele>
        <time>2017-01-03T16:44:37Z</time>
      </trkpt>
      <trkpt lat="49.34074" lon="1.1607">
        <ele>68</ele>
        <time>2017-01-03T16:44:37Z</time>
      </trkpt>
      <trkpt lat="49.3407" lon="1.16066">
        <ele>68</ele>
        <time>2017-01-03T16:44:37Z</time>
      </trkpt>
      <trkpt lat="49.34065" lon="1.16061">
        <ele>68</ele>
        <time>2017-01-03T16:44:53Z</time>
      </trkpt>
      <trkpt lat="49.34061" lon="1.16057">
        <ele>68</ele>
        <time>2017-01-03T16:44:53Z</time>
      </trkpt>
      <trkpt lat="49.34057" lon="1.16052">
        <ele>68</ele>
        <time>2017-01-03T16:44:53Z</time>
      </trkpt>
      <trkpt lat="49.34053" lon="1.16049">
        <ele>68</ele>
        <time>2017-01-03T16:44:53Z</time>
      </trkpt>
      <trkpt lat="49.34049" lon="1.16045">
        <ele>68</ele>
        <time>2017-01-03T16:45:09Z</time>
      </trkpt>
      <trkpt lat="49.34045" lon="1.16041">
        <ele>64</ele>
        <time>2017-01-03T16:45:09Z</time>
      </trkpt>
      <trkpt lat="49.34041" lon="1.16037">
        <ele>66</ele>
        <time>2017-01-03T16:45:09Z</time>
      </trkpt>
      <trkpt lat="49.34036" lon="1.16034">
        <ele>66</ele>
        <time>2017-01-03T16:45:09Z</time>
      </trkpt>
      <trkpt lat="49.3403" lon="1.16028">
        <ele>66</ele>
        <time>2017-01-03T16:45:25Z</time>
      </trkpt>
      <trkpt lat="49.34025" lon="1.16025">
        <ele>66</ele>
        <time>2017-01-03T16:45:25Z</time>
      </trkpt>
      <trkpt lat="49.34021" lon="1.16022">
        <ele>66</ele>
        <time>2017-01-03T16:45:25Z</time>
      </trkpt>
      <trkpt lat="49.34018" lon="1.16019">
        <ele>66</ele>
        <time>2017-01-03T16:45:25Z</time>
      </trkpt>
      <trkpt lat="49.34014" lon="1.16016">
        <ele>66</ele>
        <time>2017-01-03T16:45:41Z</time>
      </trkpt>
      <trkpt lat="49.34008" lon="1.16013">
        <ele>66</ele>
        <time>2017-01-03T16:45:41Z</time>
      </trkpt>
      <trkpt lat="49.34005" lon="1.1601">
        <ele>66</ele>
        <time>2017-01-03T16:45:41Z</time>
      </trkpt>
      <trkpt lat="49.34" lon="1.16008">
        <ele>66</ele>
        <time>2017-01-03T16:45:41Z</time>
      </trkpt>
      <trkpt lat="49.33996" lon="1.16005">
        <ele>66</ele>
        <time>2017-01-03T16:45:57Z</time>
      </trkpt>
      <trkpt lat="49.33991" lon="1.16001">
        <ele>66</ele>
        <time>2017-01-03T16:45:57Z</time>
      </trkpt>
      <trkpt lat="49.33987" lon="1.15997">
        <ele>66</ele>
        <time>2017-01-03T16:45:57Z</time>
      </trkpt>
      <trkpt lat="49.33983" lon="1.15994">
        <ele>66</ele>
        <time>2017-01-03T16:45:57Z</time>
      </trkpt>
      <trkpt lat="49.33979" lon="1.15992">
        <ele>66</ele>
        <time>2017-01-03T16:46:13Z</time>
      </trkpt>
      <trkpt lat="49.33975" lon="1.15988">
        <ele>66</ele>
        <time>2017-01-03T16:46:13Z</time>
      </trkpt>
      <trkpt lat="49.33971" lon="1.15985">
        <ele>66</ele>
        <time>2017-01-03T16:46:13Z</time>
      </trkpt>
      <trkpt lat="49.33966" lon="1.15983">
        <ele>66</ele>
        <time>2017-01-03T16:46:13Z</time>
      </trkpt>
      <trkpt lat="49.33962" lon="1.1598">
        <ele>66</ele>
        <time>2017-01-03T16:46:29Z</time>
      </trkpt>
      <trkpt lat="49.33957" lon="1.15976">
        <ele>64</ele>
        <time>2017-01-03T16:46:29Z</time>
      </trkpt>
      <trkpt lat="49.33953" lon="1.15974">
        <ele>64</ele>
        <time>2017-01-03T16:46:29Z</time>
      </trkpt>
      <trkpt lat="49.33948" lon="1.15971">
        <ele>64</ele>
        <time>2017-01-03T16:46:29Z</time>
      </trkpt>
      <trkpt lat="49.33944" lon="1.15968">
        <ele>64</ele>
        <time>2017-01-03T16:46:45Z</time>
      </trkpt>
      <trkpt lat="49.33939" lon="1.15964">
        <ele>64</ele>
        <time>2017-01-03T16:46:45Z</time>
      </trkpt>
      <trkpt lat="49.33933" lon="1.15962">
        <ele>64</ele>
        <time>2017-01-03T16:46:45Z</time>
      </trkpt>
      <trkpt lat="49.33927" lon="1.15958">
        <ele>63</ele>
        <time>2017-01-03T16:46:45Z</time>
      </trkpt>
      <trkpt lat="49.33922" lon="1.15954">
        <ele>63</ele>
        <time>2017-01-03T16:47:01Z</time>
      </trkpt>
      <trkpt lat="49.33917" lon="1.15951">
        <ele>63</ele>
        <time>2017-01-03T16:47:01Z</time>
      </trkpt>
      <trkpt lat="49.33912" lon="1.15947">
        <ele>63</ele>
        <time>2017-01-03T16:47:01Z</time>
      </trkpt>
      <trkpt lat="49.33908" lon="1.15944">
        <ele>63</ele>
        <time>2017-01-03T16:47:01Z</time>
      </trkpt>
      <trkpt lat="49.33904" lon="1.1594">
        <ele>63</ele>
        <time>2017-01-03T16:47:17Z</time>
      </trkpt>
      <trkpt lat="49.339" lon="1.15936">
        <ele>63</ele>
        <time>2017-01-03T16:47:17Z</time>
      </trkpt>
      <trkpt lat="49.33895" lon="1.15933">
        <ele>63</ele>
        <time>2017-01-03T16:47:17Z</time>
      </trkpt>
      <trkpt lat="49.33891" lon="1.1593">
        <ele>63</ele>
        <time>2017-01-03T16:47:17Z</time>
      </trkpt>
      <trkpt lat="49.33886" lon="1.15926">
        <ele>63</ele>
        <time>2017-01-03T16:47:33Z</time>
      </trkpt>
      <trkpt lat="49.33882" lon="1.15921">
        <ele>63</ele>
        <time>2017-01-03T16:47:33Z</time>
      </trkpt>
      <trkpt lat="49.33878" lon="1.15917">
        <ele>63</ele>
        <time>2017-01-03T16:47:33Z</time>
      </trkpt>
      <trkpt lat="49.33874" lon="1.15911">
        <ele>62</ele>
        <time>2017-01-03T16:47:33Z</time>
      </trkpt>
      <trkpt lat="49.33872" lon="1.15905">
        <ele>62</ele>
        <time>2017-01-03T16:47:49Z</time>
      </trkpt>
      <trkpt lat="49.33869" lon="1.15899">
        <ele>62</ele>
        <time>2017-01-03T16:47:49Z</time>
      </trkpt>
      <trkpt lat="49.33869" lon="1.15893">
        <ele>62</ele>
        <time>2017-01-03T16:47:49Z</time>
      </trkpt>
      <trkpt lat="49.33868" lon="1.15886">
        <ele>62</ele>
        <time>2017-01-03T16:47:49Z</time>
      </trkpt>
      <trkpt lat="49.33868" lon="1.15877">
        <ele>62</ele>
        <time>2017-01-03T16:48:05Z</time>
      </trkpt>
      <trkpt lat="49.33867" lon="1.1587">
        <ele>62</ele>
        <time>2017-01-03T16:48:05Z</time>
      </trkpt>
      <trkpt lat="49.33867" lon="1.15863">
        <ele>62</ele>
        <time>2017-01-03T16:48:05Z</time>
      </trkpt>
      <trkpt lat="49.33865" lon="1.15857">
        <ele>62</ele>
        <time>2017-01-03T16:48:05Z</time>
      </trkpt>
      <trkpt lat="49.33864" lon="1.1585">
        <ele>62</ele>
        <time>2017-01-03T16:48:21Z</time>
      </trkpt>
      <trkpt lat="49.33864" lon="1.15841">
        <ele>62</ele>
        <time>2017-01-03T16:48:21Z</time>
      </trkpt>
      <trkpt lat="49.33865" lon="1.15833">
        <ele>62</ele>
        <time>2017-01-03T16:48:21Z</time>
      </trkpt>
      <trkpt lat="49.33865" lon="1.15823">
        <ele>62</ele>
        <time>2017-01-03T16:48:21Z</time>
      </trkpt>
      <trkpt lat="49.33863" lon="1.15817">
        <ele>62</ele>
        <time>2017-01-03T16:48:37Z</time>
      </trkpt>
      <trkpt lat="49.3386" lon="1.1581">
        <ele>62</ele>
        <time>2017-01-03T16:48:37Z</time>
      </trkpt>
      <trkpt lat="49.33858" lon="1.15802">
        <ele>62</ele>
        <time>2017-01-03T16:48:37Z</time>
      </trkpt>
      <trkpt lat="49.33855" lon="1.15796">
        <ele>62</ele>
        <time>2017-01-03T16:48:37Z</time>
      </trkpt>
      <trkpt lat="49.33852" lon="1.15791">
        <ele>60</ele>
        <time>2017-01-03T16:48:53Z</time>
      </trkpt>
      <trkpt lat="49.33849" lon="1.15785">
        <ele>60</ele>
        <time>2017-01-03T16:48:53Z</time>
      </trkpt>
      <trkpt lat="49.33847" lon="1.15779">
        <ele>60</ele>
        <time>2017-01-03T16:48:53Z</time>
      </trkpt>
      <trkpt lat="49.33845" lon="1.15773">
        <ele>60</ele>
        <time>2017-01-03T16:48:53Z</time>
      </trkpt>
      <trkpt lat="49.33841" lon="1.15768">
        <ele>60</ele>
        <time>2017-01-03T16:49:09Z</time>
      </trkpt>
      <trkpt lat="49.33837" lon="1.15762">
        <ele>60</ele>
        <time>2017-01-03T16:49:09Z</time>
      </trkpt>
      <trkpt lat="49.33833" lon="1.15758">
        <ele>60</ele>
        <time>2017-01-03T16:49:09Z</time>
      </trkpt>
      <trkpt lat="49.33832" lon="1.15754">
        <ele>60</ele>
        <time>2017-01-03T16:49:09Z</time>
      </trkpt>
      <trkpt lat="49.33827" lon="1.15753">
        <ele>60</ele>
        <time>2017-01-03T16:49:25Z</time>
      </trkpt>
      <trkpt lat="49.33823" lon="1.15751">
        <ele>60</ele>
        <time>2017-01-03T16:49:25Z</time>
      </trkpt>
      <trkpt lat="49.33819" lon="1.15747">
        <ele>60</ele>
        <time>2017-01-03T16:49:25Z</time>
      </trkpt>
      <trkpt lat="49.33816" lon="1.15752">
        <ele>60</ele>
        <time>2017-01-03T16:49:25Z</time>
      </trkpt>
      <trkpt lat="49.33811" lon="1.15753">
        <ele>60</ele>
        <time>2017-01-03T16:49:41Z</time>
      </trkpt>
      <trkpt lat="49.33805" lon="1.15745">
        <ele>60</ele>
        <time>2017-01-03T16:49:41Z</time>
      </trkpt>
      <trkpt lat="49.33801" lon="1.1574">
        <ele>60</ele>
        <time>2017-01-03T16:49:41Z</time>
      </trkpt>
      <trkpt lat="49.33799" lon="1.15736">
        <ele>60</ele>
        <time>2017-01-03T16:49:41Z</time>
      </trkpt>
      <trkpt lat="49.33798" lon="1.15731">
        <ele>60</ele>
        <time>2017-01-03T16:49:57Z</time>
      </trkpt>
      <trkpt lat="49.33795" lon="1.15726">
        <ele>60</ele>
        <time>2017-01-03T16:49:57Z</time>
      </trkpt>
      <trkpt lat="49.33793" lon="1.15719">
        <ele>60</ele>
        <time>2017-01-03T16:49:57Z</time>
      </trkpt>
      <trkpt lat="49.33793" lon="1.15712">
        <ele>60</ele>
        <time>2017-01-03T16:49:57Z</time>
      </trkpt>
      <trkpt lat="49.33792" lon="1.15705">
        <ele>59</ele>
        <time>2017-01-03T16:50:13Z</time>
      </trkpt>
      <trkpt lat="49.33791" lon="1.15696">
        <ele>56</ele>
        <time>2017-01-03T16:50:13Z</time>
      </trkpt>
      <trkpt lat="49.33791" lon="1.1569">
        <ele>56</ele>
        <time>2017-01-03T16:50:13Z</time>
      </trkpt>
      <trkpt lat="49.3379" lon="1.15683">
        <ele>56</ele>
        <time>2017-01-03T16:50:13Z</time>
      </trkpt>
      <trkpt lat="49.33789" lon="1.15675">
        <ele>56</ele>
        <time>2017-01-03T16:50:29Z</time>
      </trkpt>
      <trkpt lat="49.33788" lon="1.15668">
        <ele>56</ele>
        <time>2017-01-03T16:50:29Z</time>
      </trkpt>
      <trkpt lat="49.33787" lon="1.15661">
        <ele>56</ele>
        <time>2017-01-03T16:50:29Z</time>
      </trkpt>
      <trkpt lat="49.33788" lon="1.15654">
        <ele>56</ele>
        <time>2017-01-03T16:50:29Z</time>
      </trkpt>
      <trkpt lat="49.33789" lon="1.15646">
        <ele>56</ele>
        <time>2017-01-03T16:50:45Z</time>
      </trkpt>
      <trkpt lat="49.33789" lon="1.15638">
        <ele>56</ele>
        <time>2017-01-03T16:50:45Z</time>
      </trkpt>
      <trkpt lat="49.33789" lon="1.15631">
        <ele>56</ele>
        <time>2017-01-03T16:50:45Z</time>
      </trkpt>
      <trkpt lat="49.3379" lon="1.15624">
        <ele>58</ele>
        <time>2017-01-03T16:50:45Z</time>
      </trkpt>
      <trkpt lat="49.3379" lon="1.15617">
        <ele>58</ele>
        <time>2017-01-03T16:51:01Z</time>
      </trkpt>
      <trkpt lat="49.33791" lon="1.15609">
        <ele>58</ele>
        <time>2017-01-03T16:51:01Z</time>
      </trkpt>
      <trkpt lat="49.33791" lon="1.15601">
        <ele>58</ele>
        <time>2017-01-03T16:51:01Z</time>
      </trkpt>
      <trkpt lat="49.33792" lon="1.15594">
        <ele>59</ele>
        <time>2017-01-03T16:51:01Z</time>
      </trkpt>
      <trkpt lat="49.33792" lon="1.15587">
        <ele>58</ele>
        <time>2017-01-03T16:51:17Z</time>
      </trkpt>
      <trkpt lat="49.33794" lon="1.15586">
        <ele>59</ele>
        <time>2017-01-03T16:51:17Z</time>
      </trkpt>
      <trkpt lat="49.33794" lon="1.15579">
        <ele>59</ele>
        <time>2017-01-03T16:51:17Z</time>
      </trkpt>
      <trkpt lat="49.33793" lon="1.15572">
        <ele>59</ele>
        <time>2017-01-03T16:51:17Z</time>
      </trkpt>
      <trkpt lat="49.33793" lon="1.15564">
        <ele>59</ele>
        <time>2017-01-03T16:51:33Z</time>
      </trkpt>
      <trkpt lat="49.33792" lon="1.15558">
        <ele>59</ele>
        <time>2017-01-03T16:51:33Z</time>
      </trkpt>
      <trkpt lat="49.33792" lon="1.15552">
        <ele>59</ele>
        <time>2017-01-03T16:51:33Z</time>
      </trkpt>
      <trkpt lat="49.33792" lon="1.15545">
        <ele>59</ele>
        <time>2017-01-03T16:51:33Z</time>
      </trkpt>
      <trkpt lat="49.33792" lon="1.15538">
        <ele>61</ele>
        <time>2017-01-03T16:51:49Z</time>
      </trkpt>
      <trkpt lat="49.33792" lon="1.1553">
        <ele>61</ele>
        <time>2017-01-03T16:51:49Z</time>
      </trkpt>
      <trkpt lat="49.33791" lon="1.15523">
        <ele>61</ele>
        <time>2017-01-03T16:51:49Z</time>
      </trkpt>
      <trkpt lat="49.33791" lon="1.15515">
        <ele>61</ele>
        <time>2017-01-03T16:51:49Z</time>
      </trkpt>
      <trkpt lat="49.33791" lon="1.15509">
        <ele>61</ele>
        <time>2017-01-03T16:52:05Z</time>
      </trkpt>
      <trkpt lat="49.33791" lon="1.15501">
        <ele>61</ele>
        <time>2017-01-03T16:52:05Z</time>
      </trkpt>
      <trkpt lat="49.33791" lon="1.15495">
        <ele>61</ele>
        <time>2017-01-03T16:52:05Z</time>
      </trkpt>
      <trkpt lat="49.33791" lon="1.15488">
        <ele>61</ele>
        <time>2017-01-03T16:52:05Z</time>
      </trkpt>
      <trkpt lat="49.33791" lon="1.15481">
        <ele>61</ele>
        <time>2017-01-03T16:52:21Z</time>
      </trkpt>
      <trkpt lat="49.3379" lon="1.15473">
        <ele>61</ele>
        <time>2017-01-03T16:52:21Z</time>
      </trkpt>
      <trkpt lat="49.33789" lon="1.15466">
        <ele>61</ele>
        <time>2017-01-03T16:52:21Z</time>
      </trkpt>
      <trkpt lat="49.33788" lon="1.15459">
        <ele>61</ele>
        <time>2017-01-03T16:52:21Z</time>
      </trkpt>
      <trkpt lat="49.33787" lon="1.15452">
        <ele>62</ele>
        <time>2017-01-03T16:52:37Z</time>
      </trkpt>
      <trkpt lat="49.33787" lon="1.15446">
        <ele>62</ele>
        <time>2017-01-03T16:52:37Z</time>
      </trkpt>
      <trkpt lat="49.33787" lon="1.15439">
        <ele>62</ele>
        <time>2017-01-03T16:52:37Z</time>
      </trkpt>
      <trkpt lat="49.33787" lon="1.15431">
        <ele>62</ele>
        <time>2017-01-03T16:52:37Z</time>
      </trkpt>
      <trkpt lat="49.33786" lon="1.15423">
        <ele>62</ele>
        <time>2017-01-03T16:52:53Z</time>
      </trkpt>
      <trkpt lat="49.33786" lon="1.15416">
        <ele>62</ele>
        <time>2017-01-03T16:52:53Z</time>
      </trkpt>
      <trkpt lat="49.33786" lon="1.15409">
        <ele>62</ele>
        <time>2017-01-03T16:52:53Z</time>
      </trkpt>
      <trkpt lat="49.33786" lon="1.15401">
        <ele>62</ele>
        <time>2017-01-03T16:52:53Z</time>
      </trkpt>
      <trkpt lat="49.33786" lon="1.15393">
        <ele>62</ele>
        <time>2017-01-03T16:53:09Z</time>
      </trkpt>
      <trkpt lat="49.33786" lon="1.15385">
        <ele>62</ele>
        <time>2017-01-03T16:53:09Z</time>
      </trkpt>
      <trkpt lat="49.33785" lon="1.15378">
        <ele>62</ele>
        <time>2017-01-03T16:53:09Z</time>
      </trkpt>
      <trkpt lat="49.33785" lon="1.15371">
        <ele>61</ele>
        <time>2017-01-03T16:53:09Z</time>
      </trkpt>
      <trkpt lat="49.33785" lon="1.15363">
        <ele>61</ele>
        <time>2017-01-03T16:53:25Z</time>
      </trkpt>
      <trkpt lat="49.33785" lon="1.15356">
        <ele>61</ele>
        <time>2017-01-03T16:53:25Z</time>
      </trkpt>
      <trkpt lat="49.33784" lon="1.15348">
        <ele>61</ele>
        <time>2017-01-03T16:53:25Z</time>
      </trkpt>
      <trkpt lat="49.33783" lon="1.1534">
        <ele>61</ele>
        <time>2017-01-03T16:53:25Z</time>
      </trkpt>
      <trkpt lat="49.33783" lon="1.15332">
        <ele>61</ele>
        <time>2017-01-03T16:53:41Z</time>
      </trkpt>
      <trkpt lat="49.33783" lon="1.15324">
        <ele>61</ele>
        <time>2017-01-03T16:53:41Z</time>
      </trkpt>
      <trkpt lat="49.33782" lon="1.15318">
        <ele>61</ele>
        <time>2017-01-03T16:53:41Z</time>
      </trkpt>
      <trkpt lat="49.33781" lon="1.15309">
        <ele>61</ele>
        <time>2017-01-03T16:53:41Z</time>
      </trkpt>
      <trkpt lat="49.3378" lon="1.15301">
        <ele>61</ele>
        <time>2017-01-03T16:53:57Z</time>
      </trkpt>
      <trkpt lat="49.3378" lon="1.15294">
        <ele>61</ele>
        <time>2017-01-03T16:53:57Z</time>
      </trkpt>
      <trkpt lat="49.33779" lon="1.15287">
        <ele>63</ele>
        <time>2017-01-03T16:53:57Z</time>
      </trkpt>
      <trkpt lat="49.33778" lon="1.1528">
        <ele>63</ele>
        <time>2017-01-03T16:53:57Z</time>
      </trkpt>
      <trkpt lat="49.33777" lon="1.15271">
        <ele>63</ele>
        <time>2017-01-03T16:54:13Z</time>
      </trkpt>
      <trkpt lat="49.33777" lon="1.15265">
        <ele>63</ele>
        <time>2017-01-03T16:54:13Z</time>
      </trkpt>
      <trkpt lat="49.33777" lon="1.15258">
        <ele>63</ele>
        <time>2017-01-03T16:54:13Z</time>
      </trkpt>
      <trkpt lat="49.33776" lon="1.15251">
        <ele>63</ele>
        <time>2017-01-03T16:54:13Z</time>
      </trkpt>
      <trkpt lat="49.33776" lon="1.15245">
        <ele>63</ele>
        <time>2017-01-03T16:54:29Z</time>
      </trkpt>
      <trkpt lat="49.33775" lon="1.15238">
        <ele>63</ele>
        <time>2017-01-03T16:54:29Z</time>
      </trkpt>
      <trkpt lat="49.33775" lon="1.15233">
        <ele>63</ele>
        <time>2017-01-03T16:54:29Z</time>
      </trkpt>
      <trkpt lat="49.33774" lon="1.15226">
        <ele>63</ele>
        <time>2017-01-03T16:54:29Z</time>
      </trkpt>
      <trkpt lat="49.3377" lon="1.15205">
        <ele>66</ele>
        <time>2017-01-03T16:55:53Z</time>
      </trkpt>
      <trkpt lat="49.3377" lon="1.15205">
        <ele>66</ele>
        <time>2017-01-03T16:55:53Z</time>
      </trkpt>
      <trkpt lat="49.3377" lon="1.15204">
        <ele>66</ele>
        <time>2017-01-03T16:55:53Z</time>
      </trkpt>
      <trkpt lat="49.3377" lon="1.15204">
        <ele>66</ele>
        <time>2017-01-03T16:55:53Z</time>
      </trkpt>
      <trkpt lat="49.3377" lon="1.15203">
        <ele>66</ele>
        <time>2017-01-03T16:55:53Z</time>
      </trkpt>
      <trkpt lat="49.3377" lon="1.15195">
        <ele>66</ele>
        <time>2017-01-03T16:56:09Z</time>
      </trkpt>
      <trkpt lat="49.33773" lon="1.15191">
        <ele>66</ele>
        <time>2017-01-03T16:56:09Z</time>
      </trkpt>
      <trkpt lat="49.33774" lon="1.15185">
        <ele>66</ele>
        <time>2017-01-03T16:56:09Z</time>
      </trkpt>
      <trkpt lat="49.33772" lon="1.15178">
        <ele>66</ele>
        <time>2017-01-03T16:56:09Z</time>
      </trkpt>
      <trkpt lat="49.33771" lon="1.15172">
        <ele>66</ele>
        <time>2017-01-03T16:56:25Z</time>
      </trkpt>
      <trkpt lat="49.3377" lon="1.15165">
        <ele>66</ele>
        <time>2017-01-03T16:56:25Z</time>
      </trkpt>
      <trkpt lat="49.3377" lon="1.15159">
        <ele>66</ele>
        <time>2017-01-03T16:56:25Z</time>
      </trkpt>
      <trkpt lat="49.33769" lon="1.15152">
        <ele>66</ele>
        <time>2017-01-03T16:56:25Z</time>
      </trkpt>
      <trkpt lat="49.33769" lon="1.15144">
        <ele>66</ele>
        <time>2017-01-03T16:56:41Z</time>
      </trkpt>
      <trkpt lat="49.33769" lon="1.15138">
        <ele>66</ele>
        <time>2017-01-03T16:56:41Z</time>
      </trkpt>
      <trkpt lat="49.33768" lon="1.15131">
        <ele>66</ele>
        <time>2017-01-03T16:56:41Z</time>
      </trkpt>
      <trkpt lat="49.33769" lon="1.15123">
        <ele>69</ele>
        <time>2017-01-03T16:56:41Z</time>
      </trkpt>
      <trkpt lat="49.33768" lon="1.15115">
        <ele>69</ele>
        <time>2017-01-03T16:56:57Z</time>
      </trkpt>
      <trkpt lat="49.33768" lon="1.15107">
        <ele>69</ele>
        <time>2017-01-03T16:56:57Z</time>
      </trkpt>
      <trkpt lat="49.33768" lon="1.151">
        <ele>69</ele>
        <time>2017-01-03T16:56:57Z</time>
      </trkpt>
      <trkpt lat="49.33767" lon="1.15094">
        <ele>69</ele>
        <time>2017-01-03T16:56:57Z</time>
      </trkpt>
      <trkpt lat="49.33767" lon="1.15086">
        <ele>69</ele>
        <time>2017-01-03T16:57:13Z</time>
      </trkpt>
      <trkpt lat="49.33766" lon="1.15078">
        <ele>69</ele>
        <time>2017-01-03T16:57:13Z</time>
      </trkpt>
      <trkpt lat="49.33766" lon="1.1507">
        <ele>69</ele>
        <time>2017-01-03T16:57:13Z</time>
      </trkpt>
      <trkpt lat="49.33766" lon="1.15063">
        <ele>69</ele>
        <time>2017-01-03T16:57:13Z</time>
      </trkpt>
      <trkpt lat="49.33766" lon="1.15056">
        <ele>69</ele>
        <time>2017-01-03T16:57:29Z</time>
      </trkpt>
      <trkpt lat="49.33766" lon="1.15048">
        <ele>69</ele>
        <time>2017-01-03T16:57:29Z</time>
      </trkpt>
      <trkpt lat="49.33765" lon="1.15041">
        <ele>73</ele>
        <time>2017-01-03T16:57:29Z</time>
      </trkpt>
      <trkpt lat="49.33765" lon="1.15032">
        <ele>73</ele>
        <time>2017-01-03T16:57:29Z</time>
      </trkpt>
      <trkpt lat="49.33765" lon="1.15025">
        <ele>73</ele>
        <time>2017-01-03T16:57:46Z</time>
      </trkpt>
      <trkpt lat="49.33765" lon="1.15017">
        <ele>73</ele>
        <time>2017-01-03T16:57:46Z</time>
      </trkpt>
      <trkpt lat="49.33764" lon="1.15011">
        <ele>73</ele>
        <time>2017-01-03T16:57:46Z</time>
      </trkpt>
      <trkpt lat="49.33764" lon="1.15005">
        <ele>73</ele>
        <time>2017-01-03T16:57:46Z</time>
      </trkpt>
      <trkpt lat="49.33764" lon="1.14997">
        <ele>73</ele>
        <time>2017-01-03T16:58:01Z</time>
      </trkpt>
      <trkpt lat="49.33764" lon="1.14988">
        <ele>73</ele>
        <time>2017-01-03T16:58:01Z</time>
      </trkpt>
      <trkpt lat="49.33763" lon="1.14981">
        <ele>73</ele>
        <time>2017-01-03T16:58:01Z</time>
      </trkpt>
      <trkpt lat="49.33763" lon="1.14974">
        <ele>73</ele>
        <time>2017-01-03T16:58:01Z</time>
      </trkpt>
      <trkpt lat="49.33763" lon="1.14967">
        <ele>73</ele>
        <time>2017-01-03T16:58:17Z</time>
      </trkpt>
      <trkpt lat="49.33762" lon="1.14959">
        <ele>73</ele>
        <time>2017-01-03T16:58:17Z</time>
      </trkpt>
      <trkpt lat="49.33762" lon="1.14951">
        <ele>76</ele>
        <time>2017-01-03T16:58:17Z</time>
      </trkpt>
      <trkpt lat="49.33761" lon="1.14944">
        <ele>76</ele>
        <time>2017-01-03T16:58:17Z</time>
      </trkpt>
      <trkpt lat="49.33761" lon="1.14937">
        <ele>76</ele>
        <time>2017-01-03T16:58:33Z</time>
      </trkpt>
      <trkpt lat="49.33761" lon="1.14929">
        <ele>76</ele>
        <time>2017-01-03T16:58:33Z</time>
      </trkpt>
      <trkpt lat="49.3376" lon="1.14923">
        <ele>76</ele>
        <time>2017-01-03T16:58:33Z</time>
      </trkpt>
      <trkpt lat="49.3376" lon="1.14916">
        <ele>76</ele>
        <time>2017-01-03T16:58:33Z</time>
      </trkpt>
      <trkpt lat="49.3376" lon="1.14909">
        <ele>76</ele>
        <time>2017-01-03T16:58:49Z</time>
      </trkpt>
      <trkpt lat="49.33759" lon="1.14901">
        <ele>76</ele>
        <time>2017-01-03T16:58:49Z</time>
      </trkpt>
      <trkpt lat="49.33759" lon="1.14894">
        <ele>76</ele>
        <time>2017-01-03T16:58:49Z</time>
      </trkpt>
      <trkpt lat="49.33759" lon="1.14886">
        <ele>76</ele>
        <time>2017-01-03T16:58:49Z</time>
      </trkpt>
      <trkpt lat="49.33759" lon="1.14879">
        <ele>76</ele>
        <time>2017-01-03T16:59:05Z</time>
      </trkpt>
      <trkpt lat="49.33759" lon="1.14874">
        <ele>79</ele>
        <time>2017-01-03T16:59:05Z</time>
      </trkpt>
      <trkpt lat="49.33758" lon="1.14866">
        <ele>79</ele>
        <time>2017-01-03T16:59:05Z</time>
      </trkpt>
      <trkpt lat="49.33758" lon="1.14859">
        <ele>79</ele>
        <time>2017-01-03T16:59:05Z</time>
      </trkpt>
      <trkpt lat="49.33758" lon="1.14851">
        <ele>79</ele>
        <time>2017-01-03T16:59:21Z</time>
      </trkpt>
      <trkpt lat="49.33758" lon="1.14846">
        <ele>79</ele>
        <time>2017-01-03T16:59:21Z</time>
      </trkpt>
      <trkpt lat="49.33758" lon="1.14839">
        <ele>79</ele>
        <time>2017-01-03T16:59:21Z</time>
      </trkpt>
      <trkpt lat="49.33758" lon="1.14832">
        <ele>79</ele>
        <time>2017-01-03T16:59:21Z</time>
      </trkpt>
      <trkpt lat="49.33757" lon="1.14826">
        <ele>79</ele>
        <time>2017-01-03T16:59:37Z</time>
      </trkpt>
      <trkpt lat="49.33757" lon="1.14818">
        <ele>79</ele>
        <time>2017-01-03T16:59:37Z</time>
      </trkpt>
      <trkpt lat="49.33757" lon="1.14811">
        <ele>79</ele>
        <time>2017-01-03T16:59:37Z</time>
      </trkpt>
      <trkpt lat="49.33757" lon="1.14804">
        <ele>79</ele>
        <time>2017-01-03T16:59:37Z</time>
      </trkpt>
      <trkpt lat="49.33756" lon="1.14796">
        <ele>79</ele>
        <time>2017-01-03T16:59:53Z</time>
      </trkpt>
      <trkpt lat="49.33756" lon="1.1479">
        <ele>82</ele>
        <time>2017-01-03T16:59:53Z</time>
      </trkpt>
      <trkpt lat="49.33755" lon="1.14785">
        <ele>82</ele>
        <time>2017-01-03T16:59:53Z</time>
      </trkpt>
      <trkpt lat="49.33755" lon="1.14778">
        <ele>82</ele>
        <time>2017-01-03T16:59:53Z</time>
      </trkpt>
      <trkpt lat="49.33756" lon="1.1477">
        <ele>82</ele>
        <time>2017-01-03T17:00:09Z</time>
      </trkpt>
      <trkpt lat="49.33756" lon="1.14762">
        <ele>82</ele>
        <time>2017-01-03T17:00:09Z</time>
      </trkpt>
      <trkpt lat="49.33755" lon="1.14752">
        <ele>82</ele>
        <time>2017-01-03T17:00:09Z</time>
      </trkpt>
      <trkpt lat="49.33756" lon="1.14745">
        <ele>82</ele>
        <time>2017-01-03T17:00:09Z</time>
      </trkpt>
      <trkpt lat="49.33756" lon="1.14738">
        <ele>82</ele>
        <time>2017-01-03T17:00:25Z</time>
      </trkpt>
      <trkpt lat="49.33756" lon="1.1473">
        <ele>82</ele>
        <time>2017-01-03T17:00:25Z</time>
      </trkpt>
      <trkpt lat="49.33757" lon="1.14722">
        <ele>82</ele>
        <time>2017-01-03T17:00:25Z</time>
      </trkpt>
      <trkpt lat="49.33758" lon="1.14714">
        <ele>82</ele>
        <time>2017-01-03T17:00:25Z</time>
      </trkpt>
      <trkpt lat="49.33759" lon="1.14708">
        <ele>82</ele>
        <time>2017-01-03T17:00:41Z</time>
      </trkpt>
      <trkpt lat="49.3376" lon="1.147">
        <ele>82</ele>
        <time>2017-01-03T17:00:41Z</time>
      </trkpt>
      <trkpt lat="49.3376" lon="1.14692">
        <ele>82</ele>
        <time>2017-01-03T17:00:41Z</time>
      </trkpt>
      <trkpt lat="49.33761" lon="1.14684">
        <ele>82</ele>
        <time>2017-01-03T17:00:41Z</time>
      </trkpt>
      <trkpt lat="49.33761" lon="1.14677">
        <ele>82</ele>
        <time>2017-01-03T17:00:57Z</time>
      </trkpt>
      <trkpt lat="49.33763" lon="1.1467">
        <ele>82</ele>
        <time>2017-01-03T17:00:57Z</time>
      </trkpt>
      <trkpt lat="49.33763" lon="1.14663">
        <ele>82</ele>
        <time>2017-01-03T17:00:57Z</time>
      </trkpt>
      <trkpt lat="49.33764" lon="1.14656">
        <ele>82</ele>
        <time>2017-01-03T17:00:57Z</time>
      </trkpt>
      <trkpt lat="49.33764" lon="1.14649">
        <ele>82</ele>
        <time>2017-01-03T17:01:13Z</time>
      </trkpt>
      <trkpt lat="49.33764" lon="1.14642">
        <ele>82</ele>
        <time>2017-01-03T17:01:13Z</time>
      </trkpt>
      <trkpt lat="49.33766" lon="1.14635">
        <ele>82</ele>
        <time>2017-01-03T17:01:13Z</time>
      </trkpt>
      <trkpt lat="49.33766" lon="1.14627">
        <ele>82</ele>
        <time>2017-01-03T17:01:13Z</time>
      </trkpt>
      <trkpt lat="49.33767" lon="1.14622">
        <ele>84</ele>
        <time>2017-01-03T17:01:29Z</time>
      </trkpt>
      <trkpt lat="49.33768" lon="1.14615">
        <ele>84</ele>
        <time>2017-01-03T17:01:29Z</time>
      </trkpt>
      <trkpt lat="49.33769" lon="1.14606">
        <ele>84</ele>
        <time>2017-01-03T17:01:29Z</time>
      </trkpt>
      <trkpt lat="49.33769" lon="1.14599">
        <ele>84</ele>
        <time>2017-01-03T17:01:29Z</time>
      </trkpt>
      <trkpt lat="49.3377" lon="1.14592">
        <ele>84</ele>
        <time>2017-01-03T17:01:45Z</time>
      </trkpt>
      <trkpt lat="49.33771" lon="1.14586">
        <ele>84</ele>
        <time>2017-01-03T17:01:45Z</time>
      </trkpt>
      <trkpt lat="49.33772" lon="1.14579">
        <ele>84</ele>
        <time>2017-01-03T17:01:45Z</time>
      </trkpt>
      <trkpt lat="49.33773" lon="1.14572">
        <ele>84</ele>
        <time>2017-01-03T17:01:45Z</time>
      </trkpt>
      <trkpt lat="49.33775" lon="1.14564">
        <ele>84</ele>
        <time>2017-01-03T17:02:01Z</time>
      </trkpt>
      <trkpt lat="49.33777" lon="1.14557">
        <ele>84</ele>
        <time>2017-01-03T17:02:01Z</time>
      </trkpt>
      <trkpt lat="49.33778" lon="1.14551">
        <ele>84</ele>
        <time>2017-01-03T17:02:01Z</time>
      </trkpt>
      <trkpt lat="49.33779" lon="1.14543">
        <ele>84</ele>
        <time>2017-01-03T17:02:01Z</time>
      </trkpt>
      <trkpt lat="49.33781" lon="1.14535">
        <ele>86</ele>
        <time>2017-01-03T17:02:17Z</time>
      </trkpt>
      <trkpt lat="49.33782" lon="1.14527">
        <ele>86</ele>
        <time>2017-01-03T17:02:17Z</time>
      </trkpt>
      <trkpt lat="49.33784" lon="1.14521">
        <ele>86</ele>
        <time>2017-01-03T17:02:17Z</time>
      </trkpt>
      <trkpt lat="49.33784" lon="1.14514">
        <ele>86</ele>
        <time>2017-01-03T17:02:17Z</time>
      </trkpt>
      <trkpt lat="49.33787" lon="1.14505">
        <ele>86</ele>
        <time>2017-01-03T17:02:33Z</time>
      </trkpt>
      <trkpt lat="49.33787" lon="1.14497">
        <ele>86</ele>
        <time>2017-01-03T17:02:33Z</time>
      </trkpt>
      <trkpt lat="49.33789" lon="1.1449">
        <ele>86</ele>
        <time>2017-01-03T17:02:33Z</time>
      </trkpt>
      <trkpt lat="49.33791" lon="1.14483">
        <ele>86</ele>
        <time>2017-01-03T17:02:33Z</time>
      </trkpt>
      <trkpt lat="49.33792" lon="1.14476">
        <ele>86</ele>
        <time>2017-01-03T17:02:49Z</time>
      </trkpt>
      <trkpt lat="49.33793" lon="1.14469">
        <ele>83</ele>
        <time>2017-01-03T17:02:49Z</time>
      </trkpt>
      <trkpt lat="49.33794" lon="1.14462">
        <ele>83</ele>
        <time>2017-01-03T17:02:49Z</time>
      </trkpt>
      <trkpt lat="49.33797" lon="1.14457">
        <ele>82</ele>
        <time>2017-01-03T17:02:49Z</time>
      </trkpt>
      <trkpt lat="49.33799" lon="1.14451">
        <ele>82</ele>
        <time>2017-01-03T17:03:05Z</time>
      </trkpt>
      <trkpt lat="49.338" lon="1.14445">
        <ele>82</ele>
        <time>2017-01-03T17:03:05Z</time>
      </trkpt>
      <trkpt lat="49.33802" lon="1.14437">
        <ele>82</ele>
        <time>2017-01-03T17:03:05Z</time>
      </trkpt>
      <trkpt lat="49.33804" lon="1.14431">
        <ele>82</ele>
        <time>2017-01-03T17:03:05Z</time>
      </trkpt>
      <trkpt lat="49.33806" lon="1.14424">
        <ele>82</ele>
        <time>2017-01-03T17:03:21Z</time>
      </trkpt>
      <trkpt lat="49.33807" lon="1.14416">
        <ele>82</ele>
        <time>2017-01-03T17:03:21Z</time>
      </trkpt>
      <trkpt lat="49.33809" lon="1.14409">
        <ele>82</ele>
        <time>2017-01-03T17:03:21Z</time>
      </trkpt>
      <trkpt lat="49.3381" lon="1.144">
        <ele>82</ele>
        <time>2017-01-03T17:03:21Z</time>
      </trkpt>
      <trkpt lat="49.33812" lon="1.14394">
        <ele>82</ele>
        <time>2017-01-03T17:03:37Z</time>
      </trkpt>
      <trkpt lat="49.33813" lon="1.14388">
        <ele>82</ele>
        <time>2017-01-03T17:03:37Z</time>
      </trkpt>
      <trkpt lat="49.33814" lon="1.14381">
        <ele>82</ele>
        <time>2017-01-03T17:03:37Z</time>
      </trkpt>
      <trkpt lat="49.33815" lon="1.14373">
        <ele>83</ele>
        <time>2017-01-03T17:03:37Z</time>
      </trkpt>
      <trkpt lat="49.33816" lon="1.14366">
        <ele>83</ele>
        <time>2017-01-03T17:03:53Z</time>
      </trkpt>
      <trkpt lat="49.33817" lon="1.14358">
        <ele>83</ele>
        <time>2017-01-03T17:03:53Z</time>
      </trkpt>
      <trkpt lat="49.33818" lon="1.1435">
        <ele>83</ele>
        <time>2017-01-03T17:03:53Z</time>
      </trkpt>
      <trkpt lat="49.33819" lon="1.14343">
        <ele>83</ele>
        <time>2017-01-03T17:03:53Z</time>
      </trkpt>
      <trkpt lat="49.3382" lon="1.14334">
        <ele>83</ele>
        <time>2017-01-03T17:04:09Z</time>
      </trkpt>
      <trkpt lat="49.33821" lon="1.14325">
        <ele>83</ele>
        <time>2017-01-03T17:04:09Z</time>
      </trkpt>
      <trkpt lat="49.33821" lon="1.14318">
        <ele>83</ele>
        <time>2017-01-03T17:04:09Z</time>
      </trkpt>
      <trkpt lat="49.33822" lon="1.1431">
        <ele>83</ele>
        <time>2017-01-03T17:04:09Z</time>
      </trkpt>
      <trkpt lat="49.33823" lon="1.14303">
        <ele>83</ele>
        <time>2017-01-03T17:04:25Z</time>
      </trkpt>
      <trkpt lat="49.33825" lon="1.14296">
        <ele>83</ele>
        <time>2017-01-03T17:04:25Z</time>
      </trkpt>
      <trkpt lat="49.33825" lon="1.14288">
        <ele>82</ele>
        <time>2017-01-03T17:04:25Z</time>
      </trkpt>
      <trkpt lat="49.33827" lon="1.14281">
        <ele>82</ele>
        <time>2017-01-03T17:04:25Z</time>
      </trkpt>
      <trkpt lat="49.33828" lon="1.14272">
        <ele>82</ele>
        <time>2017-01-03T17:04:41Z</time>
      </trkpt>
      <trkpt lat="49.33829" lon="1.14264">
        <ele>82</ele>
        <time>2017-01-03T17:04:41Z</time>
      </trkpt>
      <trkpt lat="49.3383" lon="1.14258">
        <ele>82</ele>
        <time>2017-01-03T17:04:41Z</time>
      </trkpt>
      <trkpt lat="49.33831" lon="1.1425">
        <ele>82</ele>
        <time>2017-01-03T17:04:41Z</time>
      </trkpt>
      <trkpt lat="49.33832" lon="1.14242">
        <ele>82</ele>
        <time>2017-01-03T17:04:57Z</time>
      </trkpt>
      <trkpt lat="49.33833" lon="1.14236">
        <ele>82</ele>
        <time>2017-01-03T17:04:57Z</time>
      </trkpt>
      <trkpt lat="49.33834" lon="1.14228">
        <ele>82</ele>
        <time>2017-01-03T17:04:57Z</time>
      </trkpt>
      <trkpt lat="49.33835" lon="1.1422">
        <ele>82</ele>
        <time>2017-01-03T17:04:57Z</time>
      </trkpt>
      <trkpt lat="49.33836" lon="1.14213">
        <ele>82</ele>
        <time>2017-01-03T17:05:13Z</time>
      </trkpt>
      <trkpt lat="49.33836" lon="1.14205">
        <ele>82</ele>
        <time>2017-01-03T17:05:13Z</time>
      </trkpt>
      <trkpt lat="49.33838" lon="1.14196">
        <ele>82</ele>
        <time>2017-01-03T17:05:13Z</time>
      </trkpt>
      <trkpt lat="49.33839" lon="1.14188">
        <ele>82</ele>
        <time>2017-01-03T17:05:13Z</time>
      </trkpt>
      <trkpt lat="49.33841" lon="1.14181">
        <ele>82</ele>
        <time>2017-01-03T17:05:29Z</time>
      </trkpt>
      <trkpt lat="49.33842" lon="1.14172">
        <ele>82</ele>
        <time>2017-01-03T17:05:29Z</time>
      </trkpt>
      <trkpt lat="49.33843" lon="1.14165">
        <ele>82</ele>
        <time>2017-01-03T17:05:29Z</time>
      </trkpt>
      <trkpt lat="49.33844" lon="1.14157">
        <ele>82</ele>
        <time>2017-01-03T17:05:29Z</time>
      </trkpt>
      <trkpt lat="49.33845" lon="1.1415">
        <ele>82</ele>
        <time>2017-01-03T17:05:45Z</time>
      </trkpt>
      <trkpt lat="49.33846" lon="1.14143">
        <ele>82</ele>
        <time>2017-01-03T17:05:45Z</time>
      </trkpt>
      <trkpt lat="49.33847" lon="1.14136">
        <ele>82</ele>
        <time>2017-01-03T17:05:45Z</time>
      </trkpt>
      <trkpt lat="49.33848" lon="1.14129">
        <ele>82</ele>
        <time>2017-01-03T17:05:45Z</time>
      </trkpt>
      <trkpt lat="49.33849" lon="1.14121">
        <ele>83</ele>
        <time>2017-01-03T17:06:01Z</time>
      </trkpt>
      <trkpt lat="49.33849" lon="1.14113">
        <ele>83</ele>
        <time>2017-01-03T17:06:01Z</time>
      </trkpt>
      <trkpt lat="49.3385" lon="1.14105">
        <ele>83</ele>
        <time>2017-01-03T17:06:01Z</time>
      </trkpt>
      <trkpt lat="49.33851" lon="1.14097">
        <ele>83</ele>
        <time>2017-01-03T17:06:01Z</time>
      </trkpt>
      <trkpt lat="49.33852" lon="1.14089">
        <ele>83</ele>
        <time>2017-01-03T17:06:17Z</time>
      </trkpt>
      <trkpt lat="49.33852" lon="1.14082">
        <ele>83</ele>
        <time>2017-01-03T17:06:17Z</time>
      </trkpt>
      <trkpt lat="49.33853" lon="1.14076">
        <ele>83</ele>
        <time>2017-01-03T17:06:17Z</time>
      </trkpt>
      <trkpt lat="49.33854" lon="1.14068">
        <ele>83</ele>
        <time>2017-01-03T17:06:17Z</time>
      </trkpt>
      <trkpt lat="49.33855" lon="1.1406">
        <ele>83</ele>
        <time>2017-01-03T17:06:33Z</time>
      </trkpt>
      <trkpt lat="49.33855" lon="1.14053">
        <ele>83</ele>
        <time>2017-01-03T17:06:33Z</time>
      </trkpt>
      <trkpt lat="49.33856" lon="1.14044">
        <ele>83</ele>
        <time>2017-01-03T17:06:33Z</time>
      </trkpt>
      <trkpt lat="49.33856" lon="1.14036">
        <ele>82</ele>
        <time>2017-01-03T17:06:33Z</time>
      </trkpt>
      <trkpt lat="49.33857" lon="1.14029">
        <ele>82</ele>
        <time>2017-01-03T17:06:49Z</time>
      </trkpt>
      <trkpt lat="49.33859" lon="1.1402">
        <ele>82</ele>
        <time>2017-01-03T17:06:49Z</time>
      </trkpt>
      <trkpt lat="49.3386" lon="1.14013">
        <ele>82</ele>
        <time>2017-01-03T17:06:49Z</time>
      </trkpt>
      <trkpt lat="49.3386" lon="1.14005">
        <ele>82</ele>
        <time>2017-01-03T17:06:49Z</time>
      </trkpt>
      <trkpt lat="49.33861" lon="1.13997">
        <ele>82</ele>
        <time>2017-01-03T17:07:05Z</time>
      </trkpt>
      <trkpt lat="49.33862" lon="1.1399">
        <ele>82</ele>
        <time>2017-01-03T17:07:05Z</time>
      </trkpt>
      <trkpt lat="49.33863" lon="1.13983">
        <ele>82</ele>
        <time>2017-01-03T17:07:05Z</time>
      </trkpt>
      <trkpt lat="49.33864" lon="1.13975">
        <ele>82</ele>
        <time>2017-01-03T17:07:05Z</time>
      </trkpt>
      <trkpt lat="49.33865" lon="1.13968">
        <ele>82</ele>
        <time>2017-01-03T17:07:21Z</time>
      </trkpt>
      <trkpt lat="49.33866" lon="1.1396">
        <ele>82</ele>
        <time>2017-01-03T17:07:21Z</time>
      </trkpt>
      <trkpt lat="49.33867" lon="1.13952">
        <ele>80</ele>
        <time>2017-01-03T17:07:21Z</time>
      </trkpt>
      <trkpt lat="49.33868" lon="1.13945">
        <ele>80</ele>
        <time>2017-01-03T17:07:21Z</time>
      </trkpt>
      <trkpt lat="49.33875" lon="1.13948">
        <ele>80</ele>
        <time>2017-01-03T17:07:57Z</time>
      </trkpt>
      <trkpt lat="49.33878" lon="1.13946">
        <ele>81</ele>
        <time>2017-01-03T17:07:57Z</time>
      </trkpt>
      <trkpt lat="49.33884" lon="1.13945">
        <ele>81</ele>
        <time>2017-01-03T17:07:57Z</time>
      </trkpt>
      <trkpt lat="49.33889" lon="1.13942">
        <ele>81</ele>
        <time>2017-01-03T17:07:57Z</time>
      </trkpt>
      <trkpt lat="49.33895" lon="1.1394">
        <ele>81</ele>
        <time>2017-01-03T17:07:57Z</time>
      </trkpt>
      <trkpt lat="49.339" lon="1.13938">
        <ele>81</ele>
        <time>2017-01-03T17:08:13Z</time>
      </trkpt>
      <trkpt lat="49.33904" lon="1.13936">
        <ele>81</ele>
        <time>2017-01-03T17:08:13Z</time>
      </trkpt>
      <trkpt lat="49.33909" lon="1.13933">
        <ele>81</ele>
        <time>2017-01-03T17:08:13Z</time>
      </trkpt>
      <trkpt lat="49.33913" lon="1.13932">
        <ele>81</ele>
        <time>2017-01-03T17:08:13Z</time>
      </trkpt>
      <trkpt lat="49.33918" lon="1.1393">
        <ele>81</ele>
        <time>2017-01-03T17:08:30Z</time>
      </trkpt>
      <trkpt lat="49.33923" lon="1.13927">
        <ele>81</ele>
        <time>2017-01-03T17:08:30Z</time>
      </trkpt>
      <trkpt lat="49.33928" lon="1.13925">
        <ele>81</ele>
        <time>2017-01-03T17:08:30Z</time>
      </trkpt>
      <trkpt lat="49.33933" lon="1.13922">
        <ele>81</ele>
        <time>2017-01-03T17:08:30Z</time>
      </trkpt>
      <trkpt lat="49.33939" lon="1.1392">
        <ele>81</ele>
        <time>2017-01-03T17:08:45Z</time>
      </trkpt>
      <trkpt lat="49.33944" lon="1.13917">
        <ele>81</ele>
        <time>2017-01-03T17:08:45Z</time>
      </trkpt>
      <trkpt lat="49.33948" lon="1.13916">
        <ele>81</ele>
        <time>2017-01-03T17:08:45Z</time>
      </trkpt>
      <trkpt lat="49.33953" lon="1.13914">
        <ele>81</ele>
        <time>2017-01-03T17:08:45Z</time>
      </trkpt>
      <trkpt lat="49.33958" lon="1.13912">
        <ele>81</ele>
        <time>2017-01-03T17:09:01Z</time>
      </trkpt>
      <trkpt lat="49.33962" lon="1.1391">
        <ele>84</ele>
        <time>2017-01-03T17:09:01Z</time>
      </trkpt>
      <trkpt lat="49.33967" lon="1.13908">
        <ele>84</ele>
        <time>2017-01-03T17:09:01Z</time>
      </trkpt>
      <trkpt lat="49.33972" lon="1.13906">
        <ele>84</ele>
        <time>2017-01-03T17:09:01Z</time>
      </trkpt>
      <trkpt lat="49.33977" lon="1.13903">
        <ele>84</ele>
        <time>2017-01-03T17:09:17Z</time>
      </trkpt>
      <trkpt lat="49.33982" lon="1.139">
        <ele>84</ele>
        <time>2017-01-03T17:09:17Z</time>
      </trkpt>
      <trkpt lat="49.33986" lon="1.13899">
        <ele>84</ele>
        <time>2017-01-03T17:09:17Z</time>
      </trkpt>
      <trkpt lat="49.33989" lon="1.13897">
        <ele>84</ele>
        <time>2017-01-03T17:09:17Z</time>
      </trkpt>
      <trkpt lat="49.33994" lon="1.13894">
        <ele>84</ele>
        <time>2017-01-03T17:09:33Z</time>
      </trkpt>
      <trkpt lat="49.34" lon="1.13892">
        <ele>84</ele>
        <time>2017-01-03T17:09:33Z</time>
      </trkpt>
      <trkpt lat="49.34004" lon="1.1389">
        <ele>84</ele>
        <time>2017-01-03T17:09:33Z</time>
      </trkpt>
      <trkpt lat="49.34009" lon="1.13887">
        <ele>84</ele>
        <time>2017-01-03T17:09:33Z</time>
      </trkpt>
      <trkpt lat="49.34013" lon="1.13884">
        <ele>84</ele>
        <time>2017-01-03T17:09:49Z</time>
      </trkpt>
      <trkpt lat="49.34018" lon="1.13881">
        <ele>84</ele>
        <time>2017-01-03T17:09:49Z</time>
      </trkpt>
      <trkpt lat="49.34022" lon="1.1388">
        <ele>84</ele>
        <time>2017-01-03T17:09:49Z</time>
      </trkpt>
      <trkpt lat="49.34026" lon="1.13879">
        <ele>84</ele>
        <time>2017-01-03T17:09:49Z</time>
      </trkpt>
      <trkpt lat="49.3403" lon="1.13876">
        <ele>84</ele>
        <time>2017-01-03T17:10:05Z</time>
      </trkpt>
      <trkpt lat="49.34035" lon="1.13874">
        <ele>83</ele>
        <time>2017-01-03T17:10:05Z</time>
      </trkpt>
      <trkpt lat="49.3404" lon="1.13872">
        <ele>83</ele>
        <time>2017-01-03T17:10:05Z</time>
      </trkpt>
      <trkpt lat="49.34045" lon="1.13869">
        <ele>84</ele>
        <time>2017-01-03T17:10:05Z</time>
      </trkpt>
      <trkpt lat="49.34049" lon="1.13868">
        <ele>84</ele>
        <time>2017-01-03T17:10:21Z</time>
      </trkpt>
      <trkpt lat="49.34053" lon="1.13866">
        <ele>84</ele>
        <time>2017-01-03T17:10:21Z</time>
      </trkpt>
      <trkpt lat="49.34058" lon="1.13864">
        <ele>84</ele>
        <time>2017-01-03T17:10:21Z</time>
      </trkpt>
      <trkpt lat="49.34063" lon="1.13862">
        <ele>84</ele>
        <time>2017-01-03T17:10:21Z</time>
      </trkpt>
      <trkpt lat="49.34068" lon="1.13859">
        <ele>84</ele>
        <time>2017-01-03T17:10:37Z</time>
      </trkpt>
      <trkpt lat="49.34072" lon="1.13857">
        <ele>84</ele>
        <time>2017-01-03T17:10:37Z</time>
      </trkpt>
      <trkpt lat="49.34077" lon="1.13855">
        <ele>84</ele>
        <time>2017-01-03T17:10:37Z</time>
      </trkpt>
      <trkpt lat="49.34082" lon="1.13854">
        <ele>84</ele>
        <time>2017-01-03T17:10:37Z</time>
      </trkpt>
      <trkpt lat="49.34086" lon="1.13851">
        <ele>84</ele>
        <time>2017-01-03T17:10:53Z</time>
      </trkpt>
      <trkpt lat="49.34091" lon="1.13848">
        <ele>84</ele>
        <time>2017-01-03T17:10:53Z</time>
      </trkpt>
      <trkpt lat="49.34095" lon="1.13846">
        <ele>84</ele>
        <time>2017-01-03T17:10:53Z</time>
      </trkpt>
      <trkpt lat="49.34098" lon="1.13844">
        <ele>84</ele>
        <time>2017-01-03T17:10:53Z</time>
      </trkpt>
      <trkpt lat="49.34102" lon="1.13842">
        <ele>84</ele>
        <time>2017-01-03T17:11:09Z</time>
      </trkpt>
      <trkpt lat="49.34107" lon="1.1384">
        <ele>84</ele>
        <time>2017-01-03T17:11:09Z</time>
      </trkpt>
      <trkpt lat="49.34112" lon="1.13837">
        <ele>84</ele>
        <time>2017-01-03T17:11:09Z</time>
      </trkpt>
      <trkpt lat="49.34116" lon="1.13835">
        <ele>84</ele>
        <time>2017-01-03T17:11:09Z</time>
      </trkpt>
      <trkpt lat="49.34123" lon="1.13834">
        <ele>84</ele>
        <time>2017-01-03T17:11:37Z</time>
      </trkpt>
      <trkpt lat="49.34123" lon="1.1383">
        <ele>84</ele>
        <time>2017-01-03T17:11:37Z</time>
      </trkpt>
      <trkpt lat="49.34122" lon="1.13824">
        <ele>84</ele>
        <time>2017-01-03T17:11:37Z</time>
      </trkpt>
      <trkpt lat="49.3412" lon="1.13818">
        <ele>84</ele>
        <time>2017-01-03T17:11:37Z</time>
      </trkpt>
      <trkpt lat="49.34119" lon="1.13812">
        <ele>84</ele>
        <time>2017-01-03T17:11:37Z</time>
      </trkpt>
      <trkpt lat="49.34118" lon="1.13805">
        <ele>84</ele>
        <time>2017-01-03T17:11:53Z</time>
      </trkpt>
      <trkpt lat="49.34116" lon="1.13798">
        <ele>84</ele>
        <time>2017-01-03T17:11:53Z</time>
      </trkpt>
      <trkpt lat="49.34115" lon="1.1379">
        <ele>85</ele>
        <time>2017-01-03T17:11:53Z</time>
      </trkpt>
      <trkpt lat="49.34113" lon="1.13785">
        <ele>85</ele>
        <time>2017-01-03T17:11:53Z</time>
      </trkpt>
      <trkpt lat="49.34111" lon="1.13778">
        <ele>85</ele>
        <time>2017-01-03T17:12:09Z</time>
      </trkpt>
      <trkpt lat="49.3411" lon="1.13772">
        <ele>85</ele>
        <time>2017-01-03T17:12:09Z</time>
      </trkpt>
      <trkpt lat="49.34109" lon="1.13764">
        <ele>85</ele>
        <time>2017-01-03T17:12:09Z</time>
      </trkpt>
      <trkpt lat="49.34107" lon="1.13757">
        <ele>85</ele>
        <time>2017-01-03T17:12:09Z</time>
      </trkpt>
      <trkpt lat="49.34106" lon="1.1375">
        <ele>85</ele>
        <time>2017-01-03T17:12:25Z</time>
      </trkpt>
      <trkpt lat="49.34104" lon="1.13745">
        <ele>85</ele>
        <time>2017-01-03T17:12:25Z</time>
      </trkpt>
      <trkpt lat="49.34102" lon="1.13737">
        <ele>85</ele>
        <time>2017-01-03T17:12:25Z</time>
      </trkpt>
      <trkpt lat="49.34101" lon="1.1373">
        <ele>85</ele>
        <time>2017-01-03T17:12:25Z</time>
      </trkpt>
      <trkpt lat="49.341" lon="1.13725">
        <ele>85</ele>
        <time>2017-01-03T17:12:41Z</time>
      </trkpt>
      <trkpt lat="49.34097" lon="1.13719">
        <ele>85</ele>
        <time>2017-01-03T17:12:41Z</time>
      </trkpt>
      <trkpt lat="49.34096" lon="1.13712">
        <ele>85</ele>
        <time>2017-01-03T17:12:41Z</time>
      </trkpt>
      <trkpt lat="49.34094" lon="1.13705">
        <ele>86</ele>
        <time>2017-01-03T17:12:41Z</time>
      </trkpt>
      <trkpt lat="49.34093" lon="1.13698">
        <ele>86</ele>
        <time>2017-01-03T17:12:57Z</time>
      </trkpt>
      <trkpt lat="49.34091" lon="1.13691">
        <ele>86</ele>
        <time>2017-01-03T17:12:57Z</time>
      </trkpt>
      <trkpt lat="49.34089" lon="1.13685">
        <ele>86</ele>
        <time>2017-01-03T17:12:57Z</time>
      </trkpt>
      <trkpt lat="49.34089" lon="1.13677">
        <ele>86</ele>
        <time>2017-01-03T17:12:57Z</time>
      </trkpt>
      <trkpt lat="49.34086" lon="1.13671">
        <ele>86</ele>
        <time>2017-01-03T17:13:13Z</time>
      </trkpt>
      <trkpt lat="49.34085" lon="1.13664">
        <ele>86</ele>
        <time>2017-01-03T17:13:13Z</time>
      </trkpt>
      <trkpt lat="49.34083" lon="1.13657">
        <ele>86</ele>
        <time>2017-01-03T17:13:13Z</time>
      </trkpt>
      <trkpt lat="49.34082" lon="1.13651">
        <ele>86</ele>
        <time>2017-01-03T17:13:13Z</time>
      </trkpt>
      <trkpt lat="49.34076" lon="1.13636">
        <ele>86</ele>
        <time>2017-01-03T17:13:33Z</time>
      </trkpt>
      <trkpt lat="49.34075" lon="1.13635">
        <ele>86</ele>
        <time>2017-01-03T17:13:33Z</time>
      </trkpt>
      <trkpt lat="49.34073" lon="1.13625">
        <ele>85</ele>
        <time>2017-01-03T17:13:33Z</time>
      </trkpt>
      <trkpt lat="49.34071" lon="1.13619">
        <ele>85</ele>
        <time>2017-01-03T17:13:33Z</time>
      </trkpt>
      <trkpt lat="49.34068" lon="1.13613">
        <ele>85</ele>
        <time>2017-01-03T17:13:49Z</time>
      </trkpt>
      <trkpt lat="49.34065" lon="1.13608">
        <ele>85</ele>
        <time>2017-01-03T17:13:49Z</time>
      </trkpt>
      <trkpt lat="49.34061" lon="1.136">
        <ele>85</ele>
        <time>2017-01-03T17:13:49Z</time>
      </trkpt>
      <trkpt lat="49.34058" lon="1.13595">
        <ele>85</ele>
        <time>2017-01-03T17:13:49Z</time>
      </trkpt>
      <trkpt lat="49.34055" lon="1.1359">
        <ele>85</ele>
        <time>2017-01-03T17:14:05Z</time>
      </trkpt>
      <trkpt lat="49.34052" lon="1.13585">
        <ele>85</ele>
        <time>2017-01-03T17:14:05Z</time>
      </trkpt>
      <trkpt lat="49.34049" lon="1.13579">
        <ele>85</ele>
        <time>2017-01-03T17:14:05Z</time>
      </trkpt>
      <trkpt lat="49.34045" lon="1.13572">
        <ele>85</ele>
        <time>2017-01-03T17:14:05Z</time>
      </trkpt>
      <trkpt lat="49.34042" lon="1.13567">
        <ele>85</ele>
        <time>2017-01-03T17:14:21Z</time>
      </trkpt>
      <trkpt lat="49.34038" lon="1.13562">
        <ele>84</ele>
        <time>2017-01-03T17:14:21Z</time>
      </trkpt>
      <trkpt lat="49.34035" lon="1.13556">
        <ele>84</ele>
        <time>2017-01-03T17:14:21Z</time>
      </trkpt>
      <trkpt lat="49.34032" lon="1.13551">
        <ele>84</ele>
        <time>2017-01-03T17:14:21Z</time>
      </trkpt>
      <trkpt lat="49.34029" lon="1.13547">
        <ele>84</ele>
        <time>2017-01-03T17:14:37Z</time>
      </trkpt>
      <trkpt lat="49.34026" lon="1.13542">
        <ele>84</ele>
        <time>2017-01-03T17:14:37Z</time>
      </trkpt>
      <trkpt lat="49.34023" lon="1.13538">
        <ele>84</ele>
        <time>2017-01-03T17:14:37Z</time>
      </trkpt>
      <trkpt lat="49.34019" lon="1.13533">
        <ele>84</ele>
        <time>2017-01-03T17:14:37Z</time>
      </trkpt>
      <trkpt lat="49.34015" lon="1.13528">
        <ele>84</ele>
        <time>2017-01-03T17:14:53Z</time>
      </trkpt>
      <trkpt lat="49.34013" lon="1.13522">
        <ele>84</ele>
        <time>2017-01-03T17:14:53Z</time>
      </trkpt>
      <trkpt lat="49.34011" lon="1.13516">
        <ele>84</ele>
        <time>2017-01-03T17:14:53Z</time>
      </trkpt>
      <trkpt lat="49.34008" lon="1.1351">
        <ele>84</ele>
        <time>2017-01-03T17:14:53Z</time>
      </trkpt>
      <trkpt lat="49.34005" lon="1.13505">
        <ele>84</ele>
        <time>2017-01-03T17:15:09Z</time>
      </trkpt>
      <trkpt lat="49.34004" lon="1.13499">
        <ele>84</ele>
        <time>2017-01-03T17:15:09Z</time>
      </trkpt>
      <trkpt lat="49.34003" lon="1.13494">
        <ele>84</ele>
        <time>2017-01-03T17:15:09Z</time>
      </trkpt>
      <trkpt lat="49.34001" lon="1.13486">
        <ele>84</ele>
        <time>2017-01-03T17:15:09Z</time>
      </trkpt>
      <trkpt lat="49.34001" lon="1.13478">
        <ele>84</ele>
        <time>2017-01-03T17:15:25Z</time>
      </trkpt>
      <trkpt lat="49.34" lon="1.13471">
        <ele>84</ele>
        <time>2017-01-03T17:15:25Z</time>
      </trkpt>
      <trkpt lat="49.34" lon="1.13464">
        <ele>84</ele>
        <time>2017-01-03T17:15:25Z</time>
      </trkpt>
      <trkpt lat="49.33999" lon="1.13456">
        <ele>85</ele>
        <time>2017-01-03T17:15:25Z</time>
      </trkpt>
      <trkpt lat="49.34" lon="1.1345">
        <ele>85</ele>
        <time>2017-01-03T17:15:41Z</time>
      </trkpt>
      <trkpt lat="49.34004" lon="1.13449">
        <ele>85</ele>
        <time>2017-01-03T17:15:41Z</time>
      </trkpt>
      <trkpt lat="49.34008" lon="1.13448">
        <ele>85</ele>
        <time>2017-01-03T17:15:41Z</time>
      </trkpt>
      <trkpt lat="49.34012" lon="1.13448">
        <ele>85</ele>
        <time>2017-01-03T17:15:41Z</time>
      </trkpt>
      <trkpt lat="49.34018" lon="1.13448">
        <ele>85</ele>
        <time>2017-01-03T17:15:57Z</time>
      </trkpt>
      <trkpt lat="49.34021" lon="1.13448">
        <ele>85</ele>
        <time>2017-01-03T17:15:57Z</time>
      </trkpt>
      <trkpt lat="49.34025" lon="1.13447">
        <ele>85</ele>
        <time>2017-01-03T17:15:57Z</time>
      </trkpt>
      <trkpt lat="49.3403" lon="1.13446">
        <ele>85</ele>
        <time>2017-01-03T17:15:57Z</time>
      </trkpt>
      <trkpt lat="49.34034" lon="1.13446">
        <ele>85</ele>
        <time>2017-01-03T17:16:13Z</time>
      </trkpt>
      <trkpt lat="49.34037" lon="1.13445">
        <ele>85</ele>
        <time>2017-01-03T17:16:13Z</time>
      </trkpt>
      <trkpt lat="49.34042" lon="1.13443">
        <ele>85</ele>
        <time>2017-01-03T17:16:13Z</time>
      </trkpt>
      <trkpt lat="49.34046" lon="1.1344">
        <ele>83</ele>
        <time>2017-01-03T17:16:13Z</time>
      </trkpt>
      <trkpt lat="49.34051" lon="1.13438">
        <ele>83</ele>
        <time>2017-01-03T17:16:29Z</time>
      </trkpt>
      <trkpt lat="49.34055" lon="1.13436">
        <ele>83</ele>
        <time>2017-01-03T17:16:29Z</time>
      </trkpt>
      <trkpt lat="49.34059" lon="1.13432">
        <ele>83</ele>
        <time>2017-01-03T17:16:29Z</time>
      </trkpt>
      <trkpt lat="49.34063" lon="1.13427">
        <ele>83</ele>
        <time>2017-01-03T17:16:29Z</time>
      </trkpt>
      <trkpt lat="49.34066" lon="1.13422">
        <ele>83</ele>
        <time>2017-01-03T17:16:45Z</time>
      </trkpt>
      <trkpt lat="49.3407" lon="1.13417">
        <ele>83</ele>
        <time>2017-01-03T17:16:45Z</time>
      </trkpt>
      <trkpt lat="49.34072" lon="1.13412">
        <ele>83</ele>
        <time>2017-01-03T17:16:45Z</time>
      </trkpt>
      <trkpt lat="49.34075" lon="1.13407">
        <ele>83</ele>
        <time>2017-01-03T17:16:45Z</time>
      </trkpt>
      <trkpt lat="49.34078" lon="1.13401">
        <ele>83</ele>
        <time>2017-01-03T17:17:01Z</time>
      </trkpt>
      <trkpt lat="49.3408" lon="1.13396">
        <ele>83</ele>
        <time>2017-01-03T17:17:01Z</time>
      </trkpt>
      <trkpt lat="49.34082" lon="1.13393">
        <ele>83</ele>
        <time>2017-01-03T17:17:01Z</time>
      </trkpt>
      <trkpt lat="49.34088" lon="1.13393">
        <ele>83</ele>
        <time>2017-01-03T17:17:01Z</time>
      </trkpt>
      <trkpt lat="49.34095" lon="1.13392">
        <ele>83</ele>
        <time>2017-01-03T17:17:17Z</time>
      </trkpt>
      <trkpt lat="49.341" lon="1.13393">
        <ele>83</ele>
        <time>2017-01-03T17:17:17Z</time>
      </trkpt>
      <trkpt lat="49.34104" lon="1.13391">
        <ele>83</ele>
        <time>2017-01-03T17:17:17Z</time>
      </trkpt>
      <trkpt lat="49.34105" lon="1.13384">
        <ele>83</ele>
        <time>2017-01-03T17:17:17Z</time>
      </trkpt>
      <trkpt lat="49.34107" lon="1.13378">
        <ele>83</ele>
        <time>2017-01-03T17:17:33Z</time>
      </trkpt>
      <trkpt lat="49.34109" lon="1.13372">
        <ele>84</ele>
        <time>2017-01-03T17:17:33Z</time>
      </trkpt>
      <trkpt lat="49.34109" lon="1.13366">
        <ele>84</ele>
        <time>2017-01-03T17:17:33Z</time>
      </trkpt>
      <trkpt lat="49.34107" lon="1.13359">
        <ele>84</ele>
        <time>2017-01-03T17:17:33Z</time>
      </trkpt>
      <trkpt lat="49.34108" lon="1.13351">
        <ele>84</ele>
        <time>2017-01-03T17:17:49Z</time>
      </trkpt>
      <trkpt lat="49.34108" lon="1.13344">
        <ele>84</ele>
        <time>2017-01-03T17:17:49Z</time>
      </trkpt>
      <trkpt lat="49.34107" lon="1.13337">
        <ele>84</ele>
        <time>2017-01-03T17:17:49Z</time>
      </trkpt>
      <trkpt lat="49.34106" lon="1.13329">
        <ele>84</ele>
        <time>2017-01-03T17:17:49Z</time>
      </trkpt>
      <trkpt lat="49.34106" lon="1.13322">
        <ele>84</ele>
        <time>2017-01-03T17:18:05Z</time>
      </trkpt>
      <trkpt lat="49.34105" lon="1.13314">
        <ele>84</ele>
        <time>2017-01-03T17:18:05Z</time>
      </trkpt>
      <trkpt lat="49.34104" lon="1.13308">
        <ele>84</ele>
        <time>2017-01-03T17:18:05Z</time>
      </trkpt>
      <trkpt lat="49.34104" lon="1.13302">
        <ele>84</ele>
        <time>2017-01-03T17:18:05Z</time>
      </trkpt>
      <trkpt lat="49.34107" lon="1.13295">
        <ele>84</ele>
        <time>2017-01-03T17:18:21Z</time>
      </trkpt>
      <trkpt lat="49.34108" lon="1.1329">
        <ele>83</ele>
        <time>2017-01-03T17:18:21Z</time>
      </trkpt>
      <trkpt lat="49.34107" lon="1.13283">
        <ele>83</ele>
        <time>2017-01-03T17:18:21Z</time>
      </trkpt>
      <trkpt lat="49.34106" lon="1.13278">
        <ele>83</ele>
        <time>2017-01-03T17:18:21Z</time>
      </trkpt>
      <trkpt lat="49.34106" lon="1.13272">
        <ele>83</ele>
        <time>2017-01-03T17:18:37Z</time>
      </trkpt>
      <trkpt lat="49.34105" lon="1.13266">
        <ele>83</ele>
        <time>2017-01-03T17:18:37Z</time>
      </trkpt>
      <trkpt lat="49.34105" lon="1.13259">
        <ele>83</ele>
        <time>2017-01-03T17:18:37Z</time>
      </trkpt>
      <trkpt lat="49.34104" lon="1.13252">
        <ele>83</ele>
        <time>2017-01-03T17:18:37Z</time>
      </trkpt>
      <trkpt lat="49.34106" lon="1.13245">
        <ele>83</ele>
        <time>2017-01-03T17:18:53Z</time>
      </trkpt>
      <trkpt lat="49.34109" lon="1.1324">
        <ele>83</ele>
        <time>2017-01-03T17:18:53Z</time>
      </trkpt>
      <trkpt lat="49.3411" lon="1.13234">
        <ele>83</ele>
        <time>2017-01-03T17:18:53Z</time>
      </trkpt>
      <trkpt lat="49.34111" lon="1.13228">
        <ele>83</ele>
        <time>2017-01-03T17:18:53Z</time>
      </trkpt>
    </trkseg>
  </trk>
</gpx>